<?xml version="1.0" encoding="UTF-8" standalone="no" ?>
<gpx xmlns="http://www.topografix.com/GPX/1/1" xmlns:xsi="http://www.w3.org/2001/XMLSchema-instance" xsi:schemaLocation="http://www.topografix.com/GPX/1/1 http://www.topografix.com/GPX/1/1/gpx.xsd" version="1.1" creator="VisuGPX - https://www.visugpx.com">
  <metadata>
    <name>vtt st just malmont</name>
  </metadata>
  <trk>
    <name><![CDATA[vtt st just malmont]]></name>
    <trkseg>
      <trkpt lat="45.31581" lon="4.3602">
        <ele>887</ele>
        <time>2021-02-27T08:30:42Z</time>
      </trkpt>
      <trkpt lat="45.31581" lon="4.3602">
        <ele>887</ele>
        <time>2021-02-27T08:30:42Z</time>
      </trkpt>
      <trkpt lat="45.31581" lon="4.36021">
        <ele>887</ele>
        <time>2021-02-27T08:30:42Z</time>
      </trkpt>
      <trkpt lat="45.31572" lon="4.36012">
        <ele>888</ele>
        <time>2021-02-27T08:32:52Z</time>
      </trkpt>
      <trkpt lat="45.31574" lon="4.36011">
        <ele>888</ele>
        <time>2021-02-27T08:32:54Z</time>
      </trkpt>
      <trkpt lat="45.31577" lon="4.36012">
        <ele>889</ele>
        <time>2021-02-27T08:32:56Z</time>
      </trkpt>
      <trkpt lat="45.3158" lon="4.36013">
        <ele>888</ele>
        <time>2021-02-27T08:32:58Z</time>
      </trkpt>
      <trkpt lat="45.31582" lon="4.36016">
        <ele>888</ele>
        <time>2021-02-27T08:33:00Z</time>
      </trkpt>
      <trkpt lat="45.31583" lon="4.36021">
        <ele>889</ele>
        <time>2021-02-27T08:33:03Z</time>
      </trkpt>
      <trkpt lat="45.31582" lon="4.36024">
        <ele>888</ele>
        <time>2021-02-27T08:33:06Z</time>
      </trkpt>
      <trkpt lat="45.31581" lon="4.36021">
        <ele>888</ele>
        <time>2021-02-27T08:33:10Z</time>
      </trkpt>
      <trkpt lat="45.3158" lon="4.36017">
        <ele>889</ele>
        <time>2021-02-27T08:33:25Z</time>
      </trkpt>
      <trkpt lat="45.31579" lon="4.36013">
        <ele>888</ele>
        <time>2021-02-27T08:34:14Z</time>
      </trkpt>
      <trkpt lat="45.31582" lon="4.36013">
        <ele>889</ele>
        <time>2021-02-27T08:34:19Z</time>
      </trkpt>
      <trkpt lat="45.31584" lon="4.36015">
        <ele>888</ele>
        <time>2021-02-27T08:34:21Z</time>
      </trkpt>
      <trkpt lat="45.31587" lon="4.36019">
        <ele>888</ele>
        <time>2021-02-27T08:34:23Z</time>
      </trkpt>
      <trkpt lat="45.31589" lon="4.36022">
        <ele>888</ele>
        <time>2021-02-27T08:34:25Z</time>
      </trkpt>
      <trkpt lat="45.31591" lon="4.36026">
        <ele>888</ele>
        <time>2021-02-27T08:34:27Z</time>
      </trkpt>
      <trkpt lat="45.31594" lon="4.36029">
        <ele>887</ele>
        <time>2021-02-27T08:34:29Z</time>
      </trkpt>
      <trkpt lat="45.31596" lon="4.36032">
        <ele>886</ele>
        <time>2021-02-27T08:34:30Z</time>
      </trkpt>
      <trkpt lat="45.31599" lon="4.36033">
        <ele>886</ele>
        <time>2021-02-27T08:34:31Z</time>
      </trkpt>
      <trkpt lat="45.31602" lon="4.36035">
        <ele>885</ele>
        <time>2021-02-27T08:34:32Z</time>
      </trkpt>
      <trkpt lat="45.31606" lon="4.36035">
        <ele>886</ele>
        <time>2021-02-27T08:34:33Z</time>
      </trkpt>
      <trkpt lat="45.3161" lon="4.36034">
        <ele>884</ele>
        <time>2021-02-27T08:34:34Z</time>
      </trkpt>
      <trkpt lat="45.31616" lon="4.36035">
        <ele>883</ele>
        <time>2021-02-27T08:34:35Z</time>
      </trkpt>
      <trkpt lat="45.31621" lon="4.36035">
        <ele>882</ele>
        <time>2021-02-27T08:34:36Z</time>
      </trkpt>
      <trkpt lat="45.31625" lon="4.36036">
        <ele>882</ele>
        <time>2021-02-27T08:34:37Z</time>
      </trkpt>
      <trkpt lat="45.3163" lon="4.36036">
        <ele>881</ele>
        <time>2021-02-27T08:34:38Z</time>
      </trkpt>
      <trkpt lat="45.31634" lon="4.36037">
        <ele>881</ele>
        <time>2021-02-27T08:34:39Z</time>
      </trkpt>
      <trkpt lat="45.31638" lon="4.36038">
        <ele>881</ele>
        <time>2021-02-27T08:34:41Z</time>
      </trkpt>
      <trkpt lat="45.31641" lon="4.3604">
        <ele>881</ele>
        <time>2021-02-27T08:34:47Z</time>
      </trkpt>
      <trkpt lat="45.31643" lon="4.36045">
        <ele>881</ele>
        <time>2021-02-27T08:34:49Z</time>
      </trkpt>
      <trkpt lat="45.31645" lon="4.36051">
        <ele>881</ele>
        <time>2021-02-27T08:34:51Z</time>
      </trkpt>
      <trkpt lat="45.31645" lon="4.36056">
        <ele>881</ele>
        <time>2021-02-27T08:34:52Z</time>
      </trkpt>
      <trkpt lat="45.31646" lon="4.3606">
        <ele>882</ele>
        <time>2021-02-27T08:34:53Z</time>
      </trkpt>
      <trkpt lat="45.31646" lon="4.36064">
        <ele>882</ele>
        <time>2021-02-27T08:34:54Z</time>
      </trkpt>
      <trkpt lat="45.31647" lon="4.36069">
        <ele>882</ele>
        <time>2021-02-27T08:34:55Z</time>
      </trkpt>
      <trkpt lat="45.31648" lon="4.36073">
        <ele>883</ele>
        <time>2021-02-27T08:34:56Z</time>
      </trkpt>
      <trkpt lat="45.31648" lon="4.36078">
        <ele>883</ele>
        <time>2021-02-27T08:34:57Z</time>
      </trkpt>
      <trkpt lat="45.31649" lon="4.36082">
        <ele>884</ele>
        <time>2021-02-27T08:34:58Z</time>
      </trkpt>
      <trkpt lat="45.3165" lon="4.36086">
        <ele>884</ele>
        <time>2021-02-27T08:34:59Z</time>
      </trkpt>
      <trkpt lat="45.31651" lon="4.3609">
        <ele>884</ele>
        <time>2021-02-27T08:35:00Z</time>
      </trkpt>
      <trkpt lat="45.31652" lon="4.36094">
        <ele>884</ele>
        <time>2021-02-27T08:35:01Z</time>
      </trkpt>
      <trkpt lat="45.31652" lon="4.36099">
        <ele>884</ele>
        <time>2021-02-27T08:35:02Z</time>
      </trkpt>
      <trkpt lat="45.31653" lon="4.36105">
        <ele>884</ele>
        <time>2021-02-27T08:35:04Z</time>
      </trkpt>
      <trkpt lat="45.31653" lon="4.3611">
        <ele>884</ele>
        <time>2021-02-27T08:35:05Z</time>
      </trkpt>
      <trkpt lat="45.31654" lon="4.36114">
        <ele>885</ele>
        <time>2021-02-27T08:35:06Z</time>
      </trkpt>
      <trkpt lat="45.31654" lon="4.36119">
        <ele>885</ele>
        <time>2021-02-27T08:35:07Z</time>
      </trkpt>
      <trkpt lat="45.31655" lon="4.36123">
        <ele>885</ele>
        <time>2021-02-27T08:35:08Z</time>
      </trkpt>
      <trkpt lat="45.31656" lon="4.36127">
        <ele>885</ele>
        <time>2021-02-27T08:35:09Z</time>
      </trkpt>
      <trkpt lat="45.31656" lon="4.36132">
        <ele>885</ele>
        <time>2021-02-27T08:35:10Z</time>
      </trkpt>
      <trkpt lat="45.31657" lon="4.36136">
        <ele>885</ele>
        <time>2021-02-27T08:35:11Z</time>
      </trkpt>
      <trkpt lat="45.31658" lon="4.3614">
        <ele>885</ele>
        <time>2021-02-27T08:35:12Z</time>
      </trkpt>
      <trkpt lat="45.31659" lon="4.36144">
        <ele>885</ele>
        <time>2021-02-27T08:35:13Z</time>
      </trkpt>
      <trkpt lat="45.31659" lon="4.3615">
        <ele>886</ele>
        <time>2021-02-27T08:35:15Z</time>
      </trkpt>
      <trkpt lat="45.31661" lon="4.36155">
        <ele>886</ele>
        <time>2021-02-27T08:35:17Z</time>
      </trkpt>
      <trkpt lat="45.31665" lon="4.36159">
        <ele>886</ele>
        <time>2021-02-27T08:35:19Z</time>
      </trkpt>
      <trkpt lat="45.31668" lon="4.3616">
        <ele>886</ele>
        <time>2021-02-27T08:35:20Z</time>
      </trkpt>
      <trkpt lat="45.31672" lon="4.3616">
        <ele>886</ele>
        <time>2021-02-27T08:35:21Z</time>
      </trkpt>
      <trkpt lat="45.31676" lon="4.3616">
        <ele>886</ele>
        <time>2021-02-27T08:35:22Z</time>
      </trkpt>
      <trkpt lat="45.3168" lon="4.36159">
        <ele>887</ele>
        <time>2021-02-27T08:35:23Z</time>
      </trkpt>
      <trkpt lat="45.31684" lon="4.36159">
        <ele>886</ele>
        <time>2021-02-27T08:35:24Z</time>
      </trkpt>
      <trkpt lat="45.31688" lon="4.36159">
        <ele>887</ele>
        <time>2021-02-27T08:35:25Z</time>
      </trkpt>
      <trkpt lat="45.31692" lon="4.36158">
        <ele>886</ele>
        <time>2021-02-27T08:35:26Z</time>
      </trkpt>
      <trkpt lat="45.31696" lon="4.36157">
        <ele>886</ele>
        <time>2021-02-27T08:35:27Z</time>
      </trkpt>
      <trkpt lat="45.317" lon="4.36157">
        <ele>886</ele>
        <time>2021-02-27T08:35:28Z</time>
      </trkpt>
      <trkpt lat="45.31704" lon="4.36157">
        <ele>886</ele>
        <time>2021-02-27T08:35:29Z</time>
      </trkpt>
      <trkpt lat="45.31708" lon="4.36156">
        <ele>887</ele>
        <time>2021-02-27T08:35:30Z</time>
      </trkpt>
      <trkpt lat="45.31712" lon="4.36156">
        <ele>887</ele>
        <time>2021-02-27T08:35:31Z</time>
      </trkpt>
      <trkpt lat="45.31716" lon="4.36155">
        <ele>887</ele>
        <time>2021-02-27T08:35:32Z</time>
      </trkpt>
      <trkpt lat="45.31719" lon="4.36155">
        <ele>887</ele>
        <time>2021-02-27T08:35:33Z</time>
      </trkpt>
      <trkpt lat="45.31723" lon="4.36155">
        <ele>888</ele>
        <time>2021-02-27T08:35:34Z</time>
      </trkpt>
      <trkpt lat="45.31727" lon="4.36154">
        <ele>887</ele>
        <time>2021-02-27T08:35:35Z</time>
      </trkpt>
      <trkpt lat="45.3173" lon="4.36153">
        <ele>888</ele>
        <time>2021-02-27T08:35:36Z</time>
      </trkpt>
      <trkpt lat="45.31734" lon="4.36153">
        <ele>888</ele>
        <time>2021-02-27T08:35:37Z</time>
      </trkpt>
      <trkpt lat="45.31738" lon="4.36152">
        <ele>888</ele>
        <time>2021-02-27T08:35:38Z</time>
      </trkpt>
      <trkpt lat="45.31742" lon="4.36151">
        <ele>887</ele>
        <time>2021-02-27T08:35:39Z</time>
      </trkpt>
      <trkpt lat="45.31746" lon="4.36149">
        <ele>887</ele>
        <time>2021-02-27T08:35:40Z</time>
      </trkpt>
      <trkpt lat="45.3175" lon="4.36148">
        <ele>887</ele>
        <time>2021-02-27T08:35:41Z</time>
      </trkpt>
      <trkpt lat="45.31754" lon="4.36146">
        <ele>886</ele>
        <time>2021-02-27T08:35:42Z</time>
      </trkpt>
      <trkpt lat="45.31759" lon="4.36144">
        <ele>887</ele>
        <time>2021-02-27T08:35:43Z</time>
      </trkpt>
      <trkpt lat="45.31763" lon="4.36142">
        <ele>887</ele>
        <time>2021-02-27T08:35:44Z</time>
      </trkpt>
      <trkpt lat="45.31767" lon="4.36139">
        <ele>887</ele>
        <time>2021-02-27T08:35:45Z</time>
      </trkpt>
      <trkpt lat="45.31772" lon="4.36136">
        <ele>886</ele>
        <time>2021-02-27T08:35:46Z</time>
      </trkpt>
      <trkpt lat="45.31777" lon="4.36133">
        <ele>885</ele>
        <time>2021-02-27T08:35:47Z</time>
      </trkpt>
      <trkpt lat="45.31782" lon="4.36129">
        <ele>885</ele>
        <time>2021-02-27T08:35:48Z</time>
      </trkpt>
      <trkpt lat="45.31787" lon="4.36126">
        <ele>884</ele>
        <time>2021-02-27T08:35:49Z</time>
      </trkpt>
      <trkpt lat="45.31792" lon="4.36122">
        <ele>885</ele>
        <time>2021-02-27T08:35:50Z</time>
      </trkpt>
      <trkpt lat="45.31797" lon="4.36118">
        <ele>884</ele>
        <time>2021-02-27T08:35:51Z</time>
      </trkpt>
      <trkpt lat="45.31802" lon="4.36113">
        <ele>884</ele>
        <time>2021-02-27T08:35:52Z</time>
      </trkpt>
      <trkpt lat="45.31808" lon="4.36109">
        <ele>883</ele>
        <time>2021-02-27T08:35:53Z</time>
      </trkpt>
      <trkpt lat="45.31814" lon="4.36105">
        <ele>883</ele>
        <time>2021-02-27T08:35:54Z</time>
      </trkpt>
      <trkpt lat="45.3182" lon="4.36102">
        <ele>882</ele>
        <time>2021-02-27T08:35:55Z</time>
      </trkpt>
      <trkpt lat="45.31826" lon="4.36099">
        <ele>882</ele>
        <time>2021-02-27T08:35:56Z</time>
      </trkpt>
      <trkpt lat="45.31832" lon="4.36096">
        <ele>883</ele>
        <time>2021-02-27T08:35:57Z</time>
      </trkpt>
      <trkpt lat="45.31837" lon="4.36093">
        <ele>883</ele>
        <time>2021-02-27T08:35:58Z</time>
      </trkpt>
      <trkpt lat="45.31843" lon="4.36091">
        <ele>882</ele>
        <time>2021-02-27T08:35:59Z</time>
      </trkpt>
      <trkpt lat="45.31848" lon="4.36088">
        <ele>882</ele>
        <time>2021-02-27T08:36:00Z</time>
      </trkpt>
      <trkpt lat="45.31854" lon="4.36086">
        <ele>882</ele>
        <time>2021-02-27T08:36:01Z</time>
      </trkpt>
      <trkpt lat="45.31859" lon="4.36084">
        <ele>882</ele>
        <time>2021-02-27T08:36:02Z</time>
      </trkpt>
      <trkpt lat="45.31864" lon="4.36082">
        <ele>881</ele>
        <time>2021-02-27T08:36:03Z</time>
      </trkpt>
      <trkpt lat="45.31869" lon="4.3608">
        <ele>883</ele>
        <time>2021-02-27T08:36:04Z</time>
      </trkpt>
      <trkpt lat="45.31874" lon="4.36077">
        <ele>883</ele>
        <time>2021-02-27T08:36:05Z</time>
      </trkpt>
      <trkpt lat="45.31879" lon="4.36075">
        <ele>883</ele>
        <time>2021-02-27T08:36:06Z</time>
      </trkpt>
      <trkpt lat="45.31884" lon="4.36073">
        <ele>884</ele>
        <time>2021-02-27T08:36:07Z</time>
      </trkpt>
      <trkpt lat="45.31889" lon="4.3607">
        <ele>884</ele>
        <time>2021-02-27T08:36:08Z</time>
      </trkpt>
      <trkpt lat="45.31893" lon="4.36069">
        <ele>884</ele>
        <time>2021-02-27T08:36:09Z</time>
      </trkpt>
      <trkpt lat="45.31898" lon="4.36067">
        <ele>884</ele>
        <time>2021-02-27T08:36:10Z</time>
      </trkpt>
      <trkpt lat="45.31904" lon="4.36065">
        <ele>884</ele>
        <time>2021-02-27T08:36:11Z</time>
      </trkpt>
      <trkpt lat="45.31909" lon="4.36064">
        <ele>884</ele>
        <time>2021-02-27T08:36:12Z</time>
      </trkpt>
      <trkpt lat="45.31914" lon="4.36063">
        <ele>885</ele>
        <time>2021-02-27T08:36:13Z</time>
      </trkpt>
      <trkpt lat="45.31919" lon="4.36061">
        <ele>884</ele>
        <time>2021-02-27T08:36:14Z</time>
      </trkpt>
      <trkpt lat="45.31924" lon="4.3606">
        <ele>885</ele>
        <time>2021-02-27T08:36:15Z</time>
      </trkpt>
      <trkpt lat="45.31928" lon="4.36059">
        <ele>885</ele>
        <time>2021-02-27T08:36:16Z</time>
      </trkpt>
      <trkpt lat="45.31933" lon="4.36058">
        <ele>885</ele>
        <time>2021-02-27T08:36:17Z</time>
      </trkpt>
      <trkpt lat="45.31937" lon="4.36057">
        <ele>885</ele>
        <time>2021-02-27T08:36:18Z</time>
      </trkpt>
      <trkpt lat="45.31942" lon="4.36056">
        <ele>886</ele>
        <time>2021-02-27T08:36:19Z</time>
      </trkpt>
      <trkpt lat="45.31946" lon="4.36055">
        <ele>886</ele>
        <time>2021-02-27T08:36:20Z</time>
      </trkpt>
      <trkpt lat="45.3195" lon="4.36053">
        <ele>886</ele>
        <time>2021-02-27T08:36:21Z</time>
      </trkpt>
      <trkpt lat="45.31953" lon="4.36052">
        <ele>887</ele>
        <time>2021-02-27T08:36:22Z</time>
      </trkpt>
      <trkpt lat="45.31957" lon="4.36051">
        <ele>887</ele>
        <time>2021-02-27T08:36:23Z</time>
      </trkpt>
      <trkpt lat="45.31961" lon="4.3605">
        <ele>887</ele>
        <time>2021-02-27T08:36:24Z</time>
      </trkpt>
      <trkpt lat="45.31965" lon="4.36049">
        <ele>887</ele>
        <time>2021-02-27T08:36:25Z</time>
      </trkpt>
      <trkpt lat="45.31969" lon="4.36048">
        <ele>888</ele>
        <time>2021-02-27T08:36:26Z</time>
      </trkpt>
      <trkpt lat="45.31973" lon="4.36047">
        <ele>888</ele>
        <time>2021-02-27T08:36:27Z</time>
      </trkpt>
      <trkpt lat="45.31977" lon="4.36046">
        <ele>888</ele>
        <time>2021-02-27T08:36:28Z</time>
      </trkpt>
      <trkpt lat="45.31981" lon="4.36045">
        <ele>888</ele>
        <time>2021-02-27T08:36:29Z</time>
      </trkpt>
      <trkpt lat="45.31985" lon="4.36044">
        <ele>888</ele>
        <time>2021-02-27T08:36:30Z</time>
      </trkpt>
      <trkpt lat="45.31989" lon="4.36043">
        <ele>888</ele>
        <time>2021-02-27T08:36:31Z</time>
      </trkpt>
      <trkpt lat="45.31993" lon="4.36042">
        <ele>888</ele>
        <time>2021-02-27T08:36:32Z</time>
      </trkpt>
      <trkpt lat="45.31997" lon="4.36041">
        <ele>889</ele>
        <time>2021-02-27T08:36:33Z</time>
      </trkpt>
      <trkpt lat="45.32001" lon="4.36039">
        <ele>889</ele>
        <time>2021-02-27T08:36:34Z</time>
      </trkpt>
      <trkpt lat="45.32005" lon="4.36038">
        <ele>889</ele>
        <time>2021-02-27T08:36:35Z</time>
      </trkpt>
      <trkpt lat="45.3201" lon="4.36036">
        <ele>889</ele>
        <time>2021-02-27T08:36:36Z</time>
      </trkpt>
      <trkpt lat="45.32014" lon="4.36035">
        <ele>889</ele>
        <time>2021-02-27T08:36:37Z</time>
      </trkpt>
      <trkpt lat="45.32018" lon="4.36033">
        <ele>889</ele>
        <time>2021-02-27T08:36:38Z</time>
      </trkpt>
      <trkpt lat="45.32022" lon="4.36031">
        <ele>889</ele>
        <time>2021-02-27T08:36:39Z</time>
      </trkpt>
      <trkpt lat="45.32027" lon="4.36029">
        <ele>888</ele>
        <time>2021-02-27T08:36:40Z</time>
      </trkpt>
      <trkpt lat="45.32031" lon="4.36027">
        <ele>888</ele>
        <time>2021-02-27T08:36:41Z</time>
      </trkpt>
      <trkpt lat="45.32036" lon="4.36024">
        <ele>888</ele>
        <time>2021-02-27T08:36:42Z</time>
      </trkpt>
      <trkpt lat="45.3204" lon="4.36022">
        <ele>888</ele>
        <time>2021-02-27T08:36:43Z</time>
      </trkpt>
      <trkpt lat="45.32045" lon="4.36019">
        <ele>889</ele>
        <time>2021-02-27T08:36:44Z</time>
      </trkpt>
      <trkpt lat="45.32049" lon="4.36016">
        <ele>889</ele>
        <time>2021-02-27T08:36:45Z</time>
      </trkpt>
      <trkpt lat="45.32054" lon="4.36014">
        <ele>889</ele>
        <time>2021-02-27T08:36:46Z</time>
      </trkpt>
      <trkpt lat="45.32058" lon="4.36011">
        <ele>889</ele>
        <time>2021-02-27T08:36:47Z</time>
      </trkpt>
      <trkpt lat="45.32062" lon="4.36008">
        <ele>888</ele>
        <time>2021-02-27T08:36:48Z</time>
      </trkpt>
      <trkpt lat="45.32067" lon="4.36005">
        <ele>888</ele>
        <time>2021-02-27T08:36:49Z</time>
      </trkpt>
      <trkpt lat="45.32071" lon="4.36002">
        <ele>888</ele>
        <time>2021-02-27T08:36:50Z</time>
      </trkpt>
      <trkpt lat="45.32076" lon="4.35999">
        <ele>888</ele>
        <time>2021-02-27T08:36:51Z</time>
      </trkpt>
      <trkpt lat="45.3208" lon="4.35996">
        <ele>888</ele>
        <time>2021-02-27T08:36:52Z</time>
      </trkpt>
      <trkpt lat="45.32085" lon="4.35993">
        <ele>888</ele>
        <time>2021-02-27T08:36:53Z</time>
      </trkpt>
      <trkpt lat="45.32089" lon="4.3599">
        <ele>888</ele>
        <time>2021-02-27T08:36:54Z</time>
      </trkpt>
      <trkpt lat="45.32094" lon="4.35987">
        <ele>888</ele>
        <time>2021-02-27T08:36:55Z</time>
      </trkpt>
      <trkpt lat="45.32098" lon="4.35984">
        <ele>888</ele>
        <time>2021-02-27T08:36:56Z</time>
      </trkpt>
      <trkpt lat="45.32102" lon="4.35981">
        <ele>888</ele>
        <time>2021-02-27T08:36:57Z</time>
      </trkpt>
      <trkpt lat="45.32106" lon="4.35978">
        <ele>888</ele>
        <time>2021-02-27T08:36:58Z</time>
      </trkpt>
      <trkpt lat="45.32111" lon="4.35974">
        <ele>888</ele>
        <time>2021-02-27T08:36:59Z</time>
      </trkpt>
      <trkpt lat="45.32115" lon="4.35971">
        <ele>888</ele>
        <time>2021-02-27T08:37:00Z</time>
      </trkpt>
      <trkpt lat="45.32119" lon="4.35968">
        <ele>888</ele>
        <time>2021-02-27T08:37:01Z</time>
      </trkpt>
      <trkpt lat="45.32123" lon="4.35965">
        <ele>887</ele>
        <time>2021-02-27T08:37:02Z</time>
      </trkpt>
      <trkpt lat="45.32128" lon="4.35961">
        <ele>888</ele>
        <time>2021-02-27T08:37:03Z</time>
      </trkpt>
      <trkpt lat="45.32132" lon="4.35958">
        <ele>887</ele>
        <time>2021-02-27T08:37:04Z</time>
      </trkpt>
      <trkpt lat="45.32137" lon="4.35955">
        <ele>888</ele>
        <time>2021-02-27T08:37:05Z</time>
      </trkpt>
      <trkpt lat="45.32141" lon="4.35951">
        <ele>888</ele>
        <time>2021-02-27T08:37:06Z</time>
      </trkpt>
      <trkpt lat="45.32146" lon="4.35947">
        <ele>888</ele>
        <time>2021-02-27T08:37:07Z</time>
      </trkpt>
      <trkpt lat="45.32151" lon="4.35944">
        <ele>888</ele>
        <time>2021-02-27T08:37:08Z</time>
      </trkpt>
      <trkpt lat="45.32156" lon="4.35941">
        <ele>888</ele>
        <time>2021-02-27T08:37:09Z</time>
      </trkpt>
      <trkpt lat="45.3216" lon="4.35937">
        <ele>888</ele>
        <time>2021-02-27T08:37:10Z</time>
      </trkpt>
      <trkpt lat="45.32165" lon="4.35934">
        <ele>887</ele>
        <time>2021-02-27T08:37:11Z</time>
      </trkpt>
      <trkpt lat="45.3217" lon="4.3593">
        <ele>887</ele>
        <time>2021-02-27T08:37:12Z</time>
      </trkpt>
      <trkpt lat="45.32175" lon="4.35926">
        <ele>887</ele>
        <time>2021-02-27T08:37:13Z</time>
      </trkpt>
      <trkpt lat="45.32179" lon="4.35923">
        <ele>887</ele>
        <time>2021-02-27T08:37:14Z</time>
      </trkpt>
      <trkpt lat="45.32184" lon="4.35919">
        <ele>887</ele>
        <time>2021-02-27T08:37:15Z</time>
      </trkpt>
      <trkpt lat="45.32189" lon="4.35916">
        <ele>887</ele>
        <time>2021-02-27T08:37:16Z</time>
      </trkpt>
      <trkpt lat="45.32194" lon="4.35912">
        <ele>887</ele>
        <time>2021-02-27T08:37:17Z</time>
      </trkpt>
      <trkpt lat="45.32199" lon="4.35909">
        <ele>887</ele>
        <time>2021-02-27T08:37:18Z</time>
      </trkpt>
      <trkpt lat="45.32204" lon="4.35906">
        <ele>887</ele>
        <time>2021-02-27T08:37:19Z</time>
      </trkpt>
      <trkpt lat="45.32209" lon="4.35902">
        <ele>887</ele>
        <time>2021-02-27T08:37:20Z</time>
      </trkpt>
      <trkpt lat="45.32214" lon="4.35899">
        <ele>887</ele>
        <time>2021-02-27T08:37:21Z</time>
      </trkpt>
      <trkpt lat="45.32218" lon="4.35896">
        <ele>888</ele>
        <time>2021-02-27T08:37:22Z</time>
      </trkpt>
      <trkpt lat="45.32223" lon="4.35893">
        <ele>888</ele>
        <time>2021-02-27T08:37:23Z</time>
      </trkpt>
      <trkpt lat="45.32228" lon="4.3589">
        <ele>888</ele>
        <time>2021-02-27T08:37:24Z</time>
      </trkpt>
      <trkpt lat="45.32232" lon="4.35887">
        <ele>888</ele>
        <time>2021-02-27T08:37:25Z</time>
      </trkpt>
      <trkpt lat="45.32237" lon="4.35884">
        <ele>888</ele>
        <time>2021-02-27T08:37:26Z</time>
      </trkpt>
      <trkpt lat="45.32241" lon="4.35881">
        <ele>888</ele>
        <time>2021-02-27T08:37:27Z</time>
      </trkpt>
      <trkpt lat="45.32245" lon="4.35877">
        <ele>888</ele>
        <time>2021-02-27T08:37:28Z</time>
      </trkpt>
      <trkpt lat="45.32248" lon="4.35873">
        <ele>888</ele>
        <time>2021-02-27T08:37:29Z</time>
      </trkpt>
      <trkpt lat="45.32252" lon="4.35869">
        <ele>889</ele>
        <time>2021-02-27T08:37:30Z</time>
      </trkpt>
      <trkpt lat="45.32255" lon="4.35865">
        <ele>888</ele>
        <time>2021-02-27T08:37:31Z</time>
      </trkpt>
      <trkpt lat="45.32259" lon="4.3586">
        <ele>888</ele>
        <time>2021-02-27T08:37:32Z</time>
      </trkpt>
      <trkpt lat="45.32262" lon="4.35856">
        <ele>888</ele>
        <time>2021-02-27T08:37:33Z</time>
      </trkpt>
      <trkpt lat="45.32265" lon="4.35851">
        <ele>888</ele>
        <time>2021-02-27T08:37:34Z</time>
      </trkpt>
      <trkpt lat="45.32268" lon="4.35846">
        <ele>889</ele>
        <time>2021-02-27T08:37:35Z</time>
      </trkpt>
      <trkpt lat="45.32271" lon="4.35841">
        <ele>889</ele>
        <time>2021-02-27T08:37:36Z</time>
      </trkpt>
      <trkpt lat="45.32273" lon="4.35836">
        <ele>889</ele>
        <time>2021-02-27T08:37:37Z</time>
      </trkpt>
      <trkpt lat="45.32276" lon="4.35832">
        <ele>890</ele>
        <time>2021-02-27T08:37:38Z</time>
      </trkpt>
      <trkpt lat="45.32278" lon="4.35827">
        <ele>890</ele>
        <time>2021-02-27T08:37:39Z</time>
      </trkpt>
      <trkpt lat="45.3228" lon="4.35822">
        <ele>890</ele>
        <time>2021-02-27T08:37:40Z</time>
      </trkpt>
      <trkpt lat="45.32282" lon="4.35818">
        <ele>890</ele>
        <time>2021-02-27T08:37:41Z</time>
      </trkpt>
      <trkpt lat="45.32284" lon="4.35814">
        <ele>891</ele>
        <time>2021-02-27T08:37:42Z</time>
      </trkpt>
      <trkpt lat="45.32286" lon="4.35809">
        <ele>891</ele>
        <time>2021-02-27T08:37:43Z</time>
      </trkpt>
      <trkpt lat="45.32288" lon="4.35805">
        <ele>892</ele>
        <time>2021-02-27T08:37:44Z</time>
      </trkpt>
      <trkpt lat="45.32291" lon="4.358">
        <ele>892</ele>
        <time>2021-02-27T08:37:45Z</time>
      </trkpt>
      <trkpt lat="45.32292" lon="4.35796">
        <ele>892</ele>
        <time>2021-02-27T08:37:46Z</time>
      </trkpt>
      <trkpt lat="45.32294" lon="4.35792">
        <ele>892</ele>
        <time>2021-02-27T08:37:47Z</time>
      </trkpt>
      <trkpt lat="45.32296" lon="4.35788">
        <ele>892</ele>
        <time>2021-02-27T08:37:48Z</time>
      </trkpt>
      <trkpt lat="45.32298" lon="4.35784">
        <ele>893</ele>
        <time>2021-02-27T08:37:49Z</time>
      </trkpt>
      <trkpt lat="45.323" lon="4.35779">
        <ele>893</ele>
        <time>2021-02-27T08:37:50Z</time>
      </trkpt>
      <trkpt lat="45.32301" lon="4.35775">
        <ele>893</ele>
        <time>2021-02-27T08:37:51Z</time>
      </trkpt>
      <trkpt lat="45.32302" lon="4.35771">
        <ele>893</ele>
        <time>2021-02-27T08:37:52Z</time>
      </trkpt>
      <trkpt lat="45.32303" lon="4.35767">
        <ele>894</ele>
        <time>2021-02-27T08:37:53Z</time>
      </trkpt>
      <trkpt lat="45.32304" lon="4.35763">
        <ele>894</ele>
        <time>2021-02-27T08:37:54Z</time>
      </trkpt>
      <trkpt lat="45.32305" lon="4.35758">
        <ele>894</ele>
        <time>2021-02-27T08:37:55Z</time>
      </trkpt>
      <trkpt lat="45.32306" lon="4.35754">
        <ele>895</ele>
        <time>2021-02-27T08:37:56Z</time>
      </trkpt>
      <trkpt lat="45.32307" lon="4.3575">
        <ele>895</ele>
        <time>2021-02-27T08:37:57Z</time>
      </trkpt>
      <trkpt lat="45.32308" lon="4.35746">
        <ele>895</ele>
        <time>2021-02-27T08:37:58Z</time>
      </trkpt>
      <trkpt lat="45.32309" lon="4.35741">
        <ele>895</ele>
        <time>2021-02-27T08:37:59Z</time>
      </trkpt>
      <trkpt lat="45.3231" lon="4.35737">
        <ele>895</ele>
        <time>2021-02-27T08:38:00Z</time>
      </trkpt>
      <trkpt lat="45.32311" lon="4.35733">
        <ele>895</ele>
        <time>2021-02-27T08:38:01Z</time>
      </trkpt>
      <trkpt lat="45.32312" lon="4.35729">
        <ele>896</ele>
        <time>2021-02-27T08:38:02Z</time>
      </trkpt>
      <trkpt lat="45.32313" lon="4.35724">
        <ele>897</ele>
        <time>2021-02-27T08:38:03Z</time>
      </trkpt>
      <trkpt lat="45.32314" lon="4.3572">
        <ele>896</ele>
        <time>2021-02-27T08:38:04Z</time>
      </trkpt>
      <trkpt lat="45.32315" lon="4.35716">
        <ele>897</ele>
        <time>2021-02-27T08:38:05Z</time>
      </trkpt>
      <trkpt lat="45.32316" lon="4.35711">
        <ele>897</ele>
        <time>2021-02-27T08:38:06Z</time>
      </trkpt>
      <trkpt lat="45.32317" lon="4.35707">
        <ele>897</ele>
        <time>2021-02-27T08:38:07Z</time>
      </trkpt>
      <trkpt lat="45.32318" lon="4.357">
        <ele>898</ele>
        <time>2021-02-27T08:38:09Z</time>
      </trkpt>
      <trkpt lat="45.32319" lon="4.35695">
        <ele>898</ele>
        <time>2021-02-27T08:38:10Z</time>
      </trkpt>
      <trkpt lat="45.3232" lon="4.3569">
        <ele>898</ele>
        <time>2021-02-27T08:38:11Z</time>
      </trkpt>
      <trkpt lat="45.32321" lon="4.35686">
        <ele>898</ele>
        <time>2021-02-27T08:38:12Z</time>
      </trkpt>
      <trkpt lat="45.32322" lon="4.35681">
        <ele>899</ele>
        <time>2021-02-27T08:38:13Z</time>
      </trkpt>
      <trkpt lat="45.32323" lon="4.35676">
        <ele>899</ele>
        <time>2021-02-27T08:38:14Z</time>
      </trkpt>
      <trkpt lat="45.32324" lon="4.35672">
        <ele>899</ele>
        <time>2021-02-27T08:38:15Z</time>
      </trkpt>
      <trkpt lat="45.32325" lon="4.35667">
        <ele>899</ele>
        <time>2021-02-27T08:38:16Z</time>
      </trkpt>
      <trkpt lat="45.32326" lon="4.35663">
        <ele>899</ele>
        <time>2021-02-27T08:38:17Z</time>
      </trkpt>
      <trkpt lat="45.32327" lon="4.35659">
        <ele>899</ele>
        <time>2021-02-27T08:38:18Z</time>
      </trkpt>
      <trkpt lat="45.32328" lon="4.35655">
        <ele>900</ele>
        <time>2021-02-27T08:38:19Z</time>
      </trkpt>
      <trkpt lat="45.32329" lon="4.35651">
        <ele>900</ele>
        <time>2021-02-27T08:38:20Z</time>
      </trkpt>
      <trkpt lat="45.3233" lon="4.35646">
        <ele>900</ele>
        <time>2021-02-27T08:38:21Z</time>
      </trkpt>
      <trkpt lat="45.32331" lon="4.35642">
        <ele>900</ele>
        <time>2021-02-27T08:38:22Z</time>
      </trkpt>
      <trkpt lat="45.32332" lon="4.35638">
        <ele>900</ele>
        <time>2021-02-27T08:38:23Z</time>
      </trkpt>
      <trkpt lat="45.32333" lon="4.35634">
        <ele>900</ele>
        <time>2021-02-27T08:38:24Z</time>
      </trkpt>
      <trkpt lat="45.32334" lon="4.3563">
        <ele>900</ele>
        <time>2021-02-27T08:38:25Z</time>
      </trkpt>
      <trkpt lat="45.32336" lon="4.35626">
        <ele>901</ele>
        <time>2021-02-27T08:38:26Z</time>
      </trkpt>
      <trkpt lat="45.32337" lon="4.35622">
        <ele>900</ele>
        <time>2021-02-27T08:38:27Z</time>
      </trkpt>
      <trkpt lat="45.32338" lon="4.35618">
        <ele>901</ele>
        <time>2021-02-27T08:38:28Z</time>
      </trkpt>
      <trkpt lat="45.3234" lon="4.35615">
        <ele>901</ele>
        <time>2021-02-27T08:38:29Z</time>
      </trkpt>
      <trkpt lat="45.32341" lon="4.35609">
        <ele>902</ele>
        <time>2021-02-27T08:38:31Z</time>
      </trkpt>
      <trkpt lat="45.32342" lon="4.35603">
        <ele>901</ele>
        <time>2021-02-27T08:38:33Z</time>
      </trkpt>
      <trkpt lat="45.3234" lon="4.356">
        <ele>901</ele>
        <time>2021-02-27T08:38:34Z</time>
      </trkpt>
      <trkpt lat="45.32338" lon="4.35597">
        <ele>902</ele>
        <time>2021-02-27T08:38:35Z</time>
      </trkpt>
      <trkpt lat="45.32334" lon="4.35594">
        <ele>903</ele>
        <time>2021-02-27T08:38:37Z</time>
      </trkpt>
      <trkpt lat="45.32331" lon="4.35591">
        <ele>903</ele>
        <time>2021-02-27T08:38:38Z</time>
      </trkpt>
      <trkpt lat="45.32327" lon="4.35587">
        <ele>903</ele>
        <time>2021-02-27T08:38:40Z</time>
      </trkpt>
      <trkpt lat="45.32324" lon="4.35582">
        <ele>903</ele>
        <time>2021-02-27T08:38:42Z</time>
      </trkpt>
      <trkpt lat="45.3232" lon="4.35579">
        <ele>903</ele>
        <time>2021-02-27T08:38:43Z</time>
      </trkpt>
      <trkpt lat="45.32318" lon="4.35575">
        <ele>903</ele>
        <time>2021-02-27T08:38:44Z</time>
      </trkpt>
      <trkpt lat="45.32315" lon="4.35572">
        <ele>904</ele>
        <time>2021-02-27T08:38:45Z</time>
      </trkpt>
      <trkpt lat="45.32312" lon="4.35569">
        <ele>904</ele>
        <time>2021-02-27T08:38:46Z</time>
      </trkpt>
      <trkpt lat="45.32309" lon="4.35566">
        <ele>904</ele>
        <time>2021-02-27T08:38:47Z</time>
      </trkpt>
      <trkpt lat="45.32306" lon="4.35563">
        <ele>904</ele>
        <time>2021-02-27T08:38:48Z</time>
      </trkpt>
      <trkpt lat="45.32304" lon="4.35561">
        <ele>904</ele>
        <time>2021-02-27T08:38:49Z</time>
      </trkpt>
      <trkpt lat="45.32301" lon="4.35559">
        <ele>904</ele>
        <time>2021-02-27T08:38:50Z</time>
      </trkpt>
      <trkpt lat="45.32297" lon="4.35557">
        <ele>904</ele>
        <time>2021-02-27T08:38:51Z</time>
      </trkpt>
      <trkpt lat="45.32294" lon="4.35555">
        <ele>904</ele>
        <time>2021-02-27T08:38:52Z</time>
      </trkpt>
      <trkpt lat="45.32291" lon="4.35554">
        <ele>904</ele>
        <time>2021-02-27T08:38:53Z</time>
      </trkpt>
      <trkpt lat="45.32288" lon="4.35552">
        <ele>904</ele>
        <time>2021-02-27T08:38:54Z</time>
      </trkpt>
      <trkpt lat="45.32285" lon="4.35551">
        <ele>905</ele>
        <time>2021-02-27T08:38:55Z</time>
      </trkpt>
      <trkpt lat="45.32282" lon="4.3555">
        <ele>905</ele>
        <time>2021-02-27T08:38:56Z</time>
      </trkpt>
      <trkpt lat="45.32278" lon="4.35548">
        <ele>905</ele>
        <time>2021-02-27T08:38:58Z</time>
      </trkpt>
      <trkpt lat="45.32274" lon="4.35545">
        <ele>905</ele>
        <time>2021-02-27T08:39:00Z</time>
      </trkpt>
      <trkpt lat="45.3227" lon="4.35543">
        <ele>906</ele>
        <time>2021-02-27T08:39:01Z</time>
      </trkpt>
      <trkpt lat="45.32266" lon="4.35541">
        <ele>906</ele>
        <time>2021-02-27T08:39:03Z</time>
      </trkpt>
      <trkpt lat="45.32261" lon="4.35538">
        <ele>906</ele>
        <time>2021-02-27T08:39:05Z</time>
      </trkpt>
      <trkpt lat="45.32258" lon="4.35536">
        <ele>906</ele>
        <time>2021-02-27T08:39:06Z</time>
      </trkpt>
      <trkpt lat="45.32254" lon="4.35534">
        <ele>907</ele>
        <time>2021-02-27T08:39:07Z</time>
      </trkpt>
      <trkpt lat="45.32251" lon="4.35532">
        <ele>907</ele>
        <time>2021-02-27T08:39:08Z</time>
      </trkpt>
      <trkpt lat="45.32248" lon="4.35531">
        <ele>907</ele>
        <time>2021-02-27T08:39:09Z</time>
      </trkpt>
      <trkpt lat="45.32246" lon="4.35529">
        <ele>907</ele>
        <time>2021-02-27T08:39:10Z</time>
      </trkpt>
      <trkpt lat="45.32243" lon="4.35527">
        <ele>908</ele>
        <time>2021-02-27T08:39:11Z</time>
      </trkpt>
      <trkpt lat="45.3224" lon="4.35525">
        <ele>908</ele>
        <time>2021-02-27T08:39:12Z</time>
      </trkpt>
      <trkpt lat="45.32237" lon="4.35523">
        <ele>908</ele>
        <time>2021-02-27T08:39:13Z</time>
      </trkpt>
      <trkpt lat="45.32235" lon="4.35521">
        <ele>908</ele>
        <time>2021-02-27T08:39:14Z</time>
      </trkpt>
      <trkpt lat="45.32232" lon="4.35519">
        <ele>908</ele>
        <time>2021-02-27T08:39:15Z</time>
      </trkpt>
      <trkpt lat="45.32229" lon="4.35518">
        <ele>908</ele>
        <time>2021-02-27T08:39:16Z</time>
      </trkpt>
      <trkpt lat="45.32225" lon="4.35515">
        <ele>909</ele>
        <time>2021-02-27T08:39:18Z</time>
      </trkpt>
      <trkpt lat="45.32222" lon="4.35512">
        <ele>908</ele>
        <time>2021-02-27T08:39:19Z</time>
      </trkpt>
      <trkpt lat="45.32219" lon="4.3551">
        <ele>909</ele>
        <time>2021-02-27T08:39:20Z</time>
      </trkpt>
      <trkpt lat="45.32216" lon="4.35508">
        <ele>909</ele>
        <time>2021-02-27T08:39:21Z</time>
      </trkpt>
      <trkpt lat="45.32214" lon="4.35506">
        <ele>909</ele>
        <time>2021-02-27T08:39:22Z</time>
      </trkpt>
      <trkpt lat="45.32211" lon="4.35504">
        <ele>909</ele>
        <time>2021-02-27T08:39:23Z</time>
      </trkpt>
      <trkpt lat="45.32208" lon="4.35501">
        <ele>909</ele>
        <time>2021-02-27T08:39:24Z</time>
      </trkpt>
      <trkpt lat="45.32205" lon="4.35499">
        <ele>908</ele>
        <time>2021-02-27T08:39:25Z</time>
      </trkpt>
      <trkpt lat="45.32202" lon="4.35496">
        <ele>908</ele>
        <time>2021-02-27T08:39:26Z</time>
      </trkpt>
      <trkpt lat="45.32199" lon="4.35493">
        <ele>908</ele>
        <time>2021-02-27T08:39:27Z</time>
      </trkpt>
      <trkpt lat="45.32196" lon="4.35491">
        <ele>908</ele>
        <time>2021-02-27T08:39:28Z</time>
      </trkpt>
      <trkpt lat="45.32193" lon="4.35488">
        <ele>907</ele>
        <time>2021-02-27T08:39:29Z</time>
      </trkpt>
      <trkpt lat="45.3219" lon="4.35485">
        <ele>908</ele>
        <time>2021-02-27T08:39:30Z</time>
      </trkpt>
      <trkpt lat="45.32186" lon="4.35482">
        <ele>908</ele>
        <time>2021-02-27T08:39:31Z</time>
      </trkpt>
      <trkpt lat="45.32183" lon="4.35479">
        <ele>908</ele>
        <time>2021-02-27T08:39:32Z</time>
      </trkpt>
      <trkpt lat="45.3218" lon="4.35477">
        <ele>908</ele>
        <time>2021-02-27T08:39:33Z</time>
      </trkpt>
      <trkpt lat="45.32176" lon="4.35474">
        <ele>908</ele>
        <time>2021-02-27T08:39:34Z</time>
      </trkpt>
      <trkpt lat="45.32173" lon="4.35471">
        <ele>907</ele>
        <time>2021-02-27T08:39:35Z</time>
      </trkpt>
      <trkpt lat="45.32169" lon="4.35468">
        <ele>907</ele>
        <time>2021-02-27T08:39:36Z</time>
      </trkpt>
      <trkpt lat="45.32165" lon="4.35465">
        <ele>907</ele>
        <time>2021-02-27T08:39:37Z</time>
      </trkpt>
      <trkpt lat="45.32162" lon="4.35462">
        <ele>907</ele>
        <time>2021-02-27T08:39:38Z</time>
      </trkpt>
      <trkpt lat="45.32159" lon="4.35459">
        <ele>907</ele>
        <time>2021-02-27T08:39:39Z</time>
      </trkpt>
      <trkpt lat="45.32156" lon="4.35457">
        <ele>907</ele>
        <time>2021-02-27T08:39:40Z</time>
      </trkpt>
      <trkpt lat="45.32153" lon="4.35454">
        <ele>906</ele>
        <time>2021-02-27T08:39:41Z</time>
      </trkpt>
      <trkpt lat="45.3215" lon="4.35452">
        <ele>906</ele>
        <time>2021-02-27T08:39:42Z</time>
      </trkpt>
      <trkpt lat="45.32146" lon="4.35449">
        <ele>906</ele>
        <time>2021-02-27T08:39:43Z</time>
      </trkpt>
      <trkpt lat="45.32142" lon="4.35445">
        <ele>905</ele>
        <time>2021-02-27T08:39:44Z</time>
      </trkpt>
      <trkpt lat="45.32138" lon="4.35441">
        <ele>905</ele>
        <time>2021-02-27T08:39:45Z</time>
      </trkpt>
      <trkpt lat="45.32135" lon="4.35437">
        <ele>904</ele>
        <time>2021-02-27T08:39:46Z</time>
      </trkpt>
      <trkpt lat="45.32131" lon="4.35431">
        <ele>905</ele>
        <time>2021-02-27T08:39:47Z</time>
      </trkpt>
      <trkpt lat="45.32129" lon="4.35425">
        <ele>905</ele>
        <time>2021-02-27T08:39:48Z</time>
      </trkpt>
      <trkpt lat="45.32126" lon="4.35419">
        <ele>905</ele>
        <time>2021-02-27T08:39:49Z</time>
      </trkpt>
      <trkpt lat="45.32124" lon="4.35413">
        <ele>904</ele>
        <time>2021-02-27T08:39:50Z</time>
      </trkpt>
      <trkpt lat="45.32122" lon="4.35408">
        <ele>904</ele>
        <time>2021-02-27T08:39:51Z</time>
      </trkpt>
      <trkpt lat="45.3212" lon="4.35402">
        <ele>904</ele>
        <time>2021-02-27T08:39:52Z</time>
      </trkpt>
      <trkpt lat="45.32119" lon="4.35396">
        <ele>904</ele>
        <time>2021-02-27T08:39:53Z</time>
      </trkpt>
      <trkpt lat="45.32117" lon="4.3539">
        <ele>903</ele>
        <time>2021-02-27T08:39:54Z</time>
      </trkpt>
      <trkpt lat="45.32116" lon="4.35383">
        <ele>903</ele>
        <time>2021-02-27T08:39:55Z</time>
      </trkpt>
      <trkpt lat="45.32115" lon="4.35377">
        <ele>903</ele>
        <time>2021-02-27T08:39:56Z</time>
      </trkpt>
      <trkpt lat="45.32114" lon="4.3537">
        <ele>902</ele>
        <time>2021-02-27T08:39:57Z</time>
      </trkpt>
      <trkpt lat="45.32114" lon="4.35362">
        <ele>902</ele>
        <time>2021-02-27T08:39:58Z</time>
      </trkpt>
      <trkpt lat="45.32114" lon="4.35353">
        <ele>901</ele>
        <time>2021-02-27T08:39:59Z</time>
      </trkpt>
      <trkpt lat="45.32115" lon="4.35343">
        <ele>900</ele>
        <time>2021-02-27T08:40:00Z</time>
      </trkpt>
      <trkpt lat="45.32117" lon="4.35332">
        <ele>900</ele>
        <time>2021-02-27T08:40:01Z</time>
      </trkpt>
      <trkpt lat="45.32119" lon="4.35322">
        <ele>899</ele>
        <time>2021-02-27T08:40:02Z</time>
      </trkpt>
      <trkpt lat="45.32121" lon="4.35312">
        <ele>899</ele>
        <time>2021-02-27T08:40:03Z</time>
      </trkpt>
      <trkpt lat="45.32124" lon="4.35302">
        <ele>899</ele>
        <time>2021-02-27T08:40:04Z</time>
      </trkpt>
      <trkpt lat="45.32127" lon="4.35292">
        <ele>898</ele>
        <time>2021-02-27T08:40:05Z</time>
      </trkpt>
      <trkpt lat="45.32129" lon="4.35282">
        <ele>898</ele>
        <time>2021-02-27T08:40:06Z</time>
      </trkpt>
      <trkpt lat="45.32132" lon="4.35271">
        <ele>897</ele>
        <time>2021-02-27T08:40:07Z</time>
      </trkpt>
      <trkpt lat="45.32135" lon="4.35261">
        <ele>897</ele>
        <time>2021-02-27T08:40:08Z</time>
      </trkpt>
      <trkpt lat="45.32138" lon="4.3525">
        <ele>896</ele>
        <time>2021-02-27T08:40:09Z</time>
      </trkpt>
      <trkpt lat="45.32141" lon="4.3524">
        <ele>896</ele>
        <time>2021-02-27T08:40:10Z</time>
      </trkpt>
      <trkpt lat="45.32145" lon="4.35232">
        <ele>896</ele>
        <time>2021-02-27T08:40:11Z</time>
      </trkpt>
      <trkpt lat="45.32148" lon="4.35224">
        <ele>895</ele>
        <time>2021-02-27T08:40:12Z</time>
      </trkpt>
      <trkpt lat="45.32152" lon="4.35217">
        <ele>894</ele>
        <time>2021-02-27T08:40:13Z</time>
      </trkpt>
      <trkpt lat="45.32156" lon="4.3521">
        <ele>894</ele>
        <time>2021-02-27T08:40:14Z</time>
      </trkpt>
      <trkpt lat="45.32159" lon="4.35203">
        <ele>893</ele>
        <time>2021-02-27T08:40:15Z</time>
      </trkpt>
      <trkpt lat="45.32163" lon="4.35195">
        <ele>892</ele>
        <time>2021-02-27T08:40:16Z</time>
      </trkpt>
      <trkpt lat="45.32167" lon="4.35186">
        <ele>891</ele>
        <time>2021-02-27T08:40:17Z</time>
      </trkpt>
      <trkpt lat="45.32171" lon="4.35177">
        <ele>891</ele>
        <time>2021-02-27T08:40:18Z</time>
      </trkpt>
      <trkpt lat="45.32176" lon="4.35171">
        <ele>891</ele>
        <time>2021-02-27T08:40:19Z</time>
      </trkpt>
      <trkpt lat="45.3218" lon="4.35166">
        <ele>890</ele>
        <time>2021-02-27T08:40:20Z</time>
      </trkpt>
      <trkpt lat="45.32185" lon="4.3516">
        <ele>890</ele>
        <time>2021-02-27T08:40:21Z</time>
      </trkpt>
      <trkpt lat="45.3219" lon="4.35154">
        <ele>889</ele>
        <time>2021-02-27T08:40:22Z</time>
      </trkpt>
      <trkpt lat="45.32195" lon="4.35147">
        <ele>889</ele>
        <time>2021-02-27T08:40:23Z</time>
      </trkpt>
      <trkpt lat="45.32199" lon="4.35139">
        <ele>888</ele>
        <time>2021-02-27T08:40:24Z</time>
      </trkpt>
      <trkpt lat="45.32203" lon="4.35131">
        <ele>888</ele>
        <time>2021-02-27T08:40:25Z</time>
      </trkpt>
      <trkpt lat="45.32208" lon="4.35123">
        <ele>888</ele>
        <time>2021-02-27T08:40:26Z</time>
      </trkpt>
      <trkpt lat="45.32212" lon="4.35114">
        <ele>887</ele>
        <time>2021-02-27T08:40:27Z</time>
      </trkpt>
      <trkpt lat="45.32217" lon="4.35106">
        <ele>887</ele>
        <time>2021-02-27T08:40:28Z</time>
      </trkpt>
      <trkpt lat="45.32223" lon="4.35098">
        <ele>887</ele>
        <time>2021-02-27T08:40:29Z</time>
      </trkpt>
      <trkpt lat="45.32227" lon="4.35091">
        <ele>887</ele>
        <time>2021-02-27T08:40:30Z</time>
      </trkpt>
      <trkpt lat="45.32231" lon="4.35084">
        <ele>887</ele>
        <time>2021-02-27T08:40:31Z</time>
      </trkpt>
      <trkpt lat="45.32234" lon="4.35077">
        <ele>887</ele>
        <time>2021-02-27T08:40:32Z</time>
      </trkpt>
      <trkpt lat="45.32238" lon="4.35069">
        <ele>885</ele>
        <time>2021-02-27T08:40:33Z</time>
      </trkpt>
      <trkpt lat="45.32243" lon="4.35063">
        <ele>885</ele>
        <time>2021-02-27T08:40:34Z</time>
      </trkpt>
      <trkpt lat="45.32249" lon="4.35055">
        <ele>884</ele>
        <time>2021-02-27T08:40:35Z</time>
      </trkpt>
      <trkpt lat="45.32254" lon="4.35048">
        <ele>883</ele>
        <time>2021-02-27T08:40:36Z</time>
      </trkpt>
      <trkpt lat="45.3226" lon="4.35042">
        <ele>883</ele>
        <time>2021-02-27T08:40:37Z</time>
      </trkpt>
      <trkpt lat="45.32266" lon="4.35038">
        <ele>883</ele>
        <time>2021-02-27T08:40:38Z</time>
      </trkpt>
      <trkpt lat="45.32273" lon="4.35034">
        <ele>883</ele>
        <time>2021-02-27T08:40:39Z</time>
      </trkpt>
      <trkpt lat="45.32279" lon="4.3503">
        <ele>883</ele>
        <time>2021-02-27T08:40:40Z</time>
      </trkpt>
      <trkpt lat="45.32285" lon="4.35026">
        <ele>883</ele>
        <time>2021-02-27T08:40:41Z</time>
      </trkpt>
      <trkpt lat="45.3229" lon="4.35023">
        <ele>883</ele>
        <time>2021-02-27T08:40:42Z</time>
      </trkpt>
      <trkpt lat="45.32295" lon="4.3502">
        <ele>883</ele>
        <time>2021-02-27T08:40:43Z</time>
      </trkpt>
      <trkpt lat="45.323" lon="4.35017">
        <ele>882</ele>
        <time>2021-02-27T08:40:44Z</time>
      </trkpt>
      <trkpt lat="45.32305" lon="4.35015">
        <ele>882</ele>
        <time>2021-02-27T08:40:45Z</time>
      </trkpt>
      <trkpt lat="45.32311" lon="4.35014">
        <ele>882</ele>
        <time>2021-02-27T08:40:46Z</time>
      </trkpt>
      <trkpt lat="45.32316" lon="4.35014">
        <ele>882</ele>
        <time>2021-02-27T08:40:47Z</time>
      </trkpt>
      <trkpt lat="45.32321" lon="4.35015">
        <ele>883</ele>
        <time>2021-02-27T08:40:48Z</time>
      </trkpt>
      <trkpt lat="45.32326" lon="4.35015">
        <ele>884</ele>
        <time>2021-02-27T08:40:49Z</time>
      </trkpt>
      <trkpt lat="45.32331" lon="4.35016">
        <ele>884</ele>
        <time>2021-02-27T08:40:50Z</time>
      </trkpt>
      <trkpt lat="45.32336" lon="4.35018">
        <ele>884</ele>
        <time>2021-02-27T08:40:51Z</time>
      </trkpt>
      <trkpt lat="45.3234" lon="4.35019">
        <ele>884</ele>
        <time>2021-02-27T08:40:52Z</time>
      </trkpt>
      <trkpt lat="45.32344" lon="4.3502">
        <ele>884</ele>
        <time>2021-02-27T08:40:53Z</time>
      </trkpt>
      <trkpt lat="45.32348" lon="4.35021">
        <ele>885</ele>
        <time>2021-02-27T08:40:54Z</time>
      </trkpt>
      <trkpt lat="45.32352" lon="4.35021">
        <ele>885</ele>
        <time>2021-02-27T08:40:55Z</time>
      </trkpt>
      <trkpt lat="45.32355" lon="4.35023">
        <ele>885</ele>
        <time>2021-02-27T08:40:56Z</time>
      </trkpt>
      <trkpt lat="45.32359" lon="4.35024">
        <ele>886</ele>
        <time>2021-02-27T08:40:57Z</time>
      </trkpt>
      <trkpt lat="45.32363" lon="4.35025">
        <ele>886</ele>
        <time>2021-02-27T08:40:58Z</time>
      </trkpt>
      <trkpt lat="45.32366" lon="4.35025">
        <ele>887</ele>
        <time>2021-02-27T08:40:59Z</time>
      </trkpt>
      <trkpt lat="45.3237" lon="4.35027">
        <ele>887</ele>
        <time>2021-02-27T08:41:01Z</time>
      </trkpt>
      <trkpt lat="45.32375" lon="4.35028">
        <ele>887</ele>
        <time>2021-02-27T08:41:03Z</time>
      </trkpt>
      <trkpt lat="45.32379" lon="4.3503">
        <ele>887</ele>
        <time>2021-02-27T08:41:04Z</time>
      </trkpt>
      <trkpt lat="45.32383" lon="4.35031">
        <ele>887</ele>
        <time>2021-02-27T08:41:05Z</time>
      </trkpt>
      <trkpt lat="45.32386" lon="4.35032">
        <ele>888</ele>
        <time>2021-02-27T08:41:06Z</time>
      </trkpt>
      <trkpt lat="45.3239" lon="4.35033">
        <ele>888</ele>
        <time>2021-02-27T08:41:07Z</time>
      </trkpt>
      <trkpt lat="45.32393" lon="4.35034">
        <ele>888</ele>
        <time>2021-02-27T08:41:08Z</time>
      </trkpt>
      <trkpt lat="45.32396" lon="4.35035">
        <ele>888</ele>
        <time>2021-02-27T08:41:09Z</time>
      </trkpt>
      <trkpt lat="45.324" lon="4.35036">
        <ele>888</ele>
        <time>2021-02-27T08:41:10Z</time>
      </trkpt>
      <trkpt lat="45.32403" lon="4.35037">
        <ele>888</ele>
        <time>2021-02-27T08:41:11Z</time>
      </trkpt>
      <trkpt lat="45.32407" lon="4.35037">
        <ele>888</ele>
        <time>2021-02-27T08:41:12Z</time>
      </trkpt>
      <trkpt lat="45.3241" lon="4.35038">
        <ele>889</ele>
        <time>2021-02-27T08:41:13Z</time>
      </trkpt>
      <trkpt lat="45.32416" lon="4.35038">
        <ele>888</ele>
        <time>2021-02-27T08:41:14Z</time>
      </trkpt>
      <trkpt lat="45.32422" lon="4.35039">
        <ele>888</ele>
        <time>2021-02-27T08:41:15Z</time>
      </trkpt>
      <trkpt lat="45.32427" lon="4.35039">
        <ele>888</ele>
        <time>2021-02-27T08:41:16Z</time>
      </trkpt>
      <trkpt lat="45.32432" lon="4.35039">
        <ele>888</ele>
        <time>2021-02-27T08:41:17Z</time>
      </trkpt>
      <trkpt lat="45.32437" lon="4.35039">
        <ele>888</ele>
        <time>2021-02-27T08:41:18Z</time>
      </trkpt>
      <trkpt lat="45.32442" lon="4.35039">
        <ele>888</ele>
        <time>2021-02-27T08:41:19Z</time>
      </trkpt>
      <trkpt lat="45.32447" lon="4.35038">
        <ele>888</ele>
        <time>2021-02-27T08:41:20Z</time>
      </trkpt>
      <trkpt lat="45.32452" lon="4.35037">
        <ele>888</ele>
        <time>2021-02-27T08:41:21Z</time>
      </trkpt>
      <trkpt lat="45.32457" lon="4.35035">
        <ele>888</ele>
        <time>2021-02-27T08:41:22Z</time>
      </trkpt>
      <trkpt lat="45.32462" lon="4.35033">
        <ele>888</ele>
        <time>2021-02-27T08:41:23Z</time>
      </trkpt>
      <trkpt lat="45.32466" lon="4.35031">
        <ele>887</ele>
        <time>2021-02-27T08:41:24Z</time>
      </trkpt>
      <trkpt lat="45.32471" lon="4.35029">
        <ele>887</ele>
        <time>2021-02-27T08:41:25Z</time>
      </trkpt>
      <trkpt lat="45.32476" lon="4.35027">
        <ele>887</ele>
        <time>2021-02-27T08:41:26Z</time>
      </trkpt>
      <trkpt lat="45.32481" lon="4.35026">
        <ele>887</ele>
        <time>2021-02-27T08:41:27Z</time>
      </trkpt>
      <trkpt lat="45.32485" lon="4.35024">
        <ele>887</ele>
        <time>2021-02-27T08:41:28Z</time>
      </trkpt>
      <trkpt lat="45.32489" lon="4.35023">
        <ele>887</ele>
        <time>2021-02-27T08:41:29Z</time>
      </trkpt>
      <trkpt lat="45.32493" lon="4.35022">
        <ele>887</ele>
        <time>2021-02-27T08:41:30Z</time>
      </trkpt>
      <trkpt lat="45.32497" lon="4.35021">
        <ele>887</ele>
        <time>2021-02-27T08:41:31Z</time>
      </trkpt>
      <trkpt lat="45.325" lon="4.3502">
        <ele>887</ele>
        <time>2021-02-27T08:41:32Z</time>
      </trkpt>
      <trkpt lat="45.32504" lon="4.35019">
        <ele>887</ele>
        <time>2021-02-27T08:41:33Z</time>
      </trkpt>
      <trkpt lat="45.32507" lon="4.35017">
        <ele>888</ele>
        <time>2021-02-27T08:41:34Z</time>
      </trkpt>
      <trkpt lat="45.3251" lon="4.35015">
        <ele>888</ele>
        <time>2021-02-27T08:41:35Z</time>
      </trkpt>
      <trkpt lat="45.32514" lon="4.35011">
        <ele>887</ele>
        <time>2021-02-27T08:41:36Z</time>
      </trkpt>
      <trkpt lat="45.32517" lon="4.35006">
        <ele>888</ele>
        <time>2021-02-27T08:41:37Z</time>
      </trkpt>
      <trkpt lat="45.3252" lon="4.35002">
        <ele>888</ele>
        <time>2021-02-27T08:41:38Z</time>
      </trkpt>
      <trkpt lat="45.32522" lon="4.34997">
        <ele>888</ele>
        <time>2021-02-27T08:41:39Z</time>
      </trkpt>
      <trkpt lat="45.32525" lon="4.34992">
        <ele>889</ele>
        <time>2021-02-27T08:41:40Z</time>
      </trkpt>
      <trkpt lat="45.32528" lon="4.34988">
        <ele>889</ele>
        <time>2021-02-27T08:41:41Z</time>
      </trkpt>
      <trkpt lat="45.3253" lon="4.34984">
        <ele>889</ele>
        <time>2021-02-27T08:41:42Z</time>
      </trkpt>
      <trkpt lat="45.32533" lon="4.3498">
        <ele>889</ele>
        <time>2021-02-27T08:41:43Z</time>
      </trkpt>
      <trkpt lat="45.32535" lon="4.34977">
        <ele>890</ele>
        <time>2021-02-27T08:41:44Z</time>
      </trkpt>
      <trkpt lat="45.32538" lon="4.34974">
        <ele>890</ele>
        <time>2021-02-27T08:41:45Z</time>
      </trkpt>
      <trkpt lat="45.3254" lon="4.3497">
        <ele>890</ele>
        <time>2021-02-27T08:41:46Z</time>
      </trkpt>
      <trkpt lat="45.32543" lon="4.34967">
        <ele>890</ele>
        <time>2021-02-27T08:41:47Z</time>
      </trkpt>
      <trkpt lat="45.32546" lon="4.34964">
        <ele>890</ele>
        <time>2021-02-27T08:41:48Z</time>
      </trkpt>
      <trkpt lat="45.32548" lon="4.34961">
        <ele>890</ele>
        <time>2021-02-27T08:41:49Z</time>
      </trkpt>
      <trkpt lat="45.32551" lon="4.34958">
        <ele>890</ele>
        <time>2021-02-27T08:41:50Z</time>
      </trkpt>
      <trkpt lat="45.32553" lon="4.34956">
        <ele>890</ele>
        <time>2021-02-27T08:41:51Z</time>
      </trkpt>
      <trkpt lat="45.32556" lon="4.34953">
        <ele>890</ele>
        <time>2021-02-27T08:41:52Z</time>
      </trkpt>
      <trkpt lat="45.32559" lon="4.34949">
        <ele>891</ele>
        <time>2021-02-27T08:41:54Z</time>
      </trkpt>
      <trkpt lat="45.32561" lon="4.34945">
        <ele>891</ele>
        <time>2021-02-27T08:41:55Z</time>
      </trkpt>
      <trkpt lat="45.32563" lon="4.34942">
        <ele>891</ele>
        <time>2021-02-27T08:41:56Z</time>
      </trkpt>
      <trkpt lat="45.32566" lon="4.34939">
        <ele>891</ele>
        <time>2021-02-27T08:41:57Z</time>
      </trkpt>
      <trkpt lat="45.32568" lon="4.34937">
        <ele>892</ele>
        <time>2021-02-27T08:41:58Z</time>
      </trkpt>
      <trkpt lat="45.32572" lon="4.34933">
        <ele>892</ele>
        <time>2021-02-27T08:42:00Z</time>
      </trkpt>
      <trkpt lat="45.32575" lon="4.34929">
        <ele>892</ele>
        <time>2021-02-27T08:42:02Z</time>
      </trkpt>
      <trkpt lat="45.32578" lon="4.34925">
        <ele>893</ele>
        <time>2021-02-27T08:42:04Z</time>
      </trkpt>
      <trkpt lat="45.32581" lon="4.34921">
        <ele>894</ele>
        <time>2021-02-27T08:42:06Z</time>
      </trkpt>
      <trkpt lat="45.32584" lon="4.34917">
        <ele>894</ele>
        <time>2021-02-27T08:42:08Z</time>
      </trkpt>
      <trkpt lat="45.32586" lon="4.34914">
        <ele>894</ele>
        <time>2021-02-27T08:42:09Z</time>
      </trkpt>
      <trkpt lat="45.32588" lon="4.34911">
        <ele>894</ele>
        <time>2021-02-27T08:42:10Z</time>
      </trkpt>
      <trkpt lat="45.3259" lon="4.34907">
        <ele>895</ele>
        <time>2021-02-27T08:42:11Z</time>
      </trkpt>
      <trkpt lat="45.32592" lon="4.34904">
        <ele>895</ele>
        <time>2021-02-27T08:42:12Z</time>
      </trkpt>
      <trkpt lat="45.32594" lon="4.34901">
        <ele>895</ele>
        <time>2021-02-27T08:42:13Z</time>
      </trkpt>
      <trkpt lat="45.32596" lon="4.34898">
        <ele>895</ele>
        <time>2021-02-27T08:42:14Z</time>
      </trkpt>
      <trkpt lat="45.32598" lon="4.34892">
        <ele>895</ele>
        <time>2021-02-27T08:42:16Z</time>
      </trkpt>
      <trkpt lat="45.326" lon="4.34888">
        <ele>896</ele>
        <time>2021-02-27T08:42:17Z</time>
      </trkpt>
      <trkpt lat="45.32602" lon="4.34882">
        <ele>896</ele>
        <time>2021-02-27T08:42:19Z</time>
      </trkpt>
      <trkpt lat="45.32603" lon="4.34876">
        <ele>897</ele>
        <time>2021-02-27T08:42:21Z</time>
      </trkpt>
      <trkpt lat="45.32604" lon="4.34872">
        <ele>896</ele>
        <time>2021-02-27T08:42:22Z</time>
      </trkpt>
      <trkpt lat="45.32604" lon="4.34867">
        <ele>897</ele>
        <time>2021-02-27T08:42:23Z</time>
      </trkpt>
      <trkpt lat="45.32604" lon="4.34863">
        <ele>897</ele>
        <time>2021-02-27T08:42:24Z</time>
      </trkpt>
      <trkpt lat="45.32604" lon="4.34858">
        <ele>897</ele>
        <time>2021-02-27T08:42:25Z</time>
      </trkpt>
      <trkpt lat="45.32604" lon="4.34852">
        <ele>897</ele>
        <time>2021-02-27T08:42:27Z</time>
      </trkpt>
      <trkpt lat="45.32604" lon="4.34848">
        <ele>897</ele>
        <time>2021-02-27T08:42:28Z</time>
      </trkpt>
      <trkpt lat="45.32604" lon="4.34843">
        <ele>897</ele>
        <time>2021-02-27T08:42:30Z</time>
      </trkpt>
      <trkpt lat="45.32605" lon="4.34837">
        <ele>897</ele>
        <time>2021-02-27T08:42:32Z</time>
      </trkpt>
      <trkpt lat="45.32605" lon="4.34829">
        <ele>896</ele>
        <time>2021-02-27T08:42:34Z</time>
      </trkpt>
      <trkpt lat="45.32605" lon="4.34823">
        <ele>896</ele>
        <time>2021-02-27T08:42:35Z</time>
      </trkpt>
      <trkpt lat="45.32606" lon="4.34817">
        <ele>895</ele>
        <time>2021-02-27T08:42:36Z</time>
      </trkpt>
      <trkpt lat="45.32606" lon="4.34812">
        <ele>895</ele>
        <time>2021-02-27T08:42:37Z</time>
      </trkpt>
      <trkpt lat="45.32606" lon="4.34806">
        <ele>895</ele>
        <time>2021-02-27T08:42:38Z</time>
      </trkpt>
      <trkpt lat="45.32606" lon="4.34799">
        <ele>894</ele>
        <time>2021-02-27T08:42:39Z</time>
      </trkpt>
      <trkpt lat="45.32604" lon="4.34792">
        <ele>894</ele>
        <time>2021-02-27T08:42:40Z</time>
      </trkpt>
      <trkpt lat="45.32603" lon="4.34784">
        <ele>894</ele>
        <time>2021-02-27T08:42:41Z</time>
      </trkpt>
      <trkpt lat="45.32601" lon="4.34776">
        <ele>893</ele>
        <time>2021-02-27T08:42:42Z</time>
      </trkpt>
      <trkpt lat="45.32599" lon="4.34765">
        <ele>892</ele>
        <time>2021-02-27T08:42:43Z</time>
      </trkpt>
      <trkpt lat="45.32597" lon="4.34756">
        <ele>893</ele>
        <time>2021-02-27T08:42:44Z</time>
      </trkpt>
      <trkpt lat="45.32595" lon="4.34747">
        <ele>892</ele>
        <time>2021-02-27T08:42:45Z</time>
      </trkpt>
      <trkpt lat="45.32594" lon="4.3474">
        <ele>893</ele>
        <time>2021-02-27T08:42:46Z</time>
      </trkpt>
      <trkpt lat="45.32593" lon="4.34733">
        <ele>893</ele>
        <time>2021-02-27T08:42:47Z</time>
      </trkpt>
      <trkpt lat="45.32592" lon="4.34727">
        <ele>892</ele>
        <time>2021-02-27T08:42:48Z</time>
      </trkpt>
      <trkpt lat="45.3259" lon="4.34722">
        <ele>892</ele>
        <time>2021-02-27T08:42:49Z</time>
      </trkpt>
      <trkpt lat="45.32588" lon="4.34717">
        <ele>892</ele>
        <time>2021-02-27T08:42:50Z</time>
      </trkpt>
      <trkpt lat="45.32587" lon="4.34712">
        <ele>893</ele>
        <time>2021-02-27T08:42:51Z</time>
      </trkpt>
      <trkpt lat="45.32586" lon="4.34707">
        <ele>893</ele>
        <time>2021-02-27T08:42:52Z</time>
      </trkpt>
      <trkpt lat="45.32585" lon="4.34702">
        <ele>893</ele>
        <time>2021-02-27T08:42:53Z</time>
      </trkpt>
      <trkpt lat="45.32584" lon="4.34697">
        <ele>893</ele>
        <time>2021-02-27T08:42:54Z</time>
      </trkpt>
      <trkpt lat="45.32583" lon="4.34691">
        <ele>893</ele>
        <time>2021-02-27T08:42:55Z</time>
      </trkpt>
      <trkpt lat="45.32582" lon="4.34686">
        <ele>894</ele>
        <time>2021-02-27T08:42:56Z</time>
      </trkpt>
      <trkpt lat="45.32581" lon="4.34681">
        <ele>894</ele>
        <time>2021-02-27T08:42:57Z</time>
      </trkpt>
      <trkpt lat="45.3258" lon="4.34676">
        <ele>894</ele>
        <time>2021-02-27T08:42:58Z</time>
      </trkpt>
      <trkpt lat="45.32579" lon="4.3467">
        <ele>894</ele>
        <time>2021-02-27T08:42:59Z</time>
      </trkpt>
      <trkpt lat="45.32578" lon="4.34665">
        <ele>894</ele>
        <time>2021-02-27T08:43:00Z</time>
      </trkpt>
      <trkpt lat="45.32577" lon="4.3466">
        <ele>894</ele>
        <time>2021-02-27T08:43:01Z</time>
      </trkpt>
      <trkpt lat="45.32577" lon="4.34653">
        <ele>894</ele>
        <time>2021-02-27T08:43:02Z</time>
      </trkpt>
      <trkpt lat="45.32576" lon="4.34648">
        <ele>894</ele>
        <time>2021-02-27T08:43:03Z</time>
      </trkpt>
      <trkpt lat="45.32576" lon="4.34644">
        <ele>894</ele>
        <time>2021-02-27T08:43:04Z</time>
      </trkpt>
      <trkpt lat="45.32575" lon="4.34638">
        <ele>894</ele>
        <time>2021-02-27T08:43:05Z</time>
      </trkpt>
      <trkpt lat="45.32576" lon="4.34632">
        <ele>894</ele>
        <time>2021-02-27T08:43:06Z</time>
      </trkpt>
      <trkpt lat="45.32576" lon="4.34626">
        <ele>895</ele>
        <time>2021-02-27T08:43:07Z</time>
      </trkpt>
      <trkpt lat="45.32576" lon="4.34621">
        <ele>895</ele>
        <time>2021-02-27T08:43:08Z</time>
      </trkpt>
      <trkpt lat="45.32576" lon="4.34615">
        <ele>895</ele>
        <time>2021-02-27T08:43:09Z</time>
      </trkpt>
      <trkpt lat="45.32577" lon="4.34609">
        <ele>894</ele>
        <time>2021-02-27T08:43:10Z</time>
      </trkpt>
      <trkpt lat="45.32578" lon="4.34603">
        <ele>894</ele>
        <time>2021-02-27T08:43:11Z</time>
      </trkpt>
      <trkpt lat="45.32578" lon="4.34598">
        <ele>894</ele>
        <time>2021-02-27T08:43:12Z</time>
      </trkpt>
      <trkpt lat="45.3258" lon="4.34592">
        <ele>894</ele>
        <time>2021-02-27T08:43:13Z</time>
      </trkpt>
      <trkpt lat="45.32581" lon="4.34586">
        <ele>893</ele>
        <time>2021-02-27T08:43:14Z</time>
      </trkpt>
      <trkpt lat="45.32583" lon="4.3458">
        <ele>893</ele>
        <time>2021-02-27T08:43:15Z</time>
      </trkpt>
      <trkpt lat="45.32584" lon="4.34574">
        <ele>893</ele>
        <time>2021-02-27T08:43:16Z</time>
      </trkpt>
      <trkpt lat="45.32586" lon="4.34569">
        <ele>893</ele>
        <time>2021-02-27T08:43:17Z</time>
      </trkpt>
      <trkpt lat="45.32588" lon="4.34564">
        <ele>893</ele>
        <time>2021-02-27T08:43:18Z</time>
      </trkpt>
      <trkpt lat="45.3259" lon="4.34559">
        <ele>892</ele>
        <time>2021-02-27T08:43:19Z</time>
      </trkpt>
      <trkpt lat="45.32592" lon="4.34554">
        <ele>892</ele>
        <time>2021-02-27T08:43:20Z</time>
      </trkpt>
      <trkpt lat="45.32594" lon="4.34549">
        <ele>892</ele>
        <time>2021-02-27T08:43:21Z</time>
      </trkpt>
      <trkpt lat="45.32595" lon="4.34544">
        <ele>893</ele>
        <time>2021-02-27T08:43:22Z</time>
      </trkpt>
      <trkpt lat="45.32596" lon="4.34539">
        <ele>894</ele>
        <time>2021-02-27T08:43:23Z</time>
      </trkpt>
      <trkpt lat="45.32597" lon="4.34534">
        <ele>893</ele>
        <time>2021-02-27T08:43:24Z</time>
      </trkpt>
      <trkpt lat="45.32598" lon="4.34529">
        <ele>893</ele>
        <time>2021-02-27T08:43:25Z</time>
      </trkpt>
      <trkpt lat="45.32599" lon="4.34525">
        <ele>893</ele>
        <time>2021-02-27T08:43:26Z</time>
      </trkpt>
      <trkpt lat="45.32599" lon="4.3452">
        <ele>893</ele>
        <time>2021-02-27T08:43:28Z</time>
      </trkpt>
      <trkpt lat="45.32598" lon="4.34516">
        <ele>894</ele>
        <time>2021-02-27T08:43:29Z</time>
      </trkpt>
      <trkpt lat="45.32597" lon="4.34512">
        <ele>894</ele>
        <time>2021-02-27T08:43:30Z</time>
      </trkpt>
      <trkpt lat="45.32594" lon="4.34509">
        <ele>894</ele>
        <time>2021-02-27T08:43:31Z</time>
      </trkpt>
      <trkpt lat="45.32591" lon="4.34506">
        <ele>894</ele>
        <time>2021-02-27T08:43:32Z</time>
      </trkpt>
      <trkpt lat="45.32588" lon="4.34502">
        <ele>893</ele>
        <time>2021-02-27T08:43:33Z</time>
      </trkpt>
      <trkpt lat="45.32584" lon="4.34499">
        <ele>893</ele>
        <time>2021-02-27T08:43:34Z</time>
      </trkpt>
      <trkpt lat="45.3258" lon="4.34496">
        <ele>893</ele>
        <time>2021-02-27T08:43:35Z</time>
      </trkpt>
      <trkpt lat="45.32576" lon="4.34492">
        <ele>893</ele>
        <time>2021-02-27T08:43:36Z</time>
      </trkpt>
      <trkpt lat="45.32572" lon="4.34488">
        <ele>894</ele>
        <time>2021-02-27T08:43:37Z</time>
      </trkpt>
      <trkpt lat="45.32568" lon="4.34484">
        <ele>894</ele>
        <time>2021-02-27T08:43:38Z</time>
      </trkpt>
      <trkpt lat="45.32564" lon="4.3448">
        <ele>893</ele>
        <time>2021-02-27T08:43:39Z</time>
      </trkpt>
      <trkpt lat="45.3256" lon="4.34476">
        <ele>894</ele>
        <time>2021-02-27T08:43:40Z</time>
      </trkpt>
      <trkpt lat="45.32556" lon="4.34471">
        <ele>893</ele>
        <time>2021-02-27T08:43:41Z</time>
      </trkpt>
      <trkpt lat="45.32553" lon="4.34467">
        <ele>893</ele>
        <time>2021-02-27T08:43:42Z</time>
      </trkpt>
      <trkpt lat="45.32549" lon="4.34462">
        <ele>893</ele>
        <time>2021-02-27T08:43:43Z</time>
      </trkpt>
      <trkpt lat="45.32546" lon="4.34457">
        <ele>893</ele>
        <time>2021-02-27T08:43:44Z</time>
      </trkpt>
      <trkpt lat="45.32543" lon="4.34453">
        <ele>893</ele>
        <time>2021-02-27T08:43:45Z</time>
      </trkpt>
      <trkpt lat="45.3254" lon="4.34448">
        <ele>893</ele>
        <time>2021-02-27T08:43:46Z</time>
      </trkpt>
      <trkpt lat="45.32538" lon="4.34443">
        <ele>893</ele>
        <time>2021-02-27T08:43:47Z</time>
      </trkpt>
      <trkpt lat="45.32537" lon="4.34438">
        <ele>892</ele>
        <time>2021-02-27T08:43:48Z</time>
      </trkpt>
      <trkpt lat="45.32538" lon="4.34432">
        <ele>893</ele>
        <time>2021-02-27T08:43:49Z</time>
      </trkpt>
      <trkpt lat="45.32539" lon="4.34426">
        <ele>893</ele>
        <time>2021-02-27T08:43:50Z</time>
      </trkpt>
      <trkpt lat="45.32542" lon="4.3442">
        <ele>892</ele>
        <time>2021-02-27T08:43:51Z</time>
      </trkpt>
      <trkpt lat="45.32544" lon="4.34415">
        <ele>893</ele>
        <time>2021-02-27T08:43:52Z</time>
      </trkpt>
      <trkpt lat="45.32547" lon="4.34409">
        <ele>893</ele>
        <time>2021-02-27T08:43:53Z</time>
      </trkpt>
      <trkpt lat="45.32549" lon="4.34404">
        <ele>893</ele>
        <time>2021-02-27T08:43:54Z</time>
      </trkpt>
      <trkpt lat="45.32551" lon="4.34399">
        <ele>892</ele>
        <time>2021-02-27T08:43:55Z</time>
      </trkpt>
      <trkpt lat="45.32554" lon="4.34393">
        <ele>892</ele>
        <time>2021-02-27T08:43:56Z</time>
      </trkpt>
      <trkpt lat="45.32556" lon="4.34388">
        <ele>892</ele>
        <time>2021-02-27T08:43:57Z</time>
      </trkpt>
      <trkpt lat="45.32559" lon="4.34383">
        <ele>891</ele>
        <time>2021-02-27T08:43:58Z</time>
      </trkpt>
      <trkpt lat="45.32561" lon="4.34377">
        <ele>891</ele>
        <time>2021-02-27T08:43:59Z</time>
      </trkpt>
      <trkpt lat="45.32564" lon="4.34372">
        <ele>891</ele>
        <time>2021-02-27T08:44:00Z</time>
      </trkpt>
      <trkpt lat="45.32566" lon="4.34366">
        <ele>891</ele>
        <time>2021-02-27T08:44:01Z</time>
      </trkpt>
      <trkpt lat="45.32569" lon="4.34361">
        <ele>891</ele>
        <time>2021-02-27T08:44:02Z</time>
      </trkpt>
      <trkpt lat="45.32571" lon="4.34355">
        <ele>891</ele>
        <time>2021-02-27T08:44:03Z</time>
      </trkpt>
      <trkpt lat="45.32573" lon="4.34349">
        <ele>891</ele>
        <time>2021-02-27T08:44:04Z</time>
      </trkpt>
      <trkpt lat="45.32576" lon="4.34343">
        <ele>891</ele>
        <time>2021-02-27T08:44:05Z</time>
      </trkpt>
      <trkpt lat="45.32578" lon="4.34337">
        <ele>891</ele>
        <time>2021-02-27T08:44:06Z</time>
      </trkpt>
      <trkpt lat="45.3258" lon="4.3433">
        <ele>890</ele>
        <time>2021-02-27T08:44:07Z</time>
      </trkpt>
      <trkpt lat="45.32582" lon="4.34324">
        <ele>891</ele>
        <time>2021-02-27T08:44:08Z</time>
      </trkpt>
      <trkpt lat="45.32584" lon="4.34317">
        <ele>891</ele>
        <time>2021-02-27T08:44:09Z</time>
      </trkpt>
      <trkpt lat="45.32585" lon="4.3431">
        <ele>891</ele>
        <time>2021-02-27T08:44:10Z</time>
      </trkpt>
      <trkpt lat="45.32587" lon="4.34304">
        <ele>890</ele>
        <time>2021-02-27T08:44:11Z</time>
      </trkpt>
      <trkpt lat="45.32588" lon="4.34297">
        <ele>890</ele>
        <time>2021-02-27T08:44:12Z</time>
      </trkpt>
      <trkpt lat="45.3259" lon="4.3429">
        <ele>891</ele>
        <time>2021-02-27T08:44:13Z</time>
      </trkpt>
      <trkpt lat="45.32592" lon="4.34284">
        <ele>891</ele>
        <time>2021-02-27T08:44:14Z</time>
      </trkpt>
      <trkpt lat="45.32593" lon="4.34277">
        <ele>891</ele>
        <time>2021-02-27T08:44:15Z</time>
      </trkpt>
      <trkpt lat="45.32595" lon="4.34271">
        <ele>891</ele>
        <time>2021-02-27T08:44:16Z</time>
      </trkpt>
      <trkpt lat="45.32597" lon="4.34265">
        <ele>891</ele>
        <time>2021-02-27T08:44:17Z</time>
      </trkpt>
      <trkpt lat="45.32598" lon="4.34258">
        <ele>891</ele>
        <time>2021-02-27T08:44:18Z</time>
      </trkpt>
      <trkpt lat="45.326" lon="4.34252">
        <ele>892</ele>
        <time>2021-02-27T08:44:19Z</time>
      </trkpt>
      <trkpt lat="45.32601" lon="4.34245">
        <ele>891</ele>
        <time>2021-02-27T08:44:20Z</time>
      </trkpt>
      <trkpt lat="45.32603" lon="4.34239">
        <ele>891</ele>
        <time>2021-02-27T08:44:21Z</time>
      </trkpt>
      <trkpt lat="45.32605" lon="4.34232">
        <ele>891</ele>
        <time>2021-02-27T08:44:22Z</time>
      </trkpt>
      <trkpt lat="45.32607" lon="4.34225">
        <ele>891</ele>
        <time>2021-02-27T08:44:23Z</time>
      </trkpt>
      <trkpt lat="45.32608" lon="4.34219">
        <ele>891</ele>
        <time>2021-02-27T08:44:24Z</time>
      </trkpt>
      <trkpt lat="45.3261" lon="4.34212">
        <ele>891</ele>
        <time>2021-02-27T08:44:25Z</time>
      </trkpt>
      <trkpt lat="45.32612" lon="4.34205">
        <ele>890</ele>
        <time>2021-02-27T08:44:26Z</time>
      </trkpt>
      <trkpt lat="45.32613" lon="4.34198">
        <ele>891</ele>
        <time>2021-02-27T08:44:27Z</time>
      </trkpt>
      <trkpt lat="45.32615" lon="4.34191">
        <ele>891</ele>
        <time>2021-02-27T08:44:28Z</time>
      </trkpt>
      <trkpt lat="45.32616" lon="4.34184">
        <ele>891</ele>
        <time>2021-02-27T08:44:29Z</time>
      </trkpt>
      <trkpt lat="45.32618" lon="4.34177">
        <ele>890</ele>
        <time>2021-02-27T08:44:30Z</time>
      </trkpt>
      <trkpt lat="45.3262" lon="4.3417">
        <ele>890</ele>
        <time>2021-02-27T08:44:31Z</time>
      </trkpt>
      <trkpt lat="45.32622" lon="4.34162">
        <ele>890</ele>
        <time>2021-02-27T08:44:32Z</time>
      </trkpt>
      <trkpt lat="45.32623" lon="4.34155">
        <ele>889</ele>
        <time>2021-02-27T08:44:33Z</time>
      </trkpt>
      <trkpt lat="45.32625" lon="4.34147">
        <ele>889</ele>
        <time>2021-02-27T08:44:34Z</time>
      </trkpt>
      <trkpt lat="45.32626" lon="4.3414">
        <ele>890</ele>
        <time>2021-02-27T08:44:35Z</time>
      </trkpt>
      <trkpt lat="45.32628" lon="4.34132">
        <ele>889</ele>
        <time>2021-02-27T08:44:36Z</time>
      </trkpt>
      <trkpt lat="45.3263" lon="4.34125">
        <ele>889</ele>
        <time>2021-02-27T08:44:37Z</time>
      </trkpt>
      <trkpt lat="45.32632" lon="4.34117">
        <ele>889</ele>
        <time>2021-02-27T08:44:38Z</time>
      </trkpt>
      <trkpt lat="45.32634" lon="4.34109">
        <ele>889</ele>
        <time>2021-02-27T08:44:39Z</time>
      </trkpt>
      <trkpt lat="45.32635" lon="4.34102">
        <ele>888</ele>
        <time>2021-02-27T08:44:40Z</time>
      </trkpt>
      <trkpt lat="45.32637" lon="4.34094">
        <ele>888</ele>
        <time>2021-02-27T08:44:41Z</time>
      </trkpt>
      <trkpt lat="45.3264" lon="4.34086">
        <ele>888</ele>
        <time>2021-02-27T08:44:42Z</time>
      </trkpt>
      <trkpt lat="45.32642" lon="4.34079">
        <ele>888</ele>
        <time>2021-02-27T08:44:43Z</time>
      </trkpt>
      <trkpt lat="45.32644" lon="4.34072">
        <ele>888</ele>
        <time>2021-02-27T08:44:44Z</time>
      </trkpt>
      <trkpt lat="45.32646" lon="4.34064">
        <ele>888</ele>
        <time>2021-02-27T08:44:45Z</time>
      </trkpt>
      <trkpt lat="45.32648" lon="4.34057">
        <ele>887</ele>
        <time>2021-02-27T08:44:46Z</time>
      </trkpt>
      <trkpt lat="45.32651" lon="4.34051">
        <ele>888</ele>
        <time>2021-02-27T08:44:47Z</time>
      </trkpt>
      <trkpt lat="45.32654" lon="4.34044">
        <ele>888</ele>
        <time>2021-02-27T08:44:48Z</time>
      </trkpt>
      <trkpt lat="45.32657" lon="4.34039">
        <ele>888</ele>
        <time>2021-02-27T08:44:49Z</time>
      </trkpt>
      <trkpt lat="45.3266" lon="4.34033">
        <ele>888</ele>
        <time>2021-02-27T08:44:50Z</time>
      </trkpt>
      <trkpt lat="45.32663" lon="4.34027">
        <ele>888</ele>
        <time>2021-02-27T08:44:51Z</time>
      </trkpt>
      <trkpt lat="45.32666" lon="4.34021">
        <ele>887</ele>
        <time>2021-02-27T08:44:52Z</time>
      </trkpt>
      <trkpt lat="45.32669" lon="4.34016">
        <ele>888</ele>
        <time>2021-02-27T08:44:53Z</time>
      </trkpt>
      <trkpt lat="45.32672" lon="4.3401">
        <ele>888</ele>
        <time>2021-02-27T08:44:54Z</time>
      </trkpt>
      <trkpt lat="45.32675" lon="4.34005">
        <ele>888</ele>
        <time>2021-02-27T08:44:55Z</time>
      </trkpt>
      <trkpt lat="45.32678" lon="4.34">
        <ele>889</ele>
        <time>2021-02-27T08:44:56Z</time>
      </trkpt>
      <trkpt lat="45.32681" lon="4.33995">
        <ele>888</ele>
        <time>2021-02-27T08:44:57Z</time>
      </trkpt>
      <trkpt lat="45.32684" lon="4.33992">
        <ele>888</ele>
        <time>2021-02-27T08:44:58Z</time>
      </trkpt>
      <trkpt lat="45.32687" lon="4.33988">
        <ele>888</ele>
        <time>2021-02-27T08:44:59Z</time>
      </trkpt>
      <trkpt lat="45.32689" lon="4.33985">
        <ele>888</ele>
        <time>2021-02-27T08:45:00Z</time>
      </trkpt>
      <trkpt lat="45.32689" lon="4.33979">
        <ele>887</ele>
        <time>2021-02-27T08:45:02Z</time>
      </trkpt>
      <trkpt lat="45.32687" lon="4.33973">
        <ele>887</ele>
        <time>2021-02-27T08:45:03Z</time>
      </trkpt>
      <trkpt lat="45.32685" lon="4.33969">
        <ele>886</ele>
        <time>2021-02-27T08:45:04Z</time>
      </trkpt>
      <trkpt lat="45.32681" lon="4.33964">
        <ele>886</ele>
        <time>2021-02-27T08:45:05Z</time>
      </trkpt>
      <trkpt lat="45.32677" lon="4.3396">
        <ele>885</ele>
        <time>2021-02-27T08:45:06Z</time>
      </trkpt>
      <trkpt lat="45.32673" lon="4.33954">
        <ele>884</ele>
        <time>2021-02-27T08:45:07Z</time>
      </trkpt>
      <trkpt lat="45.32669" lon="4.33949">
        <ele>885</ele>
        <time>2021-02-27T08:45:08Z</time>
      </trkpt>
      <trkpt lat="45.32665" lon="4.33945">
        <ele>883</ele>
        <time>2021-02-27T08:45:09Z</time>
      </trkpt>
      <trkpt lat="45.3266" lon="4.33941">
        <ele>883</ele>
        <time>2021-02-27T08:45:10Z</time>
      </trkpt>
      <trkpt lat="45.32656" lon="4.33937">
        <ele>882</ele>
        <time>2021-02-27T08:45:11Z</time>
      </trkpt>
      <trkpt lat="45.32651" lon="4.33933">
        <ele>882</ele>
        <time>2021-02-27T08:45:12Z</time>
      </trkpt>
      <trkpt lat="45.32646" lon="4.3393">
        <ele>882</ele>
        <time>2021-02-27T08:45:13Z</time>
      </trkpt>
      <trkpt lat="45.32641" lon="4.33928">
        <ele>882</ele>
        <time>2021-02-27T08:45:14Z</time>
      </trkpt>
      <trkpt lat="45.32635" lon="4.33927">
        <ele>882</ele>
        <time>2021-02-27T08:45:15Z</time>
      </trkpt>
      <trkpt lat="45.3263" lon="4.33925">
        <ele>882</ele>
        <time>2021-02-27T08:45:16Z</time>
      </trkpt>
      <trkpt lat="45.32625" lon="4.33923">
        <ele>882</ele>
        <time>2021-02-27T08:45:17Z</time>
      </trkpt>
      <trkpt lat="45.32621" lon="4.33918">
        <ele>882</ele>
        <time>2021-02-27T08:45:18Z</time>
      </trkpt>
      <trkpt lat="45.32618" lon="4.33913">
        <ele>882</ele>
        <time>2021-02-27T08:45:19Z</time>
      </trkpt>
      <trkpt lat="45.32616" lon="4.33906">
        <ele>882</ele>
        <time>2021-02-27T08:45:20Z</time>
      </trkpt>
      <trkpt lat="45.32615" lon="4.339">
        <ele>882</ele>
        <time>2021-02-27T08:45:21Z</time>
      </trkpt>
      <trkpt lat="45.32614" lon="4.33893">
        <ele>882</ele>
        <time>2021-02-27T08:45:22Z</time>
      </trkpt>
      <trkpt lat="45.32614" lon="4.33886">
        <ele>882</ele>
        <time>2021-02-27T08:45:23Z</time>
      </trkpt>
      <trkpt lat="45.32615" lon="4.33879">
        <ele>883</ele>
        <time>2021-02-27T08:45:24Z</time>
      </trkpt>
      <trkpt lat="45.32616" lon="4.33872">
        <ele>883</ele>
        <time>2021-02-27T08:45:25Z</time>
      </trkpt>
      <trkpt lat="45.32616" lon="4.33867">
        <ele>883</ele>
        <time>2021-02-27T08:45:26Z</time>
      </trkpt>
      <trkpt lat="45.32617" lon="4.33861">
        <ele>884</ele>
        <time>2021-02-27T08:45:27Z</time>
      </trkpt>
      <trkpt lat="45.32618" lon="4.33857">
        <ele>884</ele>
        <time>2021-02-27T08:45:28Z</time>
      </trkpt>
      <trkpt lat="45.32619" lon="4.33853">
        <ele>884</ele>
        <time>2021-02-27T08:45:29Z</time>
      </trkpt>
      <trkpt lat="45.3262" lon="4.33848">
        <ele>884</ele>
        <time>2021-02-27T08:45:30Z</time>
      </trkpt>
      <trkpt lat="45.32621" lon="4.33844">
        <ele>884</ele>
        <time>2021-02-27T08:45:31Z</time>
      </trkpt>
      <trkpt lat="45.32623" lon="4.33838">
        <ele>884</ele>
        <time>2021-02-27T08:45:32Z</time>
      </trkpt>
      <trkpt lat="45.32624" lon="4.33833">
        <ele>885</ele>
        <time>2021-02-27T08:45:33Z</time>
      </trkpt>
      <trkpt lat="45.32625" lon="4.33827">
        <ele>885</ele>
        <time>2021-02-27T08:45:35Z</time>
      </trkpt>
      <trkpt lat="45.32626" lon="4.33822">
        <ele>885</ele>
        <time>2021-02-27T08:45:36Z</time>
      </trkpt>
      <trkpt lat="45.32628" lon="4.33817">
        <ele>886</ele>
        <time>2021-02-27T08:45:37Z</time>
      </trkpt>
      <trkpt lat="45.32629" lon="4.33812">
        <ele>885</ele>
        <time>2021-02-27T08:45:38Z</time>
      </trkpt>
      <trkpt lat="45.3263" lon="4.33807">
        <ele>886</ele>
        <time>2021-02-27T08:45:39Z</time>
      </trkpt>
      <trkpt lat="45.32631" lon="4.33802">
        <ele>886</ele>
        <time>2021-02-27T08:45:40Z</time>
      </trkpt>
      <trkpt lat="45.32632" lon="4.33798">
        <ele>886</ele>
        <time>2021-02-27T08:45:41Z</time>
      </trkpt>
      <trkpt lat="45.32633" lon="4.33794">
        <ele>887</ele>
        <time>2021-02-27T08:45:42Z</time>
      </trkpt>
      <trkpt lat="45.32634" lon="4.3379">
        <ele>887</ele>
        <time>2021-02-27T08:45:43Z</time>
      </trkpt>
      <trkpt lat="45.32636" lon="4.33786">
        <ele>887</ele>
        <time>2021-02-27T08:45:44Z</time>
      </trkpt>
      <trkpt lat="45.32637" lon="4.33782">
        <ele>888</ele>
        <time>2021-02-27T08:45:45Z</time>
      </trkpt>
      <trkpt lat="45.32639" lon="4.33777">
        <ele>888</ele>
        <time>2021-02-27T08:45:46Z</time>
      </trkpt>
      <trkpt lat="45.3264" lon="4.33773">
        <ele>888</ele>
        <time>2021-02-27T08:45:47Z</time>
      </trkpt>
      <trkpt lat="45.32641" lon="4.33768">
        <ele>888</ele>
        <time>2021-02-27T08:45:48Z</time>
      </trkpt>
      <trkpt lat="45.32643" lon="4.33764">
        <ele>889</ele>
        <time>2021-02-27T08:45:49Z</time>
      </trkpt>
      <trkpt lat="45.32645" lon="4.3376">
        <ele>889</ele>
        <time>2021-02-27T08:45:50Z</time>
      </trkpt>
      <trkpt lat="45.32647" lon="4.33756">
        <ele>889</ele>
        <time>2021-02-27T08:45:51Z</time>
      </trkpt>
      <trkpt lat="45.32649" lon="4.33751">
        <ele>889</ele>
        <time>2021-02-27T08:45:52Z</time>
      </trkpt>
      <trkpt lat="45.32651" lon="4.33747">
        <ele>890</ele>
        <time>2021-02-27T08:45:53Z</time>
      </trkpt>
      <trkpt lat="45.32652" lon="4.33742">
        <ele>890</ele>
        <time>2021-02-27T08:45:54Z</time>
      </trkpt>
      <trkpt lat="45.32653" lon="4.33738">
        <ele>891</ele>
        <time>2021-02-27T08:45:55Z</time>
      </trkpt>
      <trkpt lat="45.32654" lon="4.33734">
        <ele>891</ele>
        <time>2021-02-27T08:45:56Z</time>
      </trkpt>
      <trkpt lat="45.32655" lon="4.33729">
        <ele>891</ele>
        <time>2021-02-27T08:45:57Z</time>
      </trkpt>
      <trkpt lat="45.32656" lon="4.33724">
        <ele>891</ele>
        <time>2021-02-27T08:45:58Z</time>
      </trkpt>
      <trkpt lat="45.32657" lon="4.33718">
        <ele>891</ele>
        <time>2021-02-27T08:45:59Z</time>
      </trkpt>
      <trkpt lat="45.32658" lon="4.33714">
        <ele>892</ele>
        <time>2021-02-27T08:46:00Z</time>
      </trkpt>
      <trkpt lat="45.32658" lon="4.33708">
        <ele>892</ele>
        <time>2021-02-27T08:46:01Z</time>
      </trkpt>
      <trkpt lat="45.32659" lon="4.33704">
        <ele>892</ele>
        <time>2021-02-27T08:46:02Z</time>
      </trkpt>
      <trkpt lat="45.3266" lon="4.33699">
        <ele>892</ele>
        <time>2021-02-27T08:46:03Z</time>
      </trkpt>
      <trkpt lat="45.32661" lon="4.33695">
        <ele>892</ele>
        <time>2021-02-27T08:46:04Z</time>
      </trkpt>
      <trkpt lat="45.32662" lon="4.33689">
        <ele>892</ele>
        <time>2021-02-27T08:46:05Z</time>
      </trkpt>
      <trkpt lat="45.32662" lon="4.33684">
        <ele>893</ele>
        <time>2021-02-27T08:46:06Z</time>
      </trkpt>
      <trkpt lat="45.32663" lon="4.33679">
        <ele>893</ele>
        <time>2021-02-27T08:46:07Z</time>
      </trkpt>
      <trkpt lat="45.32663" lon="4.33674">
        <ele>892</ele>
        <time>2021-02-27T08:46:08Z</time>
      </trkpt>
      <trkpt lat="45.32663" lon="4.3367">
        <ele>893</ele>
        <time>2021-02-27T08:46:09Z</time>
      </trkpt>
      <trkpt lat="45.32663" lon="4.33665">
        <ele>893</ele>
        <time>2021-02-27T08:46:10Z</time>
      </trkpt>
      <trkpt lat="45.32663" lon="4.33661">
        <ele>893</ele>
        <time>2021-02-27T08:46:11Z</time>
      </trkpt>
      <trkpt lat="45.32662" lon="4.33656">
        <ele>893</ele>
        <time>2021-02-27T08:46:12Z</time>
      </trkpt>
      <trkpt lat="45.32661" lon="4.3365">
        <ele>893</ele>
        <time>2021-02-27T08:46:13Z</time>
      </trkpt>
      <trkpt lat="45.32661" lon="4.33644">
        <ele>893</ele>
        <time>2021-02-27T08:46:14Z</time>
      </trkpt>
      <trkpt lat="45.3266" lon="4.33638">
        <ele>894</ele>
        <time>2021-02-27T08:46:15Z</time>
      </trkpt>
      <trkpt lat="45.3266" lon="4.33633">
        <ele>894</ele>
        <time>2021-02-27T08:46:16Z</time>
      </trkpt>
      <trkpt lat="45.32659" lon="4.33627">
        <ele>894</ele>
        <time>2021-02-27T08:46:17Z</time>
      </trkpt>
      <trkpt lat="45.32658" lon="4.33621">
        <ele>894</ele>
        <time>2021-02-27T08:46:18Z</time>
      </trkpt>
      <trkpt lat="45.32657" lon="4.33615">
        <ele>894</ele>
        <time>2021-02-27T08:46:19Z</time>
      </trkpt>
      <trkpt lat="45.32656" lon="4.33609">
        <ele>894</ele>
        <time>2021-02-27T08:46:20Z</time>
      </trkpt>
      <trkpt lat="45.32655" lon="4.33604">
        <ele>894</ele>
        <time>2021-02-27T08:46:21Z</time>
      </trkpt>
      <trkpt lat="45.32653" lon="4.33599">
        <ele>894</ele>
        <time>2021-02-27T08:46:22Z</time>
      </trkpt>
      <trkpt lat="45.32652" lon="4.33593">
        <ele>894</ele>
        <time>2021-02-27T08:46:23Z</time>
      </trkpt>
      <trkpt lat="45.32651" lon="4.33589">
        <ele>894</ele>
        <time>2021-02-27T08:46:24Z</time>
      </trkpt>
      <trkpt lat="45.3265" lon="4.33584">
        <ele>894</ele>
        <time>2021-02-27T08:46:25Z</time>
      </trkpt>
      <trkpt lat="45.32648" lon="4.3358">
        <ele>894</ele>
        <time>2021-02-27T08:46:26Z</time>
      </trkpt>
      <trkpt lat="45.32647" lon="4.33575">
        <ele>894</ele>
        <time>2021-02-27T08:46:27Z</time>
      </trkpt>
      <trkpt lat="45.32646" lon="4.3357">
        <ele>894</ele>
        <time>2021-02-27T08:46:28Z</time>
      </trkpt>
      <trkpt lat="45.32644" lon="4.33565">
        <ele>894</ele>
        <time>2021-02-27T08:46:29Z</time>
      </trkpt>
      <trkpt lat="45.32642" lon="4.33561">
        <ele>894</ele>
        <time>2021-02-27T08:46:30Z</time>
      </trkpt>
      <trkpt lat="45.32641" lon="4.33556">
        <ele>894</ele>
        <time>2021-02-27T08:46:31Z</time>
      </trkpt>
      <trkpt lat="45.3264" lon="4.33551">
        <ele>895</ele>
        <time>2021-02-27T08:46:32Z</time>
      </trkpt>
      <trkpt lat="45.32638" lon="4.33547">
        <ele>895</ele>
        <time>2021-02-27T08:46:33Z</time>
      </trkpt>
      <trkpt lat="45.32637" lon="4.33543">
        <ele>895</ele>
        <time>2021-02-27T08:46:34Z</time>
      </trkpt>
      <trkpt lat="45.32636" lon="4.33539">
        <ele>895</ele>
        <time>2021-02-27T08:46:35Z</time>
      </trkpt>
      <trkpt lat="45.32635" lon="4.33536">
        <ele>895</ele>
        <time>2021-02-27T08:46:36Z</time>
      </trkpt>
      <trkpt lat="45.32632" lon="4.3353">
        <ele>895</ele>
        <time>2021-02-27T08:46:38Z</time>
      </trkpt>
      <trkpt lat="45.3263" lon="4.33526">
        <ele>895</ele>
        <time>2021-02-27T08:46:39Z</time>
      </trkpt>
      <trkpt lat="45.32628" lon="4.33522">
        <ele>895</ele>
        <time>2021-02-27T08:46:40Z</time>
      </trkpt>
      <trkpt lat="45.32627" lon="4.33517">
        <ele>896</ele>
        <time>2021-02-27T08:46:41Z</time>
      </trkpt>
      <trkpt lat="45.32625" lon="4.33513">
        <ele>896</ele>
        <time>2021-02-27T08:46:42Z</time>
      </trkpt>
      <trkpt lat="45.32623" lon="4.33508">
        <ele>896</ele>
        <time>2021-02-27T08:46:43Z</time>
      </trkpt>
      <trkpt lat="45.32621" lon="4.33503">
        <ele>895</ele>
        <time>2021-02-27T08:46:44Z</time>
      </trkpt>
      <trkpt lat="45.3262" lon="4.33498">
        <ele>895</ele>
        <time>2021-02-27T08:46:45Z</time>
      </trkpt>
      <trkpt lat="45.32618" lon="4.33492">
        <ele>895</ele>
        <time>2021-02-27T08:46:46Z</time>
      </trkpt>
      <trkpt lat="45.32616" lon="4.33487">
        <ele>895</ele>
        <time>2021-02-27T08:46:47Z</time>
      </trkpt>
      <trkpt lat="45.32614" lon="4.33481">
        <ele>894</ele>
        <time>2021-02-27T08:46:48Z</time>
      </trkpt>
      <trkpt lat="45.32613" lon="4.33475">
        <ele>895</ele>
        <time>2021-02-27T08:46:49Z</time>
      </trkpt>
      <trkpt lat="45.32611" lon="4.33468">
        <ele>894</ele>
        <time>2021-02-27T08:46:50Z</time>
      </trkpt>
      <trkpt lat="45.3261" lon="4.33462">
        <ele>894</ele>
        <time>2021-02-27T08:46:51Z</time>
      </trkpt>
      <trkpt lat="45.32608" lon="4.33456">
        <ele>894</ele>
        <time>2021-02-27T08:46:52Z</time>
      </trkpt>
      <trkpt lat="45.32607" lon="4.33449">
        <ele>894</ele>
        <time>2021-02-27T08:46:53Z</time>
      </trkpt>
      <trkpt lat="45.32605" lon="4.33443">
        <ele>893</ele>
        <time>2021-02-27T08:46:54Z</time>
      </trkpt>
      <trkpt lat="45.32604" lon="4.33437">
        <ele>893</ele>
        <time>2021-02-27T08:46:55Z</time>
      </trkpt>
      <trkpt lat="45.32603" lon="4.3343">
        <ele>894</ele>
        <time>2021-02-27T08:46:56Z</time>
      </trkpt>
      <trkpt lat="45.32602" lon="4.33423">
        <ele>894</ele>
        <time>2021-02-27T08:46:57Z</time>
      </trkpt>
      <trkpt lat="45.32601" lon="4.33416">
        <ele>893</ele>
        <time>2021-02-27T08:46:58Z</time>
      </trkpt>
      <trkpt lat="45.326" lon="4.3341">
        <ele>893</ele>
        <time>2021-02-27T08:46:59Z</time>
      </trkpt>
      <trkpt lat="45.32599" lon="4.33402">
        <ele>893</ele>
        <time>2021-02-27T08:47:00Z</time>
      </trkpt>
      <trkpt lat="45.32598" lon="4.33396">
        <ele>893</ele>
        <time>2021-02-27T08:47:01Z</time>
      </trkpt>
      <trkpt lat="45.32597" lon="4.33388">
        <ele>893</ele>
        <time>2021-02-27T08:47:02Z</time>
      </trkpt>
      <trkpt lat="45.32596" lon="4.33381">
        <ele>893</ele>
        <time>2021-02-27T08:47:03Z</time>
      </trkpt>
      <trkpt lat="45.32596" lon="4.33373">
        <ele>892</ele>
        <time>2021-02-27T08:47:04Z</time>
      </trkpt>
      <trkpt lat="45.32595" lon="4.33366">
        <ele>891</ele>
        <time>2021-02-27T08:47:05Z</time>
      </trkpt>
      <trkpt lat="45.32595" lon="4.33358">
        <ele>891</ele>
        <time>2021-02-27T08:47:06Z</time>
      </trkpt>
      <trkpt lat="45.32595" lon="4.3335">
        <ele>890</ele>
        <time>2021-02-27T08:47:07Z</time>
      </trkpt>
      <trkpt lat="45.32595" lon="4.33342">
        <ele>891</ele>
        <time>2021-02-27T08:47:08Z</time>
      </trkpt>
      <trkpt lat="45.32596" lon="4.33335">
        <ele>892</ele>
        <time>2021-02-27T08:47:09Z</time>
      </trkpt>
      <trkpt lat="45.32596" lon="4.33327">
        <ele>890</ele>
        <time>2021-02-27T08:47:10Z</time>
      </trkpt>
      <trkpt lat="45.32595" lon="4.33319">
        <ele>890</ele>
        <time>2021-02-27T08:47:11Z</time>
      </trkpt>
      <trkpt lat="45.32596" lon="4.33311">
        <ele>889</ele>
        <time>2021-02-27T08:47:12Z</time>
      </trkpt>
      <trkpt lat="45.32596" lon="4.33304">
        <ele>889</ele>
        <time>2021-02-27T08:47:13Z</time>
      </trkpt>
      <trkpt lat="45.32596" lon="4.33295">
        <ele>888</ele>
        <time>2021-02-27T08:47:14Z</time>
      </trkpt>
      <trkpt lat="45.32596" lon="4.33287">
        <ele>888</ele>
        <time>2021-02-27T08:47:15Z</time>
      </trkpt>
      <trkpt lat="45.32595" lon="4.33278">
        <ele>888</ele>
        <time>2021-02-27T08:47:16Z</time>
      </trkpt>
      <trkpt lat="45.32595" lon="4.3327">
        <ele>887</ele>
        <time>2021-02-27T08:47:17Z</time>
      </trkpt>
      <trkpt lat="45.32595" lon="4.33262">
        <ele>888</ele>
        <time>2021-02-27T08:47:18Z</time>
      </trkpt>
      <trkpt lat="45.32595" lon="4.33253">
        <ele>889</ele>
        <time>2021-02-27T08:47:19Z</time>
      </trkpt>
      <trkpt lat="45.32595" lon="4.33246">
        <ele>889</ele>
        <time>2021-02-27T08:47:20Z</time>
      </trkpt>
      <trkpt lat="45.32595" lon="4.33238">
        <ele>888</ele>
        <time>2021-02-27T08:47:21Z</time>
      </trkpt>
      <trkpt lat="45.32595" lon="4.3323">
        <ele>887</ele>
        <time>2021-02-27T08:47:22Z</time>
      </trkpt>
      <trkpt lat="45.32595" lon="4.33222">
        <ele>887</ele>
        <time>2021-02-27T08:47:23Z</time>
      </trkpt>
      <trkpt lat="45.32595" lon="4.33215">
        <ele>887</ele>
        <time>2021-02-27T08:47:24Z</time>
      </trkpt>
      <trkpt lat="45.32595" lon="4.33208">
        <ele>887</ele>
        <time>2021-02-27T08:47:25Z</time>
      </trkpt>
      <trkpt lat="45.32595" lon="4.33201">
        <ele>887</ele>
        <time>2021-02-27T08:47:26Z</time>
      </trkpt>
      <trkpt lat="45.32595" lon="4.33193">
        <ele>887</ele>
        <time>2021-02-27T08:47:27Z</time>
      </trkpt>
      <trkpt lat="45.32595" lon="4.33186">
        <ele>886</ele>
        <time>2021-02-27T08:47:28Z</time>
      </trkpt>
      <trkpt lat="45.32595" lon="4.33179">
        <ele>887</ele>
        <time>2021-02-27T08:47:29Z</time>
      </trkpt>
      <trkpt lat="45.32595" lon="4.33172">
        <ele>887</ele>
        <time>2021-02-27T08:47:30Z</time>
      </trkpt>
      <trkpt lat="45.32595" lon="4.33166">
        <ele>887</ele>
        <time>2021-02-27T08:47:31Z</time>
      </trkpt>
      <trkpt lat="45.32595" lon="4.33159">
        <ele>886</ele>
        <time>2021-02-27T08:47:32Z</time>
      </trkpt>
      <trkpt lat="45.32594" lon="4.33152">
        <ele>886</ele>
        <time>2021-02-27T08:47:33Z</time>
      </trkpt>
      <trkpt lat="45.32594" lon="4.33145">
        <ele>886</ele>
        <time>2021-02-27T08:47:34Z</time>
      </trkpt>
      <trkpt lat="45.32594" lon="4.33138">
        <ele>886</ele>
        <time>2021-02-27T08:47:35Z</time>
      </trkpt>
      <trkpt lat="45.32593" lon="4.33131">
        <ele>886</ele>
        <time>2021-02-27T08:47:36Z</time>
      </trkpt>
      <trkpt lat="45.32593" lon="4.33126">
        <ele>886</ele>
        <time>2021-02-27T08:47:37Z</time>
      </trkpt>
      <trkpt lat="45.32593" lon="4.3312">
        <ele>886</ele>
        <time>2021-02-27T08:47:38Z</time>
      </trkpt>
      <trkpt lat="45.32593" lon="4.33114">
        <ele>886</ele>
        <time>2021-02-27T08:47:39Z</time>
      </trkpt>
      <trkpt lat="45.32592" lon="4.33109">
        <ele>886</ele>
        <time>2021-02-27T08:47:40Z</time>
      </trkpt>
      <trkpt lat="45.32592" lon="4.33102">
        <ele>886</ele>
        <time>2021-02-27T08:47:41Z</time>
      </trkpt>
      <trkpt lat="45.32592" lon="4.33096">
        <ele>885</ele>
        <time>2021-02-27T08:47:42Z</time>
      </trkpt>
      <trkpt lat="45.32594" lon="4.33089">
        <ele>885</ele>
        <time>2021-02-27T08:47:43Z</time>
      </trkpt>
      <trkpt lat="45.32596" lon="4.33082">
        <ele>884</ele>
        <time>2021-02-27T08:47:44Z</time>
      </trkpt>
      <trkpt lat="45.32598" lon="4.33075">
        <ele>884</ele>
        <time>2021-02-27T08:47:45Z</time>
      </trkpt>
      <trkpt lat="45.32601" lon="4.33068">
        <ele>883</ele>
        <time>2021-02-27T08:47:46Z</time>
      </trkpt>
      <trkpt lat="45.32603" lon="4.33059">
        <ele>883</ele>
        <time>2021-02-27T08:47:47Z</time>
      </trkpt>
      <trkpt lat="45.32605" lon="4.33051">
        <ele>883</ele>
        <time>2021-02-27T08:47:48Z</time>
      </trkpt>
      <trkpt lat="45.32606" lon="4.33042">
        <ele>882</ele>
        <time>2021-02-27T08:47:49Z</time>
      </trkpt>
      <trkpt lat="45.32607" lon="4.33033">
        <ele>882</ele>
        <time>2021-02-27T08:47:50Z</time>
      </trkpt>
      <trkpt lat="45.32608" lon="4.33024">
        <ele>882</ele>
        <time>2021-02-27T08:47:51Z</time>
      </trkpt>
      <trkpt lat="45.32609" lon="4.33014">
        <ele>881</ele>
        <time>2021-02-27T08:47:52Z</time>
      </trkpt>
      <trkpt lat="45.3261" lon="4.33003">
        <ele>880</ele>
        <time>2021-02-27T08:47:53Z</time>
      </trkpt>
      <trkpt lat="45.3261" lon="4.32993">
        <ele>881</ele>
        <time>2021-02-27T08:47:54Z</time>
      </trkpt>
      <trkpt lat="45.32611" lon="4.32983">
        <ele>880</ele>
        <time>2021-02-27T08:47:55Z</time>
      </trkpt>
      <trkpt lat="45.32611" lon="4.32972">
        <ele>880</ele>
        <time>2021-02-27T08:47:56Z</time>
      </trkpt>
      <trkpt lat="45.32611" lon="4.32962">
        <ele>880</ele>
        <time>2021-02-27T08:47:57Z</time>
      </trkpt>
      <trkpt lat="45.32611" lon="4.32952">
        <ele>880</ele>
        <time>2021-02-27T08:47:58Z</time>
      </trkpt>
      <trkpt lat="45.32611" lon="4.32943">
        <ele>879</ele>
        <time>2021-02-27T08:47:59Z</time>
      </trkpt>
      <trkpt lat="45.32611" lon="4.32933">
        <ele>878</ele>
        <time>2021-02-27T08:48:00Z</time>
      </trkpt>
      <trkpt lat="45.32611" lon="4.32923">
        <ele>878</ele>
        <time>2021-02-27T08:48:01Z</time>
      </trkpt>
      <trkpt lat="45.32612" lon="4.32913">
        <ele>877</ele>
        <time>2021-02-27T08:48:02Z</time>
      </trkpt>
      <trkpt lat="45.32612" lon="4.32903">
        <ele>877</ele>
        <time>2021-02-27T08:48:03Z</time>
      </trkpt>
      <trkpt lat="45.32612" lon="4.32892">
        <ele>876</ele>
        <time>2021-02-27T08:48:04Z</time>
      </trkpt>
      <trkpt lat="45.32612" lon="4.32882">
        <ele>876</ele>
        <time>2021-02-27T08:48:05Z</time>
      </trkpt>
      <trkpt lat="45.32613" lon="4.32872">
        <ele>876</ele>
        <time>2021-02-27T08:48:06Z</time>
      </trkpt>
      <trkpt lat="45.32613" lon="4.32862">
        <ele>875</ele>
        <time>2021-02-27T08:48:07Z</time>
      </trkpt>
      <trkpt lat="45.32614" lon="4.32852">
        <ele>875</ele>
        <time>2021-02-27T08:48:08Z</time>
      </trkpt>
      <trkpt lat="45.32615" lon="4.32842">
        <ele>875</ele>
        <time>2021-02-27T08:48:09Z</time>
      </trkpt>
      <trkpt lat="45.32616" lon="4.32832">
        <ele>875</ele>
        <time>2021-02-27T08:48:10Z</time>
      </trkpt>
      <trkpt lat="45.32617" lon="4.32822">
        <ele>874</ele>
        <time>2021-02-27T08:48:11Z</time>
      </trkpt>
      <trkpt lat="45.32618" lon="4.32812">
        <ele>872</ele>
        <time>2021-02-27T08:48:12Z</time>
      </trkpt>
      <trkpt lat="45.32619" lon="4.32802">
        <ele>873</ele>
        <time>2021-02-27T08:48:13Z</time>
      </trkpt>
      <trkpt lat="45.3262" lon="4.32792">
        <ele>873</ele>
        <time>2021-02-27T08:48:14Z</time>
      </trkpt>
      <trkpt lat="45.32622" lon="4.32783">
        <ele>873</ele>
        <time>2021-02-27T08:48:15Z</time>
      </trkpt>
      <trkpt lat="45.32623" lon="4.32773">
        <ele>872</ele>
        <time>2021-02-27T08:48:16Z</time>
      </trkpt>
      <trkpt lat="45.32624" lon="4.32764">
        <ele>872</ele>
        <time>2021-02-27T08:48:17Z</time>
      </trkpt>
      <trkpt lat="45.32626" lon="4.32756">
        <ele>872</ele>
        <time>2021-02-27T08:48:18Z</time>
      </trkpt>
      <trkpt lat="45.32627" lon="4.32748">
        <ele>874</ele>
        <time>2021-02-27T08:48:19Z</time>
      </trkpt>
      <trkpt lat="45.32629" lon="4.32741">
        <ele>874</ele>
        <time>2021-02-27T08:48:20Z</time>
      </trkpt>
      <trkpt lat="45.32631" lon="4.32734">
        <ele>875</ele>
        <time>2021-02-27T08:48:21Z</time>
      </trkpt>
      <trkpt lat="45.32633" lon="4.32728">
        <ele>875</ele>
        <time>2021-02-27T08:48:22Z</time>
      </trkpt>
      <trkpt lat="45.32635" lon="4.32722">
        <ele>872</ele>
        <time>2021-02-27T08:48:23Z</time>
      </trkpt>
      <trkpt lat="45.32636" lon="4.32716">
        <ele>872</ele>
        <time>2021-02-27T08:48:24Z</time>
      </trkpt>
      <trkpt lat="45.32638" lon="4.3271">
        <ele>872</ele>
        <time>2021-02-27T08:48:25Z</time>
      </trkpt>
      <trkpt lat="45.32637" lon="4.32706">
        <ele>872</ele>
        <time>2021-02-27T08:48:26Z</time>
      </trkpt>
      <trkpt lat="45.32636" lon="4.32702">
        <ele>872</ele>
        <time>2021-02-27T08:48:27Z</time>
      </trkpt>
      <trkpt lat="45.32633" lon="4.327">
        <ele>872</ele>
        <time>2021-02-27T08:48:28Z</time>
      </trkpt>
      <trkpt lat="45.3263" lon="4.327">
        <ele>872</ele>
        <time>2021-02-27T08:48:29Z</time>
      </trkpt>
      <trkpt lat="45.32626" lon="4.32701">
        <ele>872</ele>
        <time>2021-02-27T08:48:30Z</time>
      </trkpt>
      <trkpt lat="45.32622" lon="4.32704">
        <ele>872</ele>
        <time>2021-02-27T08:48:31Z</time>
      </trkpt>
      <trkpt lat="45.32618" lon="4.32707">
        <ele>872</ele>
        <time>2021-02-27T08:48:32Z</time>
      </trkpt>
      <trkpt lat="45.32613" lon="4.32711">
        <ele>872</ele>
        <time>2021-02-27T08:48:33Z</time>
      </trkpt>
      <trkpt lat="45.32609" lon="4.32716">
        <ele>872</ele>
        <time>2021-02-27T08:48:34Z</time>
      </trkpt>
      <trkpt lat="45.32606" lon="4.32721">
        <ele>872</ele>
        <time>2021-02-27T08:48:35Z</time>
      </trkpt>
      <trkpt lat="45.32602" lon="4.32726">
        <ele>872</ele>
        <time>2021-02-27T08:48:36Z</time>
      </trkpt>
      <trkpt lat="45.32598" lon="4.3273">
        <ele>872</ele>
        <time>2021-02-27T08:48:37Z</time>
      </trkpt>
      <trkpt lat="45.32595" lon="4.32735">
        <ele>873</ele>
        <time>2021-02-27T08:48:38Z</time>
      </trkpt>
      <trkpt lat="45.32592" lon="4.3274">
        <ele>873</ele>
        <time>2021-02-27T08:48:39Z</time>
      </trkpt>
      <trkpt lat="45.32589" lon="4.32745">
        <ele>873</ele>
        <time>2021-02-27T08:48:40Z</time>
      </trkpt>
      <trkpt lat="45.32586" lon="4.3275">
        <ele>873</ele>
        <time>2021-02-27T08:48:41Z</time>
      </trkpt>
      <trkpt lat="45.32583" lon="4.32755">
        <ele>873</ele>
        <time>2021-02-27T08:48:42Z</time>
      </trkpt>
      <trkpt lat="45.32581" lon="4.3276">
        <ele>873</ele>
        <time>2021-02-27T08:48:43Z</time>
      </trkpt>
      <trkpt lat="45.32579" lon="4.32765">
        <ele>873</ele>
        <time>2021-02-27T08:48:44Z</time>
      </trkpt>
      <trkpt lat="45.32576" lon="4.32771">
        <ele>874</ele>
        <time>2021-02-27T08:48:45Z</time>
      </trkpt>
      <trkpt lat="45.32574" lon="4.32776">
        <ele>874</ele>
        <time>2021-02-27T08:48:46Z</time>
      </trkpt>
      <trkpt lat="45.32571" lon="4.32782">
        <ele>873</ele>
        <time>2021-02-27T08:48:47Z</time>
      </trkpt>
      <trkpt lat="45.32569" lon="4.32788">
        <ele>874</ele>
        <time>2021-02-27T08:48:48Z</time>
      </trkpt>
      <trkpt lat="45.32566" lon="4.32794">
        <ele>874</ele>
        <time>2021-02-27T08:48:49Z</time>
      </trkpt>
      <trkpt lat="45.32563" lon="4.328">
        <ele>874</ele>
        <time>2021-02-27T08:48:50Z</time>
      </trkpt>
      <trkpt lat="45.32561" lon="4.32806">
        <ele>874</ele>
        <time>2021-02-27T08:48:51Z</time>
      </trkpt>
      <trkpt lat="45.32558" lon="4.32812">
        <ele>874</ele>
        <time>2021-02-27T08:48:52Z</time>
      </trkpt>
      <trkpt lat="45.32555" lon="4.32818">
        <ele>873</ele>
        <time>2021-02-27T08:48:53Z</time>
      </trkpt>
      <trkpt lat="45.32552" lon="4.32823">
        <ele>873</ele>
        <time>2021-02-27T08:48:54Z</time>
      </trkpt>
      <trkpt lat="45.32549" lon="4.32829">
        <ele>873</ele>
        <time>2021-02-27T08:48:55Z</time>
      </trkpt>
      <trkpt lat="45.32545" lon="4.32835">
        <ele>873</ele>
        <time>2021-02-27T08:48:56Z</time>
      </trkpt>
      <trkpt lat="45.32542" lon="4.3284">
        <ele>873</ele>
        <time>2021-02-27T08:48:57Z</time>
      </trkpt>
      <trkpt lat="45.32539" lon="4.32846">
        <ele>873</ele>
        <time>2021-02-27T08:48:58Z</time>
      </trkpt>
      <trkpt lat="45.32536" lon="4.32851">
        <ele>873</ele>
        <time>2021-02-27T08:48:59Z</time>
      </trkpt>
      <trkpt lat="45.32533" lon="4.32857">
        <ele>874</ele>
        <time>2021-02-27T08:49:00Z</time>
      </trkpt>
      <trkpt lat="45.32529" lon="4.32862">
        <ele>874</ele>
        <time>2021-02-27T08:49:01Z</time>
      </trkpt>
      <trkpt lat="45.32526" lon="4.32866">
        <ele>873</ele>
        <time>2021-02-27T08:49:02Z</time>
      </trkpt>
      <trkpt lat="45.32523" lon="4.32871">
        <ele>874</ele>
        <time>2021-02-27T08:49:03Z</time>
      </trkpt>
      <trkpt lat="45.3252" lon="4.32875">
        <ele>874</ele>
        <time>2021-02-27T08:49:04Z</time>
      </trkpt>
      <trkpt lat="45.32516" lon="4.32881">
        <ele>874</ele>
        <time>2021-02-27T08:49:05Z</time>
      </trkpt>
      <trkpt lat="45.32513" lon="4.32885">
        <ele>874</ele>
        <time>2021-02-27T08:49:06Z</time>
      </trkpt>
      <trkpt lat="45.32509" lon="4.3289">
        <ele>874</ele>
        <time>2021-02-27T08:49:07Z</time>
      </trkpt>
      <trkpt lat="45.32506" lon="4.32895">
        <ele>874</ele>
        <time>2021-02-27T08:49:08Z</time>
      </trkpt>
      <trkpt lat="45.32502" lon="4.32899">
        <ele>874</ele>
        <time>2021-02-27T08:49:09Z</time>
      </trkpt>
      <trkpt lat="45.32498" lon="4.32904">
        <ele>874</ele>
        <time>2021-02-27T08:49:10Z</time>
      </trkpt>
      <trkpt lat="45.32494" lon="4.32909">
        <ele>874</ele>
        <time>2021-02-27T08:49:11Z</time>
      </trkpt>
      <trkpt lat="45.3249" lon="4.32914">
        <ele>874</ele>
        <time>2021-02-27T08:49:12Z</time>
      </trkpt>
      <trkpt lat="45.32486" lon="4.32919">
        <ele>874</ele>
        <time>2021-02-27T08:49:13Z</time>
      </trkpt>
      <trkpt lat="45.32482" lon="4.32924">
        <ele>874</ele>
        <time>2021-02-27T08:49:14Z</time>
      </trkpt>
      <trkpt lat="45.32478" lon="4.32929">
        <ele>874</ele>
        <time>2021-02-27T08:49:15Z</time>
      </trkpt>
      <trkpt lat="45.32474" lon="4.32934">
        <ele>874</ele>
        <time>2021-02-27T08:49:16Z</time>
      </trkpt>
      <trkpt lat="45.3247" lon="4.32939">
        <ele>874</ele>
        <time>2021-02-27T08:49:17Z</time>
      </trkpt>
      <trkpt lat="45.32467" lon="4.32943">
        <ele>874</ele>
        <time>2021-02-27T08:49:18Z</time>
      </trkpt>
      <trkpt lat="45.32463" lon="4.32948">
        <ele>874</ele>
        <time>2021-02-27T08:49:19Z</time>
      </trkpt>
      <trkpt lat="45.32459" lon="4.32953">
        <ele>874</ele>
        <time>2021-02-27T08:49:20Z</time>
      </trkpt>
      <trkpt lat="45.32456" lon="4.32958">
        <ele>874</ele>
        <time>2021-02-27T08:49:21Z</time>
      </trkpt>
      <trkpt lat="45.32452" lon="4.32963">
        <ele>874</ele>
        <time>2021-02-27T08:49:22Z</time>
      </trkpt>
      <trkpt lat="45.32449" lon="4.32968">
        <ele>874</ele>
        <time>2021-02-27T08:49:23Z</time>
      </trkpt>
      <trkpt lat="45.32445" lon="4.32973">
        <ele>874</ele>
        <time>2021-02-27T08:49:24Z</time>
      </trkpt>
      <trkpt lat="45.32442" lon="4.32978">
        <ele>873</ele>
        <time>2021-02-27T08:49:25Z</time>
      </trkpt>
      <trkpt lat="45.32438" lon="4.32983">
        <ele>873</ele>
        <time>2021-02-27T08:49:26Z</time>
      </trkpt>
      <trkpt lat="45.32435" lon="4.32989">
        <ele>873</ele>
        <time>2021-02-27T08:49:27Z</time>
      </trkpt>
      <trkpt lat="45.32432" lon="4.32994">
        <ele>873</ele>
        <time>2021-02-27T08:49:28Z</time>
      </trkpt>
      <trkpt lat="45.32429" lon="4.33">
        <ele>874</ele>
        <time>2021-02-27T08:49:29Z</time>
      </trkpt>
      <trkpt lat="45.32425" lon="4.33004">
        <ele>873</ele>
        <time>2021-02-27T08:49:30Z</time>
      </trkpt>
      <trkpt lat="45.32421" lon="4.33008">
        <ele>873</ele>
        <time>2021-02-27T08:49:31Z</time>
      </trkpt>
      <trkpt lat="45.32416" lon="4.3301">
        <ele>873</ele>
        <time>2021-02-27T08:49:32Z</time>
      </trkpt>
      <trkpt lat="45.32411" lon="4.3301">
        <ele>873</ele>
        <time>2021-02-27T08:49:33Z</time>
      </trkpt>
      <trkpt lat="45.32405" lon="4.33008">
        <ele>874</ele>
        <time>2021-02-27T08:49:34Z</time>
      </trkpt>
      <trkpt lat="45.32401" lon="4.33007">
        <ele>874</ele>
        <time>2021-02-27T08:49:35Z</time>
      </trkpt>
      <trkpt lat="45.32396" lon="4.33007">
        <ele>874</ele>
        <time>2021-02-27T08:49:36Z</time>
      </trkpt>
      <trkpt lat="45.32391" lon="4.33008">
        <ele>874</ele>
        <time>2021-02-27T08:49:37Z</time>
      </trkpt>
      <trkpt lat="45.32386" lon="4.33009">
        <ele>874</ele>
        <time>2021-02-27T08:49:38Z</time>
      </trkpt>
      <trkpt lat="45.32382" lon="4.33011">
        <ele>874</ele>
        <time>2021-02-27T08:49:39Z</time>
      </trkpt>
      <trkpt lat="45.32377" lon="4.33013">
        <ele>875</ele>
        <time>2021-02-27T08:49:40Z</time>
      </trkpt>
      <trkpt lat="45.32372" lon="4.33015">
        <ele>875</ele>
        <time>2021-02-27T08:49:41Z</time>
      </trkpt>
      <trkpt lat="45.32368" lon="4.33018">
        <ele>875</ele>
        <time>2021-02-27T08:49:42Z</time>
      </trkpt>
      <trkpt lat="45.32363" lon="4.3302">
        <ele>875</ele>
        <time>2021-02-27T08:49:43Z</time>
      </trkpt>
      <trkpt lat="45.32359" lon="4.33022">
        <ele>875</ele>
        <time>2021-02-27T08:49:44Z</time>
      </trkpt>
      <trkpt lat="45.32355" lon="4.33024">
        <ele>876</ele>
        <time>2021-02-27T08:49:45Z</time>
      </trkpt>
      <trkpt lat="45.3235" lon="4.33026">
        <ele>875</ele>
        <time>2021-02-27T08:49:46Z</time>
      </trkpt>
      <trkpt lat="45.32346" lon="4.33028">
        <ele>876</ele>
        <time>2021-02-27T08:49:47Z</time>
      </trkpt>
      <trkpt lat="45.32342" lon="4.3303">
        <ele>876</ele>
        <time>2021-02-27T08:49:48Z</time>
      </trkpt>
      <trkpt lat="45.32338" lon="4.33032">
        <ele>876</ele>
        <time>2021-02-27T08:49:49Z</time>
      </trkpt>
      <trkpt lat="45.32334" lon="4.33033">
        <ele>876</ele>
        <time>2021-02-27T08:49:50Z</time>
      </trkpt>
      <trkpt lat="45.32331" lon="4.33035">
        <ele>876</ele>
        <time>2021-02-27T08:49:51Z</time>
      </trkpt>
      <trkpt lat="45.32328" lon="4.33036">
        <ele>875</ele>
        <time>2021-02-27T08:49:52Z</time>
      </trkpt>
      <trkpt lat="45.32325" lon="4.33038">
        <ele>875</ele>
        <time>2021-02-27T08:49:53Z</time>
      </trkpt>
      <trkpt lat="45.32322" lon="4.3304">
        <ele>875</ele>
        <time>2021-02-27T08:49:54Z</time>
      </trkpt>
      <trkpt lat="45.32319" lon="4.33041">
        <ele>875</ele>
        <time>2021-02-27T08:49:55Z</time>
      </trkpt>
      <trkpt lat="45.32316" lon="4.33042">
        <ele>876</ele>
        <time>2021-02-27T08:49:56Z</time>
      </trkpt>
      <trkpt lat="45.32312" lon="4.33044">
        <ele>875</ele>
        <time>2021-02-27T08:49:58Z</time>
      </trkpt>
      <trkpt lat="45.32308" lon="4.33046">
        <ele>876</ele>
        <time>2021-02-27T08:49:59Z</time>
      </trkpt>
      <trkpt lat="45.32304" lon="4.33047">
        <ele>875</ele>
        <time>2021-02-27T08:50:00Z</time>
      </trkpt>
      <trkpt lat="45.32301" lon="4.33048">
        <ele>876</ele>
        <time>2021-02-27T08:50:01Z</time>
      </trkpt>
      <trkpt lat="45.32298" lon="4.33047">
        <ele>875</ele>
        <time>2021-02-27T08:50:02Z</time>
      </trkpt>
      <trkpt lat="45.32295" lon="4.33048">
        <ele>875</ele>
        <time>2021-02-27T08:50:03Z</time>
      </trkpt>
      <trkpt lat="45.32292" lon="4.33048">
        <ele>875</ele>
        <time>2021-02-27T08:50:04Z</time>
      </trkpt>
      <trkpt lat="45.32289" lon="4.33048">
        <ele>876</ele>
        <time>2021-02-27T08:50:05Z</time>
      </trkpt>
      <trkpt lat="45.32286" lon="4.33048">
        <ele>876</ele>
        <time>2021-02-27T08:50:06Z</time>
      </trkpt>
      <trkpt lat="45.32283" lon="4.33049">
        <ele>875</ele>
        <time>2021-02-27T08:50:07Z</time>
      </trkpt>
      <trkpt lat="45.3228" lon="4.33051">
        <ele>875</ele>
        <time>2021-02-27T08:50:08Z</time>
      </trkpt>
      <trkpt lat="45.32276" lon="4.33053">
        <ele>875</ele>
        <time>2021-02-27T08:50:09Z</time>
      </trkpt>
      <trkpt lat="45.32272" lon="4.33055">
        <ele>875</ele>
        <time>2021-02-27T08:50:10Z</time>
      </trkpt>
      <trkpt lat="45.32267" lon="4.33058">
        <ele>875</ele>
        <time>2021-02-27T08:50:11Z</time>
      </trkpt>
      <trkpt lat="45.32263" lon="4.3306">
        <ele>874</ele>
        <time>2021-02-27T08:50:12Z</time>
      </trkpt>
      <trkpt lat="45.32259" lon="4.33063">
        <ele>874</ele>
        <time>2021-02-27T08:50:13Z</time>
      </trkpt>
      <trkpt lat="45.32255" lon="4.33067">
        <ele>874</ele>
        <time>2021-02-27T08:50:14Z</time>
      </trkpt>
      <trkpt lat="45.32251" lon="4.3307">
        <ele>874</ele>
        <time>2021-02-27T08:50:15Z</time>
      </trkpt>
      <trkpt lat="45.32247" lon="4.33073">
        <ele>874</ele>
        <time>2021-02-27T08:50:16Z</time>
      </trkpt>
      <trkpt lat="45.32244" lon="4.33076">
        <ele>873</ele>
        <time>2021-02-27T08:50:17Z</time>
      </trkpt>
      <trkpt lat="45.3224" lon="4.33077">
        <ele>874</ele>
        <time>2021-02-27T08:50:18Z</time>
      </trkpt>
      <trkpt lat="45.32235" lon="4.33079">
        <ele>874</ele>
        <time>2021-02-27T08:50:19Z</time>
      </trkpt>
      <trkpt lat="45.32231" lon="4.3308">
        <ele>874</ele>
        <time>2021-02-27T08:50:20Z</time>
      </trkpt>
      <trkpt lat="45.32227" lon="4.33082">
        <ele>874</ele>
        <time>2021-02-27T08:50:21Z</time>
      </trkpt>
      <trkpt lat="45.32223" lon="4.33085">
        <ele>874</ele>
        <time>2021-02-27T08:50:22Z</time>
      </trkpt>
      <trkpt lat="45.32218" lon="4.33086">
        <ele>875</ele>
        <time>2021-02-27T08:50:23Z</time>
      </trkpt>
      <trkpt lat="45.32214" lon="4.33087">
        <ele>875</ele>
        <time>2021-02-27T08:50:24Z</time>
      </trkpt>
      <trkpt lat="45.32209" lon="4.33087">
        <ele>875</ele>
        <time>2021-02-27T08:50:25Z</time>
      </trkpt>
      <trkpt lat="45.32205" lon="4.33088">
        <ele>875</ele>
        <time>2021-02-27T08:50:26Z</time>
      </trkpt>
      <trkpt lat="45.322" lon="4.33088">
        <ele>875</ele>
        <time>2021-02-27T08:50:27Z</time>
      </trkpt>
      <trkpt lat="45.32196" lon="4.33088">
        <ele>876</ele>
        <time>2021-02-27T08:50:28Z</time>
      </trkpt>
      <trkpt lat="45.32192" lon="4.33087">
        <ele>876</ele>
        <time>2021-02-27T08:50:29Z</time>
      </trkpt>
      <trkpt lat="45.32189" lon="4.33087">
        <ele>876</ele>
        <time>2021-02-27T08:50:30Z</time>
      </trkpt>
      <trkpt lat="45.32185" lon="4.33087">
        <ele>876</ele>
        <time>2021-02-27T08:50:31Z</time>
      </trkpt>
      <trkpt lat="45.32181" lon="4.33087">
        <ele>876</ele>
        <time>2021-02-27T08:50:32Z</time>
      </trkpt>
      <trkpt lat="45.32177" lon="4.33087">
        <ele>876</ele>
        <time>2021-02-27T08:50:33Z</time>
      </trkpt>
      <trkpt lat="45.32173" lon="4.33087">
        <ele>877</ele>
        <time>2021-02-27T08:50:34Z</time>
      </trkpt>
      <trkpt lat="45.3217" lon="4.33087">
        <ele>877</ele>
        <time>2021-02-27T08:50:35Z</time>
      </trkpt>
      <trkpt lat="45.32165" lon="4.33088">
        <ele>877</ele>
        <time>2021-02-27T08:50:36Z</time>
      </trkpt>
      <trkpt lat="45.32162" lon="4.33088">
        <ele>877</ele>
        <time>2021-02-27T08:50:37Z</time>
      </trkpt>
      <trkpt lat="45.32159" lon="4.33088">
        <ele>878</ele>
        <time>2021-02-27T08:50:38Z</time>
      </trkpt>
      <trkpt lat="45.32156" lon="4.33088">
        <ele>878</ele>
        <time>2021-02-27T08:50:39Z</time>
      </trkpt>
      <trkpt lat="45.32152" lon="4.33089">
        <ele>878</ele>
        <time>2021-02-27T08:50:41Z</time>
      </trkpt>
      <trkpt lat="45.32148" lon="4.33089">
        <ele>878</ele>
        <time>2021-02-27T08:50:43Z</time>
      </trkpt>
      <trkpt lat="45.32144" lon="4.3309">
        <ele>879</ele>
        <time>2021-02-27T08:50:45Z</time>
      </trkpt>
      <trkpt lat="45.32141" lon="4.33092">
        <ele>879</ele>
        <time>2021-02-27T08:50:46Z</time>
      </trkpt>
      <trkpt lat="45.32138" lon="4.33094">
        <ele>879</ele>
        <time>2021-02-27T08:50:47Z</time>
      </trkpt>
      <trkpt lat="45.32134" lon="4.33096">
        <ele>880</ele>
        <time>2021-02-27T08:50:49Z</time>
      </trkpt>
      <trkpt lat="45.32129" lon="4.33098">
        <ele>880</ele>
        <time>2021-02-27T08:50:51Z</time>
      </trkpt>
      <trkpt lat="45.32126" lon="4.33099">
        <ele>881</ele>
        <time>2021-02-27T08:50:52Z</time>
      </trkpt>
      <trkpt lat="45.32122" lon="4.33099">
        <ele>880</ele>
        <time>2021-02-27T08:50:53Z</time>
      </trkpt>
      <trkpt lat="45.32119" lon="4.33098">
        <ele>881</ele>
        <time>2021-02-27T08:50:54Z</time>
      </trkpt>
      <trkpt lat="45.32115" lon="4.33099">
        <ele>881</ele>
        <time>2021-02-27T08:50:55Z</time>
      </trkpt>
      <trkpt lat="45.32112" lon="4.331">
        <ele>881</ele>
        <time>2021-02-27T08:50:56Z</time>
      </trkpt>
      <trkpt lat="45.32108" lon="4.331">
        <ele>881</ele>
        <time>2021-02-27T08:50:57Z</time>
      </trkpt>
      <trkpt lat="45.32105" lon="4.331">
        <ele>882</ele>
        <time>2021-02-27T08:50:58Z</time>
      </trkpt>
      <trkpt lat="45.32102" lon="4.331">
        <ele>881</ele>
        <time>2021-02-27T08:50:59Z</time>
      </trkpt>
      <trkpt lat="45.32099" lon="4.33099">
        <ele>882</ele>
        <time>2021-02-27T08:51:00Z</time>
      </trkpt>
      <trkpt lat="45.32096" lon="4.33097">
        <ele>882</ele>
        <time>2021-02-27T08:51:01Z</time>
      </trkpt>
      <trkpt lat="45.32092" lon="4.33095">
        <ele>882</ele>
        <time>2021-02-27T08:51:03Z</time>
      </trkpt>
      <trkpt lat="45.32088" lon="4.33094">
        <ele>883</ele>
        <time>2021-02-27T08:51:05Z</time>
      </trkpt>
      <trkpt lat="45.32083" lon="4.33092">
        <ele>883</ele>
        <time>2021-02-27T08:51:07Z</time>
      </trkpt>
      <trkpt lat="45.32079" lon="4.33091">
        <ele>884</ele>
        <time>2021-02-27T08:51:09Z</time>
      </trkpt>
      <trkpt lat="45.32075" lon="4.3309">
        <ele>885</ele>
        <time>2021-02-27T08:51:11Z</time>
      </trkpt>
      <trkpt lat="45.32071" lon="4.33089">
        <ele>885</ele>
        <time>2021-02-27T08:51:13Z</time>
      </trkpt>
      <trkpt lat="45.32067" lon="4.3309">
        <ele>885</ele>
        <time>2021-02-27T08:51:15Z</time>
      </trkpt>
      <trkpt lat="45.32063" lon="4.3309">
        <ele>886</ele>
        <time>2021-02-27T08:51:17Z</time>
      </trkpt>
      <trkpt lat="45.32059" lon="4.33092">
        <ele>887</ele>
        <time>2021-02-27T08:51:19Z</time>
      </trkpt>
      <trkpt lat="45.32054" lon="4.33093">
        <ele>887</ele>
        <time>2021-02-27T08:51:21Z</time>
      </trkpt>
      <trkpt lat="45.3205" lon="4.33095">
        <ele>887</ele>
        <time>2021-02-27T08:51:23Z</time>
      </trkpt>
      <trkpt lat="45.32044" lon="4.33096">
        <ele>889</ele>
        <time>2021-02-27T08:51:30Z</time>
      </trkpt>
      <trkpt lat="45.32038" lon="4.33097">
        <ele>890</ele>
        <time>2021-02-27T08:51:33Z</time>
      </trkpt>
      <trkpt lat="45.32034" lon="4.33099">
        <ele>890</ele>
        <time>2021-02-27T08:51:34Z</time>
      </trkpt>
      <trkpt lat="45.3203" lon="4.33099">
        <ele>890</ele>
        <time>2021-02-27T08:51:35Z</time>
      </trkpt>
      <trkpt lat="45.32027" lon="4.331">
        <ele>890</ele>
        <time>2021-02-27T08:51:36Z</time>
      </trkpt>
      <trkpt lat="45.32023" lon="4.331">
        <ele>890</ele>
        <time>2021-02-27T08:51:37Z</time>
      </trkpt>
      <trkpt lat="45.32019" lon="4.33101">
        <ele>891</ele>
        <time>2021-02-27T08:51:38Z</time>
      </trkpt>
      <trkpt lat="45.32016" lon="4.33102">
        <ele>891</ele>
        <time>2021-02-27T08:51:39Z</time>
      </trkpt>
      <trkpt lat="45.32011" lon="4.33104">
        <ele>891</ele>
        <time>2021-02-27T08:51:40Z</time>
      </trkpt>
      <trkpt lat="45.32007" lon="4.33106">
        <ele>891</ele>
        <time>2021-02-27T08:51:41Z</time>
      </trkpt>
      <trkpt lat="45.32002" lon="4.33107">
        <ele>891</ele>
        <time>2021-02-27T08:51:42Z</time>
      </trkpt>
      <trkpt lat="45.31999" lon="4.33109">
        <ele>891</ele>
        <time>2021-02-27T08:51:43Z</time>
      </trkpt>
      <trkpt lat="45.31994" lon="4.3311">
        <ele>892</ele>
        <time>2021-02-27T08:51:45Z</time>
      </trkpt>
      <trkpt lat="45.31989" lon="4.3311">
        <ele>892</ele>
        <time>2021-02-27T08:51:48Z</time>
      </trkpt>
      <trkpt lat="45.31983" lon="4.3311">
        <ele>892</ele>
        <time>2021-02-27T08:51:50Z</time>
      </trkpt>
      <trkpt lat="45.31979" lon="4.3311">
        <ele>893</ele>
        <time>2021-02-27T08:51:51Z</time>
      </trkpt>
      <trkpt lat="45.31976" lon="4.3311">
        <ele>893</ele>
        <time>2021-02-27T08:51:52Z</time>
      </trkpt>
      <trkpt lat="45.31971" lon="4.3311">
        <ele>893</ele>
        <time>2021-02-27T08:51:54Z</time>
      </trkpt>
      <trkpt lat="45.31967" lon="4.33111">
        <ele>894</ele>
        <time>2021-02-27T08:51:56Z</time>
      </trkpt>
      <trkpt lat="45.31964" lon="4.33111">
        <ele>894</ele>
        <time>2021-02-27T08:51:58Z</time>
      </trkpt>
      <trkpt lat="45.3196" lon="4.33112">
        <ele>894</ele>
        <time>2021-02-27T08:52:00Z</time>
      </trkpt>
      <trkpt lat="45.31956" lon="4.33113">
        <ele>894</ele>
        <time>2021-02-27T08:52:01Z</time>
      </trkpt>
      <trkpt lat="45.3195" lon="4.33114">
        <ele>895</ele>
        <time>2021-02-27T08:52:03Z</time>
      </trkpt>
      <trkpt lat="45.31946" lon="4.33115">
        <ele>895</ele>
        <time>2021-02-27T08:52:04Z</time>
      </trkpt>
      <trkpt lat="45.3194" lon="4.33118">
        <ele>895</ele>
        <time>2021-02-27T08:52:06Z</time>
      </trkpt>
      <trkpt lat="45.31932" lon="4.33121">
        <ele>896</ele>
        <time>2021-02-27T08:52:08Z</time>
      </trkpt>
      <trkpt lat="45.31926" lon="4.33123">
        <ele>896</ele>
        <time>2021-02-27T08:52:09Z</time>
      </trkpt>
      <trkpt lat="45.31921" lon="4.33126">
        <ele>896</ele>
        <time>2021-02-27T08:52:10Z</time>
      </trkpt>
      <trkpt lat="45.31914" lon="4.33128">
        <ele>896</ele>
        <time>2021-02-27T08:52:12Z</time>
      </trkpt>
      <trkpt lat="45.3191" lon="4.3313">
        <ele>896</ele>
        <time>2021-02-27T08:52:13Z</time>
      </trkpt>
      <trkpt lat="45.31906" lon="4.33131">
        <ele>896</ele>
        <time>2021-02-27T08:52:15Z</time>
      </trkpt>
      <trkpt lat="45.31901" lon="4.33134">
        <ele>897</ele>
        <time>2021-02-27T08:52:17Z</time>
      </trkpt>
      <trkpt lat="45.31896" lon="4.33136">
        <ele>897</ele>
        <time>2021-02-27T08:52:18Z</time>
      </trkpt>
      <trkpt lat="45.3189" lon="4.33141">
        <ele>897</ele>
        <time>2021-02-27T08:52:20Z</time>
      </trkpt>
      <trkpt lat="45.31881" lon="4.33147">
        <ele>897</ele>
        <time>2021-02-27T08:52:25Z</time>
      </trkpt>
      <trkpt lat="45.31872" lon="4.3315">
        <ele>897</ele>
        <time>2021-02-27T08:52:27Z</time>
      </trkpt>
      <trkpt lat="45.31865" lon="4.33153">
        <ele>897</ele>
        <time>2021-02-27T08:52:28Z</time>
      </trkpt>
      <trkpt lat="45.3186" lon="4.33154">
        <ele>897</ele>
        <time>2021-02-27T08:52:29Z</time>
      </trkpt>
      <trkpt lat="45.31855" lon="4.33155">
        <ele>897</ele>
        <time>2021-02-27T08:52:30Z</time>
      </trkpt>
      <trkpt lat="45.31851" lon="4.33156">
        <ele>897</ele>
        <time>2021-02-27T08:52:31Z</time>
      </trkpt>
      <trkpt lat="45.31846" lon="4.3316">
        <ele>897</ele>
        <time>2021-02-27T08:52:33Z</time>
      </trkpt>
      <trkpt lat="45.31843" lon="4.33163">
        <ele>897</ele>
        <time>2021-02-27T08:52:34Z</time>
      </trkpt>
      <trkpt lat="45.3184" lon="4.33167">
        <ele>896</ele>
        <time>2021-02-27T08:52:36Z</time>
      </trkpt>
      <trkpt lat="45.31837" lon="4.33171">
        <ele>896</ele>
        <time>2021-02-27T08:52:37Z</time>
      </trkpt>
      <trkpt lat="45.31835" lon="4.33174">
        <ele>896</ele>
        <time>2021-02-27T08:52:38Z</time>
      </trkpt>
      <trkpt lat="45.31832" lon="4.33177">
        <ele>896</ele>
        <time>2021-02-27T08:52:39Z</time>
      </trkpt>
      <trkpt lat="45.31829" lon="4.3318">
        <ele>896</ele>
        <time>2021-02-27T08:52:40Z</time>
      </trkpt>
      <trkpt lat="45.31826" lon="4.33184">
        <ele>896</ele>
        <time>2021-02-27T08:52:41Z</time>
      </trkpt>
      <trkpt lat="45.31822" lon="4.33187">
        <ele>896</ele>
        <time>2021-02-27T08:52:42Z</time>
      </trkpt>
      <trkpt lat="45.31819" lon="4.33191">
        <ele>896</ele>
        <time>2021-02-27T08:52:43Z</time>
      </trkpt>
      <trkpt lat="45.31815" lon="4.33195">
        <ele>896</ele>
        <time>2021-02-27T08:52:44Z</time>
      </trkpt>
      <trkpt lat="45.31811" lon="4.33198">
        <ele>895</ele>
        <time>2021-02-27T08:52:45Z</time>
      </trkpt>
      <trkpt lat="45.31808" lon="4.33201">
        <ele>895</ele>
        <time>2021-02-27T08:52:46Z</time>
      </trkpt>
      <trkpt lat="45.31804" lon="4.33203">
        <ele>895</ele>
        <time>2021-02-27T08:52:47Z</time>
      </trkpt>
      <trkpt lat="45.31801" lon="4.33206">
        <ele>895</ele>
        <time>2021-02-27T08:52:48Z</time>
      </trkpt>
      <trkpt lat="45.31797" lon="4.33207">
        <ele>895</ele>
        <time>2021-02-27T08:52:49Z</time>
      </trkpt>
      <trkpt lat="45.31794" lon="4.33208">
        <ele>894</ele>
        <time>2021-02-27T08:52:50Z</time>
      </trkpt>
      <trkpt lat="45.3179" lon="4.33211">
        <ele>894</ele>
        <time>2021-02-27T08:52:51Z</time>
      </trkpt>
      <trkpt lat="45.31786" lon="4.33213">
        <ele>893</ele>
        <time>2021-02-27T08:52:52Z</time>
      </trkpt>
      <trkpt lat="45.31782" lon="4.33217">
        <ele>893</ele>
        <time>2021-02-27T08:52:53Z</time>
      </trkpt>
      <trkpt lat="45.31779" lon="4.33222">
        <ele>892</ele>
        <time>2021-02-27T08:52:54Z</time>
      </trkpt>
      <trkpt lat="45.31775" lon="4.33227">
        <ele>892</ele>
        <time>2021-02-27T08:52:55Z</time>
      </trkpt>
      <trkpt lat="45.31772" lon="4.33231">
        <ele>892</ele>
        <time>2021-02-27T08:52:56Z</time>
      </trkpt>
      <trkpt lat="45.3177" lon="4.33236">
        <ele>891</ele>
        <time>2021-02-27T08:52:57Z</time>
      </trkpt>
      <trkpt lat="45.31765" lon="4.33244">
        <ele>891</ele>
        <time>2021-02-27T08:52:58Z</time>
      </trkpt>
      <trkpt lat="45.31761" lon="4.33251">
        <ele>891</ele>
        <time>2021-02-27T08:52:59Z</time>
      </trkpt>
      <trkpt lat="45.31758" lon="4.33256">
        <ele>891</ele>
        <time>2021-02-27T08:53:00Z</time>
      </trkpt>
      <trkpt lat="45.31755" lon="4.33263">
        <ele>890</ele>
        <time>2021-02-27T08:53:01Z</time>
      </trkpt>
      <trkpt lat="45.31752" lon="4.33269">
        <ele>890</ele>
        <time>2021-02-27T08:53:02Z</time>
      </trkpt>
      <trkpt lat="45.3175" lon="4.33274">
        <ele>890</ele>
        <time>2021-02-27T08:53:03Z</time>
      </trkpt>
      <trkpt lat="45.31747" lon="4.3328">
        <ele>890</ele>
        <time>2021-02-27T08:53:04Z</time>
      </trkpt>
      <trkpt lat="45.31745" lon="4.33284">
        <ele>890</ele>
        <time>2021-02-27T08:53:05Z</time>
      </trkpt>
      <trkpt lat="45.31743" lon="4.33289">
        <ele>890</ele>
        <time>2021-02-27T08:53:06Z</time>
      </trkpt>
      <trkpt lat="45.3174" lon="4.33293">
        <ele>889</ele>
        <time>2021-02-27T08:53:07Z</time>
      </trkpt>
      <trkpt lat="45.31738" lon="4.33296">
        <ele>889</ele>
        <time>2021-02-27T08:53:08Z</time>
      </trkpt>
      <trkpt lat="45.31731" lon="4.33307">
        <ele>889</ele>
        <time>2021-02-27T08:53:09Z</time>
      </trkpt>
      <trkpt lat="45.31726" lon="4.33315">
        <ele>888</ele>
        <time>2021-02-27T08:53:10Z</time>
      </trkpt>
      <trkpt lat="45.31722" lon="4.33319">
        <ele>888</ele>
        <time>2021-02-27T08:53:11Z</time>
      </trkpt>
      <trkpt lat="45.31718" lon="4.33324">
        <ele>888</ele>
        <time>2021-02-27T08:53:12Z</time>
      </trkpt>
      <trkpt lat="45.31712" lon="4.33331">
        <ele>888</ele>
        <time>2021-02-27T08:53:13Z</time>
      </trkpt>
      <trkpt lat="45.31707" lon="4.33335">
        <ele>887</ele>
        <time>2021-02-27T08:53:14Z</time>
      </trkpt>
      <trkpt lat="45.31702" lon="4.33335">
        <ele>887</ele>
        <time>2021-02-27T08:53:16Z</time>
      </trkpt>
      <trkpt lat="45.31697" lon="4.33335">
        <ele>887</ele>
        <time>2021-02-27T08:53:17Z</time>
      </trkpt>
      <trkpt lat="45.31692" lon="4.33336">
        <ele>887</ele>
        <time>2021-02-27T08:53:18Z</time>
      </trkpt>
      <trkpt lat="45.31689" lon="4.33335">
        <ele>887</ele>
        <time>2021-02-27T08:53:19Z</time>
      </trkpt>
      <trkpt lat="45.31685" lon="4.33333">
        <ele>887</ele>
        <time>2021-02-27T08:53:20Z</time>
      </trkpt>
      <trkpt lat="45.31683" lon="4.3333">
        <ele>887</ele>
        <time>2021-02-27T08:53:21Z</time>
      </trkpt>
      <trkpt lat="45.3168" lon="4.33327">
        <ele>886</ele>
        <time>2021-02-27T08:53:22Z</time>
      </trkpt>
      <trkpt lat="45.31677" lon="4.33324">
        <ele>886</ele>
        <time>2021-02-27T08:53:23Z</time>
      </trkpt>
      <trkpt lat="45.31674" lon="4.3332">
        <ele>886</ele>
        <time>2021-02-27T08:53:25Z</time>
      </trkpt>
      <trkpt lat="45.31671" lon="4.33315">
        <ele>885</ele>
        <time>2021-02-27T08:53:27Z</time>
      </trkpt>
      <trkpt lat="45.31668" lon="4.33312">
        <ele>886</ele>
        <time>2021-02-27T08:53:29Z</time>
      </trkpt>
      <trkpt lat="45.31666" lon="4.33307">
        <ele>885</ele>
        <time>2021-02-27T08:53:31Z</time>
      </trkpt>
      <trkpt lat="45.31665" lon="4.33301">
        <ele>885</ele>
        <time>2021-02-27T08:53:32Z</time>
      </trkpt>
      <trkpt lat="45.31665" lon="4.33296">
        <ele>885</ele>
        <time>2021-02-27T08:53:33Z</time>
      </trkpt>
      <trkpt lat="45.31663" lon="4.3329">
        <ele>885</ele>
        <time>2021-02-27T08:53:34Z</time>
      </trkpt>
      <trkpt lat="45.31662" lon="4.33284">
        <ele>885</ele>
        <time>2021-02-27T08:53:35Z</time>
      </trkpt>
      <trkpt lat="45.31661" lon="4.33278">
        <ele>885</ele>
        <time>2021-02-27T08:53:36Z</time>
      </trkpt>
      <trkpt lat="45.31659" lon="4.33273">
        <ele>884</ele>
        <time>2021-02-27T08:53:37Z</time>
      </trkpt>
      <trkpt lat="45.31656" lon="4.33267">
        <ele>884</ele>
        <time>2021-02-27T08:53:38Z</time>
      </trkpt>
      <trkpt lat="45.31654" lon="4.3326">
        <ele>884</ele>
        <time>2021-02-27T08:53:39Z</time>
      </trkpt>
      <trkpt lat="45.31651" lon="4.33253">
        <ele>883</ele>
        <time>2021-02-27T08:53:40Z</time>
      </trkpt>
      <trkpt lat="45.31648" lon="4.33247">
        <ele>884</ele>
        <time>2021-02-27T08:53:41Z</time>
      </trkpt>
      <trkpt lat="45.31646" lon="4.33241">
        <ele>883</ele>
        <time>2021-02-27T08:53:42Z</time>
      </trkpt>
      <trkpt lat="45.31643" lon="4.33236">
        <ele>883</ele>
        <time>2021-02-27T08:53:43Z</time>
      </trkpt>
      <trkpt lat="45.31641" lon="4.3323">
        <ele>882</ele>
        <time>2021-02-27T08:53:44Z</time>
      </trkpt>
      <trkpt lat="45.31637" lon="4.33225">
        <ele>883</ele>
        <time>2021-02-27T08:53:45Z</time>
      </trkpt>
      <trkpt lat="45.31633" lon="4.3322">
        <ele>883</ele>
        <time>2021-02-27T08:53:46Z</time>
      </trkpt>
      <trkpt lat="45.3163" lon="4.33215">
        <ele>882</ele>
        <time>2021-02-27T08:53:47Z</time>
      </trkpt>
      <trkpt lat="45.31626" lon="4.33211">
        <ele>882</ele>
        <time>2021-02-27T08:53:48Z</time>
      </trkpt>
      <trkpt lat="45.31623" lon="4.33208">
        <ele>882</ele>
        <time>2021-02-27T08:53:49Z</time>
      </trkpt>
      <trkpt lat="45.3162" lon="4.33206">
        <ele>883</ele>
        <time>2021-02-27T08:53:50Z</time>
      </trkpt>
      <trkpt lat="45.31617" lon="4.33205">
        <ele>883</ele>
        <time>2021-02-27T08:53:51Z</time>
      </trkpt>
      <trkpt lat="45.31613" lon="4.33204">
        <ele>882</ele>
        <time>2021-02-27T08:53:53Z</time>
      </trkpt>
      <trkpt lat="45.31608" lon="4.33204">
        <ele>883</ele>
        <time>2021-02-27T08:53:55Z</time>
      </trkpt>
      <trkpt lat="45.31604" lon="4.33203">
        <ele>882</ele>
        <time>2021-02-27T08:53:56Z</time>
      </trkpt>
      <trkpt lat="45.31601" lon="4.33202">
        <ele>882</ele>
        <time>2021-02-27T08:53:57Z</time>
      </trkpt>
      <trkpt lat="45.31597" lon="4.33202">
        <ele>882</ele>
        <time>2021-02-27T08:53:58Z</time>
      </trkpt>
      <trkpt lat="45.31593" lon="4.33201">
        <ele>882</ele>
        <time>2021-02-27T08:53:59Z</time>
      </trkpt>
      <trkpt lat="45.31588" lon="4.332">
        <ele>881</ele>
        <time>2021-02-27T08:54:00Z</time>
      </trkpt>
      <trkpt lat="45.31582" lon="4.33198">
        <ele>881</ele>
        <time>2021-02-27T08:54:01Z</time>
      </trkpt>
      <trkpt lat="45.31576" lon="4.33197">
        <ele>881</ele>
        <time>2021-02-27T08:54:02Z</time>
      </trkpt>
      <trkpt lat="45.31571" lon="4.33195">
        <ele>881</ele>
        <time>2021-02-27T08:54:03Z</time>
      </trkpt>
      <trkpt lat="45.31567" lon="4.33193">
        <ele>881</ele>
        <time>2021-02-27T08:54:04Z</time>
      </trkpt>
      <trkpt lat="45.31563" lon="4.33191">
        <ele>881</ele>
        <time>2021-02-27T08:54:05Z</time>
      </trkpt>
      <trkpt lat="45.3156" lon="4.3319">
        <ele>880</ele>
        <time>2021-02-27T08:54:06Z</time>
      </trkpt>
      <trkpt lat="45.31556" lon="4.33188">
        <ele>881</ele>
        <time>2021-02-27T08:54:07Z</time>
      </trkpt>
      <trkpt lat="45.31552" lon="4.33187">
        <ele>881</ele>
        <time>2021-02-27T08:54:08Z</time>
      </trkpt>
      <trkpt lat="45.31548" lon="4.33185">
        <ele>880</ele>
        <time>2021-02-27T08:54:09Z</time>
      </trkpt>
      <trkpt lat="45.31544" lon="4.33184">
        <ele>881</ele>
        <time>2021-02-27T08:54:10Z</time>
      </trkpt>
      <trkpt lat="45.31539" lon="4.33181">
        <ele>881</ele>
        <time>2021-02-27T08:54:11Z</time>
      </trkpt>
      <trkpt lat="45.31534" lon="4.3318">
        <ele>881</ele>
        <time>2021-02-27T08:54:12Z</time>
      </trkpt>
      <trkpt lat="45.3153" lon="4.33178">
        <ele>881</ele>
        <time>2021-02-27T08:54:13Z</time>
      </trkpt>
      <trkpt lat="45.31525" lon="4.33177">
        <ele>881</ele>
        <time>2021-02-27T08:54:14Z</time>
      </trkpt>
      <trkpt lat="45.31522" lon="4.33175">
        <ele>881</ele>
        <time>2021-02-27T08:54:15Z</time>
      </trkpt>
      <trkpt lat="45.31518" lon="4.33173">
        <ele>881</ele>
        <time>2021-02-27T08:54:16Z</time>
      </trkpt>
      <trkpt lat="45.31514" lon="4.33171">
        <ele>881</ele>
        <time>2021-02-27T08:54:17Z</time>
      </trkpt>
      <trkpt lat="45.3151" lon="4.33169">
        <ele>881</ele>
        <time>2021-02-27T08:54:18Z</time>
      </trkpt>
      <trkpt lat="45.31505" lon="4.33168">
        <ele>880</ele>
        <time>2021-02-27T08:54:19Z</time>
      </trkpt>
      <trkpt lat="45.31501" lon="4.33166">
        <ele>881</ele>
        <time>2021-02-27T08:54:20Z</time>
      </trkpt>
      <trkpt lat="45.31497" lon="4.33164">
        <ele>881</ele>
        <time>2021-02-27T08:54:21Z</time>
      </trkpt>
      <trkpt lat="45.31494" lon="4.33163">
        <ele>880</ele>
        <time>2021-02-27T08:54:22Z</time>
      </trkpt>
      <trkpt lat="45.3149" lon="4.33162">
        <ele>880</ele>
        <time>2021-02-27T08:54:23Z</time>
      </trkpt>
      <trkpt lat="45.31487" lon="4.33161">
        <ele>880</ele>
        <time>2021-02-27T08:54:24Z</time>
      </trkpt>
      <trkpt lat="45.31483" lon="4.33159">
        <ele>880</ele>
        <time>2021-02-27T08:54:25Z</time>
      </trkpt>
      <trkpt lat="45.3148" lon="4.33157">
        <ele>880</ele>
        <time>2021-02-27T08:54:26Z</time>
      </trkpt>
      <trkpt lat="45.31477" lon="4.33155">
        <ele>880</ele>
        <time>2021-02-27T08:54:27Z</time>
      </trkpt>
      <trkpt lat="45.31472" lon="4.33154">
        <ele>880</ele>
        <time>2021-02-27T08:54:29Z</time>
      </trkpt>
      <trkpt lat="45.31468" lon="4.33153">
        <ele>880</ele>
        <time>2021-02-27T08:54:30Z</time>
      </trkpt>
      <trkpt lat="45.31464" lon="4.33152">
        <ele>880</ele>
        <time>2021-02-27T08:54:31Z</time>
      </trkpt>
      <trkpt lat="45.3146" lon="4.33151">
        <ele>880</ele>
        <time>2021-02-27T08:54:32Z</time>
      </trkpt>
      <trkpt lat="45.31457" lon="4.3315">
        <ele>881</ele>
        <time>2021-02-27T08:54:33Z</time>
      </trkpt>
      <trkpt lat="45.31452" lon="4.33151">
        <ele>881</ele>
        <time>2021-02-27T08:54:34Z</time>
      </trkpt>
      <trkpt lat="45.31445" lon="4.33151">
        <ele>881</ele>
        <time>2021-02-27T08:54:36Z</time>
      </trkpt>
      <trkpt lat="45.31439" lon="4.33152">
        <ele>882</ele>
        <time>2021-02-27T08:54:37Z</time>
      </trkpt>
      <trkpt lat="45.31433" lon="4.33152">
        <ele>882</ele>
        <time>2021-02-27T08:54:38Z</time>
      </trkpt>
      <trkpt lat="45.31426" lon="4.33153">
        <ele>882</ele>
        <time>2021-02-27T08:54:40Z</time>
      </trkpt>
      <trkpt lat="45.31419" lon="4.33152">
        <ele>883</ele>
        <time>2021-02-27T08:54:42Z</time>
      </trkpt>
      <trkpt lat="45.31413" lon="4.3315">
        <ele>884</ele>
        <time>2021-02-27T08:54:44Z</time>
      </trkpt>
      <trkpt lat="45.31408" lon="4.33151">
        <ele>884</ele>
        <time>2021-02-27T08:54:45Z</time>
      </trkpt>
      <trkpt lat="45.31404" lon="4.3315">
        <ele>885</ele>
        <time>2021-02-27T08:54:46Z</time>
      </trkpt>
      <trkpt lat="45.314" lon="4.3315">
        <ele>885</ele>
        <time>2021-02-27T08:54:47Z</time>
      </trkpt>
      <trkpt lat="45.31394" lon="4.3315">
        <ele>885</ele>
        <time>2021-02-27T08:54:49Z</time>
      </trkpt>
      <trkpt lat="45.3139" lon="4.33149">
        <ele>886</ele>
        <time>2021-02-27T08:54:50Z</time>
      </trkpt>
      <trkpt lat="45.31386" lon="4.33147">
        <ele>886</ele>
        <time>2021-02-27T08:54:52Z</time>
      </trkpt>
      <trkpt lat="45.31382" lon="4.33147">
        <ele>886</ele>
        <time>2021-02-27T08:54:53Z</time>
      </trkpt>
      <trkpt lat="45.31379" lon="4.33145">
        <ele>887</ele>
        <time>2021-02-27T08:54:55Z</time>
      </trkpt>
      <trkpt lat="45.31376" lon="4.33143">
        <ele>887</ele>
        <time>2021-02-27T08:54:57Z</time>
      </trkpt>
      <trkpt lat="45.31371" lon="4.33141">
        <ele>886</ele>
        <time>2021-02-27T08:54:58Z</time>
      </trkpt>
      <trkpt lat="45.31367" lon="4.3314">
        <ele>887</ele>
        <time>2021-02-27T08:54:59Z</time>
      </trkpt>
      <trkpt lat="45.31363" lon="4.33138">
        <ele>887</ele>
        <time>2021-02-27T08:55:00Z</time>
      </trkpt>
      <trkpt lat="45.3136" lon="4.33136">
        <ele>887</ele>
        <time>2021-02-27T08:55:01Z</time>
      </trkpt>
      <trkpt lat="45.31356" lon="4.33135">
        <ele>887</ele>
        <time>2021-02-27T08:55:02Z</time>
      </trkpt>
      <trkpt lat="45.31353" lon="4.33133">
        <ele>887</ele>
        <time>2021-02-27T08:55:03Z</time>
      </trkpt>
      <trkpt lat="45.3135" lon="4.33131">
        <ele>887</ele>
        <time>2021-02-27T08:55:04Z</time>
      </trkpt>
      <trkpt lat="45.31345" lon="4.33128">
        <ele>887</ele>
        <time>2021-02-27T08:55:06Z</time>
      </trkpt>
      <trkpt lat="45.31342" lon="4.33124">
        <ele>887</ele>
        <time>2021-02-27T08:55:07Z</time>
      </trkpt>
      <trkpt lat="45.31339" lon="4.3312">
        <ele>887</ele>
        <time>2021-02-27T08:55:09Z</time>
      </trkpt>
      <trkpt lat="45.31338" lon="4.33116">
        <ele>888</ele>
        <time>2021-02-27T08:55:10Z</time>
      </trkpt>
      <trkpt lat="45.31337" lon="4.33112">
        <ele>888</ele>
        <time>2021-02-27T08:55:11Z</time>
      </trkpt>
      <trkpt lat="45.31338" lon="4.33107">
        <ele>888</ele>
        <time>2021-02-27T08:55:13Z</time>
      </trkpt>
      <trkpt lat="45.31338" lon="4.33101">
        <ele>889</ele>
        <time>2021-02-27T08:55:15Z</time>
      </trkpt>
      <trkpt lat="45.31339" lon="4.33095">
        <ele>890</ele>
        <time>2021-02-27T08:55:18Z</time>
      </trkpt>
      <trkpt lat="45.3134" lon="4.33089">
        <ele>890</ele>
        <time>2021-02-27T08:55:20Z</time>
      </trkpt>
      <trkpt lat="45.3134" lon="4.33083">
        <ele>890</ele>
        <time>2021-02-27T08:55:21Z</time>
      </trkpt>
      <trkpt lat="45.31341" lon="4.33077">
        <ele>890</ele>
        <time>2021-02-27T08:55:22Z</time>
      </trkpt>
      <trkpt lat="45.31341" lon="4.3307">
        <ele>891</ele>
        <time>2021-02-27T08:55:23Z</time>
      </trkpt>
      <trkpt lat="45.31342" lon="4.33065">
        <ele>891</ele>
        <time>2021-02-27T08:55:24Z</time>
      </trkpt>
      <trkpt lat="45.31343" lon="4.3306">
        <ele>891</ele>
        <time>2021-02-27T08:55:25Z</time>
      </trkpt>
      <trkpt lat="45.31343" lon="4.33055">
        <ele>891</ele>
        <time>2021-02-27T08:55:26Z</time>
      </trkpt>
      <trkpt lat="45.31344" lon="4.3305">
        <ele>892</ele>
        <time>2021-02-27T08:55:27Z</time>
      </trkpt>
      <trkpt lat="45.31344" lon="4.33045">
        <ele>892</ele>
        <time>2021-02-27T08:55:28Z</time>
      </trkpt>
      <trkpt lat="45.31344" lon="4.33039">
        <ele>892</ele>
        <time>2021-02-27T08:55:30Z</time>
      </trkpt>
      <trkpt lat="45.31345" lon="4.33032">
        <ele>893</ele>
        <time>2021-02-27T08:55:32Z</time>
      </trkpt>
      <trkpt lat="45.31346" lon="4.33027">
        <ele>893</ele>
        <time>2021-02-27T08:55:33Z</time>
      </trkpt>
      <trkpt lat="45.31348" lon="4.33023">
        <ele>894</ele>
        <time>2021-02-27T08:55:34Z</time>
      </trkpt>
      <trkpt lat="45.31349" lon="4.33017">
        <ele>893</ele>
        <time>2021-02-27T08:55:36Z</time>
      </trkpt>
      <trkpt lat="45.3135" lon="4.33011">
        <ele>894</ele>
        <time>2021-02-27T08:55:38Z</time>
      </trkpt>
      <trkpt lat="45.31351" lon="4.33006">
        <ele>894</ele>
        <time>2021-02-27T08:55:40Z</time>
      </trkpt>
      <trkpt lat="45.31352" lon="4.33">
        <ele>896</ele>
        <time>2021-02-27T08:55:42Z</time>
      </trkpt>
      <trkpt lat="45.31353" lon="4.32995">
        <ele>896</ele>
        <time>2021-02-27T08:55:44Z</time>
      </trkpt>
      <trkpt lat="45.31354" lon="4.3299">
        <ele>897</ele>
        <time>2021-02-27T08:55:46Z</time>
      </trkpt>
      <trkpt lat="45.31355" lon="4.32983">
        <ele>897</ele>
        <time>2021-02-27T08:55:48Z</time>
      </trkpt>
      <trkpt lat="45.31356" lon="4.32978">
        <ele>898</ele>
        <time>2021-02-27T08:55:49Z</time>
      </trkpt>
      <trkpt lat="45.31357" lon="4.32972">
        <ele>898</ele>
        <time>2021-02-27T08:55:51Z</time>
      </trkpt>
      <trkpt lat="45.31358" lon="4.32966">
        <ele>899</ele>
        <time>2021-02-27T08:55:53Z</time>
      </trkpt>
      <trkpt lat="45.31359" lon="4.3296">
        <ele>899</ele>
        <time>2021-02-27T08:55:55Z</time>
      </trkpt>
      <trkpt lat="45.3136" lon="4.32954">
        <ele>900</ele>
        <time>2021-02-27T08:55:57Z</time>
      </trkpt>
      <trkpt lat="45.31362" lon="4.32948">
        <ele>900</ele>
        <time>2021-02-27T08:55:59Z</time>
      </trkpt>
      <trkpt lat="45.31365" lon="4.32942">
        <ele>901</ele>
        <time>2021-02-27T08:56:01Z</time>
      </trkpt>
      <trkpt lat="45.31367" lon="4.32938">
        <ele>902</ele>
        <time>2021-02-27T08:56:03Z</time>
      </trkpt>
      <trkpt lat="45.31369" lon="4.32932">
        <ele>901</ele>
        <time>2021-02-27T08:56:05Z</time>
      </trkpt>
      <trkpt lat="45.31371" lon="4.32927">
        <ele>902</ele>
        <time>2021-02-27T08:56:06Z</time>
      </trkpt>
      <trkpt lat="45.31372" lon="4.32921">
        <ele>902</ele>
        <time>2021-02-27T08:56:07Z</time>
      </trkpt>
      <trkpt lat="45.31373" lon="4.32916">
        <ele>902</ele>
        <time>2021-02-27T08:56:08Z</time>
      </trkpt>
      <trkpt lat="45.31374" lon="4.32911">
        <ele>902</ele>
        <time>2021-02-27T08:56:09Z</time>
      </trkpt>
      <trkpt lat="45.31376" lon="4.32907">
        <ele>902</ele>
        <time>2021-02-27T08:56:10Z</time>
      </trkpt>
      <trkpt lat="45.31377" lon="4.32904">
        <ele>903</ele>
        <time>2021-02-27T08:56:11Z</time>
      </trkpt>
      <trkpt lat="45.31379" lon="4.32899">
        <ele>903</ele>
        <time>2021-02-27T08:56:13Z</time>
      </trkpt>
      <trkpt lat="45.31382" lon="4.32895">
        <ele>903</ele>
        <time>2021-02-27T08:56:15Z</time>
      </trkpt>
      <trkpt lat="45.31384" lon="4.32887">
        <ele>903</ele>
        <time>2021-02-27T08:56:17Z</time>
      </trkpt>
      <trkpt lat="45.31386" lon="4.32881">
        <ele>903</ele>
        <time>2021-02-27T08:56:18Z</time>
      </trkpt>
      <trkpt lat="45.31387" lon="4.32875">
        <ele>903</ele>
        <time>2021-02-27T08:56:19Z</time>
      </trkpt>
      <trkpt lat="45.31387" lon="4.32869">
        <ele>904</ele>
        <time>2021-02-27T08:56:20Z</time>
      </trkpt>
      <trkpt lat="45.31388" lon="4.32864">
        <ele>904</ele>
        <time>2021-02-27T08:56:21Z</time>
      </trkpt>
      <trkpt lat="45.31388" lon="4.32858">
        <ele>904</ele>
        <time>2021-02-27T08:56:22Z</time>
      </trkpt>
      <trkpt lat="45.31388" lon="4.32853">
        <ele>904</ele>
        <time>2021-02-27T08:56:23Z</time>
      </trkpt>
      <trkpt lat="45.31388" lon="4.32849">
        <ele>904</ele>
        <time>2021-02-27T08:56:24Z</time>
      </trkpt>
      <trkpt lat="45.31389" lon="4.32843">
        <ele>904</ele>
        <time>2021-02-27T08:56:25Z</time>
      </trkpt>
      <trkpt lat="45.31389" lon="4.32838">
        <ele>904</ele>
        <time>2021-02-27T08:56:26Z</time>
      </trkpt>
      <trkpt lat="45.31389" lon="4.32832">
        <ele>905</ele>
        <time>2021-02-27T08:56:27Z</time>
      </trkpt>
      <trkpt lat="45.31389" lon="4.32827">
        <ele>904</ele>
        <time>2021-02-27T08:56:28Z</time>
      </trkpt>
      <trkpt lat="45.31389" lon="4.32823">
        <ele>905</ele>
        <time>2021-02-27T08:56:29Z</time>
      </trkpt>
      <trkpt lat="45.31388" lon="4.32819">
        <ele>905</ele>
        <time>2021-02-27T08:56:30Z</time>
      </trkpt>
      <trkpt lat="45.31388" lon="4.32814">
        <ele>905</ele>
        <time>2021-02-27T08:56:31Z</time>
      </trkpt>
      <trkpt lat="45.31387" lon="4.3281">
        <ele>905</ele>
        <time>2021-02-27T08:56:32Z</time>
      </trkpt>
      <trkpt lat="45.31386" lon="4.32807">
        <ele>904</ele>
        <time>2021-02-27T08:56:33Z</time>
      </trkpt>
      <trkpt lat="45.31384" lon="4.32802">
        <ele>905</ele>
        <time>2021-02-27T08:56:34Z</time>
      </trkpt>
      <trkpt lat="45.31381" lon="4.32798">
        <ele>904</ele>
        <time>2021-02-27T08:56:35Z</time>
      </trkpt>
      <trkpt lat="45.31379" lon="4.32794">
        <ele>905</ele>
        <time>2021-02-27T08:56:36Z</time>
      </trkpt>
      <trkpt lat="45.31375" lon="4.32791">
        <ele>904</ele>
        <time>2021-02-27T08:56:37Z</time>
      </trkpt>
      <trkpt lat="45.31372" lon="4.32788">
        <ele>905</ele>
        <time>2021-02-27T08:56:38Z</time>
      </trkpt>
      <trkpt lat="45.31368" lon="4.32785">
        <ele>904</ele>
        <time>2021-02-27T08:56:39Z</time>
      </trkpt>
      <trkpt lat="45.31364" lon="4.32782">
        <ele>904</ele>
        <time>2021-02-27T08:56:40Z</time>
      </trkpt>
      <trkpt lat="45.31361" lon="4.3278">
        <ele>904</ele>
        <time>2021-02-27T08:56:41Z</time>
      </trkpt>
      <trkpt lat="45.31357" lon="4.32778">
        <ele>904</ele>
        <time>2021-02-27T08:56:42Z</time>
      </trkpt>
      <trkpt lat="45.31353" lon="4.32775">
        <ele>904</ele>
        <time>2021-02-27T08:56:43Z</time>
      </trkpt>
      <trkpt lat="45.31349" lon="4.32773">
        <ele>904</ele>
        <time>2021-02-27T08:56:44Z</time>
      </trkpt>
      <trkpt lat="45.31345" lon="4.32772">
        <ele>904</ele>
        <time>2021-02-27T08:56:45Z</time>
      </trkpt>
      <trkpt lat="45.31341" lon="4.3277">
        <ele>904</ele>
        <time>2021-02-27T08:56:46Z</time>
      </trkpt>
      <trkpt lat="45.31337" lon="4.32769">
        <ele>904</ele>
        <time>2021-02-27T08:56:47Z</time>
      </trkpt>
      <trkpt lat="45.31332" lon="4.32769">
        <ele>904</ele>
        <time>2021-02-27T08:56:48Z</time>
      </trkpt>
      <trkpt lat="45.31328" lon="4.32768">
        <ele>905</ele>
        <time>2021-02-27T08:56:49Z</time>
      </trkpt>
      <trkpt lat="45.31325" lon="4.32768">
        <ele>904</ele>
        <time>2021-02-27T08:56:50Z</time>
      </trkpt>
      <trkpt lat="45.31321" lon="4.32768">
        <ele>905</ele>
        <time>2021-02-27T08:56:51Z</time>
      </trkpt>
      <trkpt lat="45.31318" lon="4.32768">
        <ele>905</ele>
        <time>2021-02-27T08:56:52Z</time>
      </trkpt>
      <trkpt lat="45.31314" lon="4.32769">
        <ele>905</ele>
        <time>2021-02-27T08:56:53Z</time>
      </trkpt>
      <trkpt lat="45.3131" lon="4.32769">
        <ele>905</ele>
        <time>2021-02-27T08:56:54Z</time>
      </trkpt>
      <trkpt lat="45.31306" lon="4.32769">
        <ele>905</ele>
        <time>2021-02-27T08:56:55Z</time>
      </trkpt>
      <trkpt lat="45.31301" lon="4.3277">
        <ele>905</ele>
        <time>2021-02-27T08:56:56Z</time>
      </trkpt>
      <trkpt lat="45.31297" lon="4.32771">
        <ele>905</ele>
        <time>2021-02-27T08:56:57Z</time>
      </trkpt>
      <trkpt lat="45.31294" lon="4.32771">
        <ele>905</ele>
        <time>2021-02-27T08:56:58Z</time>
      </trkpt>
      <trkpt lat="45.3129" lon="4.32771">
        <ele>905</ele>
        <time>2021-02-27T08:56:59Z</time>
      </trkpt>
      <trkpt lat="45.31287" lon="4.32772">
        <ele>905</ele>
        <time>2021-02-27T08:57:00Z</time>
      </trkpt>
      <trkpt lat="45.31282" lon="4.32772">
        <ele>905</ele>
        <time>2021-02-27T08:57:01Z</time>
      </trkpt>
      <trkpt lat="45.31278" lon="4.32772">
        <ele>905</ele>
        <time>2021-02-27T08:57:02Z</time>
      </trkpt>
      <trkpt lat="45.31273" lon="4.32772">
        <ele>905</ele>
        <time>2021-02-27T08:57:03Z</time>
      </trkpt>
      <trkpt lat="45.31268" lon="4.32772">
        <ele>904</ele>
        <time>2021-02-27T08:57:04Z</time>
      </trkpt>
      <trkpt lat="45.31263" lon="4.32772">
        <ele>904</ele>
        <time>2021-02-27T08:57:05Z</time>
      </trkpt>
      <trkpt lat="45.31259" lon="4.32771">
        <ele>905</ele>
        <time>2021-02-27T08:57:06Z</time>
      </trkpt>
      <trkpt lat="45.31254" lon="4.32769">
        <ele>904</ele>
        <time>2021-02-27T08:57:07Z</time>
      </trkpt>
      <trkpt lat="45.31249" lon="4.32766">
        <ele>904</ele>
        <time>2021-02-27T08:57:08Z</time>
      </trkpt>
      <trkpt lat="45.31246" lon="4.32763">
        <ele>904</ele>
        <time>2021-02-27T08:57:09Z</time>
      </trkpt>
      <trkpt lat="45.31242" lon="4.32758">
        <ele>905</ele>
        <time>2021-02-27T08:57:10Z</time>
      </trkpt>
      <trkpt lat="45.3124" lon="4.32753">
        <ele>905</ele>
        <time>2021-02-27T08:57:11Z</time>
      </trkpt>
      <trkpt lat="45.31237" lon="4.32747">
        <ele>906</ele>
        <time>2021-02-27T08:57:12Z</time>
      </trkpt>
      <trkpt lat="45.31235" lon="4.32743">
        <ele>906</ele>
        <time>2021-02-27T08:57:13Z</time>
      </trkpt>
      <trkpt lat="45.31232" lon="4.32738">
        <ele>906</ele>
        <time>2021-02-27T08:57:14Z</time>
      </trkpt>
      <trkpt lat="45.31229" lon="4.32734">
        <ele>907</ele>
        <time>2021-02-27T08:57:15Z</time>
      </trkpt>
      <trkpt lat="45.31226" lon="4.32732">
        <ele>907</ele>
        <time>2021-02-27T08:57:16Z</time>
      </trkpt>
      <trkpt lat="45.31224" lon="4.32729">
        <ele>907</ele>
        <time>2021-02-27T08:57:17Z</time>
      </trkpt>
      <trkpt lat="45.31221" lon="4.32727">
        <ele>908</ele>
        <time>2021-02-27T08:57:18Z</time>
      </trkpt>
      <trkpt lat="45.31218" lon="4.32725">
        <ele>908</ele>
        <time>2021-02-27T08:57:19Z</time>
      </trkpt>
      <trkpt lat="45.31215" lon="4.32724">
        <ele>907</ele>
        <time>2021-02-27T08:57:20Z</time>
      </trkpt>
      <trkpt lat="45.31212" lon="4.32722">
        <ele>908</ele>
        <time>2021-02-27T08:57:21Z</time>
      </trkpt>
      <trkpt lat="45.31209" lon="4.32721">
        <ele>908</ele>
        <time>2021-02-27T08:57:22Z</time>
      </trkpt>
      <trkpt lat="45.31207" lon="4.32717">
        <ele>908</ele>
        <time>2021-02-27T08:57:23Z</time>
      </trkpt>
      <trkpt lat="45.31206" lon="4.32713">
        <ele>909</ele>
        <time>2021-02-27T08:57:24Z</time>
      </trkpt>
      <trkpt lat="45.31205" lon="4.32709">
        <ele>909</ele>
        <time>2021-02-27T08:57:25Z</time>
      </trkpt>
      <trkpt lat="45.31206" lon="4.32704">
        <ele>909</ele>
        <time>2021-02-27T08:57:27Z</time>
      </trkpt>
      <trkpt lat="45.31207" lon="4.32699">
        <ele>909</ele>
        <time>2021-02-27T08:57:28Z</time>
      </trkpt>
      <trkpt lat="45.31209" lon="4.32695">
        <ele>910</ele>
        <time>2021-02-27T08:57:29Z</time>
      </trkpt>
      <trkpt lat="45.3121" lon="4.32689">
        <ele>910</ele>
        <time>2021-02-27T08:57:30Z</time>
      </trkpt>
      <trkpt lat="45.31212" lon="4.32685">
        <ele>910</ele>
        <time>2021-02-27T08:57:31Z</time>
      </trkpt>
      <trkpt lat="45.31213" lon="4.3268">
        <ele>911</ele>
        <time>2021-02-27T08:57:32Z</time>
      </trkpt>
      <trkpt lat="45.31215" lon="4.32674">
        <ele>911</ele>
        <time>2021-02-27T08:57:34Z</time>
      </trkpt>
      <trkpt lat="45.31216" lon="4.32669">
        <ele>911</ele>
        <time>2021-02-27T08:57:35Z</time>
      </trkpt>
      <trkpt lat="45.31218" lon="4.32662">
        <ele>911</ele>
        <time>2021-02-27T08:57:37Z</time>
      </trkpt>
      <trkpt lat="45.31219" lon="4.32658">
        <ele>912</ele>
        <time>2021-02-27T08:57:38Z</time>
      </trkpt>
      <trkpt lat="45.31221" lon="4.32653">
        <ele>912</ele>
        <time>2021-02-27T08:57:39Z</time>
      </trkpt>
      <trkpt lat="45.31223" lon="4.3265">
        <ele>912</ele>
        <time>2021-02-27T08:57:40Z</time>
      </trkpt>
      <trkpt lat="45.31225" lon="4.32647">
        <ele>913</ele>
        <time>2021-02-27T08:57:41Z</time>
      </trkpt>
      <trkpt lat="45.31228" lon="4.32643">
        <ele>912</ele>
        <time>2021-02-27T08:57:42Z</time>
      </trkpt>
      <trkpt lat="45.3123" lon="4.3264">
        <ele>913</ele>
        <time>2021-02-27T08:57:43Z</time>
      </trkpt>
      <trkpt lat="45.31232" lon="4.32638">
        <ele>913</ele>
        <time>2021-02-27T08:57:44Z</time>
      </trkpt>
      <trkpt lat="45.31235" lon="4.32635">
        <ele>913</ele>
        <time>2021-02-27T08:57:45Z</time>
      </trkpt>
      <trkpt lat="45.31238" lon="4.32632">
        <ele>913</ele>
        <time>2021-02-27T08:57:47Z</time>
      </trkpt>
      <trkpt lat="45.31241" lon="4.32629">
        <ele>913</ele>
        <time>2021-02-27T08:57:48Z</time>
      </trkpt>
      <trkpt lat="45.31244" lon="4.32626">
        <ele>913</ele>
        <time>2021-02-27T08:57:49Z</time>
      </trkpt>
      <trkpt lat="45.31246" lon="4.32623">
        <ele>914</ele>
        <time>2021-02-27T08:57:50Z</time>
      </trkpt>
      <trkpt lat="45.31249" lon="4.32621">
        <ele>914</ele>
        <time>2021-02-27T08:57:51Z</time>
      </trkpt>
      <trkpt lat="45.31251" lon="4.32619">
        <ele>914</ele>
        <time>2021-02-27T08:57:52Z</time>
      </trkpt>
      <trkpt lat="45.31254" lon="4.32617">
        <ele>914</ele>
        <time>2021-02-27T08:57:53Z</time>
      </trkpt>
      <trkpt lat="45.31256" lon="4.32614">
        <ele>914</ele>
        <time>2021-02-27T08:57:54Z</time>
      </trkpt>
      <trkpt lat="45.31259" lon="4.32612">
        <ele>914</ele>
        <time>2021-02-27T08:57:55Z</time>
      </trkpt>
      <trkpt lat="45.31261" lon="4.32608">
        <ele>914</ele>
        <time>2021-02-27T08:57:56Z</time>
      </trkpt>
      <trkpt lat="45.31263" lon="4.32604">
        <ele>914</ele>
        <time>2021-02-27T08:57:57Z</time>
      </trkpt>
      <trkpt lat="45.31265" lon="4.32599">
        <ele>914</ele>
        <time>2021-02-27T08:57:59Z</time>
      </trkpt>
      <trkpt lat="45.31267" lon="4.32594">
        <ele>915</ele>
        <time>2021-02-27T08:58:00Z</time>
      </trkpt>
      <trkpt lat="45.31269" lon="4.32589">
        <ele>916</ele>
        <time>2021-02-27T08:58:01Z</time>
      </trkpt>
      <trkpt lat="45.31271" lon="4.32584">
        <ele>916</ele>
        <time>2021-02-27T08:58:02Z</time>
      </trkpt>
      <trkpt lat="45.31273" lon="4.3258">
        <ele>915</ele>
        <time>2021-02-27T08:58:03Z</time>
      </trkpt>
      <trkpt lat="45.31276" lon="4.32573">
        <ele>916</ele>
        <time>2021-02-27T08:58:05Z</time>
      </trkpt>
      <trkpt lat="45.31279" lon="4.32568">
        <ele>916</ele>
        <time>2021-02-27T08:58:06Z</time>
      </trkpt>
      <trkpt lat="45.31281" lon="4.32564">
        <ele>916</ele>
        <time>2021-02-27T08:58:07Z</time>
      </trkpt>
      <trkpt lat="45.31284" lon="4.32558">
        <ele>916</ele>
        <time>2021-02-27T08:58:09Z</time>
      </trkpt>
      <trkpt lat="45.31286" lon="4.32553">
        <ele>917</ele>
        <time>2021-02-27T08:58:10Z</time>
      </trkpt>
      <trkpt lat="45.31288" lon="4.32549">
        <ele>917</ele>
        <time>2021-02-27T08:58:11Z</time>
      </trkpt>
      <trkpt lat="45.3129" lon="4.32546">
        <ele>917</ele>
        <time>2021-02-27T08:58:12Z</time>
      </trkpt>
      <trkpt lat="45.31291" lon="4.32542">
        <ele>917</ele>
        <time>2021-02-27T08:58:13Z</time>
      </trkpt>
      <trkpt lat="45.31292" lon="4.32539">
        <ele>918</ele>
        <time>2021-02-27T08:58:14Z</time>
      </trkpt>
      <trkpt lat="45.31294" lon="4.32532">
        <ele>918</ele>
        <time>2021-02-27T08:58:16Z</time>
      </trkpt>
      <trkpt lat="45.31295" lon="4.32527">
        <ele>918</ele>
        <time>2021-02-27T08:58:17Z</time>
      </trkpt>
      <trkpt lat="45.31296" lon="4.32522">
        <ele>918</ele>
        <time>2021-02-27T08:58:18Z</time>
      </trkpt>
      <trkpt lat="45.31297" lon="4.32518">
        <ele>918</ele>
        <time>2021-02-27T08:58:19Z</time>
      </trkpt>
      <trkpt lat="45.31297" lon="4.32514">
        <ele>918</ele>
        <time>2021-02-27T08:58:20Z</time>
      </trkpt>
      <trkpt lat="45.31297" lon="4.32509">
        <ele>918</ele>
        <time>2021-02-27T08:58:21Z</time>
      </trkpt>
      <trkpt lat="45.31298" lon="4.32505">
        <ele>919</ele>
        <time>2021-02-27T08:58:22Z</time>
      </trkpt>
      <trkpt lat="45.31297" lon="4.32499">
        <ele>919</ele>
        <time>2021-02-27T08:58:24Z</time>
      </trkpt>
      <trkpt lat="45.31296" lon="4.32494">
        <ele>920</ele>
        <time>2021-02-27T08:58:25Z</time>
      </trkpt>
      <trkpt lat="45.31294" lon="4.32489">
        <ele>920</ele>
        <time>2021-02-27T08:58:26Z</time>
      </trkpt>
      <trkpt lat="45.31293" lon="4.32485">
        <ele>921</ele>
        <time>2021-02-27T08:58:27Z</time>
      </trkpt>
      <trkpt lat="45.31292" lon="4.3248">
        <ele>920</ele>
        <time>2021-02-27T08:58:28Z</time>
      </trkpt>
      <trkpt lat="45.31291" lon="4.32476">
        <ele>921</ele>
        <time>2021-02-27T08:58:29Z</time>
      </trkpt>
      <trkpt lat="45.3129" lon="4.32471">
        <ele>920</ele>
        <time>2021-02-27T08:58:30Z</time>
      </trkpt>
      <trkpt lat="45.31288" lon="4.32466">
        <ele>921</ele>
        <time>2021-02-27T08:58:31Z</time>
      </trkpt>
      <trkpt lat="45.31287" lon="4.32462">
        <ele>921</ele>
        <time>2021-02-27T08:58:32Z</time>
      </trkpt>
      <trkpt lat="45.31286" lon="4.32458">
        <ele>921</ele>
        <time>2021-02-27T08:58:33Z</time>
      </trkpt>
      <trkpt lat="45.31285" lon="4.32452">
        <ele>923</ele>
        <time>2021-02-27T08:58:35Z</time>
      </trkpt>
      <trkpt lat="45.31284" lon="4.32447">
        <ele>922</ele>
        <time>2021-02-27T08:58:36Z</time>
      </trkpt>
      <trkpt lat="45.31283" lon="4.32442">
        <ele>923</ele>
        <time>2021-02-27T08:58:37Z</time>
      </trkpt>
      <trkpt lat="45.31282" lon="4.32438">
        <ele>923</ele>
        <time>2021-02-27T08:58:38Z</time>
      </trkpt>
      <trkpt lat="45.31282" lon="4.32434">
        <ele>923</ele>
        <time>2021-02-27T08:58:39Z</time>
      </trkpt>
      <trkpt lat="45.31281" lon="4.32427">
        <ele>923</ele>
        <time>2021-02-27T08:58:41Z</time>
      </trkpt>
      <trkpt lat="45.3128" lon="4.32422">
        <ele>923</ele>
        <time>2021-02-27T08:58:42Z</time>
      </trkpt>
      <trkpt lat="45.3128" lon="4.32418">
        <ele>923</ele>
        <time>2021-02-27T08:58:43Z</time>
      </trkpt>
      <trkpt lat="45.3128" lon="4.32413">
        <ele>924</ele>
        <time>2021-02-27T08:58:44Z</time>
      </trkpt>
      <trkpt lat="45.3128" lon="4.32409">
        <ele>924</ele>
        <time>2021-02-27T08:58:45Z</time>
      </trkpt>
      <trkpt lat="45.3128" lon="4.32402">
        <ele>923</ele>
        <time>2021-02-27T08:58:47Z</time>
      </trkpt>
      <trkpt lat="45.31279" lon="4.32395">
        <ele>924</ele>
        <time>2021-02-27T08:58:49Z</time>
      </trkpt>
      <trkpt lat="45.31279" lon="4.32387">
        <ele>925</ele>
        <time>2021-02-27T08:58:51Z</time>
      </trkpt>
      <trkpt lat="45.31279" lon="4.32381">
        <ele>925</ele>
        <time>2021-02-27T08:58:52Z</time>
      </trkpt>
      <trkpt lat="45.31278" lon="4.32376">
        <ele>925</ele>
        <time>2021-02-27T08:58:53Z</time>
      </trkpt>
      <trkpt lat="45.31278" lon="4.32371">
        <ele>925</ele>
        <time>2021-02-27T08:58:54Z</time>
      </trkpt>
      <trkpt lat="45.31278" lon="4.32366">
        <ele>925</ele>
        <time>2021-02-27T08:58:55Z</time>
      </trkpt>
      <trkpt lat="45.31278" lon="4.32362">
        <ele>925</ele>
        <time>2021-02-27T08:58:56Z</time>
      </trkpt>
      <trkpt lat="45.31278" lon="4.32357">
        <ele>925</ele>
        <time>2021-02-27T08:58:57Z</time>
      </trkpt>
      <trkpt lat="45.31278" lon="4.32352">
        <ele>925</ele>
        <time>2021-02-27T08:58:58Z</time>
      </trkpt>
      <trkpt lat="45.31277" lon="4.32348">
        <ele>925</ele>
        <time>2021-02-27T08:58:59Z</time>
      </trkpt>
      <trkpt lat="45.31277" lon="4.32343">
        <ele>925</ele>
        <time>2021-02-27T08:59:00Z</time>
      </trkpt>
      <trkpt lat="45.31277" lon="4.32338">
        <ele>926</ele>
        <time>2021-02-27T08:59:01Z</time>
      </trkpt>
      <trkpt lat="45.31276" lon="4.32334">
        <ele>926</ele>
        <time>2021-02-27T08:59:02Z</time>
      </trkpt>
      <trkpt lat="45.31276" lon="4.32329">
        <ele>925</ele>
        <time>2021-02-27T08:59:03Z</time>
      </trkpt>
      <trkpt lat="45.31276" lon="4.32324">
        <ele>926</ele>
        <time>2021-02-27T08:59:04Z</time>
      </trkpt>
      <trkpt lat="45.31276" lon="4.3232">
        <ele>926</ele>
        <time>2021-02-27T08:59:05Z</time>
      </trkpt>
      <trkpt lat="45.31276" lon="4.32315">
        <ele>925</ele>
        <time>2021-02-27T08:59:06Z</time>
      </trkpt>
      <trkpt lat="45.31276" lon="4.3231">
        <ele>925</ele>
        <time>2021-02-27T08:59:07Z</time>
      </trkpt>
      <trkpt lat="45.31276" lon="4.32305">
        <ele>925</ele>
        <time>2021-02-27T08:59:08Z</time>
      </trkpt>
      <trkpt lat="45.31275" lon="4.323">
        <ele>926</ele>
        <time>2021-02-27T08:59:09Z</time>
      </trkpt>
      <trkpt lat="45.31275" lon="4.32295">
        <ele>926</ele>
        <time>2021-02-27T08:59:10Z</time>
      </trkpt>
      <trkpt lat="45.31275" lon="4.3229">
        <ele>926</ele>
        <time>2021-02-27T08:59:11Z</time>
      </trkpt>
      <trkpt lat="45.31274" lon="4.32285">
        <ele>926</ele>
        <time>2021-02-27T08:59:12Z</time>
      </trkpt>
      <trkpt lat="45.31274" lon="4.3228">
        <ele>925</ele>
        <time>2021-02-27T08:59:13Z</time>
      </trkpt>
      <trkpt lat="45.31274" lon="4.32275">
        <ele>926</ele>
        <time>2021-02-27T08:59:14Z</time>
      </trkpt>
      <trkpt lat="45.31274" lon="4.3227">
        <ele>925</ele>
        <time>2021-02-27T08:59:15Z</time>
      </trkpt>
      <trkpt lat="45.31273" lon="4.32264">
        <ele>925</ele>
        <time>2021-02-27T08:59:16Z</time>
      </trkpt>
      <trkpt lat="45.31273" lon="4.32259">
        <ele>925</ele>
        <time>2021-02-27T08:59:17Z</time>
      </trkpt>
      <trkpt lat="45.31273" lon="4.32254">
        <ele>925</ele>
        <time>2021-02-27T08:59:18Z</time>
      </trkpt>
      <trkpt lat="45.31273" lon="4.32248">
        <ele>925</ele>
        <time>2021-02-27T08:59:19Z</time>
      </trkpt>
      <trkpt lat="45.31272" lon="4.32243">
        <ele>925</ele>
        <time>2021-02-27T08:59:20Z</time>
      </trkpt>
      <trkpt lat="45.31272" lon="4.32237">
        <ele>925</ele>
        <time>2021-02-27T08:59:21Z</time>
      </trkpt>
      <trkpt lat="45.31271" lon="4.32232">
        <ele>925</ele>
        <time>2021-02-27T08:59:22Z</time>
      </trkpt>
      <trkpt lat="45.31271" lon="4.32227">
        <ele>925</ele>
        <time>2021-02-27T08:59:23Z</time>
      </trkpt>
      <trkpt lat="45.31271" lon="4.32222">
        <ele>924</ele>
        <time>2021-02-27T08:59:24Z</time>
      </trkpt>
      <trkpt lat="45.3127" lon="4.32216">
        <ele>925</ele>
        <time>2021-02-27T08:59:25Z</time>
      </trkpt>
      <trkpt lat="45.3127" lon="4.3221">
        <ele>924</ele>
        <time>2021-02-27T08:59:26Z</time>
      </trkpt>
      <trkpt lat="45.31269" lon="4.32204">
        <ele>924</ele>
        <time>2021-02-27T08:59:27Z</time>
      </trkpt>
      <trkpt lat="45.31269" lon="4.32198">
        <ele>923</ele>
        <time>2021-02-27T08:59:28Z</time>
      </trkpt>
      <trkpt lat="45.31268" lon="4.32191">
        <ele>923</ele>
        <time>2021-02-27T08:59:29Z</time>
      </trkpt>
      <trkpt lat="45.31268" lon="4.32185">
        <ele>922</ele>
        <time>2021-02-27T08:59:30Z</time>
      </trkpt>
      <trkpt lat="45.31267" lon="4.32179">
        <ele>923</ele>
        <time>2021-02-27T08:59:31Z</time>
      </trkpt>
      <trkpt lat="45.31267" lon="4.32172">
        <ele>923</ele>
        <time>2021-02-27T08:59:32Z</time>
      </trkpt>
      <trkpt lat="45.31266" lon="4.32165">
        <ele>922</ele>
        <time>2021-02-27T08:59:33Z</time>
      </trkpt>
      <trkpt lat="45.31265" lon="4.32158">
        <ele>922</ele>
        <time>2021-02-27T08:59:34Z</time>
      </trkpt>
      <trkpt lat="45.31265" lon="4.32151">
        <ele>920</ele>
        <time>2021-02-27T08:59:35Z</time>
      </trkpt>
      <trkpt lat="45.31264" lon="4.32144">
        <ele>921</ele>
        <time>2021-02-27T08:59:36Z</time>
      </trkpt>
      <trkpt lat="45.31264" lon="4.32137">
        <ele>921</ele>
        <time>2021-02-27T08:59:37Z</time>
      </trkpt>
      <trkpt lat="45.31263" lon="4.32129">
        <ele>920</ele>
        <time>2021-02-27T08:59:38Z</time>
      </trkpt>
      <trkpt lat="45.31263" lon="4.32121">
        <ele>919</ele>
        <time>2021-02-27T08:59:39Z</time>
      </trkpt>
      <trkpt lat="45.31263" lon="4.32113">
        <ele>918</ele>
        <time>2021-02-27T08:59:40Z</time>
      </trkpt>
      <trkpt lat="45.31262" lon="4.32104">
        <ele>918</ele>
        <time>2021-02-27T08:59:41Z</time>
      </trkpt>
      <trkpt lat="45.31262" lon="4.32094">
        <ele>917</ele>
        <time>2021-02-27T08:59:42Z</time>
      </trkpt>
      <trkpt lat="45.31261" lon="4.32084">
        <ele>916</ele>
        <time>2021-02-27T08:59:43Z</time>
      </trkpt>
      <trkpt lat="45.3126" lon="4.32074">
        <ele>916</ele>
        <time>2021-02-27T08:59:44Z</time>
      </trkpt>
      <trkpt lat="45.3126" lon="4.32063">
        <ele>915</ele>
        <time>2021-02-27T08:59:45Z</time>
      </trkpt>
      <trkpt lat="45.3126" lon="4.32052">
        <ele>914</ele>
        <time>2021-02-27T08:59:46Z</time>
      </trkpt>
      <trkpt lat="45.3126" lon="4.32043">
        <ele>915</ele>
        <time>2021-02-27T08:59:47Z</time>
      </trkpt>
      <trkpt lat="45.31261" lon="4.32034">
        <ele>914</ele>
        <time>2021-02-27T08:59:48Z</time>
      </trkpt>
      <trkpt lat="45.31262" lon="4.32026">
        <ele>913</ele>
        <time>2021-02-27T08:59:49Z</time>
      </trkpt>
      <trkpt lat="45.31264" lon="4.32017">
        <ele>912</ele>
        <time>2021-02-27T08:59:50Z</time>
      </trkpt>
      <trkpt lat="45.31267" lon="4.32009">
        <ele>913</ele>
        <time>2021-02-27T08:59:51Z</time>
      </trkpt>
      <trkpt lat="45.31271" lon="4.32001">
        <ele>911</ele>
        <time>2021-02-27T08:59:52Z</time>
      </trkpt>
      <trkpt lat="45.31274" lon="4.31993">
        <ele>909</ele>
        <time>2021-02-27T08:59:53Z</time>
      </trkpt>
      <trkpt lat="45.31279" lon="4.31984">
        <ele>908</ele>
        <time>2021-02-27T08:59:54Z</time>
      </trkpt>
      <trkpt lat="45.31283" lon="4.31975">
        <ele>906</ele>
        <time>2021-02-27T08:59:55Z</time>
      </trkpt>
      <trkpt lat="45.31288" lon="4.31965">
        <ele>908</ele>
        <time>2021-02-27T08:59:56Z</time>
      </trkpt>
      <trkpt lat="45.31292" lon="4.31956">
        <ele>908</ele>
        <time>2021-02-27T08:59:57Z</time>
      </trkpt>
      <trkpt lat="45.31297" lon="4.31946">
        <ele>907</ele>
        <time>2021-02-27T08:59:58Z</time>
      </trkpt>
      <trkpt lat="45.31299" lon="4.31936">
        <ele>906</ele>
        <time>2021-02-27T08:59:59Z</time>
      </trkpt>
      <trkpt lat="45.31299" lon="4.31924">
        <ele>904</ele>
        <time>2021-02-27T09:00:00Z</time>
      </trkpt>
      <trkpt lat="45.31299" lon="4.31911">
        <ele>904</ele>
        <time>2021-02-27T09:00:01Z</time>
      </trkpt>
      <trkpt lat="45.31298" lon="4.31898">
        <ele>902</ele>
        <time>2021-02-27T09:00:02Z</time>
      </trkpt>
      <trkpt lat="45.31297" lon="4.31885">
        <ele>902</ele>
        <time>2021-02-27T09:00:03Z</time>
      </trkpt>
      <trkpt lat="45.31297" lon="4.31873">
        <ele>902</ele>
        <time>2021-02-27T09:00:04Z</time>
      </trkpt>
      <trkpt lat="45.31296" lon="4.31863">
        <ele>902</ele>
        <time>2021-02-27T09:00:05Z</time>
      </trkpt>
      <trkpt lat="45.31295" lon="4.31853">
        <ele>902</ele>
        <time>2021-02-27T09:00:06Z</time>
      </trkpt>
      <trkpt lat="45.31295" lon="4.31844">
        <ele>901</ele>
        <time>2021-02-27T09:00:07Z</time>
      </trkpt>
      <trkpt lat="45.31297" lon="4.31837">
        <ele>900</ele>
        <time>2021-02-27T09:00:08Z</time>
      </trkpt>
      <trkpt lat="45.31301" lon="4.31831">
        <ele>900</ele>
        <time>2021-02-27T09:00:09Z</time>
      </trkpt>
      <trkpt lat="45.31305" lon="4.31827">
        <ele>900</ele>
        <time>2021-02-27T09:00:10Z</time>
      </trkpt>
      <trkpt lat="45.31309" lon="4.31823">
        <ele>900</ele>
        <time>2021-02-27T09:00:11Z</time>
      </trkpt>
      <trkpt lat="45.31313" lon="4.31819">
        <ele>900</ele>
        <time>2021-02-27T09:00:12Z</time>
      </trkpt>
      <trkpt lat="45.31316" lon="4.31816">
        <ele>899</ele>
        <time>2021-02-27T09:00:13Z</time>
      </trkpt>
      <trkpt lat="45.31319" lon="4.31814">
        <ele>899</ele>
        <time>2021-02-27T09:00:14Z</time>
      </trkpt>
      <trkpt lat="45.31322" lon="4.31812">
        <ele>900</ele>
        <time>2021-02-27T09:00:15Z</time>
      </trkpt>
      <trkpt lat="45.31324" lon="4.31809">
        <ele>900</ele>
        <time>2021-02-27T09:00:16Z</time>
      </trkpt>
      <trkpt lat="45.31326" lon="4.31806">
        <ele>900</ele>
        <time>2021-02-27T09:00:17Z</time>
      </trkpt>
      <trkpt lat="45.31327" lon="4.31802">
        <ele>900</ele>
        <time>2021-02-27T09:00:18Z</time>
      </trkpt>
      <trkpt lat="45.31328" lon="4.31798">
        <ele>900</ele>
        <time>2021-02-27T09:00:20Z</time>
      </trkpt>
      <trkpt lat="45.31328" lon="4.31794">
        <ele>899</ele>
        <time>2021-02-27T09:00:23Z</time>
      </trkpt>
      <trkpt lat="45.31329" lon="4.3179">
        <ele>899</ele>
        <time>2021-02-27T09:00:26Z</time>
      </trkpt>
      <trkpt lat="45.31331" lon="4.31785">
        <ele>899</ele>
        <time>2021-02-27T09:00:29Z</time>
      </trkpt>
      <trkpt lat="45.31331" lon="4.3178">
        <ele>900</ele>
        <time>2021-02-27T09:00:30Z</time>
      </trkpt>
      <trkpt lat="45.3133" lon="4.31776">
        <ele>900</ele>
        <time>2021-02-27T09:00:31Z</time>
      </trkpt>
      <trkpt lat="45.31328" lon="4.31771">
        <ele>900</ele>
        <time>2021-02-27T09:00:32Z</time>
      </trkpt>
      <trkpt lat="45.31326" lon="4.31767">
        <ele>900</ele>
        <time>2021-02-27T09:00:33Z</time>
      </trkpt>
      <trkpt lat="45.31323" lon="4.31763">
        <ele>899</ele>
        <time>2021-02-27T09:00:34Z</time>
      </trkpt>
      <trkpt lat="45.31321" lon="4.31758">
        <ele>899</ele>
        <time>2021-02-27T09:00:35Z</time>
      </trkpt>
      <trkpt lat="45.31319" lon="4.31752">
        <ele>899</ele>
        <time>2021-02-27T09:00:36Z</time>
      </trkpt>
      <trkpt lat="45.31317" lon="4.31746">
        <ele>899</ele>
        <time>2021-02-27T09:00:37Z</time>
      </trkpt>
      <trkpt lat="45.31317" lon="4.31741">
        <ele>899</ele>
        <time>2021-02-27T09:00:38Z</time>
      </trkpt>
      <trkpt lat="45.31317" lon="4.31737">
        <ele>899</ele>
        <time>2021-02-27T09:00:39Z</time>
      </trkpt>
      <trkpt lat="45.31319" lon="4.31734">
        <ele>898</ele>
        <time>2021-02-27T09:00:40Z</time>
      </trkpt>
      <trkpt lat="45.31322" lon="4.31732">
        <ele>898</ele>
        <time>2021-02-27T09:00:41Z</time>
      </trkpt>
      <trkpt lat="45.31325" lon="4.31731">
        <ele>897</ele>
        <time>2021-02-27T09:00:42Z</time>
      </trkpt>
      <trkpt lat="45.31328" lon="4.31729">
        <ele>898</ele>
        <time>2021-02-27T09:00:43Z</time>
      </trkpt>
      <trkpt lat="45.31332" lon="4.31727">
        <ele>898</ele>
        <time>2021-02-27T09:00:44Z</time>
      </trkpt>
      <trkpt lat="45.31335" lon="4.31725">
        <ele>899</ele>
        <time>2021-02-27T09:00:45Z</time>
      </trkpt>
      <trkpt lat="45.31337" lon="4.31722">
        <ele>899</ele>
        <time>2021-02-27T09:00:46Z</time>
      </trkpt>
      <trkpt lat="45.31339" lon="4.31718">
        <ele>899</ele>
        <time>2021-02-27T09:00:47Z</time>
      </trkpt>
      <trkpt lat="45.31341" lon="4.31712">
        <ele>898</ele>
        <time>2021-02-27T09:00:48Z</time>
      </trkpt>
      <trkpt lat="45.31342" lon="4.31707">
        <ele>898</ele>
        <time>2021-02-27T09:00:49Z</time>
      </trkpt>
      <trkpt lat="45.31342" lon="4.31702">
        <ele>898</ele>
        <time>2021-02-27T09:00:50Z</time>
      </trkpt>
      <trkpt lat="45.31342" lon="4.31696">
        <ele>897</ele>
        <time>2021-02-27T09:00:51Z</time>
      </trkpt>
      <trkpt lat="45.31343" lon="4.3169">
        <ele>898</ele>
        <time>2021-02-27T09:00:52Z</time>
      </trkpt>
      <trkpt lat="45.31345" lon="4.31684">
        <ele>898</ele>
        <time>2021-02-27T09:00:53Z</time>
      </trkpt>
      <trkpt lat="45.31346" lon="4.31678">
        <ele>898</ele>
        <time>2021-02-27T09:00:54Z</time>
      </trkpt>
      <trkpt lat="45.31348" lon="4.31672">
        <ele>898</ele>
        <time>2021-02-27T09:00:55Z</time>
      </trkpt>
      <trkpt lat="45.3135" lon="4.31668">
        <ele>898</ele>
        <time>2021-02-27T09:00:56Z</time>
      </trkpt>
      <trkpt lat="45.31352" lon="4.31663">
        <ele>898</ele>
        <time>2021-02-27T09:00:57Z</time>
      </trkpt>
      <trkpt lat="45.31353" lon="4.31658">
        <ele>898</ele>
        <time>2021-02-27T09:00:58Z</time>
      </trkpt>
      <trkpt lat="45.31355" lon="4.31653">
        <ele>898</ele>
        <time>2021-02-27T09:00:59Z</time>
      </trkpt>
      <trkpt lat="45.31357" lon="4.31648">
        <ele>898</ele>
        <time>2021-02-27T09:01:00Z</time>
      </trkpt>
      <trkpt lat="45.31357" lon="4.31643">
        <ele>898</ele>
        <time>2021-02-27T09:01:01Z</time>
      </trkpt>
      <trkpt lat="45.31357" lon="4.31639">
        <ele>897</ele>
        <time>2021-02-27T09:01:02Z</time>
      </trkpt>
      <trkpt lat="45.31358" lon="4.31634">
        <ele>897</ele>
        <time>2021-02-27T09:01:03Z</time>
      </trkpt>
      <trkpt lat="45.31358" lon="4.31628">
        <ele>897</ele>
        <time>2021-02-27T09:01:04Z</time>
      </trkpt>
      <trkpt lat="45.31359" lon="4.31624">
        <ele>897</ele>
        <time>2021-02-27T09:01:05Z</time>
      </trkpt>
      <trkpt lat="45.31359" lon="4.3162">
        <ele>898</ele>
        <time>2021-02-27T09:01:06Z</time>
      </trkpt>
      <trkpt lat="45.31359" lon="4.31615">
        <ele>897</ele>
        <time>2021-02-27T09:01:08Z</time>
      </trkpt>
      <trkpt lat="45.3136" lon="4.31611">
        <ele>897</ele>
        <time>2021-02-27T09:01:09Z</time>
      </trkpt>
      <trkpt lat="45.31361" lon="4.31606">
        <ele>897</ele>
        <time>2021-02-27T09:01:10Z</time>
      </trkpt>
      <trkpt lat="45.31361" lon="4.31601">
        <ele>897</ele>
        <time>2021-02-27T09:01:12Z</time>
      </trkpt>
      <trkpt lat="45.31362" lon="4.31597">
        <ele>897</ele>
        <time>2021-02-27T09:01:14Z</time>
      </trkpt>
      <trkpt lat="45.31362" lon="4.31593">
        <ele>897</ele>
        <time>2021-02-27T09:01:16Z</time>
      </trkpt>
      <trkpt lat="45.31363" lon="4.31587">
        <ele>897</ele>
        <time>2021-02-27T09:01:18Z</time>
      </trkpt>
      <trkpt lat="45.31362" lon="4.31582">
        <ele>897</ele>
        <time>2021-02-27T09:01:19Z</time>
      </trkpt>
      <trkpt lat="45.31361" lon="4.31577">
        <ele>897</ele>
        <time>2021-02-27T09:01:20Z</time>
      </trkpt>
      <trkpt lat="45.3136" lon="4.31569">
        <ele>897</ele>
        <time>2021-02-27T09:01:21Z</time>
      </trkpt>
      <trkpt lat="45.31361" lon="4.31563">
        <ele>896</ele>
        <time>2021-02-27T09:01:23Z</time>
      </trkpt>
      <trkpt lat="45.3136" lon="4.31559">
        <ele>896</ele>
        <time>2021-02-27T09:01:24Z</time>
      </trkpt>
      <trkpt lat="45.3136" lon="4.31553">
        <ele>895</ele>
        <time>2021-02-27T09:01:25Z</time>
      </trkpt>
      <trkpt lat="45.3136" lon="4.31549">
        <ele>896</ele>
        <time>2021-02-27T09:01:26Z</time>
      </trkpt>
      <trkpt lat="45.3136" lon="4.31542">
        <ele>896</ele>
        <time>2021-02-27T09:01:28Z</time>
      </trkpt>
      <trkpt lat="45.31359" lon="4.31536">
        <ele>896</ele>
        <time>2021-02-27T09:01:29Z</time>
      </trkpt>
      <trkpt lat="45.31359" lon="4.3153">
        <ele>895</ele>
        <time>2021-02-27T09:01:31Z</time>
      </trkpt>
      <trkpt lat="45.31358" lon="4.31525">
        <ele>895</ele>
        <time>2021-02-27T09:01:32Z</time>
      </trkpt>
      <trkpt lat="45.31357" lon="4.31521">
        <ele>895</ele>
        <time>2021-02-27T09:01:33Z</time>
      </trkpt>
      <trkpt lat="45.31356" lon="4.31513">
        <ele>895</ele>
        <time>2021-02-27T09:01:35Z</time>
      </trkpt>
      <trkpt lat="45.31354" lon="4.31505">
        <ele>895</ele>
        <time>2021-02-27T09:01:36Z</time>
      </trkpt>
      <trkpt lat="45.31353" lon="4.31499">
        <ele>895</ele>
        <time>2021-02-27T09:01:37Z</time>
      </trkpt>
      <trkpt lat="45.3135" lon="4.31493">
        <ele>894</ele>
        <time>2021-02-27T09:01:39Z</time>
      </trkpt>
      <trkpt lat="45.31345" lon="4.31479">
        <ele>894</ele>
        <time>2021-02-27T09:01:42Z</time>
      </trkpt>
      <trkpt lat="45.31341" lon="4.31469">
        <ele>894</ele>
        <time>2021-02-27T09:01:45Z</time>
      </trkpt>
      <trkpt lat="45.31335" lon="4.31458">
        <ele>894</ele>
        <time>2021-02-27T09:01:49Z</time>
      </trkpt>
      <trkpt lat="45.3133" lon="4.31446">
        <ele>894</ele>
        <time>2021-02-27T09:01:54Z</time>
      </trkpt>
      <trkpt lat="45.31327" lon="4.31435">
        <ele>895</ele>
        <time>2021-02-27T09:02:02Z</time>
      </trkpt>
      <trkpt lat="45.31325" lon="4.31426">
        <ele>895</ele>
        <time>2021-02-27T09:02:04Z</time>
      </trkpt>
      <trkpt lat="45.31324" lon="4.31418">
        <ele>894</ele>
        <time>2021-02-27T09:02:05Z</time>
      </trkpt>
      <trkpt lat="45.31323" lon="4.31412">
        <ele>894</ele>
        <time>2021-02-27T09:02:06Z</time>
      </trkpt>
      <trkpt lat="45.31323" lon="4.31406">
        <ele>894</ele>
        <time>2021-02-27T09:02:07Z</time>
      </trkpt>
      <trkpt lat="45.31321" lon="4.314">
        <ele>894</ele>
        <time>2021-02-27T09:02:10Z</time>
      </trkpt>
      <trkpt lat="45.31319" lon="4.31395">
        <ele>894</ele>
        <time>2021-02-27T09:02:11Z</time>
      </trkpt>
      <trkpt lat="45.31316" lon="4.3139">
        <ele>894</ele>
        <time>2021-02-27T09:02:12Z</time>
      </trkpt>
      <trkpt lat="45.31314" lon="4.31386">
        <ele>894</ele>
        <time>2021-02-27T09:02:13Z</time>
      </trkpt>
      <trkpt lat="45.31312" lon="4.31381">
        <ele>895</ele>
        <time>2021-02-27T09:02:14Z</time>
      </trkpt>
      <trkpt lat="45.31311" lon="4.31377">
        <ele>895</ele>
        <time>2021-02-27T09:02:15Z</time>
      </trkpt>
      <trkpt lat="45.31309" lon="4.31373">
        <ele>895</ele>
        <time>2021-02-27T09:02:16Z</time>
      </trkpt>
      <trkpt lat="45.31305" lon="4.31367">
        <ele>895</ele>
        <time>2021-02-27T09:02:17Z</time>
      </trkpt>
      <trkpt lat="45.31302" lon="4.31363">
        <ele>894</ele>
        <time>2021-02-27T09:02:18Z</time>
      </trkpt>
      <trkpt lat="45.31299" lon="4.31356">
        <ele>894</ele>
        <time>2021-02-27T09:02:19Z</time>
      </trkpt>
      <trkpt lat="45.31298" lon="4.3135">
        <ele>894</ele>
        <time>2021-02-27T09:02:20Z</time>
      </trkpt>
      <trkpt lat="45.31294" lon="4.31342">
        <ele>894</ele>
        <time>2021-02-27T09:02:21Z</time>
      </trkpt>
      <trkpt lat="45.31292" lon="4.31335">
        <ele>894</ele>
        <time>2021-02-27T09:02:22Z</time>
      </trkpt>
      <trkpt lat="45.3129" lon="4.31329">
        <ele>894</ele>
        <time>2021-02-27T09:02:23Z</time>
      </trkpt>
      <trkpt lat="45.31287" lon="4.31324">
        <ele>894</ele>
        <time>2021-02-27T09:02:24Z</time>
      </trkpt>
      <trkpt lat="45.31285" lon="4.31318">
        <ele>894</ele>
        <time>2021-02-27T09:02:25Z</time>
      </trkpt>
      <trkpt lat="45.31282" lon="4.31314">
        <ele>894</ele>
        <time>2021-02-27T09:02:26Z</time>
      </trkpt>
      <trkpt lat="45.31281" lon="4.31309">
        <ele>894</ele>
        <time>2021-02-27T09:02:27Z</time>
      </trkpt>
      <trkpt lat="45.31279" lon="4.31305">
        <ele>894</ele>
        <time>2021-02-27T09:02:28Z</time>
      </trkpt>
      <trkpt lat="45.31278" lon="4.31301">
        <ele>895</ele>
        <time>2021-02-27T09:02:29Z</time>
      </trkpt>
      <trkpt lat="45.31277" lon="4.31295">
        <ele>895</ele>
        <time>2021-02-27T09:02:30Z</time>
      </trkpt>
      <trkpt lat="45.31276" lon="4.31291">
        <ele>895</ele>
        <time>2021-02-27T09:02:31Z</time>
      </trkpt>
      <trkpt lat="45.31275" lon="4.31285">
        <ele>895</ele>
        <time>2021-02-27T09:02:33Z</time>
      </trkpt>
      <trkpt lat="45.31274" lon="4.31277">
        <ele>895</ele>
        <time>2021-02-27T09:02:34Z</time>
      </trkpt>
      <trkpt lat="45.31274" lon="4.31271">
        <ele>894</ele>
        <time>2021-02-27T09:02:36Z</time>
      </trkpt>
      <trkpt lat="45.31274" lon="4.31266">
        <ele>895</ele>
        <time>2021-02-27T09:02:38Z</time>
      </trkpt>
      <trkpt lat="45.31276" lon="4.31262">
        <ele>895</ele>
        <time>2021-02-27T09:02:39Z</time>
      </trkpt>
      <trkpt lat="45.31278" lon="4.31259">
        <ele>895</ele>
        <time>2021-02-27T09:02:40Z</time>
      </trkpt>
      <trkpt lat="45.3128" lon="4.31257">
        <ele>895</ele>
        <time>2021-02-27T09:02:41Z</time>
      </trkpt>
      <trkpt lat="45.31283" lon="4.31253">
        <ele>895</ele>
        <time>2021-02-27T09:02:43Z</time>
      </trkpt>
      <trkpt lat="45.31285" lon="4.31249">
        <ele>895</ele>
        <time>2021-02-27T09:02:44Z</time>
      </trkpt>
      <trkpt lat="45.31287" lon="4.31245">
        <ele>896</ele>
        <time>2021-02-27T09:02:46Z</time>
      </trkpt>
      <trkpt lat="45.31289" lon="4.3124">
        <ele>895</ele>
        <time>2021-02-27T09:02:47Z</time>
      </trkpt>
      <trkpt lat="45.31289" lon="4.31233">
        <ele>895</ele>
        <time>2021-02-27T09:02:49Z</time>
      </trkpt>
      <trkpt lat="45.3129" lon="4.31228">
        <ele>896</ele>
        <time>2021-02-27T09:02:50Z</time>
      </trkpt>
      <trkpt lat="45.31289" lon="4.31223">
        <ele>896</ele>
        <time>2021-02-27T09:02:51Z</time>
      </trkpt>
      <trkpt lat="45.31289" lon="4.31218">
        <ele>896</ele>
        <time>2021-02-27T09:02:52Z</time>
      </trkpt>
      <trkpt lat="45.31288" lon="4.31212">
        <ele>896</ele>
        <time>2021-02-27T09:02:53Z</time>
      </trkpt>
      <trkpt lat="45.31287" lon="4.31207">
        <ele>896</ele>
        <time>2021-02-27T09:02:54Z</time>
      </trkpt>
      <trkpt lat="45.31287" lon="4.31202">
        <ele>896</ele>
        <time>2021-02-27T09:02:55Z</time>
      </trkpt>
      <trkpt lat="45.31286" lon="4.31197">
        <ele>896</ele>
        <time>2021-02-27T09:02:56Z</time>
      </trkpt>
      <trkpt lat="45.31285" lon="4.3119">
        <ele>897</ele>
        <time>2021-02-27T09:02:57Z</time>
      </trkpt>
      <trkpt lat="45.31283" lon="4.31185">
        <ele>897</ele>
        <time>2021-02-27T09:02:58Z</time>
      </trkpt>
      <trkpt lat="45.31282" lon="4.31179">
        <ele>897</ele>
        <time>2021-02-27T09:03:00Z</time>
      </trkpt>
      <trkpt lat="45.3128" lon="4.31174">
        <ele>897</ele>
        <time>2021-02-27T09:03:02Z</time>
      </trkpt>
      <trkpt lat="45.31278" lon="4.3117">
        <ele>898</ele>
        <time>2021-02-27T09:03:04Z</time>
      </trkpt>
      <trkpt lat="45.31277" lon="4.31165">
        <ele>898</ele>
        <time>2021-02-27T09:03:06Z</time>
      </trkpt>
      <trkpt lat="45.31274" lon="4.31159">
        <ele>899</ele>
        <time>2021-02-27T09:03:08Z</time>
      </trkpt>
      <trkpt lat="45.31272" lon="4.31155">
        <ele>899</ele>
        <time>2021-02-27T09:03:09Z</time>
      </trkpt>
      <trkpt lat="45.31271" lon="4.3115">
        <ele>899</ele>
        <time>2021-02-27T09:03:10Z</time>
      </trkpt>
      <trkpt lat="45.31269" lon="4.31146">
        <ele>899</ele>
        <time>2021-02-27T09:03:11Z</time>
      </trkpt>
      <trkpt lat="45.31267" lon="4.31139">
        <ele>900</ele>
        <time>2021-02-27T09:03:14Z</time>
      </trkpt>
      <trkpt lat="45.31266" lon="4.31133">
        <ele>900</ele>
        <time>2021-02-27T09:03:16Z</time>
      </trkpt>
      <trkpt lat="45.31264" lon="4.31127">
        <ele>899</ele>
        <time>2021-02-27T09:03:18Z</time>
      </trkpt>
      <trkpt lat="45.31263" lon="4.3112">
        <ele>900</ele>
        <time>2021-02-27T09:03:19Z</time>
      </trkpt>
      <trkpt lat="45.31261" lon="4.31114">
        <ele>899</ele>
        <time>2021-02-27T09:03:20Z</time>
      </trkpt>
      <trkpt lat="45.3126" lon="4.31108">
        <ele>899</ele>
        <time>2021-02-27T09:03:21Z</time>
      </trkpt>
      <trkpt lat="45.31259" lon="4.31102">
        <ele>899</ele>
        <time>2021-02-27T09:03:22Z</time>
      </trkpt>
      <trkpt lat="45.31259" lon="4.31097">
        <ele>899</ele>
        <time>2021-02-27T09:03:23Z</time>
      </trkpt>
      <trkpt lat="45.31258" lon="4.31092">
        <ele>898</ele>
        <time>2021-02-27T09:03:24Z</time>
      </trkpt>
      <trkpt lat="45.31256" lon="4.31082">
        <ele>898</ele>
        <time>2021-02-27T09:03:25Z</time>
      </trkpt>
      <trkpt lat="45.31254" lon="4.31075">
        <ele>898</ele>
        <time>2021-02-27T09:03:26Z</time>
      </trkpt>
      <trkpt lat="45.31253" lon="4.3107">
        <ele>897</ele>
        <time>2021-02-27T09:03:27Z</time>
      </trkpt>
      <trkpt lat="45.31252" lon="4.31065">
        <ele>897</ele>
        <time>2021-02-27T09:03:28Z</time>
      </trkpt>
      <trkpt lat="45.31251" lon="4.31059">
        <ele>897</ele>
        <time>2021-02-27T09:03:29Z</time>
      </trkpt>
      <trkpt lat="45.31251" lon="4.31054">
        <ele>897</ele>
        <time>2021-02-27T09:03:30Z</time>
      </trkpt>
      <trkpt lat="45.3125" lon="4.31047">
        <ele>897</ele>
        <time>2021-02-27T09:03:31Z</time>
      </trkpt>
      <trkpt lat="45.3125" lon="4.31041">
        <ele>897</ele>
        <time>2021-02-27T09:03:32Z</time>
      </trkpt>
      <trkpt lat="45.31248" lon="4.31035">
        <ele>897</ele>
        <time>2021-02-27T09:03:33Z</time>
      </trkpt>
      <trkpt lat="45.31247" lon="4.3103">
        <ele>897</ele>
        <time>2021-02-27T09:03:34Z</time>
      </trkpt>
      <trkpt lat="45.31244" lon="4.31025">
        <ele>896</ele>
        <time>2021-02-27T09:03:35Z</time>
      </trkpt>
      <trkpt lat="45.3124" lon="4.3102">
        <ele>896</ele>
        <time>2021-02-27T09:03:36Z</time>
      </trkpt>
      <trkpt lat="45.31236" lon="4.31014">
        <ele>897</ele>
        <time>2021-02-27T09:03:37Z</time>
      </trkpt>
      <trkpt lat="45.31232" lon="4.31008">
        <ele>896</ele>
        <time>2021-02-27T09:03:38Z</time>
      </trkpt>
      <trkpt lat="45.31229" lon="4.31002">
        <ele>897</ele>
        <time>2021-02-27T09:03:39Z</time>
      </trkpt>
      <trkpt lat="45.31225" lon="4.30994">
        <ele>896</ele>
        <time>2021-02-27T09:03:40Z</time>
      </trkpt>
      <trkpt lat="45.31223" lon="4.30986">
        <ele>896</ele>
        <time>2021-02-27T09:03:41Z</time>
      </trkpt>
      <trkpt lat="45.31221" lon="4.30978">
        <ele>896</ele>
        <time>2021-02-27T09:03:42Z</time>
      </trkpt>
      <trkpt lat="45.31219" lon="4.30971">
        <ele>896</ele>
        <time>2021-02-27T09:03:43Z</time>
      </trkpt>
      <trkpt lat="45.31215" lon="4.3096">
        <ele>896</ele>
        <time>2021-02-27T09:03:44Z</time>
      </trkpt>
      <trkpt lat="45.31213" lon="4.30953">
        <ele>896</ele>
        <time>2021-02-27T09:03:45Z</time>
      </trkpt>
      <trkpt lat="45.31211" lon="4.30946">
        <ele>896</ele>
        <time>2021-02-27T09:03:46Z</time>
      </trkpt>
      <trkpt lat="45.31211" lon="4.30941">
        <ele>896</ele>
        <time>2021-02-27T09:03:47Z</time>
      </trkpt>
      <trkpt lat="45.31211" lon="4.30936">
        <ele>896</ele>
        <time>2021-02-27T09:03:48Z</time>
      </trkpt>
      <trkpt lat="45.31211" lon="4.30929">
        <ele>896</ele>
        <time>2021-02-27T09:03:50Z</time>
      </trkpt>
      <trkpt lat="45.31212" lon="4.30924">
        <ele>896</ele>
        <time>2021-02-27T09:03:51Z</time>
      </trkpt>
      <trkpt lat="45.31212" lon="4.30919">
        <ele>896</ele>
        <time>2021-02-27T09:03:52Z</time>
      </trkpt>
      <trkpt lat="45.31213" lon="4.30912">
        <ele>897</ele>
        <time>2021-02-27T09:03:53Z</time>
      </trkpt>
      <trkpt lat="45.31214" lon="4.30904">
        <ele>896</ele>
        <time>2021-02-27T09:03:54Z</time>
      </trkpt>
      <trkpt lat="45.31216" lon="4.30893">
        <ele>896</ele>
        <time>2021-02-27T09:03:55Z</time>
      </trkpt>
      <trkpt lat="45.31216" lon="4.30884">
        <ele>896</ele>
        <time>2021-02-27T09:03:56Z</time>
      </trkpt>
      <trkpt lat="45.31216" lon="4.30876">
        <ele>896</ele>
        <time>2021-02-27T09:03:57Z</time>
      </trkpt>
      <trkpt lat="45.31216" lon="4.30868">
        <ele>897</ele>
        <time>2021-02-27T09:03:58Z</time>
      </trkpt>
      <trkpt lat="45.31217" lon="4.30862">
        <ele>897</ele>
        <time>2021-02-27T09:03:59Z</time>
      </trkpt>
      <trkpt lat="45.31218" lon="4.30857">
        <ele>897</ele>
        <time>2021-02-27T09:04:00Z</time>
      </trkpt>
      <trkpt lat="45.3122" lon="4.30852">
        <ele>897</ele>
        <time>2021-02-27T09:04:01Z</time>
      </trkpt>
      <trkpt lat="45.31223" lon="4.30844">
        <ele>896</ele>
        <time>2021-02-27T09:04:03Z</time>
      </trkpt>
      <trkpt lat="45.31226" lon="4.30836">
        <ele>896</ele>
        <time>2021-02-27T09:04:04Z</time>
      </trkpt>
      <trkpt lat="45.31231" lon="4.30828">
        <ele>896</ele>
        <time>2021-02-27T09:04:05Z</time>
      </trkpt>
      <trkpt lat="45.31234" lon="4.30823">
        <ele>896</ele>
        <time>2021-02-27T09:04:06Z</time>
      </trkpt>
      <trkpt lat="45.31239" lon="4.3082">
        <ele>896</ele>
        <time>2021-02-27T09:04:08Z</time>
      </trkpt>
      <trkpt lat="45.31242" lon="4.30817">
        <ele>896</ele>
        <time>2021-02-27T09:04:09Z</time>
      </trkpt>
      <trkpt lat="45.31248" lon="4.30809">
        <ele>896</ele>
        <time>2021-02-27T09:04:10Z</time>
      </trkpt>
      <trkpt lat="45.31251" lon="4.30804">
        <ele>896</ele>
        <time>2021-02-27T09:04:11Z</time>
      </trkpt>
      <trkpt lat="45.31254" lon="4.30801">
        <ele>896</ele>
        <time>2021-02-27T09:04:12Z</time>
      </trkpt>
      <trkpt lat="45.31256" lon="4.30797">
        <ele>896</ele>
        <time>2021-02-27T09:04:13Z</time>
      </trkpt>
      <trkpt lat="45.31258" lon="4.30794">
        <ele>896</ele>
        <time>2021-02-27T09:04:14Z</time>
      </trkpt>
      <trkpt lat="45.31261" lon="4.3079">
        <ele>896</ele>
        <time>2021-02-27T09:04:15Z</time>
      </trkpt>
      <trkpt lat="45.31264" lon="4.30786">
        <ele>896</ele>
        <time>2021-02-27T09:04:16Z</time>
      </trkpt>
      <trkpt lat="45.31266" lon="4.30782">
        <ele>897</ele>
        <time>2021-02-27T09:04:17Z</time>
      </trkpt>
      <trkpt lat="45.31268" lon="4.30777">
        <ele>896</ele>
        <time>2021-02-27T09:04:19Z</time>
      </trkpt>
      <trkpt lat="45.31269" lon="4.30772">
        <ele>896</ele>
        <time>2021-02-27T09:04:21Z</time>
      </trkpt>
      <trkpt lat="45.3127" lon="4.30763">
        <ele>896</ele>
        <time>2021-02-27T09:04:24Z</time>
      </trkpt>
      <trkpt lat="45.31272" lon="4.30753">
        <ele>897</ele>
        <time>2021-02-27T09:04:26Z</time>
      </trkpt>
      <trkpt lat="45.31274" lon="4.30746">
        <ele>897</ele>
        <time>2021-02-27T09:04:27Z</time>
      </trkpt>
      <trkpt lat="45.31275" lon="4.30741">
        <ele>897</ele>
        <time>2021-02-27T09:04:28Z</time>
      </trkpt>
      <trkpt lat="45.31276" lon="4.30736">
        <ele>897</ele>
        <time>2021-02-27T09:04:29Z</time>
      </trkpt>
      <trkpt lat="45.31277" lon="4.3073">
        <ele>897</ele>
        <time>2021-02-27T09:04:32Z</time>
      </trkpt>
      <trkpt lat="45.31277" lon="4.30722">
        <ele>897</ele>
        <time>2021-02-27T09:04:46Z</time>
      </trkpt>
      <trkpt lat="45.31278" lon="4.30716">
        <ele>897</ele>
        <time>2021-02-27T09:05:39Z</time>
      </trkpt>
      <trkpt lat="45.31281" lon="4.3071">
        <ele>896</ele>
        <time>2021-02-27T09:05:41Z</time>
      </trkpt>
      <trkpt lat="45.31283" lon="4.30706">
        <ele>896</ele>
        <time>2021-02-27T09:05:42Z</time>
      </trkpt>
      <trkpt lat="45.31285" lon="4.307">
        <ele>896</ele>
        <time>2021-02-27T09:05:44Z</time>
      </trkpt>
      <trkpt lat="45.31287" lon="4.30695">
        <ele>896</ele>
        <time>2021-02-27T09:05:45Z</time>
      </trkpt>
      <trkpt lat="45.31288" lon="4.30691">
        <ele>896</ele>
        <time>2021-02-27T09:05:46Z</time>
      </trkpt>
      <trkpt lat="45.31289" lon="4.30685">
        <ele>895</ele>
        <time>2021-02-27T09:05:48Z</time>
      </trkpt>
      <trkpt lat="45.31291" lon="4.3068">
        <ele>895</ele>
        <time>2021-02-27T09:05:49Z</time>
      </trkpt>
      <trkpt lat="45.31292" lon="4.30676">
        <ele>895</ele>
        <time>2021-02-27T09:05:50Z</time>
      </trkpt>
      <trkpt lat="45.31294" lon="4.30672">
        <ele>895</ele>
        <time>2021-02-27T09:05:51Z</time>
      </trkpt>
      <trkpt lat="45.31295" lon="4.30668">
        <ele>894</ele>
        <time>2021-02-27T09:05:52Z</time>
      </trkpt>
      <trkpt lat="45.31297" lon="4.30664">
        <ele>894</ele>
        <time>2021-02-27T09:05:53Z</time>
      </trkpt>
      <trkpt lat="45.313" lon="4.30661">
        <ele>893</ele>
        <time>2021-02-27T09:05:54Z</time>
      </trkpt>
      <trkpt lat="45.31302" lon="4.30657">
        <ele>893</ele>
        <time>2021-02-27T09:05:55Z</time>
      </trkpt>
      <trkpt lat="45.31305" lon="4.3065">
        <ele>893</ele>
        <time>2021-02-27T09:05:56Z</time>
      </trkpt>
      <trkpt lat="45.31309" lon="4.30639">
        <ele>893</ele>
        <time>2021-02-27T09:05:57Z</time>
      </trkpt>
      <trkpt lat="45.31312" lon="4.30634">
        <ele>892</ele>
        <time>2021-02-27T09:05:58Z</time>
      </trkpt>
      <trkpt lat="45.31315" lon="4.30629">
        <ele>892</ele>
        <time>2021-02-27T09:05:59Z</time>
      </trkpt>
      <trkpt lat="45.31319" lon="4.30625">
        <ele>892</ele>
        <time>2021-02-27T09:06:00Z</time>
      </trkpt>
      <trkpt lat="45.31321" lon="4.30621">
        <ele>892</ele>
        <time>2021-02-27T09:06:01Z</time>
      </trkpt>
      <trkpt lat="45.31325" lon="4.30618">
        <ele>892</ele>
        <time>2021-02-27T09:06:02Z</time>
      </trkpt>
      <trkpt lat="45.31329" lon="4.30615">
        <ele>892</ele>
        <time>2021-02-27T09:06:03Z</time>
      </trkpt>
      <trkpt lat="45.31333" lon="4.30613">
        <ele>892</ele>
        <time>2021-02-27T09:06:04Z</time>
      </trkpt>
      <trkpt lat="45.3134" lon="4.30608">
        <ele>892</ele>
        <time>2021-02-27T09:06:05Z</time>
      </trkpt>
      <trkpt lat="45.31345" lon="4.30606">
        <ele>892</ele>
        <time>2021-02-27T09:06:06Z</time>
      </trkpt>
      <trkpt lat="45.31351" lon="4.30603">
        <ele>892</ele>
        <time>2021-02-27T09:06:07Z</time>
      </trkpt>
      <trkpt lat="45.31356" lon="4.30601">
        <ele>892</ele>
        <time>2021-02-27T09:06:08Z</time>
      </trkpt>
      <trkpt lat="45.31361" lon="4.30599">
        <ele>892</ele>
        <time>2021-02-27T09:06:09Z</time>
      </trkpt>
      <trkpt lat="45.31366" lon="4.30596">
        <ele>892</ele>
        <time>2021-02-27T09:06:10Z</time>
      </trkpt>
      <trkpt lat="45.31371" lon="4.30594">
        <ele>892</ele>
        <time>2021-02-27T09:06:11Z</time>
      </trkpt>
      <trkpt lat="45.31377" lon="4.30592">
        <ele>892</ele>
        <time>2021-02-27T09:06:12Z</time>
      </trkpt>
      <trkpt lat="45.31382" lon="4.30589">
        <ele>892</ele>
        <time>2021-02-27T09:06:13Z</time>
      </trkpt>
      <trkpt lat="45.31388" lon="4.30587">
        <ele>892</ele>
        <time>2021-02-27T09:06:14Z</time>
      </trkpt>
      <trkpt lat="45.31394" lon="4.30584">
        <ele>893</ele>
        <time>2021-02-27T09:06:15Z</time>
      </trkpt>
      <trkpt lat="45.31399" lon="4.30582">
        <ele>893</ele>
        <time>2021-02-27T09:06:16Z</time>
      </trkpt>
      <trkpt lat="45.31404" lon="4.30579">
        <ele>894</ele>
        <time>2021-02-27T09:06:17Z</time>
      </trkpt>
      <trkpt lat="45.31409" lon="4.30577">
        <ele>894</ele>
        <time>2021-02-27T09:06:18Z</time>
      </trkpt>
      <trkpt lat="45.31414" lon="4.30574">
        <ele>894</ele>
        <time>2021-02-27T09:06:19Z</time>
      </trkpt>
      <trkpt lat="45.3142" lon="4.3057">
        <ele>894</ele>
        <time>2021-02-27T09:06:20Z</time>
      </trkpt>
      <trkpt lat="45.31425" lon="4.30567">
        <ele>894</ele>
        <time>2021-02-27T09:06:21Z</time>
      </trkpt>
      <trkpt lat="45.3143" lon="4.30563">
        <ele>894</ele>
        <time>2021-02-27T09:06:22Z</time>
      </trkpt>
      <trkpt lat="45.31433" lon="4.3056">
        <ele>894</ele>
        <time>2021-02-27T09:06:23Z</time>
      </trkpt>
      <trkpt lat="45.31436" lon="4.30558">
        <ele>894</ele>
        <time>2021-02-27T09:06:24Z</time>
      </trkpt>
      <trkpt lat="45.31439" lon="4.30556">
        <ele>894</ele>
        <time>2021-02-27T09:06:25Z</time>
      </trkpt>
      <trkpt lat="45.31442" lon="4.30554">
        <ele>895</ele>
        <time>2021-02-27T09:06:26Z</time>
      </trkpt>
      <trkpt lat="45.31445" lon="4.30552">
        <ele>894</ele>
        <time>2021-02-27T09:06:27Z</time>
      </trkpt>
      <trkpt lat="45.31448" lon="4.3055">
        <ele>893</ele>
        <time>2021-02-27T09:06:28Z</time>
      </trkpt>
      <trkpt lat="45.31453" lon="4.30548">
        <ele>894</ele>
        <time>2021-02-27T09:06:29Z</time>
      </trkpt>
      <trkpt lat="45.31456" lon="4.30547">
        <ele>893</ele>
        <time>2021-02-27T09:06:30Z</time>
      </trkpt>
      <trkpt lat="45.31461" lon="4.30545">
        <ele>893</ele>
        <time>2021-02-27T09:06:31Z</time>
      </trkpt>
      <trkpt lat="45.31465" lon="4.30544">
        <ele>893</ele>
        <time>2021-02-27T09:06:32Z</time>
      </trkpt>
      <trkpt lat="45.31469" lon="4.30541">
        <ele>892</ele>
        <time>2021-02-27T09:06:33Z</time>
      </trkpt>
      <trkpt lat="45.31473" lon="4.30539">
        <ele>891</ele>
        <time>2021-02-27T09:06:34Z</time>
      </trkpt>
      <trkpt lat="45.31477" lon="4.30537">
        <ele>891</ele>
        <time>2021-02-27T09:06:35Z</time>
      </trkpt>
      <trkpt lat="45.3148" lon="4.30535">
        <ele>890</ele>
        <time>2021-02-27T09:06:36Z</time>
      </trkpt>
      <trkpt lat="45.31485" lon="4.30533">
        <ele>890</ele>
        <time>2021-02-27T09:06:37Z</time>
      </trkpt>
      <trkpt lat="45.31489" lon="4.30532">
        <ele>889</ele>
        <time>2021-02-27T09:06:38Z</time>
      </trkpt>
      <trkpt lat="45.31494" lon="4.3053">
        <ele>889</ele>
        <time>2021-02-27T09:06:39Z</time>
      </trkpt>
      <trkpt lat="45.31501" lon="4.30528">
        <ele>888</ele>
        <time>2021-02-27T09:06:40Z</time>
      </trkpt>
      <trkpt lat="45.31508" lon="4.30525">
        <ele>887</ele>
        <time>2021-02-27T09:06:41Z</time>
      </trkpt>
      <trkpt lat="45.31514" lon="4.30521">
        <ele>887</ele>
        <time>2021-02-27T09:06:42Z</time>
      </trkpt>
      <trkpt lat="45.31521" lon="4.30517">
        <ele>887</ele>
        <time>2021-02-27T09:06:43Z</time>
      </trkpt>
      <trkpt lat="45.31527" lon="4.30512">
        <ele>885</ele>
        <time>2021-02-27T09:06:44Z</time>
      </trkpt>
      <trkpt lat="45.31533" lon="4.30508">
        <ele>885</ele>
        <time>2021-02-27T09:06:45Z</time>
      </trkpt>
      <trkpt lat="45.3154" lon="4.30506">
        <ele>884</ele>
        <time>2021-02-27T09:06:46Z</time>
      </trkpt>
      <trkpt lat="45.31548" lon="4.30499">
        <ele>884</ele>
        <time>2021-02-27T09:06:47Z</time>
      </trkpt>
      <trkpt lat="45.31554" lon="4.30494">
        <ele>884</ele>
        <time>2021-02-27T09:06:48Z</time>
      </trkpt>
      <trkpt lat="45.3156" lon="4.30491">
        <ele>884</ele>
        <time>2021-02-27T09:06:49Z</time>
      </trkpt>
      <trkpt lat="45.31565" lon="4.3049">
        <ele>884</ele>
        <time>2021-02-27T09:06:50Z</time>
      </trkpt>
      <trkpt lat="45.31569" lon="4.30489">
        <ele>883</ele>
        <time>2021-02-27T09:06:51Z</time>
      </trkpt>
      <trkpt lat="45.31574" lon="4.30488">
        <ele>883</ele>
        <time>2021-02-27T09:06:52Z</time>
      </trkpt>
      <trkpt lat="45.31578" lon="4.30486">
        <ele>882</ele>
        <time>2021-02-27T09:06:53Z</time>
      </trkpt>
      <trkpt lat="45.31582" lon="4.30485">
        <ele>882</ele>
        <time>2021-02-27T09:06:54Z</time>
      </trkpt>
      <trkpt lat="45.31586" lon="4.30485">
        <ele>881</ele>
        <time>2021-02-27T09:06:55Z</time>
      </trkpt>
      <trkpt lat="45.31589" lon="4.30486">
        <ele>880</ele>
        <time>2021-02-27T09:06:56Z</time>
      </trkpt>
      <trkpt lat="45.31593" lon="4.30487">
        <ele>880</ele>
        <time>2021-02-27T09:06:57Z</time>
      </trkpt>
      <trkpt lat="45.31597" lon="4.30488">
        <ele>879</ele>
        <time>2021-02-27T09:06:58Z</time>
      </trkpt>
      <trkpt lat="45.31601" lon="4.3049">
        <ele>879</ele>
        <time>2021-02-27T09:06:59Z</time>
      </trkpt>
      <trkpt lat="45.31606" lon="4.30493">
        <ele>879</ele>
        <time>2021-02-27T09:07:01Z</time>
      </trkpt>
      <trkpt lat="45.3161" lon="4.30496">
        <ele>879</ele>
        <time>2021-02-27T09:07:02Z</time>
      </trkpt>
      <trkpt lat="45.31614" lon="4.30499">
        <ele>879</ele>
        <time>2021-02-27T09:07:03Z</time>
      </trkpt>
      <trkpt lat="45.31618" lon="4.30502">
        <ele>879</ele>
        <time>2021-02-27T09:07:05Z</time>
      </trkpt>
      <trkpt lat="45.31621" lon="4.30506">
        <ele>879</ele>
        <time>2021-02-27T09:07:06Z</time>
      </trkpt>
      <trkpt lat="45.31623" lon="4.30509">
        <ele>879</ele>
        <time>2021-02-27T09:07:07Z</time>
      </trkpt>
      <trkpt lat="45.31626" lon="4.30512">
        <ele>879</ele>
        <time>2021-02-27T09:07:08Z</time>
      </trkpt>
      <trkpt lat="45.3163" lon="4.30515">
        <ele>879</ele>
        <time>2021-02-27T09:07:09Z</time>
      </trkpt>
      <trkpt lat="45.31633" lon="4.30518">
        <ele>879</ele>
        <time>2021-02-27T09:07:10Z</time>
      </trkpt>
      <trkpt lat="45.31636" lon="4.30521">
        <ele>879</ele>
        <time>2021-02-27T09:07:11Z</time>
      </trkpt>
      <trkpt lat="45.31639" lon="4.30524">
        <ele>879</ele>
        <time>2021-02-27T09:07:12Z</time>
      </trkpt>
      <trkpt lat="45.31643" lon="4.30527">
        <ele>879</ele>
        <time>2021-02-27T09:07:13Z</time>
      </trkpt>
      <trkpt lat="45.31647" lon="4.3053">
        <ele>879</ele>
        <time>2021-02-27T09:07:14Z</time>
      </trkpt>
      <trkpt lat="45.3165" lon="4.30533">
        <ele>879</ele>
        <time>2021-02-27T09:07:15Z</time>
      </trkpt>
      <trkpt lat="45.31654" lon="4.30537">
        <ele>880</ele>
        <time>2021-02-27T09:07:16Z</time>
      </trkpt>
      <trkpt lat="45.31657" lon="4.3054">
        <ele>880</ele>
        <time>2021-02-27T09:07:17Z</time>
      </trkpt>
      <trkpt lat="45.3166" lon="4.30543">
        <ele>880</ele>
        <time>2021-02-27T09:07:18Z</time>
      </trkpt>
      <trkpt lat="45.31663" lon="4.30546">
        <ele>879</ele>
        <time>2021-02-27T09:07:19Z</time>
      </trkpt>
      <trkpt lat="45.31665" lon="4.30549">
        <ele>879</ele>
        <time>2021-02-27T09:07:20Z</time>
      </trkpt>
      <trkpt lat="45.31669" lon="4.30553">
        <ele>878</ele>
        <time>2021-02-27T09:07:22Z</time>
      </trkpt>
      <trkpt lat="45.31672" lon="4.30556">
        <ele>877</ele>
        <time>2021-02-27T09:07:23Z</time>
      </trkpt>
      <trkpt lat="45.31675" lon="4.30559">
        <ele>877</ele>
        <time>2021-02-27T09:07:24Z</time>
      </trkpt>
      <trkpt lat="45.31678" lon="4.30561">
        <ele>877</ele>
        <time>2021-02-27T09:07:25Z</time>
      </trkpt>
      <trkpt lat="45.31683" lon="4.30564">
        <ele>877</ele>
        <time>2021-02-27T09:07:26Z</time>
      </trkpt>
      <trkpt lat="45.31686" lon="4.30566">
        <ele>877</ele>
        <time>2021-02-27T09:07:27Z</time>
      </trkpt>
      <trkpt lat="45.31694" lon="4.30569">
        <ele>876</ele>
        <time>2021-02-27T09:07:29Z</time>
      </trkpt>
      <trkpt lat="45.317" lon="4.30572">
        <ele>875</ele>
        <time>2021-02-27T09:07:31Z</time>
      </trkpt>
      <trkpt lat="45.31704" lon="4.30572">
        <ele>874</ele>
        <time>2021-02-27T09:07:32Z</time>
      </trkpt>
      <trkpt lat="45.31708" lon="4.3057">
        <ele>874</ele>
        <time>2021-02-27T09:07:33Z</time>
      </trkpt>
      <trkpt lat="45.31712" lon="4.30568">
        <ele>874</ele>
        <time>2021-02-27T09:07:34Z</time>
      </trkpt>
      <trkpt lat="45.31718" lon="4.30566">
        <ele>874</ele>
        <time>2021-02-27T09:07:35Z</time>
      </trkpt>
      <trkpt lat="45.31726" lon="4.30564">
        <ele>874</ele>
        <time>2021-02-27T09:07:36Z</time>
      </trkpt>
      <trkpt lat="45.31735" lon="4.30563">
        <ele>873</ele>
        <time>2021-02-27T09:07:37Z</time>
      </trkpt>
      <trkpt lat="45.31743" lon="4.30564">
        <ele>873</ele>
        <time>2021-02-27T09:07:38Z</time>
      </trkpt>
      <trkpt lat="45.3175" lon="4.30565">
        <ele>873</ele>
        <time>2021-02-27T09:07:39Z</time>
      </trkpt>
      <trkpt lat="45.31757" lon="4.30566">
        <ele>873</ele>
        <time>2021-02-27T09:07:40Z</time>
      </trkpt>
      <trkpt lat="45.31764" lon="4.30568">
        <ele>873</ele>
        <time>2021-02-27T09:07:41Z</time>
      </trkpt>
      <trkpt lat="45.31771" lon="4.3057">
        <ele>872</ele>
        <time>2021-02-27T09:07:42Z</time>
      </trkpt>
      <trkpt lat="45.31778" lon="4.30571">
        <ele>872</ele>
        <time>2021-02-27T09:07:43Z</time>
      </trkpt>
      <trkpt lat="45.31784" lon="4.30574">
        <ele>872</ele>
        <time>2021-02-27T09:07:44Z</time>
      </trkpt>
      <trkpt lat="45.31789" lon="4.30576">
        <ele>871</ele>
        <time>2021-02-27T09:07:45Z</time>
      </trkpt>
      <trkpt lat="45.31795" lon="4.30579">
        <ele>871</ele>
        <time>2021-02-27T09:07:46Z</time>
      </trkpt>
      <trkpt lat="45.31802" lon="4.30581">
        <ele>871</ele>
        <time>2021-02-27T09:07:47Z</time>
      </trkpt>
      <trkpt lat="45.31808" lon="4.30583">
        <ele>870</ele>
        <time>2021-02-27T09:07:48Z</time>
      </trkpt>
      <trkpt lat="45.31814" lon="4.30584">
        <ele>869</ele>
        <time>2021-02-27T09:07:49Z</time>
      </trkpt>
      <trkpt lat="45.3182" lon="4.30585">
        <ele>869</ele>
        <time>2021-02-27T09:07:50Z</time>
      </trkpt>
      <trkpt lat="45.31826" lon="4.30586">
        <ele>868</ele>
        <time>2021-02-27T09:07:51Z</time>
      </trkpt>
      <trkpt lat="45.31833" lon="4.30587">
        <ele>868</ele>
        <time>2021-02-27T09:07:52Z</time>
      </trkpt>
      <trkpt lat="45.31841" lon="4.30586">
        <ele>868</ele>
        <time>2021-02-27T09:07:53Z</time>
      </trkpt>
      <trkpt lat="45.31848" lon="4.30584">
        <ele>867</ele>
        <time>2021-02-27T09:07:54Z</time>
      </trkpt>
      <trkpt lat="45.31855" lon="4.30582">
        <ele>867</ele>
        <time>2021-02-27T09:07:55Z</time>
      </trkpt>
      <trkpt lat="45.31862" lon="4.3058">
        <ele>866</ele>
        <time>2021-02-27T09:07:56Z</time>
      </trkpt>
      <trkpt lat="45.31869" lon="4.30579">
        <ele>866</ele>
        <time>2021-02-27T09:07:57Z</time>
      </trkpt>
      <trkpt lat="45.31875" lon="4.30576">
        <ele>866</ele>
        <time>2021-02-27T09:07:58Z</time>
      </trkpt>
      <trkpt lat="45.31881" lon="4.30574">
        <ele>866</ele>
        <time>2021-02-27T09:07:59Z</time>
      </trkpt>
      <trkpt lat="45.31887" lon="4.30571">
        <ele>865</ele>
        <time>2021-02-27T09:08:00Z</time>
      </trkpt>
      <trkpt lat="45.31891" lon="4.30569">
        <ele>866</ele>
        <time>2021-02-27T09:08:01Z</time>
      </trkpt>
      <trkpt lat="45.31897" lon="4.30567">
        <ele>865</ele>
        <time>2021-02-27T09:08:02Z</time>
      </trkpt>
      <trkpt lat="45.31904" lon="4.30564">
        <ele>865</ele>
        <time>2021-02-27T09:08:03Z</time>
      </trkpt>
      <trkpt lat="45.3191" lon="4.3056">
        <ele>864</ele>
        <time>2021-02-27T09:08:04Z</time>
      </trkpt>
      <trkpt lat="45.31916" lon="4.30556">
        <ele>864</ele>
        <time>2021-02-27T09:08:05Z</time>
      </trkpt>
      <trkpt lat="45.31921" lon="4.30551">
        <ele>864</ele>
        <time>2021-02-27T09:08:06Z</time>
      </trkpt>
      <trkpt lat="45.31926" lon="4.30546">
        <ele>864</ele>
        <time>2021-02-27T09:08:07Z</time>
      </trkpt>
      <trkpt lat="45.3193" lon="4.3054">
        <ele>863</ele>
        <time>2021-02-27T09:08:08Z</time>
      </trkpt>
      <trkpt lat="45.31935" lon="4.30533">
        <ele>863</ele>
        <time>2021-02-27T09:08:09Z</time>
      </trkpt>
      <trkpt lat="45.3194" lon="4.30526">
        <ele>862</ele>
        <time>2021-02-27T09:08:10Z</time>
      </trkpt>
      <trkpt lat="45.31944" lon="4.3052">
        <ele>862</ele>
        <time>2021-02-27T09:08:11Z</time>
      </trkpt>
      <trkpt lat="45.31948" lon="4.30515">
        <ele>863</ele>
        <time>2021-02-27T09:08:12Z</time>
      </trkpt>
      <trkpt lat="45.31953" lon="4.3051">
        <ele>862</ele>
        <time>2021-02-27T09:08:13Z</time>
      </trkpt>
      <trkpt lat="45.31959" lon="4.30506">
        <ele>862</ele>
        <time>2021-02-27T09:08:14Z</time>
      </trkpt>
      <trkpt lat="45.31965" lon="4.30502">
        <ele>862</ele>
        <time>2021-02-27T09:08:15Z</time>
      </trkpt>
      <trkpt lat="45.31971" lon="4.305">
        <ele>863</ele>
        <time>2021-02-27T09:08:16Z</time>
      </trkpt>
      <trkpt lat="45.31977" lon="4.30496">
        <ele>863</ele>
        <time>2021-02-27T09:08:17Z</time>
      </trkpt>
      <trkpt lat="45.31982" lon="4.30492">
        <ele>862</ele>
        <time>2021-02-27T09:08:18Z</time>
      </trkpt>
      <trkpt lat="45.31987" lon="4.30487">
        <ele>863</ele>
        <time>2021-02-27T09:08:19Z</time>
      </trkpt>
      <trkpt lat="45.31993" lon="4.30482">
        <ele>863</ele>
        <time>2021-02-27T09:08:20Z</time>
      </trkpt>
      <trkpt lat="45.31998" lon="4.30478">
        <ele>863</ele>
        <time>2021-02-27T09:08:21Z</time>
      </trkpt>
      <trkpt lat="45.32003" lon="4.30473">
        <ele>863</ele>
        <time>2021-02-27T09:08:22Z</time>
      </trkpt>
      <trkpt lat="45.32006" lon="4.30468">
        <ele>863</ele>
        <time>2021-02-27T09:08:23Z</time>
      </trkpt>
      <trkpt lat="45.3201" lon="4.30463">
        <ele>862</ele>
        <time>2021-02-27T09:08:24Z</time>
      </trkpt>
      <trkpt lat="45.32013" lon="4.30458">
        <ele>862</ele>
        <time>2021-02-27T09:08:25Z</time>
      </trkpt>
      <trkpt lat="45.32017" lon="4.30453">
        <ele>862</ele>
        <time>2021-02-27T09:08:26Z</time>
      </trkpt>
      <trkpt lat="45.3202" lon="4.30448">
        <ele>861</ele>
        <time>2021-02-27T09:08:27Z</time>
      </trkpt>
      <trkpt lat="45.32023" lon="4.30442">
        <ele>861</ele>
        <time>2021-02-27T09:08:28Z</time>
      </trkpt>
      <trkpt lat="45.32027" lon="4.30437">
        <ele>861</ele>
        <time>2021-02-27T09:08:29Z</time>
      </trkpt>
      <trkpt lat="45.3203" lon="4.30432">
        <ele>861</ele>
        <time>2021-02-27T09:08:30Z</time>
      </trkpt>
      <trkpt lat="45.32033" lon="4.30427">
        <ele>861</ele>
        <time>2021-02-27T09:08:31Z</time>
      </trkpt>
      <trkpt lat="45.32037" lon="4.30422">
        <ele>861</ele>
        <time>2021-02-27T09:08:32Z</time>
      </trkpt>
      <trkpt lat="45.32041" lon="4.30417">
        <ele>861</ele>
        <time>2021-02-27T09:08:33Z</time>
      </trkpt>
      <trkpt lat="45.32045" lon="4.30412">
        <ele>861</ele>
        <time>2021-02-27T09:08:34Z</time>
      </trkpt>
      <trkpt lat="45.3205" lon="4.30407">
        <ele>861</ele>
        <time>2021-02-27T09:08:35Z</time>
      </trkpt>
      <trkpt lat="45.32053" lon="4.30403">
        <ele>861</ele>
        <time>2021-02-27T09:08:36Z</time>
      </trkpt>
      <trkpt lat="45.32057" lon="4.30397">
        <ele>861</ele>
        <time>2021-02-27T09:08:37Z</time>
      </trkpt>
      <trkpt lat="45.32059" lon="4.30391">
        <ele>860</ele>
        <time>2021-02-27T09:08:38Z</time>
      </trkpt>
      <trkpt lat="45.3206" lon="4.30383">
        <ele>860</ele>
        <time>2021-02-27T09:08:39Z</time>
      </trkpt>
      <trkpt lat="45.3206" lon="4.30374">
        <ele>859</ele>
        <time>2021-02-27T09:08:40Z</time>
      </trkpt>
      <trkpt lat="45.3206" lon="4.30365">
        <ele>859</ele>
        <time>2021-02-27T09:08:41Z</time>
      </trkpt>
      <trkpt lat="45.32061" lon="4.30355">
        <ele>858</ele>
        <time>2021-02-27T09:08:42Z</time>
      </trkpt>
      <trkpt lat="45.32062" lon="4.30345">
        <ele>858</ele>
        <time>2021-02-27T09:08:43Z</time>
      </trkpt>
      <trkpt lat="45.32064" lon="4.30338">
        <ele>858</ele>
        <time>2021-02-27T09:08:44Z</time>
      </trkpt>
      <trkpt lat="45.32069" lon="4.30332">
        <ele>858</ele>
        <time>2021-02-27T09:08:45Z</time>
      </trkpt>
      <trkpt lat="45.32073" lon="4.30328">
        <ele>858</ele>
        <time>2021-02-27T09:08:46Z</time>
      </trkpt>
      <trkpt lat="45.32076" lon="4.30327">
        <ele>858</ele>
        <time>2021-02-27T09:08:47Z</time>
      </trkpt>
      <trkpt lat="45.3208" lon="4.30325">
        <ele>859</ele>
        <time>2021-02-27T09:08:48Z</time>
      </trkpt>
      <trkpt lat="45.32083" lon="4.30323">
        <ele>859</ele>
        <time>2021-02-27T09:08:49Z</time>
      </trkpt>
      <trkpt lat="45.32087" lon="4.30319">
        <ele>859</ele>
        <time>2021-02-27T09:08:50Z</time>
      </trkpt>
      <trkpt lat="45.32091" lon="4.30316">
        <ele>859</ele>
        <time>2021-02-27T09:08:51Z</time>
      </trkpt>
      <trkpt lat="45.32094" lon="4.30313">
        <ele>859</ele>
        <time>2021-02-27T09:08:52Z</time>
      </trkpt>
      <trkpt lat="45.32098" lon="4.30311">
        <ele>859</ele>
        <time>2021-02-27T09:08:53Z</time>
      </trkpt>
      <trkpt lat="45.32101" lon="4.30309">
        <ele>858</ele>
        <time>2021-02-27T09:08:54Z</time>
      </trkpt>
      <trkpt lat="45.32105" lon="4.30306">
        <ele>859</ele>
        <time>2021-02-27T09:08:55Z</time>
      </trkpt>
      <trkpt lat="45.32108" lon="4.30303">
        <ele>859</ele>
        <time>2021-02-27T09:08:56Z</time>
      </trkpt>
      <trkpt lat="45.32112" lon="4.303">
        <ele>858</ele>
        <time>2021-02-27T09:08:57Z</time>
      </trkpt>
      <trkpt lat="45.32116" lon="4.30296">
        <ele>858</ele>
        <time>2021-02-27T09:08:58Z</time>
      </trkpt>
      <trkpt lat="45.32121" lon="4.30292">
        <ele>858</ele>
        <time>2021-02-27T09:08:59Z</time>
      </trkpt>
      <trkpt lat="45.32127" lon="4.30287">
        <ele>857</ele>
        <time>2021-02-27T09:09:00Z</time>
      </trkpt>
      <trkpt lat="45.32132" lon="4.30282">
        <ele>857</ele>
        <time>2021-02-27T09:09:01Z</time>
      </trkpt>
      <trkpt lat="45.32137" lon="4.30278">
        <ele>857</ele>
        <time>2021-02-27T09:09:02Z</time>
      </trkpt>
      <trkpt lat="45.32141" lon="4.30275">
        <ele>857</ele>
        <time>2021-02-27T09:09:03Z</time>
      </trkpt>
      <trkpt lat="45.32145" lon="4.30273">
        <ele>857</ele>
        <time>2021-02-27T09:09:04Z</time>
      </trkpt>
      <trkpt lat="45.3215" lon="4.30269">
        <ele>857</ele>
        <time>2021-02-27T09:09:05Z</time>
      </trkpt>
      <trkpt lat="45.32155" lon="4.30266">
        <ele>856</ele>
        <time>2021-02-27T09:09:06Z</time>
      </trkpt>
      <trkpt lat="45.32159" lon="4.30262">
        <ele>855</ele>
        <time>2021-02-27T09:09:07Z</time>
      </trkpt>
      <trkpt lat="45.32163" lon="4.30259">
        <ele>855</ele>
        <time>2021-02-27T09:09:08Z</time>
      </trkpt>
      <trkpt lat="45.32167" lon="4.30256">
        <ele>854</ele>
        <time>2021-02-27T09:09:09Z</time>
      </trkpt>
      <trkpt lat="45.32172" lon="4.30254">
        <ele>854</ele>
        <time>2021-02-27T09:09:10Z</time>
      </trkpt>
      <trkpt lat="45.32177" lon="4.30253">
        <ele>854</ele>
        <time>2021-02-27T09:09:11Z</time>
      </trkpt>
      <trkpt lat="45.32181" lon="4.30252">
        <ele>853</ele>
        <time>2021-02-27T09:09:12Z</time>
      </trkpt>
      <trkpt lat="45.32185" lon="4.30252">
        <ele>852</ele>
        <time>2021-02-27T09:09:13Z</time>
      </trkpt>
      <trkpt lat="45.3219" lon="4.30249">
        <ele>852</ele>
        <time>2021-02-27T09:09:14Z</time>
      </trkpt>
      <trkpt lat="45.32195" lon="4.30245">
        <ele>852</ele>
        <time>2021-02-27T09:09:15Z</time>
      </trkpt>
      <trkpt lat="45.322" lon="4.30244">
        <ele>852</ele>
        <time>2021-02-27T09:09:16Z</time>
      </trkpt>
      <trkpt lat="45.32204" lon="4.3024">
        <ele>851</ele>
        <time>2021-02-27T09:09:17Z</time>
      </trkpt>
      <trkpt lat="45.3221" lon="4.30238">
        <ele>851</ele>
        <time>2021-02-27T09:09:18Z</time>
      </trkpt>
      <trkpt lat="45.32214" lon="4.30237">
        <ele>850</ele>
        <time>2021-02-27T09:09:19Z</time>
      </trkpt>
      <trkpt lat="45.3222" lon="4.30236">
        <ele>850</ele>
        <time>2021-02-27T09:09:20Z</time>
      </trkpt>
      <trkpt lat="45.32226" lon="4.30236">
        <ele>850</ele>
        <time>2021-02-27T09:09:21Z</time>
      </trkpt>
      <trkpt lat="45.32232" lon="4.30235">
        <ele>849</ele>
        <time>2021-02-27T09:09:22Z</time>
      </trkpt>
      <trkpt lat="45.32237" lon="4.30234">
        <ele>848</ele>
        <time>2021-02-27T09:09:23Z</time>
      </trkpt>
      <trkpt lat="45.32242" lon="4.30234">
        <ele>847</ele>
        <time>2021-02-27T09:09:24Z</time>
      </trkpt>
      <trkpt lat="45.32247" lon="4.30232">
        <ele>846</ele>
        <time>2021-02-27T09:09:25Z</time>
      </trkpt>
      <trkpt lat="45.32252" lon="4.3023">
        <ele>846</ele>
        <time>2021-02-27T09:09:26Z</time>
      </trkpt>
      <trkpt lat="45.32257" lon="4.30231">
        <ele>846</ele>
        <time>2021-02-27T09:09:27Z</time>
      </trkpt>
      <trkpt lat="45.32262" lon="4.30233">
        <ele>845</ele>
        <time>2021-02-27T09:09:28Z</time>
      </trkpt>
      <trkpt lat="45.32267" lon="4.30237">
        <ele>845</ele>
        <time>2021-02-27T09:09:29Z</time>
      </trkpt>
      <trkpt lat="45.32273" lon="4.30239">
        <ele>844</ele>
        <time>2021-02-27T09:09:30Z</time>
      </trkpt>
      <trkpt lat="45.3228" lon="4.30243">
        <ele>843</ele>
        <time>2021-02-27T09:09:31Z</time>
      </trkpt>
      <trkpt lat="45.32287" lon="4.30247">
        <ele>843</ele>
        <time>2021-02-27T09:09:32Z</time>
      </trkpt>
      <trkpt lat="45.32292" lon="4.30252">
        <ele>843</ele>
        <time>2021-02-27T09:09:33Z</time>
      </trkpt>
      <trkpt lat="45.32299" lon="4.30259">
        <ele>842</ele>
        <time>2021-02-27T09:09:34Z</time>
      </trkpt>
      <trkpt lat="45.32305" lon="4.30265">
        <ele>842</ele>
        <time>2021-02-27T09:09:35Z</time>
      </trkpt>
      <trkpt lat="45.3231" lon="4.30272">
        <ele>842</ele>
        <time>2021-02-27T09:09:36Z</time>
      </trkpt>
      <trkpt lat="45.32315" lon="4.3028">
        <ele>841</ele>
        <time>2021-02-27T09:09:37Z</time>
      </trkpt>
      <trkpt lat="45.32319" lon="4.30287">
        <ele>841</ele>
        <time>2021-02-27T09:09:38Z</time>
      </trkpt>
      <trkpt lat="45.32322" lon="4.30294">
        <ele>841</ele>
        <time>2021-02-27T09:09:39Z</time>
      </trkpt>
      <trkpt lat="45.32325" lon="4.30302">
        <ele>841</ele>
        <time>2021-02-27T09:09:40Z</time>
      </trkpt>
      <trkpt lat="45.32328" lon="4.3031">
        <ele>839</ele>
        <time>2021-02-27T09:09:41Z</time>
      </trkpt>
      <trkpt lat="45.3233" lon="4.30319">
        <ele>838</ele>
        <time>2021-02-27T09:09:42Z</time>
      </trkpt>
      <trkpt lat="45.32332" lon="4.30327">
        <ele>838</ele>
        <time>2021-02-27T09:09:43Z</time>
      </trkpt>
      <trkpt lat="45.32335" lon="4.30334">
        <ele>836</ele>
        <time>2021-02-27T09:09:44Z</time>
      </trkpt>
      <trkpt lat="45.32338" lon="4.30342">
        <ele>836</ele>
        <time>2021-02-27T09:09:45Z</time>
      </trkpt>
      <trkpt lat="45.3234" lon="4.3035">
        <ele>834</ele>
        <time>2021-02-27T09:09:46Z</time>
      </trkpt>
      <trkpt lat="45.32342" lon="4.30356">
        <ele>833</ele>
        <time>2021-02-27T09:09:47Z</time>
      </trkpt>
      <trkpt lat="45.32345" lon="4.30364">
        <ele>831</ele>
        <time>2021-02-27T09:09:48Z</time>
      </trkpt>
      <trkpt lat="45.32348" lon="4.30372">
        <ele>829</ele>
        <time>2021-02-27T09:09:49Z</time>
      </trkpt>
      <trkpt lat="45.32351" lon="4.3038">
        <ele>828</ele>
        <time>2021-02-27T09:09:50Z</time>
      </trkpt>
      <trkpt lat="45.32354" lon="4.30389">
        <ele>828</ele>
        <time>2021-02-27T09:09:51Z</time>
      </trkpt>
      <trkpt lat="45.32357" lon="4.30397">
        <ele>828</ele>
        <time>2021-02-27T09:09:52Z</time>
      </trkpt>
      <trkpt lat="45.32359" lon="4.30406">
        <ele>825</ele>
        <time>2021-02-27T09:09:53Z</time>
      </trkpt>
      <trkpt lat="45.32361" lon="4.30413">
        <ele>824</ele>
        <time>2021-02-27T09:09:54Z</time>
      </trkpt>
      <trkpt lat="45.32363" lon="4.3042">
        <ele>823</ele>
        <time>2021-02-27T09:09:55Z</time>
      </trkpt>
      <trkpt lat="45.32366" lon="4.30427">
        <ele>822</ele>
        <time>2021-02-27T09:09:56Z</time>
      </trkpt>
      <trkpt lat="45.32369" lon="4.30434">
        <ele>821</ele>
        <time>2021-02-27T09:09:57Z</time>
      </trkpt>
      <trkpt lat="45.32372" lon="4.3044">
        <ele>820</ele>
        <time>2021-02-27T09:09:58Z</time>
      </trkpt>
      <trkpt lat="45.32377" lon="4.30447">
        <ele>819</ele>
        <time>2021-02-27T09:09:59Z</time>
      </trkpt>
      <trkpt lat="45.32382" lon="4.30454">
        <ele>818</ele>
        <time>2021-02-27T09:10:00Z</time>
      </trkpt>
      <trkpt lat="45.32389" lon="4.30462">
        <ele>817</ele>
        <time>2021-02-27T09:10:01Z</time>
      </trkpt>
      <trkpt lat="45.32396" lon="4.30469">
        <ele>816</ele>
        <time>2021-02-27T09:10:02Z</time>
      </trkpt>
      <trkpt lat="45.32403" lon="4.30478">
        <ele>815</ele>
        <time>2021-02-27T09:10:03Z</time>
      </trkpt>
      <trkpt lat="45.32409" lon="4.30486">
        <ele>814</ele>
        <time>2021-02-27T09:10:04Z</time>
      </trkpt>
      <trkpt lat="45.32415" lon="4.30491">
        <ele>813</ele>
        <time>2021-02-27T09:10:05Z</time>
      </trkpt>
      <trkpt lat="45.32422" lon="4.30493">
        <ele>811</ele>
        <time>2021-02-27T09:10:06Z</time>
      </trkpt>
      <trkpt lat="45.32428" lon="4.30492">
        <ele>810</ele>
        <time>2021-02-27T09:10:07Z</time>
      </trkpt>
      <trkpt lat="45.32435" lon="4.30491">
        <ele>809</ele>
        <time>2021-02-27T09:10:08Z</time>
      </trkpt>
      <trkpt lat="45.3244" lon="4.30488">
        <ele>807</ele>
        <time>2021-02-27T09:10:09Z</time>
      </trkpt>
      <trkpt lat="45.32446" lon="4.30485">
        <ele>807</ele>
        <time>2021-02-27T09:10:10Z</time>
      </trkpt>
      <trkpt lat="45.32452" lon="4.30481">
        <ele>806</ele>
        <time>2021-02-27T09:10:11Z</time>
      </trkpt>
      <trkpt lat="45.32456" lon="4.30476">
        <ele>805</ele>
        <time>2021-02-27T09:10:12Z</time>
      </trkpt>
      <trkpt lat="45.3246" lon="4.30471">
        <ele>805</ele>
        <time>2021-02-27T09:10:13Z</time>
      </trkpt>
      <trkpt lat="45.32463" lon="4.30467">
        <ele>805</ele>
        <time>2021-02-27T09:10:14Z</time>
      </trkpt>
      <trkpt lat="45.32466" lon="4.30464">
        <ele>805</ele>
        <time>2021-02-27T09:10:17Z</time>
      </trkpt>
      <trkpt lat="45.32469" lon="4.30459">
        <ele>805</ele>
        <time>2021-02-27T09:10:25Z</time>
      </trkpt>
      <trkpt lat="45.32472" lon="4.30455">
        <ele>805</ele>
        <time>2021-02-27T09:10:27Z</time>
      </trkpt>
      <trkpt lat="45.32476" lon="4.30453">
        <ele>805</ele>
        <time>2021-02-27T09:10:29Z</time>
      </trkpt>
      <trkpt lat="45.32479" lon="4.3045">
        <ele>804</ele>
        <time>2021-02-27T09:10:31Z</time>
      </trkpt>
      <trkpt lat="45.32481" lon="4.30444">
        <ele>804</ele>
        <time>2021-02-27T09:10:32Z</time>
      </trkpt>
      <trkpt lat="45.32481" lon="4.30439">
        <ele>804</ele>
        <time>2021-02-27T09:10:33Z</time>
      </trkpt>
      <trkpt lat="45.32481" lon="4.30432">
        <ele>804</ele>
        <time>2021-02-27T09:10:34Z</time>
      </trkpt>
      <trkpt lat="45.32479" lon="4.30426">
        <ele>804</ele>
        <time>2021-02-27T09:10:35Z</time>
      </trkpt>
      <trkpt lat="45.32477" lon="4.30419">
        <ele>803</ele>
        <time>2021-02-27T09:10:36Z</time>
      </trkpt>
      <trkpt lat="45.32475" lon="4.30411">
        <ele>803</ele>
        <time>2021-02-27T09:10:37Z</time>
      </trkpt>
      <trkpt lat="45.32472" lon="4.30403">
        <ele>802</ele>
        <time>2021-02-27T09:10:38Z</time>
      </trkpt>
      <trkpt lat="45.32469" lon="4.30395">
        <ele>801</ele>
        <time>2021-02-27T09:10:39Z</time>
      </trkpt>
      <trkpt lat="45.32466" lon="4.30386">
        <ele>800</ele>
        <time>2021-02-27T09:10:40Z</time>
      </trkpt>
      <trkpt lat="45.32463" lon="4.30378">
        <ele>800</ele>
        <time>2021-02-27T09:10:41Z</time>
      </trkpt>
      <trkpt lat="45.3246" lon="4.30369">
        <ele>800</ele>
        <time>2021-02-27T09:10:42Z</time>
      </trkpt>
      <trkpt lat="45.32458" lon="4.3036">
        <ele>800</ele>
        <time>2021-02-27T09:10:43Z</time>
      </trkpt>
      <trkpt lat="45.32457" lon="4.3035">
        <ele>800</ele>
        <time>2021-02-27T09:10:44Z</time>
      </trkpt>
      <trkpt lat="45.32457" lon="4.30341">
        <ele>800</ele>
        <time>2021-02-27T09:10:45Z</time>
      </trkpt>
      <trkpt lat="45.32459" lon="4.30332">
        <ele>799</ele>
        <time>2021-02-27T09:10:46Z</time>
      </trkpt>
      <trkpt lat="45.32461" lon="4.30325">
        <ele>799</ele>
        <time>2021-02-27T09:10:47Z</time>
      </trkpt>
      <trkpt lat="45.32465" lon="4.30319">
        <ele>799</ele>
        <time>2021-02-27T09:10:48Z</time>
      </trkpt>
      <trkpt lat="45.32469" lon="4.30315">
        <ele>800</ele>
        <time>2021-02-27T09:10:49Z</time>
      </trkpt>
      <trkpt lat="45.32474" lon="4.30312">
        <ele>801</ele>
        <time>2021-02-27T09:10:50Z</time>
      </trkpt>
      <trkpt lat="45.32478" lon="4.3031">
        <ele>802</ele>
        <time>2021-02-27T09:10:51Z</time>
      </trkpt>
      <trkpt lat="45.32482" lon="4.30307">
        <ele>803</ele>
        <time>2021-02-27T09:10:52Z</time>
      </trkpt>
      <trkpt lat="45.32485" lon="4.30305">
        <ele>803</ele>
        <time>2021-02-27T09:10:53Z</time>
      </trkpt>
      <trkpt lat="45.32488" lon="4.30302">
        <ele>804</ele>
        <time>2021-02-27T09:10:54Z</time>
      </trkpt>
      <trkpt lat="45.32491" lon="4.30299">
        <ele>804</ele>
        <time>2021-02-27T09:10:55Z</time>
      </trkpt>
      <trkpt lat="45.32493" lon="4.30296">
        <ele>805</ele>
        <time>2021-02-27T09:10:56Z</time>
      </trkpt>
      <trkpt lat="45.32495" lon="4.30292">
        <ele>805</ele>
        <time>2021-02-27T09:10:57Z</time>
      </trkpt>
      <trkpt lat="45.32497" lon="4.30288">
        <ele>805</ele>
        <time>2021-02-27T09:10:58Z</time>
      </trkpt>
      <trkpt lat="45.325" lon="4.30284">
        <ele>806</ele>
        <time>2021-02-27T09:10:59Z</time>
      </trkpt>
      <trkpt lat="45.32502" lon="4.3028">
        <ele>806</ele>
        <time>2021-02-27T09:11:00Z</time>
      </trkpt>
      <trkpt lat="45.32503" lon="4.30276">
        <ele>807</ele>
        <time>2021-02-27T09:11:01Z</time>
      </trkpt>
      <trkpt lat="45.32505" lon="4.30271">
        <ele>808</ele>
        <time>2021-02-27T09:11:02Z</time>
      </trkpt>
      <trkpt lat="45.32507" lon="4.30267">
        <ele>808</ele>
        <time>2021-02-27T09:11:03Z</time>
      </trkpt>
      <trkpt lat="45.32508" lon="4.30263">
        <ele>808</ele>
        <time>2021-02-27T09:11:04Z</time>
      </trkpt>
      <trkpt lat="45.32509" lon="4.3026">
        <ele>808</ele>
        <time>2021-02-27T09:11:05Z</time>
      </trkpt>
      <trkpt lat="45.32511" lon="4.30256">
        <ele>809</ele>
        <time>2021-02-27T09:11:06Z</time>
      </trkpt>
      <trkpt lat="45.32512" lon="4.30253">
        <ele>809</ele>
        <time>2021-02-27T09:11:07Z</time>
      </trkpt>
      <trkpt lat="45.32514" lon="4.3025">
        <ele>810</ele>
        <time>2021-02-27T09:11:08Z</time>
      </trkpt>
      <trkpt lat="45.32515" lon="4.30246">
        <ele>810</ele>
        <time>2021-02-27T09:11:09Z</time>
      </trkpt>
      <trkpt lat="45.32517" lon="4.30243">
        <ele>810</ele>
        <time>2021-02-27T09:11:10Z</time>
      </trkpt>
      <trkpt lat="45.32518" lon="4.30239">
        <ele>810</ele>
        <time>2021-02-27T09:11:11Z</time>
      </trkpt>
      <trkpt lat="45.32519" lon="4.30236">
        <ele>811</ele>
        <time>2021-02-27T09:11:12Z</time>
      </trkpt>
      <trkpt lat="45.32521" lon="4.30232">
        <ele>811</ele>
        <time>2021-02-27T09:11:13Z</time>
      </trkpt>
      <trkpt lat="45.32522" lon="4.30228">
        <ele>811</ele>
        <time>2021-02-27T09:11:14Z</time>
      </trkpt>
      <trkpt lat="45.32524" lon="4.30225">
        <ele>812</ele>
        <time>2021-02-27T09:11:15Z</time>
      </trkpt>
      <trkpt lat="45.32526" lon="4.3022">
        <ele>813</ele>
        <time>2021-02-27T09:11:17Z</time>
      </trkpt>
      <trkpt lat="45.32529" lon="4.30214">
        <ele>814</ele>
        <time>2021-02-27T09:11:19Z</time>
      </trkpt>
      <trkpt lat="45.32531" lon="4.30209">
        <ele>815</ele>
        <time>2021-02-27T09:11:20Z</time>
      </trkpt>
      <trkpt lat="45.32532" lon="4.30205">
        <ele>815</ele>
        <time>2021-02-27T09:11:23Z</time>
      </trkpt>
      <trkpt lat="45.32534" lon="4.30199">
        <ele>816</ele>
        <time>2021-02-27T09:11:25Z</time>
      </trkpt>
      <trkpt lat="45.32534" lon="4.30192">
        <ele>817</ele>
        <time>2021-02-27T09:11:27Z</time>
      </trkpt>
      <trkpt lat="45.32534" lon="4.30187">
        <ele>819</ele>
        <time>2021-02-27T09:11:29Z</time>
      </trkpt>
      <trkpt lat="45.32534" lon="4.30181">
        <ele>819</ele>
        <time>2021-02-27T09:11:31Z</time>
      </trkpt>
      <trkpt lat="45.32534" lon="4.30175">
        <ele>819</ele>
        <time>2021-02-27T09:11:33Z</time>
      </trkpt>
      <trkpt lat="45.32533" lon="4.3017">
        <ele>820</ele>
        <time>2021-02-27T09:11:35Z</time>
      </trkpt>
      <trkpt lat="45.32533" lon="4.30164">
        <ele>820</ele>
        <time>2021-02-27T09:11:37Z</time>
      </trkpt>
      <trkpt lat="45.32533" lon="4.30157">
        <ele>820</ele>
        <time>2021-02-27T09:11:39Z</time>
      </trkpt>
      <trkpt lat="45.32532" lon="4.30152">
        <ele>820</ele>
        <time>2021-02-27T09:11:40Z</time>
      </trkpt>
      <trkpt lat="45.32531" lon="4.30148">
        <ele>821</ele>
        <time>2021-02-27T09:11:41Z</time>
      </trkpt>
      <trkpt lat="45.32531" lon="4.30142">
        <ele>821</ele>
        <time>2021-02-27T09:11:43Z</time>
      </trkpt>
      <trkpt lat="45.32531" lon="4.30135">
        <ele>821</ele>
        <time>2021-02-27T09:11:45Z</time>
      </trkpt>
      <trkpt lat="45.32532" lon="4.30128">
        <ele>822</ele>
        <time>2021-02-27T09:11:47Z</time>
      </trkpt>
      <trkpt lat="45.32533" lon="4.30123">
        <ele>822</ele>
        <time>2021-02-27T09:11:49Z</time>
      </trkpt>
      <trkpt lat="45.32534" lon="4.30117">
        <ele>823</ele>
        <time>2021-02-27T09:11:51Z</time>
      </trkpt>
      <trkpt lat="45.32537" lon="4.30112">
        <ele>824</ele>
        <time>2021-02-27T09:11:53Z</time>
      </trkpt>
      <trkpt lat="45.3254" lon="4.30108">
        <ele>824</ele>
        <time>2021-02-27T09:11:55Z</time>
      </trkpt>
      <trkpt lat="45.32542" lon="4.30105">
        <ele>824</ele>
        <time>2021-02-27T09:11:56Z</time>
      </trkpt>
      <trkpt lat="45.32546" lon="4.30104">
        <ele>825</ele>
        <time>2021-02-27T09:11:58Z</time>
      </trkpt>
      <trkpt lat="45.3255" lon="4.30104">
        <ele>825</ele>
        <time>2021-02-27T09:12:00Z</time>
      </trkpt>
      <trkpt lat="45.32554" lon="4.30106">
        <ele>825</ele>
        <time>2021-02-27T09:12:02Z</time>
      </trkpt>
      <trkpt lat="45.32559" lon="4.30108">
        <ele>826</ele>
        <time>2021-02-27T09:12:04Z</time>
      </trkpt>
      <trkpt lat="45.32562" lon="4.3011">
        <ele>826</ele>
        <time>2021-02-27T09:12:05Z</time>
      </trkpt>
      <trkpt lat="45.32566" lon="4.30113">
        <ele>826</ele>
        <time>2021-02-27T09:12:07Z</time>
      </trkpt>
      <trkpt lat="45.3257" lon="4.30116">
        <ele>825</ele>
        <time>2021-02-27T09:12:08Z</time>
      </trkpt>
      <trkpt lat="45.32573" lon="4.30119">
        <ele>826</ele>
        <time>2021-02-27T09:12:09Z</time>
      </trkpt>
      <trkpt lat="45.32576" lon="4.30123">
        <ele>825</ele>
        <time>2021-02-27T09:12:10Z</time>
      </trkpt>
      <trkpt lat="45.32578" lon="4.30127">
        <ele>824</ele>
        <time>2021-02-27T09:12:11Z</time>
      </trkpt>
      <trkpt lat="45.3258" lon="4.30133">
        <ele>824</ele>
        <time>2021-02-27T09:12:12Z</time>
      </trkpt>
      <trkpt lat="45.32581" lon="4.30139">
        <ele>824</ele>
        <time>2021-02-27T09:12:13Z</time>
      </trkpt>
      <trkpt lat="45.32583" lon="4.30143">
        <ele>823</ele>
        <time>2021-02-27T09:12:14Z</time>
      </trkpt>
      <trkpt lat="45.32586" lon="4.30148">
        <ele>823</ele>
        <time>2021-02-27T09:12:15Z</time>
      </trkpt>
      <trkpt lat="45.3259" lon="4.30151">
        <ele>823</ele>
        <time>2021-02-27T09:12:16Z</time>
      </trkpt>
      <trkpt lat="45.32594" lon="4.30153">
        <ele>824</ele>
        <time>2021-02-27T09:12:17Z</time>
      </trkpt>
      <trkpt lat="45.32598" lon="4.30153">
        <ele>824</ele>
        <time>2021-02-27T09:12:18Z</time>
      </trkpt>
      <trkpt lat="45.32602" lon="4.30153">
        <ele>823</ele>
        <time>2021-02-27T09:12:19Z</time>
      </trkpt>
      <trkpt lat="45.32606" lon="4.30152">
        <ele>824</ele>
        <time>2021-02-27T09:12:20Z</time>
      </trkpt>
      <trkpt lat="45.32609" lon="4.30152">
        <ele>824</ele>
        <time>2021-02-27T09:12:21Z</time>
      </trkpt>
      <trkpt lat="45.32614" lon="4.30153">
        <ele>824</ele>
        <time>2021-02-27T09:12:23Z</time>
      </trkpt>
      <trkpt lat="45.32619" lon="4.30154">
        <ele>824</ele>
        <time>2021-02-27T09:12:24Z</time>
      </trkpt>
      <trkpt lat="45.32624" lon="4.30155">
        <ele>824</ele>
        <time>2021-02-27T09:12:25Z</time>
      </trkpt>
      <trkpt lat="45.32629" lon="4.30156">
        <ele>823</ele>
        <time>2021-02-27T09:12:26Z</time>
      </trkpt>
      <trkpt lat="45.32634" lon="4.30157">
        <ele>823</ele>
        <time>2021-02-27T09:12:27Z</time>
      </trkpt>
      <trkpt lat="45.32639" lon="4.30159">
        <ele>822</ele>
        <time>2021-02-27T09:12:28Z</time>
      </trkpt>
      <trkpt lat="45.32645" lon="4.3016">
        <ele>821</ele>
        <time>2021-02-27T09:12:29Z</time>
      </trkpt>
      <trkpt lat="45.32651" lon="4.30162">
        <ele>820</ele>
        <time>2021-02-27T09:12:30Z</time>
      </trkpt>
      <trkpt lat="45.32657" lon="4.30165">
        <ele>820</ele>
        <time>2021-02-27T09:12:31Z</time>
      </trkpt>
      <trkpt lat="45.32663" lon="4.30167">
        <ele>819</ele>
        <time>2021-02-27T09:12:32Z</time>
      </trkpt>
      <trkpt lat="45.32669" lon="4.30169">
        <ele>818</ele>
        <time>2021-02-27T09:12:33Z</time>
      </trkpt>
      <trkpt lat="45.32675" lon="4.30171">
        <ele>818</ele>
        <time>2021-02-27T09:12:34Z</time>
      </trkpt>
      <trkpt lat="45.32682" lon="4.30174">
        <ele>818</ele>
        <time>2021-02-27T09:12:35Z</time>
      </trkpt>
      <trkpt lat="45.32687" lon="4.30177">
        <ele>817</ele>
        <time>2021-02-27T09:12:36Z</time>
      </trkpt>
      <trkpt lat="45.32694" lon="4.30181">
        <ele>817</ele>
        <time>2021-02-27T09:12:37Z</time>
      </trkpt>
      <trkpt lat="45.327" lon="4.30186">
        <ele>816</ele>
        <time>2021-02-27T09:12:38Z</time>
      </trkpt>
      <trkpt lat="45.32707" lon="4.3019">
        <ele>815</ele>
        <time>2021-02-27T09:12:39Z</time>
      </trkpt>
      <trkpt lat="45.32714" lon="4.30195">
        <ele>814</ele>
        <time>2021-02-27T09:12:40Z</time>
      </trkpt>
      <trkpt lat="45.3272" lon="4.30201">
        <ele>813</ele>
        <time>2021-02-27T09:12:41Z</time>
      </trkpt>
      <trkpt lat="45.32727" lon="4.30207">
        <ele>812</ele>
        <time>2021-02-27T09:12:42Z</time>
      </trkpt>
      <trkpt lat="45.32735" lon="4.30212">
        <ele>812</ele>
        <time>2021-02-27T09:12:43Z</time>
      </trkpt>
      <trkpt lat="45.32743" lon="4.30219">
        <ele>811</ele>
        <time>2021-02-27T09:12:44Z</time>
      </trkpt>
      <trkpt lat="45.32752" lon="4.30225">
        <ele>810</ele>
        <time>2021-02-27T09:12:45Z</time>
      </trkpt>
      <trkpt lat="45.3276" lon="4.3023">
        <ele>810</ele>
        <time>2021-02-27T09:12:46Z</time>
      </trkpt>
      <trkpt lat="45.32769" lon="4.30236">
        <ele>808</ele>
        <time>2021-02-27T09:12:47Z</time>
      </trkpt>
      <trkpt lat="45.32777" lon="4.3024">
        <ele>808</ele>
        <time>2021-02-27T09:12:48Z</time>
      </trkpt>
      <trkpt lat="45.32786" lon="4.30245">
        <ele>807</ele>
        <time>2021-02-27T09:12:49Z</time>
      </trkpt>
      <trkpt lat="45.32794" lon="4.30249">
        <ele>806</ele>
        <time>2021-02-27T09:12:50Z</time>
      </trkpt>
      <trkpt lat="45.32802" lon="4.30253">
        <ele>806</ele>
        <time>2021-02-27T09:12:51Z</time>
      </trkpt>
      <trkpt lat="45.32811" lon="4.30259">
        <ele>805</ele>
        <time>2021-02-27T09:12:52Z</time>
      </trkpt>
      <trkpt lat="45.3282" lon="4.30265">
        <ele>803</ele>
        <time>2021-02-27T09:12:53Z</time>
      </trkpt>
      <trkpt lat="45.32829" lon="4.3027">
        <ele>803</ele>
        <time>2021-02-27T09:12:54Z</time>
      </trkpt>
      <trkpt lat="45.32838" lon="4.30276">
        <ele>803</ele>
        <time>2021-02-27T09:12:55Z</time>
      </trkpt>
      <trkpt lat="45.32847" lon="4.30282">
        <ele>802</ele>
        <time>2021-02-27T09:12:56Z</time>
      </trkpt>
      <trkpt lat="45.32856" lon="4.30287">
        <ele>802</ele>
        <time>2021-02-27T09:12:57Z</time>
      </trkpt>
      <trkpt lat="45.32865" lon="4.30292">
        <ele>800</ele>
        <time>2021-02-27T09:12:58Z</time>
      </trkpt>
      <trkpt lat="45.32874" lon="4.30296">
        <ele>799</ele>
        <time>2021-02-27T09:12:59Z</time>
      </trkpt>
      <trkpt lat="45.32884" lon="4.30299">
        <ele>798</ele>
        <time>2021-02-27T09:13:00Z</time>
      </trkpt>
      <trkpt lat="45.32893" lon="4.30303">
        <ele>799</ele>
        <time>2021-02-27T09:13:01Z</time>
      </trkpt>
      <trkpt lat="45.32902" lon="4.30305">
        <ele>798</ele>
        <time>2021-02-27T09:13:02Z</time>
      </trkpt>
      <trkpt lat="45.32911" lon="4.30308">
        <ele>798</ele>
        <time>2021-02-27T09:13:03Z</time>
      </trkpt>
      <trkpt lat="45.3292" lon="4.30311">
        <ele>797</ele>
        <time>2021-02-27T09:13:04Z</time>
      </trkpt>
      <trkpt lat="45.32928" lon="4.30315">
        <ele>797</ele>
        <time>2021-02-27T09:13:05Z</time>
      </trkpt>
      <trkpt lat="45.32937" lon="4.30318">
        <ele>797</ele>
        <time>2021-02-27T09:13:06Z</time>
      </trkpt>
      <trkpt lat="45.32944" lon="4.30325">
        <ele>796</ele>
        <time>2021-02-27T09:13:07Z</time>
      </trkpt>
      <trkpt lat="45.3295" lon="4.30333">
        <ele>796</ele>
        <time>2021-02-27T09:13:08Z</time>
      </trkpt>
      <trkpt lat="45.32955" lon="4.30341">
        <ele>795</ele>
        <time>2021-02-27T09:13:09Z</time>
      </trkpt>
      <trkpt lat="45.3296" lon="4.3035">
        <ele>794</ele>
        <time>2021-02-27T09:13:10Z</time>
      </trkpt>
      <trkpt lat="45.32966" lon="4.30359">
        <ele>794</ele>
        <time>2021-02-27T09:13:11Z</time>
      </trkpt>
      <trkpt lat="45.32971" lon="4.30367">
        <ele>794</ele>
        <time>2021-02-27T09:13:12Z</time>
      </trkpt>
      <trkpt lat="45.32976" lon="4.30374">
        <ele>794</ele>
        <time>2021-02-27T09:13:13Z</time>
      </trkpt>
      <trkpt lat="45.32981" lon="4.30381">
        <ele>793</ele>
        <time>2021-02-27T09:13:14Z</time>
      </trkpt>
      <trkpt lat="45.32986" lon="4.30388">
        <ele>793</ele>
        <time>2021-02-27T09:13:15Z</time>
      </trkpt>
      <trkpt lat="45.3299" lon="4.30395">
        <ele>792</ele>
        <time>2021-02-27T09:13:16Z</time>
      </trkpt>
      <trkpt lat="45.32995" lon="4.30401">
        <ele>792</ele>
        <time>2021-02-27T09:13:17Z</time>
      </trkpt>
      <trkpt lat="45.33" lon="4.30408">
        <ele>792</ele>
        <time>2021-02-27T09:13:18Z</time>
      </trkpt>
      <trkpt lat="45.33006" lon="4.30415">
        <ele>791</ele>
        <time>2021-02-27T09:13:19Z</time>
      </trkpt>
      <trkpt lat="45.33012" lon="4.30421">
        <ele>790</ele>
        <time>2021-02-27T09:13:20Z</time>
      </trkpt>
      <trkpt lat="45.33018" lon="4.30428">
        <ele>789</ele>
        <time>2021-02-27T09:13:21Z</time>
      </trkpt>
      <trkpt lat="45.33024" lon="4.30434">
        <ele>789</ele>
        <time>2021-02-27T09:13:22Z</time>
      </trkpt>
      <trkpt lat="45.3303" lon="4.30442">
        <ele>787</ele>
        <time>2021-02-27T09:13:23Z</time>
      </trkpt>
      <trkpt lat="45.33035" lon="4.30449">
        <ele>788</ele>
        <time>2021-02-27T09:13:24Z</time>
      </trkpt>
      <trkpt lat="45.33042" lon="4.30458">
        <ele>787</ele>
        <time>2021-02-27T09:13:25Z</time>
      </trkpt>
      <trkpt lat="45.33048" lon="4.30465">
        <ele>787</ele>
        <time>2021-02-27T09:13:26Z</time>
      </trkpt>
      <trkpt lat="45.33054" lon="4.30473">
        <ele>786</ele>
        <time>2021-02-27T09:13:27Z</time>
      </trkpt>
      <trkpt lat="45.33059" lon="4.30481">
        <ele>787</ele>
        <time>2021-02-27T09:13:28Z</time>
      </trkpt>
      <trkpt lat="45.33064" lon="4.30489">
        <ele>787</ele>
        <time>2021-02-27T09:13:29Z</time>
      </trkpt>
      <trkpt lat="45.33069" lon="4.30497">
        <ele>785</ele>
        <time>2021-02-27T09:13:30Z</time>
      </trkpt>
      <trkpt lat="45.33074" lon="4.30503">
        <ele>783</ele>
        <time>2021-02-27T09:13:31Z</time>
      </trkpt>
      <trkpt lat="45.33079" lon="4.30509">
        <ele>782</ele>
        <time>2021-02-27T09:13:32Z</time>
      </trkpt>
      <trkpt lat="45.33083" lon="4.30515">
        <ele>780</ele>
        <time>2021-02-27T09:13:33Z</time>
      </trkpt>
      <trkpt lat="45.33088" lon="4.3052">
        <ele>779</ele>
        <time>2021-02-27T09:13:34Z</time>
      </trkpt>
      <trkpt lat="45.33093" lon="4.30525">
        <ele>777</ele>
        <time>2021-02-27T09:13:35Z</time>
      </trkpt>
      <trkpt lat="45.33097" lon="4.30528">
        <ele>777</ele>
        <time>2021-02-27T09:13:36Z</time>
      </trkpt>
      <trkpt lat="45.33101" lon="4.30531">
        <ele>775</ele>
        <time>2021-02-27T09:13:37Z</time>
      </trkpt>
      <trkpt lat="45.33105" lon="4.30532">
        <ele>775</ele>
        <time>2021-02-27T09:13:38Z</time>
      </trkpt>
      <trkpt lat="45.33109" lon="4.30532">
        <ele>774</ele>
        <time>2021-02-27T09:13:39Z</time>
      </trkpt>
      <trkpt lat="45.33113" lon="4.30532">
        <ele>774</ele>
        <time>2021-02-27T09:13:40Z</time>
      </trkpt>
      <trkpt lat="45.33119" lon="4.30533">
        <ele>773</ele>
        <time>2021-02-27T09:13:41Z</time>
      </trkpt>
      <trkpt lat="45.33124" lon="4.30533">
        <ele>773</ele>
        <time>2021-02-27T09:13:42Z</time>
      </trkpt>
      <trkpt lat="45.33131" lon="4.30534">
        <ele>773</ele>
        <time>2021-02-27T09:13:43Z</time>
      </trkpt>
      <trkpt lat="45.33136" lon="4.30535">
        <ele>774</ele>
        <time>2021-02-27T09:13:44Z</time>
      </trkpt>
      <trkpt lat="45.3314" lon="4.30537">
        <ele>774</ele>
        <time>2021-02-27T09:13:45Z</time>
      </trkpt>
      <trkpt lat="45.33144" lon="4.30539">
        <ele>773</ele>
        <time>2021-02-27T09:13:46Z</time>
      </trkpt>
      <trkpt lat="45.33148" lon="4.30541">
        <ele>774</ele>
        <time>2021-02-27T09:13:47Z</time>
      </trkpt>
      <trkpt lat="45.33153" lon="4.30543">
        <ele>774</ele>
        <time>2021-02-27T09:13:48Z</time>
      </trkpt>
      <trkpt lat="45.33157" lon="4.30546">
        <ele>775</ele>
        <time>2021-02-27T09:13:49Z</time>
      </trkpt>
      <trkpt lat="45.33161" lon="4.30549">
        <ele>776</ele>
        <time>2021-02-27T09:13:51Z</time>
      </trkpt>
      <trkpt lat="45.33165" lon="4.30551">
        <ele>777</ele>
        <time>2021-02-27T09:13:53Z</time>
      </trkpt>
      <trkpt lat="45.3317" lon="4.30552">
        <ele>777</ele>
        <time>2021-02-27T09:13:55Z</time>
      </trkpt>
      <trkpt lat="45.33174" lon="4.30553">
        <ele>777</ele>
        <time>2021-02-27T09:13:57Z</time>
      </trkpt>
      <trkpt lat="45.33179" lon="4.30555">
        <ele>778</ele>
        <time>2021-02-27T09:14:00Z</time>
      </trkpt>
      <trkpt lat="45.33182" lon="4.30557">
        <ele>778</ele>
        <time>2021-02-27T09:14:02Z</time>
      </trkpt>
      <trkpt lat="45.33185" lon="4.30559">
        <ele>779</ele>
        <time>2021-02-27T09:14:04Z</time>
      </trkpt>
      <trkpt lat="45.33187" lon="4.30562">
        <ele>779</ele>
        <time>2021-02-27T09:14:06Z</time>
      </trkpt>
      <trkpt lat="45.3319" lon="4.30566">
        <ele>780</ele>
        <time>2021-02-27T09:14:08Z</time>
      </trkpt>
      <trkpt lat="45.33193" lon="4.30568">
        <ele>781</ele>
        <time>2021-02-27T09:14:09Z</time>
      </trkpt>
      <trkpt lat="45.33196" lon="4.3057">
        <ele>781</ele>
        <time>2021-02-27T09:14:10Z</time>
      </trkpt>
      <trkpt lat="45.33199" lon="4.30572">
        <ele>781</ele>
        <time>2021-02-27T09:14:11Z</time>
      </trkpt>
      <trkpt lat="45.33203" lon="4.30574">
        <ele>782</ele>
        <time>2021-02-27T09:14:13Z</time>
      </trkpt>
      <trkpt lat="45.33206" lon="4.30577">
        <ele>782</ele>
        <time>2021-02-27T09:14:15Z</time>
      </trkpt>
      <trkpt lat="45.3321" lon="4.3058">
        <ele>783</ele>
        <time>2021-02-27T09:14:17Z</time>
      </trkpt>
      <trkpt lat="45.33213" lon="4.30582">
        <ele>783</ele>
        <time>2021-02-27T09:14:19Z</time>
      </trkpt>
      <trkpt lat="45.33215" lon="4.30585">
        <ele>784</ele>
        <time>2021-02-27T09:14:21Z</time>
      </trkpt>
      <trkpt lat="45.33218" lon="4.30589">
        <ele>785</ele>
        <time>2021-02-27T09:14:23Z</time>
      </trkpt>
      <trkpt lat="45.3322" lon="4.30592">
        <ele>786</ele>
        <time>2021-02-27T09:14:25Z</time>
      </trkpt>
      <trkpt lat="45.33224" lon="4.30595">
        <ele>787</ele>
        <time>2021-02-27T09:14:27Z</time>
      </trkpt>
      <trkpt lat="45.33227" lon="4.30598">
        <ele>787</ele>
        <time>2021-02-27T09:14:29Z</time>
      </trkpt>
      <trkpt lat="45.33231" lon="4.30601">
        <ele>787</ele>
        <time>2021-02-27T09:14:33Z</time>
      </trkpt>
      <trkpt lat="45.33235" lon="4.30603">
        <ele>788</ele>
        <time>2021-02-27T09:14:35Z</time>
      </trkpt>
      <trkpt lat="45.3324" lon="4.30604">
        <ele>788</ele>
        <time>2021-02-27T09:14:37Z</time>
      </trkpt>
      <trkpt lat="45.33244" lon="4.30604">
        <ele>789</ele>
        <time>2021-02-27T09:14:39Z</time>
      </trkpt>
      <trkpt lat="45.33248" lon="4.30605">
        <ele>789</ele>
        <time>2021-02-27T09:14:41Z</time>
      </trkpt>
      <trkpt lat="45.33252" lon="4.30605">
        <ele>791</ele>
        <time>2021-02-27T09:14:43Z</time>
      </trkpt>
      <trkpt lat="45.33255" lon="4.30605">
        <ele>790</ele>
        <time>2021-02-27T09:14:44Z</time>
      </trkpt>
      <trkpt lat="45.33259" lon="4.30605">
        <ele>791</ele>
        <time>2021-02-27T09:14:46Z</time>
      </trkpt>
      <trkpt lat="45.33263" lon="4.30606">
        <ele>791</ele>
        <time>2021-02-27T09:14:48Z</time>
      </trkpt>
      <trkpt lat="45.33267" lon="4.30606">
        <ele>791</ele>
        <time>2021-02-27T09:14:50Z</time>
      </trkpt>
      <trkpt lat="45.33271" lon="4.30606">
        <ele>791</ele>
        <time>2021-02-27T09:14:51Z</time>
      </trkpt>
      <trkpt lat="45.33274" lon="4.30606">
        <ele>792</ele>
        <time>2021-02-27T09:14:53Z</time>
      </trkpt>
      <trkpt lat="45.33277" lon="4.30607">
        <ele>792</ele>
        <time>2021-02-27T09:14:56Z</time>
      </trkpt>
      <trkpt lat="45.33281" lon="4.30607">
        <ele>792</ele>
        <time>2021-02-27T09:14:58Z</time>
      </trkpt>
      <trkpt lat="45.33285" lon="4.30607">
        <ele>792</ele>
        <time>2021-02-27T09:15:01Z</time>
      </trkpt>
      <trkpt lat="45.33289" lon="4.30608">
        <ele>793</ele>
        <time>2021-02-27T09:15:04Z</time>
      </trkpt>
      <trkpt lat="45.33293" lon="4.30608">
        <ele>793</ele>
        <time>2021-02-27T09:15:06Z</time>
      </trkpt>
      <trkpt lat="45.33297" lon="4.30608">
        <ele>794</ele>
        <time>2021-02-27T09:15:08Z</time>
      </trkpt>
      <trkpt lat="45.33301" lon="4.30609">
        <ele>794</ele>
        <time>2021-02-27T09:15:10Z</time>
      </trkpt>
      <trkpt lat="45.33304" lon="4.3061">
        <ele>795</ele>
        <time>2021-02-27T09:15:12Z</time>
      </trkpt>
      <trkpt lat="45.33309" lon="4.30611">
        <ele>795</ele>
        <time>2021-02-27T09:15:14Z</time>
      </trkpt>
      <trkpt lat="45.33312" lon="4.30614">
        <ele>795</ele>
        <time>2021-02-27T09:15:16Z</time>
      </trkpt>
      <trkpt lat="45.33316" lon="4.30616">
        <ele>795</ele>
        <time>2021-02-27T09:15:18Z</time>
      </trkpt>
      <trkpt lat="45.3332" lon="4.30618">
        <ele>796</ele>
        <time>2021-02-27T09:15:20Z</time>
      </trkpt>
      <trkpt lat="45.33324" lon="4.30619">
        <ele>797</ele>
        <time>2021-02-27T09:15:22Z</time>
      </trkpt>
      <trkpt lat="45.33328" lon="4.3062">
        <ele>797</ele>
        <time>2021-02-27T09:15:24Z</time>
      </trkpt>
      <trkpt lat="45.33332" lon="4.30621">
        <ele>798</ele>
        <time>2021-02-27T09:15:26Z</time>
      </trkpt>
      <trkpt lat="45.33336" lon="4.30622">
        <ele>798</ele>
        <time>2021-02-27T09:15:28Z</time>
      </trkpt>
      <trkpt lat="45.3334" lon="4.30622">
        <ele>798</ele>
        <time>2021-02-27T09:15:30Z</time>
      </trkpt>
      <trkpt lat="45.33345" lon="4.30621">
        <ele>799</ele>
        <time>2021-02-27T09:15:32Z</time>
      </trkpt>
      <trkpt lat="45.33349" lon="4.30622">
        <ele>799</ele>
        <time>2021-02-27T09:15:34Z</time>
      </trkpt>
      <trkpt lat="45.33353" lon="4.30623">
        <ele>800</ele>
        <time>2021-02-27T09:15:36Z</time>
      </trkpt>
      <trkpt lat="45.33357" lon="4.30624">
        <ele>800</ele>
        <time>2021-02-27T09:15:38Z</time>
      </trkpt>
      <trkpt lat="45.33361" lon="4.30626">
        <ele>801</ele>
        <time>2021-02-27T09:15:40Z</time>
      </trkpt>
      <trkpt lat="45.33365" lon="4.30627">
        <ele>801</ele>
        <time>2021-02-27T09:15:42Z</time>
      </trkpt>
      <trkpt lat="45.3337" lon="4.30627">
        <ele>802</ele>
        <time>2021-02-27T09:15:44Z</time>
      </trkpt>
      <trkpt lat="45.33374" lon="4.30628">
        <ele>802</ele>
        <time>2021-02-27T09:15:46Z</time>
      </trkpt>
      <trkpt lat="45.33377" lon="4.30629">
        <ele>803</ele>
        <time>2021-02-27T09:15:48Z</time>
      </trkpt>
      <trkpt lat="45.3338" lon="4.30631">
        <ele>802</ele>
        <time>2021-02-27T09:15:50Z</time>
      </trkpt>
      <trkpt lat="45.33384" lon="4.30631">
        <ele>804</ele>
        <time>2021-02-27T09:15:52Z</time>
      </trkpt>
      <trkpt lat="45.33387" lon="4.30632">
        <ele>804</ele>
        <time>2021-02-27T09:15:55Z</time>
      </trkpt>
      <trkpt lat="45.33391" lon="4.30632">
        <ele>804</ele>
        <time>2021-02-27T09:15:57Z</time>
      </trkpt>
      <trkpt lat="45.33394" lon="4.30633">
        <ele>805</ele>
        <time>2021-02-27T09:15:59Z</time>
      </trkpt>
      <trkpt lat="45.33399" lon="4.30633">
        <ele>804</ele>
        <time>2021-02-27T09:16:01Z</time>
      </trkpt>
      <trkpt lat="45.33404" lon="4.30633">
        <ele>804</ele>
        <time>2021-02-27T09:16:03Z</time>
      </trkpt>
      <trkpt lat="45.33409" lon="4.30634">
        <ele>805</ele>
        <time>2021-02-27T09:16:05Z</time>
      </trkpt>
      <trkpt lat="45.33414" lon="4.30635">
        <ele>805</ele>
        <time>2021-02-27T09:16:07Z</time>
      </trkpt>
      <trkpt lat="45.33418" lon="4.30636">
        <ele>806</ele>
        <time>2021-02-27T09:16:09Z</time>
      </trkpt>
      <trkpt lat="45.33422" lon="4.30637">
        <ele>806</ele>
        <time>2021-02-27T09:16:11Z</time>
      </trkpt>
      <trkpt lat="45.33426" lon="4.30637">
        <ele>806</ele>
        <time>2021-02-27T09:16:13Z</time>
      </trkpt>
      <trkpt lat="45.33429" lon="4.30638">
        <ele>807</ele>
        <time>2021-02-27T09:16:15Z</time>
      </trkpt>
      <trkpt lat="45.33434" lon="4.30638">
        <ele>808</ele>
        <time>2021-02-27T09:16:17Z</time>
      </trkpt>
      <trkpt lat="45.33437" lon="4.30637">
        <ele>808</ele>
        <time>2021-02-27T09:16:19Z</time>
      </trkpt>
      <trkpt lat="45.33441" lon="4.30636">
        <ele>808</ele>
        <time>2021-02-27T09:16:21Z</time>
      </trkpt>
      <trkpt lat="45.33445" lon="4.30635">
        <ele>808</ele>
        <time>2021-02-27T09:16:23Z</time>
      </trkpt>
      <trkpt lat="45.33448" lon="4.30634">
        <ele>809</ele>
        <time>2021-02-27T09:16:25Z</time>
      </trkpt>
      <trkpt lat="45.33452" lon="4.30633">
        <ele>809</ele>
        <time>2021-02-27T09:16:27Z</time>
      </trkpt>
      <trkpt lat="45.33456" lon="4.30632">
        <ele>810</ele>
        <time>2021-02-27T09:16:29Z</time>
      </trkpt>
      <trkpt lat="45.3346" lon="4.30631">
        <ele>810</ele>
        <time>2021-02-27T09:16:31Z</time>
      </trkpt>
      <trkpt lat="45.33464" lon="4.3063">
        <ele>811</ele>
        <time>2021-02-27T09:16:33Z</time>
      </trkpt>
      <trkpt lat="45.33468" lon="4.30629">
        <ele>811</ele>
        <time>2021-02-27T09:16:35Z</time>
      </trkpt>
      <trkpt lat="45.33471" lon="4.30627">
        <ele>811</ele>
        <time>2021-02-27T09:16:37Z</time>
      </trkpt>
      <trkpt lat="45.33476" lon="4.30626">
        <ele>811</ele>
        <time>2021-02-27T09:16:39Z</time>
      </trkpt>
      <trkpt lat="45.33479" lon="4.30625">
        <ele>811</ele>
        <time>2021-02-27T09:16:40Z</time>
      </trkpt>
      <trkpt lat="45.33483" lon="4.30623">
        <ele>812</ele>
        <time>2021-02-27T09:16:42Z</time>
      </trkpt>
      <trkpt lat="45.33487" lon="4.30622">
        <ele>812</ele>
        <time>2021-02-27T09:16:43Z</time>
      </trkpt>
      <trkpt lat="45.3349" lon="4.30621">
        <ele>812</ele>
        <time>2021-02-27T09:16:44Z</time>
      </trkpt>
      <trkpt lat="45.33493" lon="4.3062">
        <ele>812</ele>
        <time>2021-02-27T09:16:45Z</time>
      </trkpt>
      <trkpt lat="45.33495" lon="4.30618">
        <ele>812</ele>
        <time>2021-02-27T09:16:46Z</time>
      </trkpt>
      <trkpt lat="45.33499" lon="4.30617">
        <ele>812</ele>
        <time>2021-02-27T09:16:47Z</time>
      </trkpt>
      <trkpt lat="45.33502" lon="4.30615">
        <ele>812</ele>
        <time>2021-02-27T09:16:48Z</time>
      </trkpt>
      <trkpt lat="45.33505" lon="4.30614">
        <ele>812</ele>
        <time>2021-02-27T09:16:49Z</time>
      </trkpt>
      <trkpt lat="45.33508" lon="4.30613">
        <ele>812</ele>
        <time>2021-02-27T09:16:50Z</time>
      </trkpt>
      <trkpt lat="45.33511" lon="4.30611">
        <ele>812</ele>
        <time>2021-02-27T09:16:51Z</time>
      </trkpt>
      <trkpt lat="45.33514" lon="4.3061">
        <ele>812</ele>
        <time>2021-02-27T09:16:52Z</time>
      </trkpt>
      <trkpt lat="45.33517" lon="4.30608">
        <ele>812</ele>
        <time>2021-02-27T09:16:53Z</time>
      </trkpt>
      <trkpt lat="45.3352" lon="4.30607">
        <ele>812</ele>
        <time>2021-02-27T09:16:54Z</time>
      </trkpt>
      <trkpt lat="45.33523" lon="4.30605">
        <ele>812</ele>
        <time>2021-02-27T09:16:55Z</time>
      </trkpt>
      <trkpt lat="45.33526" lon="4.30603">
        <ele>813</ele>
        <time>2021-02-27T09:16:56Z</time>
      </trkpt>
      <trkpt lat="45.33529" lon="4.30601">
        <ele>812</ele>
        <time>2021-02-27T09:16:57Z</time>
      </trkpt>
      <trkpt lat="45.33533" lon="4.30599">
        <ele>812</ele>
        <time>2021-02-27T09:16:58Z</time>
      </trkpt>
      <trkpt lat="45.33536" lon="4.30597">
        <ele>812</ele>
        <time>2021-02-27T09:16:59Z</time>
      </trkpt>
      <trkpt lat="45.3354" lon="4.30595">
        <ele>813</ele>
        <time>2021-02-27T09:17:00Z</time>
      </trkpt>
      <trkpt lat="45.33543" lon="4.30593">
        <ele>812</ele>
        <time>2021-02-27T09:17:01Z</time>
      </trkpt>
      <trkpt lat="45.33547" lon="4.30591">
        <ele>812</ele>
        <time>2021-02-27T09:17:02Z</time>
      </trkpt>
      <trkpt lat="45.33551" lon="4.30589">
        <ele>812</ele>
        <time>2021-02-27T09:17:03Z</time>
      </trkpt>
      <trkpt lat="45.33554" lon="4.30587">
        <ele>811</ele>
        <time>2021-02-27T09:17:04Z</time>
      </trkpt>
      <trkpt lat="45.33558" lon="4.30586">
        <ele>812</ele>
        <time>2021-02-27T09:17:05Z</time>
      </trkpt>
      <trkpt lat="45.33562" lon="4.30584">
        <ele>812</ele>
        <time>2021-02-27T09:17:06Z</time>
      </trkpt>
      <trkpt lat="45.33566" lon="4.30583">
        <ele>812</ele>
        <time>2021-02-27T09:17:07Z</time>
      </trkpt>
      <trkpt lat="45.3357" lon="4.30581">
        <ele>812</ele>
        <time>2021-02-27T09:17:08Z</time>
      </trkpt>
      <trkpt lat="45.33574" lon="4.3058">
        <ele>812</ele>
        <time>2021-02-27T09:17:09Z</time>
      </trkpt>
      <trkpt lat="45.33578" lon="4.30579">
        <ele>812</ele>
        <time>2021-02-27T09:17:10Z</time>
      </trkpt>
      <trkpt lat="45.33582" lon="4.30577">
        <ele>812</ele>
        <time>2021-02-27T09:17:11Z</time>
      </trkpt>
      <trkpt lat="45.33586" lon="4.30576">
        <ele>811</ele>
        <time>2021-02-27T09:17:12Z</time>
      </trkpt>
      <trkpt lat="45.33591" lon="4.30574">
        <ele>812</ele>
        <time>2021-02-27T09:17:13Z</time>
      </trkpt>
      <trkpt lat="45.33595" lon="4.30573">
        <ele>811</ele>
        <time>2021-02-27T09:17:14Z</time>
      </trkpt>
      <trkpt lat="45.33599" lon="4.30571">
        <ele>811</ele>
        <time>2021-02-27T09:17:15Z</time>
      </trkpt>
      <trkpt lat="45.33603" lon="4.30569">
        <ele>811</ele>
        <time>2021-02-27T09:17:16Z</time>
      </trkpt>
      <trkpt lat="45.33606" lon="4.30568">
        <ele>810</ele>
        <time>2021-02-27T09:17:17Z</time>
      </trkpt>
      <trkpt lat="45.3361" lon="4.30565">
        <ele>811</ele>
        <time>2021-02-27T09:17:18Z</time>
      </trkpt>
      <trkpt lat="45.33613" lon="4.30563">
        <ele>811</ele>
        <time>2021-02-27T09:17:19Z</time>
      </trkpt>
      <trkpt lat="45.33617" lon="4.30561">
        <ele>811</ele>
        <time>2021-02-27T09:17:21Z</time>
      </trkpt>
      <trkpt lat="45.33621" lon="4.3056">
        <ele>812</ele>
        <time>2021-02-27T09:17:23Z</time>
      </trkpt>
      <trkpt lat="45.33624" lon="4.3056">
        <ele>812</ele>
        <time>2021-02-27T09:18:49Z</time>
      </trkpt>
      <trkpt lat="45.33627" lon="4.30557">
        <ele>812</ele>
        <time>2021-02-27T09:19:18Z</time>
      </trkpt>
      <trkpt lat="45.3363" lon="4.30555">
        <ele>812</ele>
        <time>2021-02-27T09:19:20Z</time>
      </trkpt>
      <trkpt lat="45.33632" lon="4.30554">
        <ele>812</ele>
        <time>2021-02-27T09:19:21Z</time>
      </trkpt>
      <trkpt lat="45.33636" lon="4.30554">
        <ele>812</ele>
        <time>2021-02-27T09:19:22Z</time>
      </trkpt>
      <trkpt lat="45.33639" lon="4.30556">
        <ele>811</ele>
        <time>2021-02-27T09:19:23Z</time>
      </trkpt>
      <trkpt lat="45.33643" lon="4.30558">
        <ele>811</ele>
        <time>2021-02-27T09:19:24Z</time>
      </trkpt>
      <trkpt lat="45.33646" lon="4.3056">
        <ele>811</ele>
        <time>2021-02-27T09:19:25Z</time>
      </trkpt>
      <trkpt lat="45.3365" lon="4.30563">
        <ele>810</ele>
        <time>2021-02-27T09:19:26Z</time>
      </trkpt>
      <trkpt lat="45.33655" lon="4.30566">
        <ele>810</ele>
        <time>2021-02-27T09:19:27Z</time>
      </trkpt>
      <trkpt lat="45.33659" lon="4.30568">
        <ele>809</ele>
        <time>2021-02-27T09:19:28Z</time>
      </trkpt>
      <trkpt lat="45.33664" lon="4.3057">
        <ele>809</ele>
        <time>2021-02-27T09:19:29Z</time>
      </trkpt>
      <trkpt lat="45.33669" lon="4.30572">
        <ele>808</ele>
        <time>2021-02-27T09:19:30Z</time>
      </trkpt>
      <trkpt lat="45.33674" lon="4.30575">
        <ele>808</ele>
        <time>2021-02-27T09:19:31Z</time>
      </trkpt>
      <trkpt lat="45.3368" lon="4.30577">
        <ele>806</ele>
        <time>2021-02-27T09:19:32Z</time>
      </trkpt>
      <trkpt lat="45.33686" lon="4.30579">
        <ele>805</ele>
        <time>2021-02-27T09:19:33Z</time>
      </trkpt>
      <trkpt lat="45.33693" lon="4.30581">
        <ele>805</ele>
        <time>2021-02-27T09:19:34Z</time>
      </trkpt>
      <trkpt lat="45.337" lon="4.30583">
        <ele>803</ele>
        <time>2021-02-27T09:19:35Z</time>
      </trkpt>
      <trkpt lat="45.33708" lon="4.30584">
        <ele>802</ele>
        <time>2021-02-27T09:19:36Z</time>
      </trkpt>
      <trkpt lat="45.33716" lon="4.30585">
        <ele>800</ele>
        <time>2021-02-27T09:19:37Z</time>
      </trkpt>
      <trkpt lat="45.33725" lon="4.30586">
        <ele>799</ele>
        <time>2021-02-27T09:19:38Z</time>
      </trkpt>
      <trkpt lat="45.33734" lon="4.30587">
        <ele>799</ele>
        <time>2021-02-27T09:19:39Z</time>
      </trkpt>
      <trkpt lat="45.33742" lon="4.30588">
        <ele>797</ele>
        <time>2021-02-27T09:19:40Z</time>
      </trkpt>
      <trkpt lat="45.33751" lon="4.30589">
        <ele>795</ele>
        <time>2021-02-27T09:19:41Z</time>
      </trkpt>
      <trkpt lat="45.33761" lon="4.30589">
        <ele>793</ele>
        <time>2021-02-27T09:19:42Z</time>
      </trkpt>
      <trkpt lat="45.3377" lon="4.3059">
        <ele>791</ele>
        <time>2021-02-27T09:19:43Z</time>
      </trkpt>
      <trkpt lat="45.33781" lon="4.3059">
        <ele>789</ele>
        <time>2021-02-27T09:19:44Z</time>
      </trkpt>
      <trkpt lat="45.33791" lon="4.30591">
        <ele>787</ele>
        <time>2021-02-27T09:19:45Z</time>
      </trkpt>
      <trkpt lat="45.33801" lon="4.30591">
        <ele>785</ele>
        <time>2021-02-27T09:19:46Z</time>
      </trkpt>
      <trkpt lat="45.33811" lon="4.30589">
        <ele>785</ele>
        <time>2021-02-27T09:19:47Z</time>
      </trkpt>
      <trkpt lat="45.33821" lon="4.30587">
        <ele>784</ele>
        <time>2021-02-27T09:19:48Z</time>
      </trkpt>
      <trkpt lat="45.33832" lon="4.30583">
        <ele>781</ele>
        <time>2021-02-27T09:19:49Z</time>
      </trkpt>
      <trkpt lat="45.33843" lon="4.30579">
        <ele>779</ele>
        <time>2021-02-27T09:19:50Z</time>
      </trkpt>
      <trkpt lat="45.33853" lon="4.30575">
        <ele>778</ele>
        <time>2021-02-27T09:19:51Z</time>
      </trkpt>
      <trkpt lat="45.33864" lon="4.3057">
        <ele>776</ele>
        <time>2021-02-27T09:19:52Z</time>
      </trkpt>
      <trkpt lat="45.33875" lon="4.30566">
        <ele>774</ele>
        <time>2021-02-27T09:19:53Z</time>
      </trkpt>
      <trkpt lat="45.33886" lon="4.30561">
        <ele>773</ele>
        <time>2021-02-27T09:19:54Z</time>
      </trkpt>
      <trkpt lat="45.33897" lon="4.30557">
        <ele>771</ele>
        <time>2021-02-27T09:19:55Z</time>
      </trkpt>
      <trkpt lat="45.33907" lon="4.30552">
        <ele>769</ele>
        <time>2021-02-27T09:19:56Z</time>
      </trkpt>
      <trkpt lat="45.33918" lon="4.30549">
        <ele>768</ele>
        <time>2021-02-27T09:19:57Z</time>
      </trkpt>
      <trkpt lat="45.33928" lon="4.30546">
        <ele>768</ele>
        <time>2021-02-27T09:19:58Z</time>
      </trkpt>
      <trkpt lat="45.33937" lon="4.30544">
        <ele>768</ele>
        <time>2021-02-27T09:19:59Z</time>
      </trkpt>
      <trkpt lat="45.33944" lon="4.30541">
        <ele>767</ele>
        <time>2021-02-27T09:20:00Z</time>
      </trkpt>
      <trkpt lat="45.33951" lon="4.30538">
        <ele>767</ele>
        <time>2021-02-27T09:20:01Z</time>
      </trkpt>
      <trkpt lat="45.33957" lon="4.30534">
        <ele>766</ele>
        <time>2021-02-27T09:20:02Z</time>
      </trkpt>
      <trkpt lat="45.33963" lon="4.30531">
        <ele>766</ele>
        <time>2021-02-27T09:20:03Z</time>
      </trkpt>
      <trkpt lat="45.33967" lon="4.30528">
        <ele>767</ele>
        <time>2021-02-27T09:20:04Z</time>
      </trkpt>
      <trkpt lat="45.33971" lon="4.30526">
        <ele>767</ele>
        <time>2021-02-27T09:20:05Z</time>
      </trkpt>
      <trkpt lat="45.33974" lon="4.30524">
        <ele>767</ele>
        <time>2021-02-27T09:20:06Z</time>
      </trkpt>
      <trkpt lat="45.33978" lon="4.30522">
        <ele>766</ele>
        <time>2021-02-27T09:20:08Z</time>
      </trkpt>
      <trkpt lat="45.33981" lon="4.30519">
        <ele>766</ele>
        <time>2021-02-27T09:20:10Z</time>
      </trkpt>
      <trkpt lat="45.33985" lon="4.30516">
        <ele>764</ele>
        <time>2021-02-27T09:20:12Z</time>
      </trkpt>
      <trkpt lat="45.33988" lon="4.30513">
        <ele>764</ele>
        <time>2021-02-27T09:20:13Z</time>
      </trkpt>
      <trkpt lat="45.33991" lon="4.3051">
        <ele>765</ele>
        <time>2021-02-27T09:20:15Z</time>
      </trkpt>
      <trkpt lat="45.33993" lon="4.30507">
        <ele>765</ele>
        <time>2021-02-27T09:20:17Z</time>
      </trkpt>
      <trkpt lat="45.33995" lon="4.30502">
        <ele>765</ele>
        <time>2021-02-27T09:20:19Z</time>
      </trkpt>
      <trkpt lat="45.33996" lon="4.30498">
        <ele>765</ele>
        <time>2021-02-27T09:20:21Z</time>
      </trkpt>
      <trkpt lat="45.33996" lon="4.30494">
        <ele>764</ele>
        <time>2021-02-27T09:20:22Z</time>
      </trkpt>
      <trkpt lat="45.33995" lon="4.3049">
        <ele>763</ele>
        <time>2021-02-27T09:20:24Z</time>
      </trkpt>
      <trkpt lat="45.33995" lon="4.30485">
        <ele>762</ele>
        <time>2021-02-27T09:20:27Z</time>
      </trkpt>
      <trkpt lat="45.33996" lon="4.3048">
        <ele>761</ele>
        <time>2021-02-27T09:20:29Z</time>
      </trkpt>
      <trkpt lat="45.33997" lon="4.30474">
        <ele>761</ele>
        <time>2021-02-27T09:20:30Z</time>
      </trkpt>
      <trkpt lat="45.33997" lon="4.30466">
        <ele>761</ele>
        <time>2021-02-27T09:20:33Z</time>
      </trkpt>
      <trkpt lat="45.33995" lon="4.30456">
        <ele>764</ele>
        <time>2021-02-27T09:20:51Z</time>
      </trkpt>
      <trkpt lat="45.33995" lon="4.30449">
        <ele>764</ele>
        <time>2021-02-27T09:20:55Z</time>
      </trkpt>
      <trkpt lat="45.33996" lon="4.30443">
        <ele>763</ele>
        <time>2021-02-27T09:20:59Z</time>
      </trkpt>
      <trkpt lat="45.33996" lon="4.30438">
        <ele>762</ele>
        <time>2021-02-27T09:21:07Z</time>
      </trkpt>
      <trkpt lat="45.33997" lon="4.30431">
        <ele>762</ele>
        <time>2021-02-27T09:21:09Z</time>
      </trkpt>
      <trkpt lat="45.33997" lon="4.30426">
        <ele>762</ele>
        <time>2021-02-27T09:21:10Z</time>
      </trkpt>
      <trkpt lat="45.33995" lon="4.30416">
        <ele>762</ele>
        <time>2021-02-27T09:21:15Z</time>
      </trkpt>
      <trkpt lat="45.33994" lon="4.30409">
        <ele>762</ele>
        <time>2021-02-27T09:21:17Z</time>
      </trkpt>
      <trkpt lat="45.33994" lon="4.30403">
        <ele>762</ele>
        <time>2021-02-27T09:21:19Z</time>
      </trkpt>
      <trkpt lat="45.33993" lon="4.30398">
        <ele>763</ele>
        <time>2021-02-27T09:21:20Z</time>
      </trkpt>
      <trkpt lat="45.33992" lon="4.30393">
        <ele>762</ele>
        <time>2021-02-27T09:21:22Z</time>
      </trkpt>
      <trkpt lat="45.33988" lon="4.30383">
        <ele>763</ele>
        <time>2021-02-27T09:21:33Z</time>
      </trkpt>
      <trkpt lat="45.33982" lon="4.30373">
        <ele>764</ele>
        <time>2021-02-27T09:21:48Z</time>
      </trkpt>
      <trkpt lat="45.33979" lon="4.30362">
        <ele>763</ele>
        <time>2021-02-27T09:22:00Z</time>
      </trkpt>
      <trkpt lat="45.33977" lon="4.30355">
        <ele>763</ele>
        <time>2021-02-27T09:22:01Z</time>
      </trkpt>
      <trkpt lat="45.33975" lon="4.30349">
        <ele>763</ele>
        <time>2021-02-27T09:22:02Z</time>
      </trkpt>
      <trkpt lat="45.33974" lon="4.30345">
        <ele>763</ele>
        <time>2021-02-27T09:22:03Z</time>
      </trkpt>
      <trkpt lat="45.33972" lon="4.30338">
        <ele>764</ele>
        <time>2021-02-27T09:22:05Z</time>
      </trkpt>
      <trkpt lat="45.3397" lon="4.30332">
        <ele>763</ele>
        <time>2021-02-27T09:22:06Z</time>
      </trkpt>
      <trkpt lat="45.33968" lon="4.30328">
        <ele>764</ele>
        <time>2021-02-27T09:22:07Z</time>
      </trkpt>
      <trkpt lat="45.33967" lon="4.30323">
        <ele>764</ele>
        <time>2021-02-27T09:22:08Z</time>
      </trkpt>
      <trkpt lat="45.33965" lon="4.30316">
        <ele>764</ele>
        <time>2021-02-27T09:22:10Z</time>
      </trkpt>
      <trkpt lat="45.33963" lon="4.3031">
        <ele>764</ele>
        <time>2021-02-27T09:22:11Z</time>
      </trkpt>
      <trkpt lat="45.33962" lon="4.30303">
        <ele>764</ele>
        <time>2021-02-27T09:22:12Z</time>
      </trkpt>
      <trkpt lat="45.33961" lon="4.30297">
        <ele>764</ele>
        <time>2021-02-27T09:22:13Z</time>
      </trkpt>
      <trkpt lat="45.33959" lon="4.30292">
        <ele>764</ele>
        <time>2021-02-27T09:22:14Z</time>
      </trkpt>
      <trkpt lat="45.33958" lon="4.30287">
        <ele>763</ele>
        <time>2021-02-27T09:22:15Z</time>
      </trkpt>
      <trkpt lat="45.33956" lon="4.30281">
        <ele>763</ele>
        <time>2021-02-27T09:22:16Z</time>
      </trkpt>
      <trkpt lat="45.33954" lon="4.30275">
        <ele>763</ele>
        <time>2021-02-27T09:22:17Z</time>
      </trkpt>
      <trkpt lat="45.33952" lon="4.3027">
        <ele>763</ele>
        <time>2021-02-27T09:22:18Z</time>
      </trkpt>
      <trkpt lat="45.3395" lon="4.30265">
        <ele>763</ele>
        <time>2021-02-27T09:22:19Z</time>
      </trkpt>
      <trkpt lat="45.33948" lon="4.30259">
        <ele>764</ele>
        <time>2021-02-27T09:22:21Z</time>
      </trkpt>
      <trkpt lat="45.33946" lon="4.30254">
        <ele>764</ele>
        <time>2021-02-27T09:22:22Z</time>
      </trkpt>
      <trkpt lat="45.33943" lon="4.30248">
        <ele>763</ele>
        <time>2021-02-27T09:22:23Z</time>
      </trkpt>
      <trkpt lat="45.33941" lon="4.30243">
        <ele>763</ele>
        <time>2021-02-27T09:22:24Z</time>
      </trkpt>
      <trkpt lat="45.33939" lon="4.30239">
        <ele>763</ele>
        <time>2021-02-27T09:22:25Z</time>
      </trkpt>
      <trkpt lat="45.33937" lon="4.30235">
        <ele>763</ele>
        <time>2021-02-27T09:22:26Z</time>
      </trkpt>
      <trkpt lat="45.33935" lon="4.30231">
        <ele>763</ele>
        <time>2021-02-27T09:22:27Z</time>
      </trkpt>
      <trkpt lat="45.33932" lon="4.30225">
        <ele>764</ele>
        <time>2021-02-27T09:22:29Z</time>
      </trkpt>
      <trkpt lat="45.33929" lon="4.30219">
        <ele>763</ele>
        <time>2021-02-27T09:22:31Z</time>
      </trkpt>
      <trkpt lat="45.33928" lon="4.30214">
        <ele>763</ele>
        <time>2021-02-27T09:22:32Z</time>
      </trkpt>
      <trkpt lat="45.33926" lon="4.30209">
        <ele>763</ele>
        <time>2021-02-27T09:22:34Z</time>
      </trkpt>
      <trkpt lat="45.33924" lon="4.30204">
        <ele>763</ele>
        <time>2021-02-27T09:22:35Z</time>
      </trkpt>
      <trkpt lat="45.33922" lon="4.30201">
        <ele>764</ele>
        <time>2021-02-27T09:22:36Z</time>
      </trkpt>
      <trkpt lat="45.33919" lon="4.30197">
        <ele>765</ele>
        <time>2021-02-27T09:22:38Z</time>
      </trkpt>
      <trkpt lat="45.33917" lon="4.30193">
        <ele>765</ele>
        <time>2021-02-27T09:22:39Z</time>
      </trkpt>
      <trkpt lat="45.33914" lon="4.30187">
        <ele>764</ele>
        <time>2021-02-27T09:22:40Z</time>
      </trkpt>
      <trkpt lat="45.33911" lon="4.30181">
        <ele>764</ele>
        <time>2021-02-27T09:22:41Z</time>
      </trkpt>
      <trkpt lat="45.33909" lon="4.30175">
        <ele>764</ele>
        <time>2021-02-27T09:22:42Z</time>
      </trkpt>
      <trkpt lat="45.33906" lon="4.3017">
        <ele>763</ele>
        <time>2021-02-27T09:22:43Z</time>
      </trkpt>
      <trkpt lat="45.33903" lon="4.30164">
        <ele>763</ele>
        <time>2021-02-27T09:22:44Z</time>
      </trkpt>
      <trkpt lat="45.33901" lon="4.30158">
        <ele>762</ele>
        <time>2021-02-27T09:22:45Z</time>
      </trkpt>
      <trkpt lat="45.33899" lon="4.30152">
        <ele>761</ele>
        <time>2021-02-27T09:22:46Z</time>
      </trkpt>
      <trkpt lat="45.33897" lon="4.30146">
        <ele>760</ele>
        <time>2021-02-27T09:22:47Z</time>
      </trkpt>
      <trkpt lat="45.33897" lon="4.30141">
        <ele>760</ele>
        <time>2021-02-27T09:22:48Z</time>
      </trkpt>
      <trkpt lat="45.33897" lon="4.30136">
        <ele>759</ele>
        <time>2021-02-27T09:22:49Z</time>
      </trkpt>
      <trkpt lat="45.33896" lon="4.30128">
        <ele>758</ele>
        <time>2021-02-27T09:22:51Z</time>
      </trkpt>
      <trkpt lat="45.33896" lon="4.30121">
        <ele>757</ele>
        <time>2021-02-27T09:22:52Z</time>
      </trkpt>
      <trkpt lat="45.33896" lon="4.30115">
        <ele>757</ele>
        <time>2021-02-27T09:22:53Z</time>
      </trkpt>
      <trkpt lat="45.33896" lon="4.3011">
        <ele>757</ele>
        <time>2021-02-27T09:22:54Z</time>
      </trkpt>
      <trkpt lat="45.33897" lon="4.30106">
        <ele>755</ele>
        <time>2021-02-27T09:22:56Z</time>
      </trkpt>
      <trkpt lat="45.339" lon="4.30105">
        <ele>754</ele>
        <time>2021-02-27T09:22:58Z</time>
      </trkpt>
      <trkpt lat="45.33902" lon="4.30104">
        <ele>754</ele>
        <time>2021-02-27T09:22:59Z</time>
      </trkpt>
      <trkpt lat="45.33905" lon="4.30105">
        <ele>754</ele>
        <time>2021-02-27T09:23:00Z</time>
      </trkpt>
      <trkpt lat="45.33908" lon="4.30104">
        <ele>754</ele>
        <time>2021-02-27T09:23:01Z</time>
      </trkpt>
      <trkpt lat="45.33912" lon="4.30104">
        <ele>754</ele>
        <time>2021-02-27T09:23:02Z</time>
      </trkpt>
      <trkpt lat="45.33915" lon="4.30103">
        <ele>755</ele>
        <time>2021-02-27T09:23:03Z</time>
      </trkpt>
      <trkpt lat="45.33919" lon="4.30103">
        <ele>754</ele>
        <time>2021-02-27T09:23:04Z</time>
      </trkpt>
      <trkpt lat="45.33923" lon="4.30103">
        <ele>755</ele>
        <time>2021-02-27T09:23:05Z</time>
      </trkpt>
      <trkpt lat="45.33927" lon="4.30102">
        <ele>756</ele>
        <time>2021-02-27T09:23:06Z</time>
      </trkpt>
      <trkpt lat="45.33931" lon="4.30102">
        <ele>756</ele>
        <time>2021-02-27T09:23:07Z</time>
      </trkpt>
      <trkpt lat="45.33936" lon="4.30101">
        <ele>756</ele>
        <time>2021-02-27T09:23:09Z</time>
      </trkpt>
      <trkpt lat="45.3394" lon="4.30101">
        <ele>758</ele>
        <time>2021-02-27T09:23:11Z</time>
      </trkpt>
      <trkpt lat="45.33945" lon="4.30102">
        <ele>758</ele>
        <time>2021-02-27T09:23:13Z</time>
      </trkpt>
      <trkpt lat="45.3395" lon="4.30103">
        <ele>759</ele>
        <time>2021-02-27T09:23:15Z</time>
      </trkpt>
      <trkpt lat="45.33954" lon="4.30103">
        <ele>760</ele>
        <time>2021-02-27T09:23:17Z</time>
      </trkpt>
      <trkpt lat="45.33959" lon="4.30105">
        <ele>761</ele>
        <time>2021-02-27T09:23:19Z</time>
      </trkpt>
      <trkpt lat="45.33963" lon="4.30108">
        <ele>761</ele>
        <time>2021-02-27T09:23:21Z</time>
      </trkpt>
      <trkpt lat="45.33967" lon="4.30111">
        <ele>762</ele>
        <time>2021-02-27T09:23:23Z</time>
      </trkpt>
      <trkpt lat="45.3397" lon="4.30114">
        <ele>763</ele>
        <time>2021-02-27T09:23:25Z</time>
      </trkpt>
      <trkpt lat="45.33973" lon="4.30116">
        <ele>764</ele>
        <time>2021-02-27T09:23:27Z</time>
      </trkpt>
      <trkpt lat="45.33976" lon="4.30119">
        <ele>764</ele>
        <time>2021-02-27T09:23:29Z</time>
      </trkpt>
      <trkpt lat="45.3398" lon="4.30122">
        <ele>764</ele>
        <time>2021-02-27T09:23:31Z</time>
      </trkpt>
      <trkpt lat="45.33983" lon="4.30125">
        <ele>765</ele>
        <time>2021-02-27T09:23:33Z</time>
      </trkpt>
      <trkpt lat="45.33986" lon="4.30127">
        <ele>765</ele>
        <time>2021-02-27T09:23:35Z</time>
      </trkpt>
      <trkpt lat="45.3399" lon="4.30129">
        <ele>766</ele>
        <time>2021-02-27T09:23:37Z</time>
      </trkpt>
      <trkpt lat="45.33993" lon="4.30131">
        <ele>767</ele>
        <time>2021-02-27T09:23:39Z</time>
      </trkpt>
      <trkpt lat="45.33997" lon="4.30133">
        <ele>768</ele>
        <time>2021-02-27T09:23:41Z</time>
      </trkpt>
      <trkpt lat="45.34" lon="4.30134">
        <ele>769</ele>
        <time>2021-02-27T09:23:43Z</time>
      </trkpt>
      <trkpt lat="45.34003" lon="4.30136">
        <ele>769</ele>
        <time>2021-02-27T09:23:45Z</time>
      </trkpt>
      <trkpt lat="45.34007" lon="4.30138">
        <ele>770</ele>
        <time>2021-02-27T09:23:47Z</time>
      </trkpt>
      <trkpt lat="45.34011" lon="4.30139">
        <ele>771</ele>
        <time>2021-02-27T09:23:49Z</time>
      </trkpt>
      <trkpt lat="45.34014" lon="4.30139">
        <ele>771</ele>
        <time>2021-02-27T09:23:51Z</time>
      </trkpt>
      <trkpt lat="45.34018" lon="4.3014">
        <ele>772</ele>
        <time>2021-02-27T09:23:53Z</time>
      </trkpt>
      <trkpt lat="45.34021" lon="4.30141">
        <ele>773</ele>
        <time>2021-02-27T09:23:56Z</time>
      </trkpt>
      <trkpt lat="45.34025" lon="4.30143">
        <ele>774</ele>
        <time>2021-02-27T09:23:59Z</time>
      </trkpt>
      <trkpt lat="45.34028" lon="4.30141">
        <ele>775</ele>
        <time>2021-02-27T09:24:03Z</time>
      </trkpt>
      <trkpt lat="45.34028" lon="4.30136">
        <ele>774</ele>
        <time>2021-02-27T09:24:05Z</time>
      </trkpt>
      <trkpt lat="45.34027" lon="4.30132">
        <ele>775</ele>
        <time>2021-02-27T09:24:07Z</time>
      </trkpt>
      <trkpt lat="45.34025" lon="4.30128">
        <ele>775</ele>
        <time>2021-02-27T09:24:09Z</time>
      </trkpt>
      <trkpt lat="45.34023" lon="4.30124">
        <ele>774</ele>
        <time>2021-02-27T09:24:11Z</time>
      </trkpt>
      <trkpt lat="45.3402" lon="4.3012">
        <ele>775</ele>
        <time>2021-02-27T09:24:13Z</time>
      </trkpt>
      <trkpt lat="45.34019" lon="4.30113">
        <ele>775</ele>
        <time>2021-02-27T09:24:15Z</time>
      </trkpt>
      <trkpt lat="45.34018" lon="4.30106">
        <ele>775</ele>
        <time>2021-02-27T09:24:17Z</time>
      </trkpt>
      <trkpt lat="45.34017" lon="4.301">
        <ele>775</ele>
        <time>2021-02-27T09:24:19Z</time>
      </trkpt>
      <trkpt lat="45.34017" lon="4.30095">
        <ele>776</ele>
        <time>2021-02-27T09:24:20Z</time>
      </trkpt>
      <trkpt lat="45.34017" lon="4.3009">
        <ele>776</ele>
        <time>2021-02-27T09:24:21Z</time>
      </trkpt>
      <trkpt lat="45.34018" lon="4.30086">
        <ele>776</ele>
        <time>2021-02-27T09:24:22Z</time>
      </trkpt>
      <trkpt lat="45.34019" lon="4.30082">
        <ele>776</ele>
        <time>2021-02-27T09:24:23Z</time>
      </trkpt>
      <trkpt lat="45.34021" lon="4.30079">
        <ele>776</ele>
        <time>2021-02-27T09:24:24Z</time>
      </trkpt>
      <trkpt lat="45.34023" lon="4.30077">
        <ele>776</ele>
        <time>2021-02-27T09:24:25Z</time>
      </trkpt>
      <trkpt lat="45.34026" lon="4.30074">
        <ele>777</ele>
        <time>2021-02-27T09:24:27Z</time>
      </trkpt>
      <trkpt lat="45.34029" lon="4.30071">
        <ele>778</ele>
        <time>2021-02-27T09:24:29Z</time>
      </trkpt>
      <trkpt lat="45.34033" lon="4.30067">
        <ele>778</ele>
        <time>2021-02-27T09:24:31Z</time>
      </trkpt>
      <trkpt lat="45.34036" lon="4.30063">
        <ele>778</ele>
        <time>2021-02-27T09:24:33Z</time>
      </trkpt>
      <trkpt lat="45.3404" lon="4.30059">
        <ele>778</ele>
        <time>2021-02-27T09:24:35Z</time>
      </trkpt>
      <trkpt lat="45.34043" lon="4.30053">
        <ele>778</ele>
        <time>2021-02-27T09:24:37Z</time>
      </trkpt>
      <trkpt lat="45.34046" lon="4.30049">
        <ele>778</ele>
        <time>2021-02-27T09:24:38Z</time>
      </trkpt>
      <trkpt lat="45.34048" lon="4.30044">
        <ele>778</ele>
        <time>2021-02-27T09:24:39Z</time>
      </trkpt>
      <trkpt lat="45.34051" lon="4.3004">
        <ele>777</ele>
        <time>2021-02-27T09:24:40Z</time>
      </trkpt>
      <trkpt lat="45.34053" lon="4.30035">
        <ele>777</ele>
        <time>2021-02-27T09:24:41Z</time>
      </trkpt>
      <trkpt lat="45.34056" lon="4.3003">
        <ele>778</ele>
        <time>2021-02-27T09:24:42Z</time>
      </trkpt>
      <trkpt lat="45.34058" lon="4.30025">
        <ele>778</ele>
        <time>2021-02-27T09:24:43Z</time>
      </trkpt>
      <trkpt lat="45.3406" lon="4.3002">
        <ele>778</ele>
        <time>2021-02-27T09:24:44Z</time>
      </trkpt>
      <trkpt lat="45.34061" lon="4.30016">
        <ele>778</ele>
        <time>2021-02-27T09:24:45Z</time>
      </trkpt>
      <trkpt lat="45.34063" lon="4.30011">
        <ele>778</ele>
        <time>2021-02-27T09:24:46Z</time>
      </trkpt>
      <trkpt lat="45.34064" lon="4.30005">
        <ele>778</ele>
        <time>2021-02-27T09:24:47Z</time>
      </trkpt>
      <trkpt lat="45.34065" lon="4.3">
        <ele>778</ele>
        <time>2021-02-27T09:24:48Z</time>
      </trkpt>
      <trkpt lat="45.34067" lon="4.29996">
        <ele>778</ele>
        <time>2021-02-27T09:24:49Z</time>
      </trkpt>
      <trkpt lat="45.34068" lon="4.29991">
        <ele>777</ele>
        <time>2021-02-27T09:24:50Z</time>
      </trkpt>
      <trkpt lat="45.3407" lon="4.29986">
        <ele>777</ele>
        <time>2021-02-27T09:24:51Z</time>
      </trkpt>
      <trkpt lat="45.34071" lon="4.29981">
        <ele>777</ele>
        <time>2021-02-27T09:24:52Z</time>
      </trkpt>
      <trkpt lat="45.34073" lon="4.29975">
        <ele>776</ele>
        <time>2021-02-27T09:24:53Z</time>
      </trkpt>
      <trkpt lat="45.34074" lon="4.2997">
        <ele>777</ele>
        <time>2021-02-27T09:24:54Z</time>
      </trkpt>
      <trkpt lat="45.34076" lon="4.29964">
        <ele>777</ele>
        <time>2021-02-27T09:24:55Z</time>
      </trkpt>
      <trkpt lat="45.34077" lon="4.29959">
        <ele>776</ele>
        <time>2021-02-27T09:24:56Z</time>
      </trkpt>
      <trkpt lat="45.34079" lon="4.29953">
        <ele>776</ele>
        <time>2021-02-27T09:24:57Z</time>
      </trkpt>
      <trkpt lat="45.34081" lon="4.29947">
        <ele>775</ele>
        <time>2021-02-27T09:24:58Z</time>
      </trkpt>
      <trkpt lat="45.34083" lon="4.29941">
        <ele>775</ele>
        <time>2021-02-27T09:24:59Z</time>
      </trkpt>
      <trkpt lat="45.34085" lon="4.29936">
        <ele>775</ele>
        <time>2021-02-27T09:25:00Z</time>
      </trkpt>
      <trkpt lat="45.34087" lon="4.2993">
        <ele>775</ele>
        <time>2021-02-27T09:25:01Z</time>
      </trkpt>
      <trkpt lat="45.34089" lon="4.29925">
        <ele>775</ele>
        <time>2021-02-27T09:25:02Z</time>
      </trkpt>
      <trkpt lat="45.34091" lon="4.2992">
        <ele>775</ele>
        <time>2021-02-27T09:25:03Z</time>
      </trkpt>
      <trkpt lat="45.34094" lon="4.29915">
        <ele>775</ele>
        <time>2021-02-27T09:25:04Z</time>
      </trkpt>
      <trkpt lat="45.34096" lon="4.2991">
        <ele>775</ele>
        <time>2021-02-27T09:25:05Z</time>
      </trkpt>
      <trkpt lat="45.34099" lon="4.29905">
        <ele>775</ele>
        <time>2021-02-27T09:25:06Z</time>
      </trkpt>
      <trkpt lat="45.34101" lon="4.29899">
        <ele>775</ele>
        <time>2021-02-27T09:25:07Z</time>
      </trkpt>
      <trkpt lat="45.34102" lon="4.29893">
        <ele>775</ele>
        <time>2021-02-27T09:25:08Z</time>
      </trkpt>
      <trkpt lat="45.34105" lon="4.29888">
        <ele>775</ele>
        <time>2021-02-27T09:25:09Z</time>
      </trkpt>
      <trkpt lat="45.34107" lon="4.29883">
        <ele>775</ele>
        <time>2021-02-27T09:25:10Z</time>
      </trkpt>
      <trkpt lat="45.34109" lon="4.29879">
        <ele>775</ele>
        <time>2021-02-27T09:25:11Z</time>
      </trkpt>
      <trkpt lat="45.34112" lon="4.29874">
        <ele>775</ele>
        <time>2021-02-27T09:25:12Z</time>
      </trkpt>
      <trkpt lat="45.34114" lon="4.2987">
        <ele>775</ele>
        <time>2021-02-27T09:25:13Z</time>
      </trkpt>
      <trkpt lat="45.34116" lon="4.29866">
        <ele>775</ele>
        <time>2021-02-27T09:25:14Z</time>
      </trkpt>
      <trkpt lat="45.34118" lon="4.29862">
        <ele>775</ele>
        <time>2021-02-27T09:25:15Z</time>
      </trkpt>
      <trkpt lat="45.3412" lon="4.29858">
        <ele>775</ele>
        <time>2021-02-27T09:25:16Z</time>
      </trkpt>
      <trkpt lat="45.34122" lon="4.29853">
        <ele>774</ele>
        <time>2021-02-27T09:25:17Z</time>
      </trkpt>
      <trkpt lat="45.34125" lon="4.29847">
        <ele>773</ele>
        <time>2021-02-27T09:25:18Z</time>
      </trkpt>
      <trkpt lat="45.34128" lon="4.29841">
        <ele>772</ele>
        <time>2021-02-27T09:25:19Z</time>
      </trkpt>
      <trkpt lat="45.34132" lon="4.29832">
        <ele>771</ele>
        <time>2021-02-27T09:25:20Z</time>
      </trkpt>
      <trkpt lat="45.34135" lon="4.29825">
        <ele>770</ele>
        <time>2021-02-27T09:25:21Z</time>
      </trkpt>
      <trkpt lat="45.3414" lon="4.29817">
        <ele>770</ele>
        <time>2021-02-27T09:25:22Z</time>
      </trkpt>
      <trkpt lat="45.34145" lon="4.2981">
        <ele>769</ele>
        <time>2021-02-27T09:25:23Z</time>
      </trkpt>
      <trkpt lat="45.34149" lon="4.29802">
        <ele>769</ele>
        <time>2021-02-27T09:25:24Z</time>
      </trkpt>
      <trkpt lat="45.34154" lon="4.29795">
        <ele>768</ele>
        <time>2021-02-27T09:25:25Z</time>
      </trkpt>
      <trkpt lat="45.3416" lon="4.29788">
        <ele>768</ele>
        <time>2021-02-27T09:25:26Z</time>
      </trkpt>
      <trkpt lat="45.34166" lon="4.29782">
        <ele>768</ele>
        <time>2021-02-27T09:25:27Z</time>
      </trkpt>
      <trkpt lat="45.34171" lon="4.29777">
        <ele>766</ele>
        <time>2021-02-27T09:25:28Z</time>
      </trkpt>
      <trkpt lat="45.34177" lon="4.29771">
        <ele>766</ele>
        <time>2021-02-27T09:25:29Z</time>
      </trkpt>
      <trkpt lat="45.34183" lon="4.29766">
        <ele>766</ele>
        <time>2021-02-27T09:25:30Z</time>
      </trkpt>
      <trkpt lat="45.34189" lon="4.29761">
        <ele>765</ele>
        <time>2021-02-27T09:25:31Z</time>
      </trkpt>
      <trkpt lat="45.34196" lon="4.29754">
        <ele>765</ele>
        <time>2021-02-27T09:25:32Z</time>
      </trkpt>
      <trkpt lat="45.34202" lon="4.29747">
        <ele>765</ele>
        <time>2021-02-27T09:25:33Z</time>
      </trkpt>
      <trkpt lat="45.34208" lon="4.2974">
        <ele>766</ele>
        <time>2021-02-27T09:25:34Z</time>
      </trkpt>
      <trkpt lat="45.34214" lon="4.29733">
        <ele>766</ele>
        <time>2021-02-27T09:25:35Z</time>
      </trkpt>
      <trkpt lat="45.34219" lon="4.29727">
        <ele>767</ele>
        <time>2021-02-27T09:25:36Z</time>
      </trkpt>
      <trkpt lat="45.34224" lon="4.29722">
        <ele>767</ele>
        <time>2021-02-27T09:25:37Z</time>
      </trkpt>
      <trkpt lat="45.34228" lon="4.29717">
        <ele>767</ele>
        <time>2021-02-27T09:25:38Z</time>
      </trkpt>
      <trkpt lat="45.34232" lon="4.29712">
        <ele>768</ele>
        <time>2021-02-27T09:25:39Z</time>
      </trkpt>
      <trkpt lat="45.34236" lon="4.29708">
        <ele>769</ele>
        <time>2021-02-27T09:25:40Z</time>
      </trkpt>
      <trkpt lat="45.3424" lon="4.29705">
        <ele>770</ele>
        <time>2021-02-27T09:25:41Z</time>
      </trkpt>
      <trkpt lat="45.34243" lon="4.29701">
        <ele>769</ele>
        <time>2021-02-27T09:25:42Z</time>
      </trkpt>
      <trkpt lat="45.34246" lon="4.29698">
        <ele>770</ele>
        <time>2021-02-27T09:25:43Z</time>
      </trkpt>
      <trkpt lat="45.34249" lon="4.29696">
        <ele>770</ele>
        <time>2021-02-27T09:25:44Z</time>
      </trkpt>
      <trkpt lat="45.34252" lon="4.29693">
        <ele>771</ele>
        <time>2021-02-27T09:25:45Z</time>
      </trkpt>
      <trkpt lat="45.34254" lon="4.29691">
        <ele>772</ele>
        <time>2021-02-27T09:25:46Z</time>
      </trkpt>
      <trkpt lat="45.34257" lon="4.29688">
        <ele>772</ele>
        <time>2021-02-27T09:25:47Z</time>
      </trkpt>
      <trkpt lat="45.34259" lon="4.29685">
        <ele>773</ele>
        <time>2021-02-27T09:25:51Z</time>
      </trkpt>
      <trkpt lat="45.34263" lon="4.29681">
        <ele>771</ele>
        <time>2021-02-27T09:25:53Z</time>
      </trkpt>
      <trkpt lat="45.34266" lon="4.29677">
        <ele>771</ele>
        <time>2021-02-27T09:25:54Z</time>
      </trkpt>
      <trkpt lat="45.34269" lon="4.29673">
        <ele>770</ele>
        <time>2021-02-27T09:25:55Z</time>
      </trkpt>
      <trkpt lat="45.34272" lon="4.29668">
        <ele>770</ele>
        <time>2021-02-27T09:25:56Z</time>
      </trkpt>
      <trkpt lat="45.34275" lon="4.29664">
        <ele>770</ele>
        <time>2021-02-27T09:25:57Z</time>
      </trkpt>
      <trkpt lat="45.34279" lon="4.29658">
        <ele>770</ele>
        <time>2021-02-27T09:25:58Z</time>
      </trkpt>
      <trkpt lat="45.34282" lon="4.29651">
        <ele>769</ele>
        <time>2021-02-27T09:25:59Z</time>
      </trkpt>
      <trkpt lat="45.34284" lon="4.29645">
        <ele>769</ele>
        <time>2021-02-27T09:26:00Z</time>
      </trkpt>
      <trkpt lat="45.34287" lon="4.29639">
        <ele>768</ele>
        <time>2021-02-27T09:26:01Z</time>
      </trkpt>
      <trkpt lat="45.3429" lon="4.29631">
        <ele>768</ele>
        <time>2021-02-27T09:26:02Z</time>
      </trkpt>
      <trkpt lat="45.34291" lon="4.29624">
        <ele>768</ele>
        <time>2021-02-27T09:26:03Z</time>
      </trkpt>
      <trkpt lat="45.34292" lon="4.29617">
        <ele>768</ele>
        <time>2021-02-27T09:26:04Z</time>
      </trkpt>
      <trkpt lat="45.34291" lon="4.29608">
        <ele>767</ele>
        <time>2021-02-27T09:26:05Z</time>
      </trkpt>
      <trkpt lat="45.34289" lon="4.296">
        <ele>766</ele>
        <time>2021-02-27T09:26:06Z</time>
      </trkpt>
      <trkpt lat="45.34289" lon="4.29591">
        <ele>766</ele>
        <time>2021-02-27T09:26:07Z</time>
      </trkpt>
      <trkpt lat="45.34288" lon="4.29583">
        <ele>765</ele>
        <time>2021-02-27T09:26:08Z</time>
      </trkpt>
      <trkpt lat="45.34289" lon="4.29574">
        <ele>765</ele>
        <time>2021-02-27T09:26:09Z</time>
      </trkpt>
      <trkpt lat="45.34291" lon="4.29565">
        <ele>764</ele>
        <time>2021-02-27T09:26:10Z</time>
      </trkpt>
      <trkpt lat="45.34294" lon="4.29557">
        <ele>763</ele>
        <time>2021-02-27T09:26:11Z</time>
      </trkpt>
      <trkpt lat="45.34298" lon="4.2955">
        <ele>764</ele>
        <time>2021-02-27T09:26:12Z</time>
      </trkpt>
      <trkpt lat="45.34301" lon="4.29543">
        <ele>763</ele>
        <time>2021-02-27T09:26:13Z</time>
      </trkpt>
      <trkpt lat="45.34306" lon="4.29537">
        <ele>764</ele>
        <time>2021-02-27T09:26:14Z</time>
      </trkpt>
      <trkpt lat="45.34311" lon="4.29532">
        <ele>764</ele>
        <time>2021-02-27T09:26:15Z</time>
      </trkpt>
      <trkpt lat="45.34316" lon="4.29528">
        <ele>764</ele>
        <time>2021-02-27T09:26:16Z</time>
      </trkpt>
      <trkpt lat="45.34321" lon="4.29524">
        <ele>764</ele>
        <time>2021-02-27T09:26:17Z</time>
      </trkpt>
      <trkpt lat="45.34326" lon="4.29521">
        <ele>764</ele>
        <time>2021-02-27T09:26:18Z</time>
      </trkpt>
      <trkpt lat="45.34331" lon="4.29518">
        <ele>764</ele>
        <time>2021-02-27T09:26:19Z</time>
      </trkpt>
      <trkpt lat="45.34335" lon="4.29516">
        <ele>765</ele>
        <time>2021-02-27T09:26:20Z</time>
      </trkpt>
      <trkpt lat="45.34339" lon="4.29514">
        <ele>765</ele>
        <time>2021-02-27T09:26:21Z</time>
      </trkpt>
      <trkpt lat="45.34343" lon="4.29513">
        <ele>766</ele>
        <time>2021-02-27T09:26:22Z</time>
      </trkpt>
      <trkpt lat="45.34346" lon="4.29511">
        <ele>766</ele>
        <time>2021-02-27T09:26:23Z</time>
      </trkpt>
      <trkpt lat="45.34349" lon="4.2951">
        <ele>766</ele>
        <time>2021-02-27T09:26:24Z</time>
      </trkpt>
      <trkpt lat="45.34354" lon="4.2951">
        <ele>767</ele>
        <time>2021-02-27T09:26:26Z</time>
      </trkpt>
      <trkpt lat="45.34358" lon="4.2951">
        <ele>767</ele>
        <time>2021-02-27T09:26:27Z</time>
      </trkpt>
      <trkpt lat="45.34362" lon="4.29511">
        <ele>767</ele>
        <time>2021-02-27T09:26:28Z</time>
      </trkpt>
      <trkpt lat="45.34366" lon="4.29512">
        <ele>767</ele>
        <time>2021-02-27T09:26:29Z</time>
      </trkpt>
      <trkpt lat="45.3437" lon="4.29512">
        <ele>767</ele>
        <time>2021-02-27T09:26:30Z</time>
      </trkpt>
      <trkpt lat="45.34374" lon="4.29513">
        <ele>766</ele>
        <time>2021-02-27T09:26:31Z</time>
      </trkpt>
      <trkpt lat="45.34377" lon="4.29513">
        <ele>766</ele>
        <time>2021-02-27T09:26:32Z</time>
      </trkpt>
      <trkpt lat="45.34381" lon="4.29513">
        <ele>766</ele>
        <time>2021-02-27T09:26:33Z</time>
      </trkpt>
      <trkpt lat="45.34385" lon="4.29514">
        <ele>767</ele>
        <time>2021-02-27T09:26:34Z</time>
      </trkpt>
      <trkpt lat="45.34388" lon="4.29514">
        <ele>766</ele>
        <time>2021-02-27T09:26:35Z</time>
      </trkpt>
      <trkpt lat="45.34393" lon="4.29515">
        <ele>767</ele>
        <time>2021-02-27T09:26:36Z</time>
      </trkpt>
      <trkpt lat="45.34396" lon="4.29516">
        <ele>767</ele>
        <time>2021-02-27T09:26:37Z</time>
      </trkpt>
      <trkpt lat="45.34399" lon="4.29515">
        <ele>768</ele>
        <time>2021-02-27T09:26:38Z</time>
      </trkpt>
      <trkpt lat="45.34403" lon="4.29515">
        <ele>768</ele>
        <time>2021-02-27T09:26:40Z</time>
      </trkpt>
      <trkpt lat="45.34407" lon="4.29514">
        <ele>768</ele>
        <time>2021-02-27T09:26:41Z</time>
      </trkpt>
      <trkpt lat="45.3441" lon="4.29514">
        <ele>768</ele>
        <time>2021-02-27T09:26:42Z</time>
      </trkpt>
      <trkpt lat="45.34413" lon="4.29512">
        <ele>769</ele>
        <time>2021-02-27T09:26:43Z</time>
      </trkpt>
      <trkpt lat="45.34416" lon="4.29511">
        <ele>769</ele>
        <time>2021-02-27T09:26:45Z</time>
      </trkpt>
      <trkpt lat="45.3442" lon="4.2951">
        <ele>769</ele>
        <time>2021-02-27T09:26:47Z</time>
      </trkpt>
      <trkpt lat="45.34424" lon="4.29508">
        <ele>769</ele>
        <time>2021-02-27T09:26:48Z</time>
      </trkpt>
      <trkpt lat="45.34427" lon="4.29507">
        <ele>769</ele>
        <time>2021-02-27T09:26:49Z</time>
      </trkpt>
      <trkpt lat="45.34431" lon="4.29505">
        <ele>768</ele>
        <time>2021-02-27T09:26:50Z</time>
      </trkpt>
      <trkpt lat="45.34435" lon="4.29502">
        <ele>769</ele>
        <time>2021-02-27T09:26:51Z</time>
      </trkpt>
      <trkpt lat="45.34439" lon="4.29499">
        <ele>768</ele>
        <time>2021-02-27T09:26:52Z</time>
      </trkpt>
      <trkpt lat="45.34442" lon="4.29497">
        <ele>769</ele>
        <time>2021-02-27T09:26:53Z</time>
      </trkpt>
      <trkpt lat="45.34446" lon="4.29494">
        <ele>769</ele>
        <time>2021-02-27T09:26:54Z</time>
      </trkpt>
      <trkpt lat="45.34449" lon="4.29491">
        <ele>768</ele>
        <time>2021-02-27T09:26:55Z</time>
      </trkpt>
      <trkpt lat="45.34453" lon="4.29488">
        <ele>769</ele>
        <time>2021-02-27T09:26:56Z</time>
      </trkpt>
      <trkpt lat="45.34456" lon="4.29486">
        <ele>769</ele>
        <time>2021-02-27T09:26:57Z</time>
      </trkpt>
      <trkpt lat="45.34458" lon="4.29484">
        <ele>769</ele>
        <time>2021-02-27T09:26:58Z</time>
      </trkpt>
      <trkpt lat="45.34461" lon="4.29482">
        <ele>769</ele>
        <time>2021-02-27T09:26:59Z</time>
      </trkpt>
      <trkpt lat="45.34465" lon="4.29478">
        <ele>769</ele>
        <time>2021-02-27T09:27:00Z</time>
      </trkpt>
      <trkpt lat="45.34468" lon="4.29474">
        <ele>769</ele>
        <time>2021-02-27T09:27:02Z</time>
      </trkpt>
      <trkpt lat="45.34471" lon="4.2947">
        <ele>770</ele>
        <time>2021-02-27T09:27:03Z</time>
      </trkpt>
      <trkpt lat="45.34473" lon="4.29466">
        <ele>769</ele>
        <time>2021-02-27T09:27:04Z</time>
      </trkpt>
      <trkpt lat="45.34475" lon="4.29462">
        <ele>770</ele>
        <time>2021-02-27T09:27:05Z</time>
      </trkpt>
      <trkpt lat="45.34477" lon="4.29457">
        <ele>770</ele>
        <time>2021-02-27T09:27:06Z</time>
      </trkpt>
      <trkpt lat="45.34479" lon="4.29453">
        <ele>770</ele>
        <time>2021-02-27T09:27:07Z</time>
      </trkpt>
      <trkpt lat="45.34481" lon="4.29448">
        <ele>770</ele>
        <time>2021-02-27T09:27:08Z</time>
      </trkpt>
      <trkpt lat="45.34483" lon="4.29443">
        <ele>770</ele>
        <time>2021-02-27T09:27:09Z</time>
      </trkpt>
      <trkpt lat="45.34486" lon="4.29438">
        <ele>770</ele>
        <time>2021-02-27T09:27:10Z</time>
      </trkpt>
      <trkpt lat="45.34487" lon="4.29433">
        <ele>770</ele>
        <time>2021-02-27T09:27:11Z</time>
      </trkpt>
      <trkpt lat="45.34489" lon="4.29428">
        <ele>769</ele>
        <time>2021-02-27T09:27:12Z</time>
      </trkpt>
      <trkpt lat="45.34491" lon="4.29421">
        <ele>769</ele>
        <time>2021-02-27T09:27:13Z</time>
      </trkpt>
      <trkpt lat="45.34493" lon="4.29415">
        <ele>770</ele>
        <time>2021-02-27T09:27:14Z</time>
      </trkpt>
      <trkpt lat="45.34494" lon="4.29407">
        <ele>770</ele>
        <time>2021-02-27T09:27:15Z</time>
      </trkpt>
      <trkpt lat="45.34496" lon="4.29398">
        <ele>769</ele>
        <time>2021-02-27T09:27:16Z</time>
      </trkpt>
      <trkpt lat="45.34498" lon="4.29391">
        <ele>769</ele>
        <time>2021-02-27T09:27:17Z</time>
      </trkpt>
      <trkpt lat="45.34501" lon="4.29383">
        <ele>769</ele>
        <time>2021-02-27T09:27:18Z</time>
      </trkpt>
      <trkpt lat="45.34504" lon="4.29375">
        <ele>768</ele>
        <time>2021-02-27T09:27:19Z</time>
      </trkpt>
      <trkpt lat="45.34507" lon="4.29369">
        <ele>767</ele>
        <time>2021-02-27T09:27:20Z</time>
      </trkpt>
      <trkpt lat="45.3451" lon="4.29363">
        <ele>766</ele>
        <time>2021-02-27T09:27:21Z</time>
      </trkpt>
      <trkpt lat="45.34514" lon="4.29358">
        <ele>766</ele>
        <time>2021-02-27T09:27:22Z</time>
      </trkpt>
      <trkpt lat="45.34517" lon="4.29354">
        <ele>766</ele>
        <time>2021-02-27T09:27:23Z</time>
      </trkpt>
      <trkpt lat="45.34521" lon="4.2935">
        <ele>766</ele>
        <time>2021-02-27T09:27:24Z</time>
      </trkpt>
      <trkpt lat="45.34526" lon="4.29347">
        <ele>766</ele>
        <time>2021-02-27T09:27:25Z</time>
      </trkpt>
      <trkpt lat="45.3453" lon="4.29344">
        <ele>765</ele>
        <time>2021-02-27T09:27:26Z</time>
      </trkpt>
      <trkpt lat="45.34535" lon="4.29339">
        <ele>766</ele>
        <time>2021-02-27T09:27:27Z</time>
      </trkpt>
      <trkpt lat="45.34539" lon="4.29328">
        <ele>766</ele>
        <time>2021-02-27T09:27:28Z</time>
      </trkpt>
      <trkpt lat="45.34547" lon="4.29316">
        <ele>766</ele>
        <time>2021-02-27T09:27:29Z</time>
      </trkpt>
      <trkpt lat="45.34553" lon="4.29306">
        <ele>766</ele>
        <time>2021-02-27T09:27:30Z</time>
      </trkpt>
      <trkpt lat="45.34556" lon="4.29296">
        <ele>766</ele>
        <time>2021-02-27T09:27:31Z</time>
      </trkpt>
      <trkpt lat="45.34558" lon="4.29286">
        <ele>767</ele>
        <time>2021-02-27T09:27:32Z</time>
      </trkpt>
      <trkpt lat="45.34559" lon="4.29279">
        <ele>768</ele>
        <time>2021-02-27T09:27:33Z</time>
      </trkpt>
      <trkpt lat="45.34559" lon="4.29274">
        <ele>768</ele>
        <time>2021-02-27T09:27:34Z</time>
      </trkpt>
      <trkpt lat="45.34559" lon="4.29269">
        <ele>769</ele>
        <time>2021-02-27T09:27:35Z</time>
      </trkpt>
      <trkpt lat="45.3456" lon="4.29262">
        <ele>770</ele>
        <time>2021-02-27T09:27:38Z</time>
      </trkpt>
      <trkpt lat="45.34562" lon="4.29257">
        <ele>770</ele>
        <time>2021-02-27T09:27:39Z</time>
      </trkpt>
      <trkpt lat="45.34563" lon="4.29252">
        <ele>770</ele>
        <time>2021-02-27T09:27:40Z</time>
      </trkpt>
      <trkpt lat="45.34563" lon="4.29248">
        <ele>770</ele>
        <time>2021-02-27T09:27:41Z</time>
      </trkpt>
      <trkpt lat="45.34565" lon="4.29238">
        <ele>771</ele>
        <time>2021-02-27T09:27:43Z</time>
      </trkpt>
      <trkpt lat="45.34566" lon="4.29221">
        <ele>772</ele>
        <time>2021-02-27T09:27:45Z</time>
      </trkpt>
      <trkpt lat="45.34567" lon="4.29213">
        <ele>772</ele>
        <time>2021-02-27T09:27:46Z</time>
      </trkpt>
      <trkpt lat="45.34568" lon="4.29207">
        <ele>772</ele>
        <time>2021-02-27T09:27:47Z</time>
      </trkpt>
      <trkpt lat="45.34571" lon="4.29193">
        <ele>773</ele>
        <time>2021-02-27T09:27:54Z</time>
      </trkpt>
      <trkpt lat="45.34574" lon="4.29185">
        <ele>774</ele>
        <time>2021-02-27T09:27:55Z</time>
      </trkpt>
      <trkpt lat="45.34575" lon="4.29179">
        <ele>774</ele>
        <time>2021-02-27T09:27:56Z</time>
      </trkpt>
      <trkpt lat="45.34576" lon="4.29173">
        <ele>774</ele>
        <time>2021-02-27T09:27:58Z</time>
      </trkpt>
      <trkpt lat="45.34577" lon="4.29165">
        <ele>774</ele>
        <time>2021-02-27T09:27:59Z</time>
      </trkpt>
      <trkpt lat="45.34578" lon="4.29158">
        <ele>774</ele>
        <time>2021-02-27T09:28:01Z</time>
      </trkpt>
      <trkpt lat="45.34579" lon="4.29154">
        <ele>773</ele>
        <time>2021-02-27T09:28:03Z</time>
      </trkpt>
      <trkpt lat="45.34579" lon="4.29149">
        <ele>772</ele>
        <time>2021-02-27T09:28:06Z</time>
      </trkpt>
      <trkpt lat="45.3458" lon="4.29141">
        <ele>771</ele>
        <time>2021-02-27T09:28:08Z</time>
      </trkpt>
      <trkpt lat="45.34581" lon="4.29135">
        <ele>772</ele>
        <time>2021-02-27T09:28:09Z</time>
      </trkpt>
      <trkpt lat="45.34583" lon="4.29129">
        <ele>772</ele>
        <time>2021-02-27T09:28:10Z</time>
      </trkpt>
      <trkpt lat="45.34584" lon="4.29123">
        <ele>772</ele>
        <time>2021-02-27T09:28:11Z</time>
      </trkpt>
      <trkpt lat="45.34584" lon="4.29118">
        <ele>772</ele>
        <time>2021-02-27T09:28:12Z</time>
      </trkpt>
      <trkpt lat="45.34584" lon="4.29113">
        <ele>771</ele>
        <time>2021-02-27T09:28:13Z</time>
      </trkpt>
      <trkpt lat="45.34585" lon="4.29108">
        <ele>771</ele>
        <time>2021-02-27T09:28:14Z</time>
      </trkpt>
      <trkpt lat="45.34586" lon="4.29102">
        <ele>772</ele>
        <time>2021-02-27T09:28:15Z</time>
      </trkpt>
      <trkpt lat="45.34586" lon="4.29098">
        <ele>772</ele>
        <time>2021-02-27T09:28:16Z</time>
      </trkpt>
      <trkpt lat="45.34586" lon="4.29093">
        <ele>773</ele>
        <time>2021-02-27T09:28:17Z</time>
      </trkpt>
      <trkpt lat="45.34587" lon="4.29089">
        <ele>772</ele>
        <time>2021-02-27T09:28:18Z</time>
      </trkpt>
      <trkpt lat="45.34588" lon="4.29082">
        <ele>773</ele>
        <time>2021-02-27T09:28:19Z</time>
      </trkpt>
      <trkpt lat="45.34588" lon="4.29075">
        <ele>773</ele>
        <time>2021-02-27T09:28:20Z</time>
      </trkpt>
      <trkpt lat="45.34589" lon="4.2907">
        <ele>774</ele>
        <time>2021-02-27T09:28:21Z</time>
      </trkpt>
      <trkpt lat="45.34589" lon="4.29065">
        <ele>774</ele>
        <time>2021-02-27T09:28:23Z</time>
      </trkpt>
      <trkpt lat="45.34588" lon="4.29059">
        <ele>774</ele>
        <time>2021-02-27T09:28:25Z</time>
      </trkpt>
      <trkpt lat="45.34587" lon="4.2905">
        <ele>774</ele>
        <time>2021-02-27T09:28:27Z</time>
      </trkpt>
      <trkpt lat="45.34586" lon="4.29043">
        <ele>774</ele>
        <time>2021-02-27T09:28:28Z</time>
      </trkpt>
      <trkpt lat="45.34586" lon="4.29036">
        <ele>774</ele>
        <time>2021-02-27T09:28:29Z</time>
      </trkpt>
      <trkpt lat="45.34586" lon="4.29029">
        <ele>774</ele>
        <time>2021-02-27T09:28:30Z</time>
      </trkpt>
      <trkpt lat="45.34586" lon="4.2902">
        <ele>774</ele>
        <time>2021-02-27T09:28:32Z</time>
      </trkpt>
      <trkpt lat="45.34586" lon="4.29014">
        <ele>774</ele>
        <time>2021-02-27T09:28:33Z</time>
      </trkpt>
      <trkpt lat="45.34587" lon="4.29009">
        <ele>773</ele>
        <time>2021-02-27T09:28:34Z</time>
      </trkpt>
      <trkpt lat="45.34586" lon="4.29005">
        <ele>773</ele>
        <time>2021-02-27T09:28:35Z</time>
      </trkpt>
      <trkpt lat="45.34586" lon="4.29">
        <ele>773</ele>
        <time>2021-02-27T09:28:37Z</time>
      </trkpt>
      <trkpt lat="45.34587" lon="4.28995">
        <ele>772</ele>
        <time>2021-02-27T09:28:38Z</time>
      </trkpt>
      <trkpt lat="45.34589" lon="4.2899">
        <ele>771</ele>
        <time>2021-02-27T09:28:39Z</time>
      </trkpt>
      <trkpt lat="45.34589" lon="4.28985">
        <ele>772</ele>
        <time>2021-02-27T09:28:40Z</time>
      </trkpt>
      <trkpt lat="45.3459" lon="4.28979">
        <ele>772</ele>
        <time>2021-02-27T09:28:41Z</time>
      </trkpt>
      <trkpt lat="45.34593" lon="4.28975">
        <ele>772</ele>
        <time>2021-02-27T09:28:42Z</time>
      </trkpt>
      <trkpt lat="45.34594" lon="4.28971">
        <ele>771</ele>
        <time>2021-02-27T09:28:43Z</time>
      </trkpt>
      <trkpt lat="45.34597" lon="4.28966">
        <ele>771</ele>
        <time>2021-02-27T09:28:44Z</time>
      </trkpt>
      <trkpt lat="45.34599" lon="4.28961">
        <ele>771</ele>
        <time>2021-02-27T09:28:45Z</time>
      </trkpt>
      <trkpt lat="45.34601" lon="4.28956">
        <ele>771</ele>
        <time>2021-02-27T09:28:46Z</time>
      </trkpt>
      <trkpt lat="45.34602" lon="4.28947">
        <ele>771</ele>
        <time>2021-02-27T09:28:50Z</time>
      </trkpt>
      <trkpt lat="45.34599" lon="4.28935">
        <ele>771</ele>
        <time>2021-02-27T09:29:07Z</time>
      </trkpt>
      <trkpt lat="45.34598" lon="4.28924">
        <ele>771</ele>
        <time>2021-02-27T09:29:22Z</time>
      </trkpt>
      <trkpt lat="45.34593" lon="4.28919">
        <ele>771</ele>
        <time>2021-02-27T09:30:06Z</time>
      </trkpt>
      <trkpt lat="45.34589" lon="4.28916">
        <ele>770</ele>
        <time>2021-02-27T09:30:08Z</time>
      </trkpt>
      <trkpt lat="45.34585" lon="4.28915">
        <ele>769</ele>
        <time>2021-02-27T09:30:09Z</time>
      </trkpt>
      <trkpt lat="45.3458" lon="4.28914">
        <ele>768</ele>
        <time>2021-02-27T09:30:11Z</time>
      </trkpt>
      <trkpt lat="45.34575" lon="4.28915">
        <ele>767</ele>
        <time>2021-02-27T09:30:12Z</time>
      </trkpt>
      <trkpt lat="45.34571" lon="4.28915">
        <ele>767</ele>
        <time>2021-02-27T09:30:13Z</time>
      </trkpt>
      <trkpt lat="45.34567" lon="4.28915">
        <ele>766</ele>
        <time>2021-02-27T09:30:15Z</time>
      </trkpt>
      <trkpt lat="45.34562" lon="4.28914">
        <ele>763</ele>
        <time>2021-02-27T09:30:20Z</time>
      </trkpt>
      <trkpt lat="45.34561" lon="4.28909">
        <ele>761</ele>
        <time>2021-02-27T09:30:22Z</time>
      </trkpt>
      <trkpt lat="45.34562" lon="4.28904">
        <ele>759</ele>
        <time>2021-02-27T09:30:24Z</time>
      </trkpt>
      <trkpt lat="45.34562" lon="4.28899">
        <ele>758</ele>
        <time>2021-02-27T09:30:25Z</time>
      </trkpt>
      <trkpt lat="45.34562" lon="4.28893">
        <ele>756</ele>
        <time>2021-02-27T09:30:27Z</time>
      </trkpt>
      <trkpt lat="45.34563" lon="4.28888">
        <ele>755</ele>
        <time>2021-02-27T09:30:28Z</time>
      </trkpt>
      <trkpt lat="45.34564" lon="4.28882">
        <ele>753</ele>
        <time>2021-02-27T09:30:30Z</time>
      </trkpt>
      <trkpt lat="45.34566" lon="4.28877">
        <ele>752</ele>
        <time>2021-02-27T09:30:31Z</time>
      </trkpt>
      <trkpt lat="45.34567" lon="4.28871">
        <ele>751</ele>
        <time>2021-02-27T09:30:32Z</time>
      </trkpt>
      <trkpt lat="45.34567" lon="4.28866">
        <ele>749</ele>
        <time>2021-02-27T09:30:33Z</time>
      </trkpt>
      <trkpt lat="45.34568" lon="4.28861">
        <ele>748</ele>
        <time>2021-02-27T09:30:34Z</time>
      </trkpt>
      <trkpt lat="45.34571" lon="4.28857">
        <ele>747</ele>
        <time>2021-02-27T09:30:35Z</time>
      </trkpt>
      <trkpt lat="45.34574" lon="4.28853">
        <ele>747</ele>
        <time>2021-02-27T09:30:36Z</time>
      </trkpt>
      <trkpt lat="45.34576" lon="4.2885">
        <ele>746</ele>
        <time>2021-02-27T09:30:37Z</time>
      </trkpt>
      <trkpt lat="45.34579" lon="4.28846">
        <ele>744</ele>
        <time>2021-02-27T09:30:38Z</time>
      </trkpt>
      <trkpt lat="45.34582" lon="4.28841">
        <ele>743</ele>
        <time>2021-02-27T09:30:40Z</time>
      </trkpt>
      <trkpt lat="45.34584" lon="4.28837">
        <ele>743</ele>
        <time>2021-02-27T09:30:41Z</time>
      </trkpt>
      <trkpt lat="45.34586" lon="4.28832">
        <ele>742</ele>
        <time>2021-02-27T09:30:42Z</time>
      </trkpt>
      <trkpt lat="45.34587" lon="4.28828">
        <ele>741</ele>
        <time>2021-02-27T09:30:43Z</time>
      </trkpt>
      <trkpt lat="45.34587" lon="4.28824">
        <ele>740</ele>
        <time>2021-02-27T09:30:44Z</time>
      </trkpt>
      <trkpt lat="45.34585" lon="4.2882">
        <ele>739</ele>
        <time>2021-02-27T09:30:45Z</time>
      </trkpt>
      <trkpt lat="45.34584" lon="4.28814">
        <ele>737</ele>
        <time>2021-02-27T09:30:46Z</time>
      </trkpt>
      <trkpt lat="45.34582" lon="4.28805">
        <ele>736</ele>
        <time>2021-02-27T09:30:47Z</time>
      </trkpt>
      <trkpt lat="45.34581" lon="4.28795">
        <ele>736</ele>
        <time>2021-02-27T09:30:48Z</time>
      </trkpt>
      <trkpt lat="45.34582" lon="4.28785">
        <ele>736</ele>
        <time>2021-02-27T09:30:49Z</time>
      </trkpt>
      <trkpt lat="45.34582" lon="4.28776">
        <ele>735</ele>
        <time>2021-02-27T09:30:50Z</time>
      </trkpt>
      <trkpt lat="45.34582" lon="4.28768">
        <ele>735</ele>
        <time>2021-02-27T09:30:51Z</time>
      </trkpt>
      <trkpt lat="45.34582" lon="4.2876">
        <ele>734</ele>
        <time>2021-02-27T09:30:52Z</time>
      </trkpt>
      <trkpt lat="45.34581" lon="4.28754">
        <ele>734</ele>
        <time>2021-02-27T09:30:53Z</time>
      </trkpt>
      <trkpt lat="45.34581" lon="4.28747">
        <ele>735</ele>
        <time>2021-02-27T09:30:54Z</time>
      </trkpt>
      <trkpt lat="45.34582" lon="4.28738">
        <ele>735</ele>
        <time>2021-02-27T09:30:55Z</time>
      </trkpt>
      <trkpt lat="45.34582" lon="4.28731">
        <ele>734</ele>
        <time>2021-02-27T09:30:56Z</time>
      </trkpt>
      <trkpt lat="45.34582" lon="4.28724">
        <ele>734</ele>
        <time>2021-02-27T09:30:57Z</time>
      </trkpt>
      <trkpt lat="45.34583" lon="4.28716">
        <ele>734</ele>
        <time>2021-02-27T09:30:58Z</time>
      </trkpt>
      <trkpt lat="45.34583" lon="4.28708">
        <ele>733</ele>
        <time>2021-02-27T09:30:59Z</time>
      </trkpt>
      <trkpt lat="45.34585" lon="4.28699">
        <ele>733</ele>
        <time>2021-02-27T09:31:00Z</time>
      </trkpt>
      <trkpt lat="45.34586" lon="4.28691">
        <ele>731</ele>
        <time>2021-02-27T09:31:01Z</time>
      </trkpt>
      <trkpt lat="45.34587" lon="4.28685">
        <ele>731</ele>
        <time>2021-02-27T09:31:02Z</time>
      </trkpt>
      <trkpt lat="45.34589" lon="4.28677">
        <ele>730</ele>
        <time>2021-02-27T09:31:03Z</time>
      </trkpt>
      <trkpt lat="45.3459" lon="4.28671">
        <ele>730</ele>
        <time>2021-02-27T09:31:04Z</time>
      </trkpt>
      <trkpt lat="45.34592" lon="4.28664">
        <ele>729</ele>
        <time>2021-02-27T09:31:05Z</time>
      </trkpt>
      <trkpt lat="45.34595" lon="4.28659">
        <ele>729</ele>
        <time>2021-02-27T09:31:06Z</time>
      </trkpt>
      <trkpt lat="45.34599" lon="4.28656">
        <ele>729</ele>
        <time>2021-02-27T09:31:07Z</time>
      </trkpt>
      <trkpt lat="45.34603" lon="4.28653">
        <ele>726</ele>
        <time>2021-02-27T09:31:09Z</time>
      </trkpt>
      <trkpt lat="45.34606" lon="4.2865">
        <ele>726</ele>
        <time>2021-02-27T09:31:10Z</time>
      </trkpt>
      <trkpt lat="45.3461" lon="4.28643">
        <ele>725</ele>
        <time>2021-02-27T09:31:12Z</time>
      </trkpt>
      <trkpt lat="45.34615" lon="4.28636">
        <ele>724</ele>
        <time>2021-02-27T09:31:13Z</time>
      </trkpt>
      <trkpt lat="45.34619" lon="4.28631">
        <ele>724</ele>
        <time>2021-02-27T09:31:14Z</time>
      </trkpt>
      <trkpt lat="45.34621" lon="4.28627">
        <ele>723</ele>
        <time>2021-02-27T09:31:15Z</time>
      </trkpt>
      <trkpt lat="45.34622" lon="4.28623">
        <ele>723</ele>
        <time>2021-02-27T09:31:16Z</time>
      </trkpt>
      <trkpt lat="45.34625" lon="4.28618">
        <ele>720</ele>
        <time>2021-02-27T09:31:18Z</time>
      </trkpt>
      <trkpt lat="45.34627" lon="4.28614">
        <ele>719</ele>
        <time>2021-02-27T09:31:19Z</time>
      </trkpt>
      <trkpt lat="45.34629" lon="4.28605">
        <ele>717</ele>
        <time>2021-02-27T09:31:21Z</time>
      </trkpt>
      <trkpt lat="45.34632" lon="4.28599">
        <ele>715</ele>
        <time>2021-02-27T09:31:23Z</time>
      </trkpt>
      <trkpt lat="45.34634" lon="4.28594">
        <ele>714</ele>
        <time>2021-02-27T09:31:24Z</time>
      </trkpt>
      <trkpt lat="45.34635" lon="4.28589">
        <ele>714</ele>
        <time>2021-02-27T09:31:25Z</time>
      </trkpt>
      <trkpt lat="45.34637" lon="4.28585">
        <ele>710</ele>
        <time>2021-02-27T09:31:28Z</time>
      </trkpt>
      <trkpt lat="45.34641" lon="4.28578">
        <ele>708</ele>
        <time>2021-02-27T09:31:30Z</time>
      </trkpt>
      <trkpt lat="45.34644" lon="4.28573">
        <ele>708</ele>
        <time>2021-02-27T09:31:31Z</time>
      </trkpt>
      <trkpt lat="45.34649" lon="4.28563">
        <ele>706</ele>
        <time>2021-02-27T09:31:33Z</time>
      </trkpt>
      <trkpt lat="45.34653" lon="4.28556">
        <ele>705</ele>
        <time>2021-02-27T09:31:34Z</time>
      </trkpt>
      <trkpt lat="45.34657" lon="4.28551">
        <ele>704</ele>
        <time>2021-02-27T09:31:35Z</time>
      </trkpt>
      <trkpt lat="45.34661" lon="4.28547">
        <ele>704</ele>
        <time>2021-02-27T09:31:36Z</time>
      </trkpt>
      <trkpt lat="45.34666" lon="4.28543">
        <ele>703</ele>
        <time>2021-02-27T09:31:37Z</time>
      </trkpt>
      <trkpt lat="45.34671" lon="4.2854">
        <ele>703</ele>
        <time>2021-02-27T09:31:38Z</time>
      </trkpt>
      <trkpt lat="45.34677" lon="4.28537">
        <ele>702</ele>
        <time>2021-02-27T09:31:39Z</time>
      </trkpt>
      <trkpt lat="45.34683" lon="4.28534">
        <ele>701</ele>
        <time>2021-02-27T09:31:40Z</time>
      </trkpt>
      <trkpt lat="45.34689" lon="4.28532">
        <ele>700</ele>
        <time>2021-02-27T09:31:41Z</time>
      </trkpt>
      <trkpt lat="45.34695" lon="4.28528">
        <ele>699</ele>
        <time>2021-02-27T09:31:42Z</time>
      </trkpt>
      <trkpt lat="45.347" lon="4.28524">
        <ele>699</ele>
        <time>2021-02-27T09:31:43Z</time>
      </trkpt>
      <trkpt lat="45.34705" lon="4.28519">
        <ele>698</ele>
        <time>2021-02-27T09:31:44Z</time>
      </trkpt>
      <trkpt lat="45.3471" lon="4.28514">
        <ele>697</ele>
        <time>2021-02-27T09:31:45Z</time>
      </trkpt>
      <trkpt lat="45.34719" lon="4.28505">
        <ele>695</ele>
        <time>2021-02-27T09:31:47Z</time>
      </trkpt>
      <trkpt lat="45.34725" lon="4.28497">
        <ele>694</ele>
        <time>2021-02-27T09:31:48Z</time>
      </trkpt>
      <trkpt lat="45.34731" lon="4.28491">
        <ele>694</ele>
        <time>2021-02-27T09:31:49Z</time>
      </trkpt>
      <trkpt lat="45.34738" lon="4.28486">
        <ele>694</ele>
        <time>2021-02-27T09:31:50Z</time>
      </trkpt>
      <trkpt lat="45.34747" lon="4.28482">
        <ele>693</ele>
        <time>2021-02-27T09:31:51Z</time>
      </trkpt>
      <trkpt lat="45.34755" lon="4.28478">
        <ele>692</ele>
        <time>2021-02-27T09:31:52Z</time>
      </trkpt>
      <trkpt lat="45.34761" lon="4.28474">
        <ele>692</ele>
        <time>2021-02-27T09:31:53Z</time>
      </trkpt>
      <trkpt lat="45.34767" lon="4.28468">
        <ele>691</ele>
        <time>2021-02-27T09:31:54Z</time>
      </trkpt>
      <trkpt lat="45.34771" lon="4.28462">
        <ele>691</ele>
        <time>2021-02-27T09:31:55Z</time>
      </trkpt>
      <trkpt lat="45.34775" lon="4.28457">
        <ele>690</ele>
        <time>2021-02-27T09:31:56Z</time>
      </trkpt>
      <trkpt lat="45.34779" lon="4.28451">
        <ele>689</ele>
        <time>2021-02-27T09:31:57Z</time>
      </trkpt>
      <trkpt lat="45.34783" lon="4.28446">
        <ele>688</ele>
        <time>2021-02-27T09:31:58Z</time>
      </trkpt>
      <trkpt lat="45.34787" lon="4.28441">
        <ele>687</ele>
        <time>2021-02-27T09:31:59Z</time>
      </trkpt>
      <trkpt lat="45.3479" lon="4.28438">
        <ele>687</ele>
        <time>2021-02-27T09:32:00Z</time>
      </trkpt>
      <trkpt lat="45.34794" lon="4.28431">
        <ele>687</ele>
        <time>2021-02-27T09:32:01Z</time>
      </trkpt>
      <trkpt lat="45.34799" lon="4.28424">
        <ele>686</ele>
        <time>2021-02-27T09:32:02Z</time>
      </trkpt>
      <trkpt lat="45.34802" lon="4.28416">
        <ele>686</ele>
        <time>2021-02-27T09:32:03Z</time>
      </trkpt>
      <trkpt lat="45.34808" lon="4.28406">
        <ele>685</ele>
        <time>2021-02-27T09:32:04Z</time>
      </trkpt>
      <trkpt lat="45.34813" lon="4.28396">
        <ele>685</ele>
        <time>2021-02-27T09:32:05Z</time>
      </trkpt>
      <trkpt lat="45.34817" lon="4.28388">
        <ele>684</ele>
        <time>2021-02-27T09:32:06Z</time>
      </trkpt>
      <trkpt lat="45.3482" lon="4.28382">
        <ele>683</ele>
        <time>2021-02-27T09:32:07Z</time>
      </trkpt>
      <trkpt lat="45.34823" lon="4.28376">
        <ele>682</ele>
        <time>2021-02-27T09:32:08Z</time>
      </trkpt>
      <trkpt lat="45.34827" lon="4.28372">
        <ele>681</ele>
        <time>2021-02-27T09:32:09Z</time>
      </trkpt>
      <trkpt lat="45.3483" lon="4.28369">
        <ele>680</ele>
        <time>2021-02-27T09:32:10Z</time>
      </trkpt>
      <trkpt lat="45.34834" lon="4.28366">
        <ele>680</ele>
        <time>2021-02-27T09:32:11Z</time>
      </trkpt>
      <trkpt lat="45.34837" lon="4.28361">
        <ele>680</ele>
        <time>2021-02-27T09:32:12Z</time>
      </trkpt>
      <trkpt lat="45.34842" lon="4.28354">
        <ele>679</ele>
        <time>2021-02-27T09:32:13Z</time>
      </trkpt>
      <trkpt lat="45.34846" lon="4.28348">
        <ele>678</ele>
        <time>2021-02-27T09:32:14Z</time>
      </trkpt>
      <trkpt lat="45.34851" lon="4.28342">
        <ele>677</ele>
        <time>2021-02-27T09:32:15Z</time>
      </trkpt>
      <trkpt lat="45.34856" lon="4.28339">
        <ele>677</ele>
        <time>2021-02-27T09:32:16Z</time>
      </trkpt>
      <trkpt lat="45.34862" lon="4.28335">
        <ele>676</ele>
        <time>2021-02-27T09:32:17Z</time>
      </trkpt>
      <trkpt lat="45.34868" lon="4.2833">
        <ele>677</ele>
        <time>2021-02-27T09:32:18Z</time>
      </trkpt>
      <trkpt lat="45.34872" lon="4.28327">
        <ele>677</ele>
        <time>2021-02-27T09:32:19Z</time>
      </trkpt>
      <trkpt lat="45.34876" lon="4.28322">
        <ele>676</ele>
        <time>2021-02-27T09:32:20Z</time>
      </trkpt>
      <trkpt lat="45.34881" lon="4.28319">
        <ele>676</ele>
        <time>2021-02-27T09:32:21Z</time>
      </trkpt>
      <trkpt lat="45.34886" lon="4.28315">
        <ele>675</ele>
        <time>2021-02-27T09:32:22Z</time>
      </trkpt>
      <trkpt lat="45.34891" lon="4.2831">
        <ele>675</ele>
        <time>2021-02-27T09:32:23Z</time>
      </trkpt>
      <trkpt lat="45.34896" lon="4.28306">
        <ele>676</ele>
        <time>2021-02-27T09:32:24Z</time>
      </trkpt>
      <trkpt lat="45.34901" lon="4.28302">
        <ele>676</ele>
        <time>2021-02-27T09:32:25Z</time>
      </trkpt>
      <trkpt lat="45.34904" lon="4.28298">
        <ele>675</ele>
        <time>2021-02-27T09:32:26Z</time>
      </trkpt>
      <trkpt lat="45.34908" lon="4.28296">
        <ele>675</ele>
        <time>2021-02-27T09:32:27Z</time>
      </trkpt>
      <trkpt lat="45.34911" lon="4.28293">
        <ele>674</ele>
        <time>2021-02-27T09:32:28Z</time>
      </trkpt>
      <trkpt lat="45.34914" lon="4.28292">
        <ele>674</ele>
        <time>2021-02-27T09:32:29Z</time>
      </trkpt>
      <trkpt lat="45.34917" lon="4.2829">
        <ele>673</ele>
        <time>2021-02-27T09:32:30Z</time>
      </trkpt>
      <trkpt lat="45.34921" lon="4.28289">
        <ele>673</ele>
        <time>2021-02-27T09:32:31Z</time>
      </trkpt>
      <trkpt lat="45.34925" lon="4.28288">
        <ele>672</ele>
        <time>2021-02-27T09:32:32Z</time>
      </trkpt>
      <trkpt lat="45.34927" lon="4.28286">
        <ele>671</ele>
        <time>2021-02-27T09:32:33Z</time>
      </trkpt>
      <trkpt lat="45.34931" lon="4.28284">
        <ele>669</ele>
        <time>2021-02-27T09:32:34Z</time>
      </trkpt>
      <trkpt lat="45.34936" lon="4.28281">
        <ele>670</ele>
        <time>2021-02-27T09:32:38Z</time>
      </trkpt>
      <trkpt lat="45.34942" lon="4.28279">
        <ele>671</ele>
        <time>2021-02-27T09:32:43Z</time>
      </trkpt>
      <trkpt lat="45.34948" lon="4.28278">
        <ele>671</ele>
        <time>2021-02-27T09:32:58Z</time>
      </trkpt>
      <trkpt lat="45.34954" lon="4.28283">
        <ele>670</ele>
        <time>2021-02-27T09:33:06Z</time>
      </trkpt>
      <trkpt lat="45.34958" lon="4.28287">
        <ele>670</ele>
        <time>2021-02-27T09:34:05Z</time>
      </trkpt>
      <trkpt lat="45.34961" lon="4.2829">
        <ele>669</ele>
        <time>2021-02-27T09:34:07Z</time>
      </trkpt>
      <trkpt lat="45.34964" lon="4.28293">
        <ele>668</ele>
        <time>2021-02-27T09:34:08Z</time>
      </trkpt>
      <trkpt lat="45.34966" lon="4.28297">
        <ele>668</ele>
        <time>2021-02-27T09:34:09Z</time>
      </trkpt>
      <trkpt lat="45.34969" lon="4.28302">
        <ele>667</ele>
        <time>2021-02-27T09:34:10Z</time>
      </trkpt>
      <trkpt lat="45.34971" lon="4.28309">
        <ele>666</ele>
        <time>2021-02-27T09:34:11Z</time>
      </trkpt>
      <trkpt lat="45.34973" lon="4.28315">
        <ele>665</ele>
        <time>2021-02-27T09:34:12Z</time>
      </trkpt>
      <trkpt lat="45.34975" lon="4.28321">
        <ele>664</ele>
        <time>2021-02-27T09:34:13Z</time>
      </trkpt>
      <trkpt lat="45.34977" lon="4.28327">
        <ele>664</ele>
        <time>2021-02-27T09:34:14Z</time>
      </trkpt>
      <trkpt lat="45.34979" lon="4.28333">
        <ele>663</ele>
        <time>2021-02-27T09:34:15Z</time>
      </trkpt>
      <trkpt lat="45.3498" lon="4.2834">
        <ele>663</ele>
        <time>2021-02-27T09:34:16Z</time>
      </trkpt>
      <trkpt lat="45.34982" lon="4.28348">
        <ele>663</ele>
        <time>2021-02-27T09:34:17Z</time>
      </trkpt>
      <trkpt lat="45.34983" lon="4.28356">
        <ele>663</ele>
        <time>2021-02-27T09:34:18Z</time>
      </trkpt>
      <trkpt lat="45.34985" lon="4.28362">
        <ele>664</ele>
        <time>2021-02-27T09:34:19Z</time>
      </trkpt>
      <trkpt lat="45.34988" lon="4.28369">
        <ele>664</ele>
        <time>2021-02-27T09:34:20Z</time>
      </trkpt>
      <trkpt lat="45.3499" lon="4.28376">
        <ele>665</ele>
        <time>2021-02-27T09:34:21Z</time>
      </trkpt>
      <trkpt lat="45.34992" lon="4.28384">
        <ele>666</ele>
        <time>2021-02-27T09:34:22Z</time>
      </trkpt>
      <trkpt lat="45.34993" lon="4.28391">
        <ele>666</ele>
        <time>2021-02-27T09:34:23Z</time>
      </trkpt>
      <trkpt lat="45.34994" lon="4.28399">
        <ele>666</ele>
        <time>2021-02-27T09:34:24Z</time>
      </trkpt>
      <trkpt lat="45.34994" lon="4.28407">
        <ele>666</ele>
        <time>2021-02-27T09:34:25Z</time>
      </trkpt>
      <trkpt lat="45.34995" lon="4.28417">
        <ele>665</ele>
        <time>2021-02-27T09:34:26Z</time>
      </trkpt>
      <trkpt lat="45.34995" lon="4.28423">
        <ele>664</ele>
        <time>2021-02-27T09:34:27Z</time>
      </trkpt>
      <trkpt lat="45.34997" lon="4.2843">
        <ele>663</ele>
        <time>2021-02-27T09:34:29Z</time>
      </trkpt>
      <trkpt lat="45.35001" lon="4.28432">
        <ele>662</ele>
        <time>2021-02-27T09:34:30Z</time>
      </trkpt>
      <trkpt lat="45.35005" lon="4.28433">
        <ele>662</ele>
        <time>2021-02-27T09:34:31Z</time>
      </trkpt>
      <trkpt lat="45.35012" lon="4.28429">
        <ele>662</ele>
        <time>2021-02-27T09:34:37Z</time>
      </trkpt>
      <trkpt lat="45.35021" lon="4.28421">
        <ele>662</ele>
        <time>2021-02-27T09:34:42Z</time>
      </trkpt>
      <trkpt lat="45.35026" lon="4.28412">
        <ele>662</ele>
        <time>2021-02-27T09:34:47Z</time>
      </trkpt>
      <trkpt lat="45.3503" lon="4.28403">
        <ele>662</ele>
        <time>2021-02-27T09:34:56Z</time>
      </trkpt>
      <trkpt lat="45.35033" lon="4.28397">
        <ele>662</ele>
        <time>2021-02-27T09:35:02Z</time>
      </trkpt>
      <trkpt lat="45.35035" lon="4.28391">
        <ele>662</ele>
        <time>2021-02-27T09:35:04Z</time>
      </trkpt>
      <trkpt lat="45.35037" lon="4.28385">
        <ele>662</ele>
        <time>2021-02-27T09:35:06Z</time>
      </trkpt>
      <trkpt lat="45.35039" lon="4.28379">
        <ele>662</ele>
        <time>2021-02-27T09:35:08Z</time>
      </trkpt>
      <trkpt lat="45.35042" lon="4.28371">
        <ele>662</ele>
        <time>2021-02-27T09:35:10Z</time>
      </trkpt>
      <trkpt lat="45.35044" lon="4.28366">
        <ele>662</ele>
        <time>2021-02-27T09:35:11Z</time>
      </trkpt>
      <trkpt lat="45.35045" lon="4.2836">
        <ele>662</ele>
        <time>2021-02-27T09:35:13Z</time>
      </trkpt>
      <trkpt lat="45.35046" lon="4.28355">
        <ele>662</ele>
        <time>2021-02-27T09:35:14Z</time>
      </trkpt>
      <trkpt lat="45.35047" lon="4.2835">
        <ele>661</ele>
        <time>2021-02-27T09:35:15Z</time>
      </trkpt>
      <trkpt lat="45.35047" lon="4.28345">
        <ele>661</ele>
        <time>2021-02-27T09:35:16Z</time>
      </trkpt>
      <trkpt lat="45.35048" lon="4.28341">
        <ele>662</ele>
        <time>2021-02-27T09:35:17Z</time>
      </trkpt>
      <trkpt lat="45.35049" lon="4.28337">
        <ele>662</ele>
        <time>2021-02-27T09:35:18Z</time>
      </trkpt>
      <trkpt lat="45.35051" lon="4.28332">
        <ele>663</ele>
        <time>2021-02-27T09:35:20Z</time>
      </trkpt>
      <trkpt lat="45.35053" lon="4.28325">
        <ele>664</ele>
        <time>2021-02-27T09:35:22Z</time>
      </trkpt>
      <trkpt lat="45.35055" lon="4.28321">
        <ele>664</ele>
        <time>2021-02-27T09:35:23Z</time>
      </trkpt>
      <trkpt lat="45.35057" lon="4.28318">
        <ele>664</ele>
        <time>2021-02-27T09:35:24Z</time>
      </trkpt>
      <trkpt lat="45.3506" lon="4.28314">
        <ele>664</ele>
        <time>2021-02-27T09:35:26Z</time>
      </trkpt>
      <trkpt lat="45.35062" lon="4.28311">
        <ele>664</ele>
        <time>2021-02-27T09:35:27Z</time>
      </trkpt>
      <trkpt lat="45.35065" lon="4.28307">
        <ele>664</ele>
        <time>2021-02-27T09:35:28Z</time>
      </trkpt>
      <trkpt lat="45.35067" lon="4.28304">
        <ele>664</ele>
        <time>2021-02-27T09:35:29Z</time>
      </trkpt>
      <trkpt lat="45.3507" lon="4.28301">
        <ele>664</ele>
        <time>2021-02-27T09:35:30Z</time>
      </trkpt>
      <trkpt lat="45.35073" lon="4.28297">
        <ele>664</ele>
        <time>2021-02-27T09:35:31Z</time>
      </trkpt>
      <trkpt lat="45.35077" lon="4.28293">
        <ele>664</ele>
        <time>2021-02-27T09:35:32Z</time>
      </trkpt>
      <trkpt lat="45.3508" lon="4.28289">
        <ele>664</ele>
        <time>2021-02-27T09:35:33Z</time>
      </trkpt>
      <trkpt lat="45.35083" lon="4.28283">
        <ele>663</ele>
        <time>2021-02-27T09:35:34Z</time>
      </trkpt>
      <trkpt lat="45.35086" lon="4.28277">
        <ele>663</ele>
        <time>2021-02-27T09:35:35Z</time>
      </trkpt>
      <trkpt lat="45.35089" lon="4.28271">
        <ele>663</ele>
        <time>2021-02-27T09:35:36Z</time>
      </trkpt>
      <trkpt lat="45.35091" lon="4.28265">
        <ele>663</ele>
        <time>2021-02-27T09:35:37Z</time>
      </trkpt>
      <trkpt lat="45.35094" lon="4.2826">
        <ele>663</ele>
        <time>2021-02-27T09:35:38Z</time>
      </trkpt>
      <trkpt lat="45.35097" lon="4.28255">
        <ele>662</ele>
        <time>2021-02-27T09:35:39Z</time>
      </trkpt>
      <trkpt lat="45.351" lon="4.2825">
        <ele>662</ele>
        <time>2021-02-27T09:35:40Z</time>
      </trkpt>
      <trkpt lat="45.35102" lon="4.28245">
        <ele>661</ele>
        <time>2021-02-27T09:35:41Z</time>
      </trkpt>
      <trkpt lat="45.35106" lon="4.2824">
        <ele>660</ele>
        <time>2021-02-27T09:35:42Z</time>
      </trkpt>
      <trkpt lat="45.35109" lon="4.28235">
        <ele>660</ele>
        <time>2021-02-27T09:35:43Z</time>
      </trkpt>
      <trkpt lat="45.35112" lon="4.28229">
        <ele>659</ele>
        <time>2021-02-27T09:35:44Z</time>
      </trkpt>
      <trkpt lat="45.35115" lon="4.28223">
        <ele>659</ele>
        <time>2021-02-27T09:35:45Z</time>
      </trkpt>
      <trkpt lat="45.35118" lon="4.28216">
        <ele>659</ele>
        <time>2021-02-27T09:35:46Z</time>
      </trkpt>
      <trkpt lat="45.35121" lon="4.28209">
        <ele>659</ele>
        <time>2021-02-27T09:35:47Z</time>
      </trkpt>
      <trkpt lat="45.35123" lon="4.28202">
        <ele>659</ele>
        <time>2021-02-27T09:35:48Z</time>
      </trkpt>
      <trkpt lat="45.35124" lon="4.28195">
        <ele>659</ele>
        <time>2021-02-27T09:35:49Z</time>
      </trkpt>
      <trkpt lat="45.35125" lon="4.28188">
        <ele>660</ele>
        <time>2021-02-27T09:35:50Z</time>
      </trkpt>
      <trkpt lat="45.35126" lon="4.2818">
        <ele>659</ele>
        <time>2021-02-27T09:35:51Z</time>
      </trkpt>
      <trkpt lat="45.35126" lon="4.28173">
        <ele>659</ele>
        <time>2021-02-27T09:35:52Z</time>
      </trkpt>
      <trkpt lat="45.35126" lon="4.28168">
        <ele>659</ele>
        <time>2021-02-27T09:35:53Z</time>
      </trkpt>
      <trkpt lat="45.35127" lon="4.28162">
        <ele>658</ele>
        <time>2021-02-27T09:35:54Z</time>
      </trkpt>
      <trkpt lat="45.35128" lon="4.28157">
        <ele>657</ele>
        <time>2021-02-27T09:35:55Z</time>
      </trkpt>
      <trkpt lat="45.35128" lon="4.28151">
        <ele>656</ele>
        <time>2021-02-27T09:35:56Z</time>
      </trkpt>
      <trkpt lat="45.35128" lon="4.28143">
        <ele>656</ele>
        <time>2021-02-27T09:35:57Z</time>
      </trkpt>
      <trkpt lat="45.35129" lon="4.28136">
        <ele>655</ele>
        <time>2021-02-27T09:35:58Z</time>
      </trkpt>
      <trkpt lat="45.35129" lon="4.28127">
        <ele>655</ele>
        <time>2021-02-27T09:35:59Z</time>
      </trkpt>
      <trkpt lat="45.3513" lon="4.2812">
        <ele>654</ele>
        <time>2021-02-27T09:36:00Z</time>
      </trkpt>
      <trkpt lat="45.3513" lon="4.28112">
        <ele>655</ele>
        <time>2021-02-27T09:36:01Z</time>
      </trkpt>
      <trkpt lat="45.35131" lon="4.28105">
        <ele>654</ele>
        <time>2021-02-27T09:36:02Z</time>
      </trkpt>
      <trkpt lat="45.35132" lon="4.28099">
        <ele>654</ele>
        <time>2021-02-27T09:36:03Z</time>
      </trkpt>
      <trkpt lat="45.35132" lon="4.28093">
        <ele>655</ele>
        <time>2021-02-27T09:36:04Z</time>
      </trkpt>
      <trkpt lat="45.35132" lon="4.28086">
        <ele>654</ele>
        <time>2021-02-27T09:36:05Z</time>
      </trkpt>
      <trkpt lat="45.35133" lon="4.28077">
        <ele>654</ele>
        <time>2021-02-27T09:36:06Z</time>
      </trkpt>
      <trkpt lat="45.35134" lon="4.28069">
        <ele>655</ele>
        <time>2021-02-27T09:36:07Z</time>
      </trkpt>
      <trkpt lat="45.35135" lon="4.28062">
        <ele>655</ele>
        <time>2021-02-27T09:36:08Z</time>
      </trkpt>
      <trkpt lat="45.35137" lon="4.28054">
        <ele>655</ele>
        <time>2021-02-27T09:36:09Z</time>
      </trkpt>
      <trkpt lat="45.35139" lon="4.28045">
        <ele>655</ele>
        <time>2021-02-27T09:36:10Z</time>
      </trkpt>
      <trkpt lat="45.35141" lon="4.28036">
        <ele>655</ele>
        <time>2021-02-27T09:36:11Z</time>
      </trkpt>
      <trkpt lat="45.35143" lon="4.28027">
        <ele>655</ele>
        <time>2021-02-27T09:36:12Z</time>
      </trkpt>
      <trkpt lat="45.35146" lon="4.28018">
        <ele>655</ele>
        <time>2021-02-27T09:36:13Z</time>
      </trkpt>
      <trkpt lat="45.35149" lon="4.28011">
        <ele>655</ele>
        <time>2021-02-27T09:36:14Z</time>
      </trkpt>
      <trkpt lat="45.35152" lon="4.28004">
        <ele>655</ele>
        <time>2021-02-27T09:36:15Z</time>
      </trkpt>
      <trkpt lat="45.35156" lon="4.27999">
        <ele>656</ele>
        <time>2021-02-27T09:36:16Z</time>
      </trkpt>
      <trkpt lat="45.3516" lon="4.27993">
        <ele>656</ele>
        <time>2021-02-27T09:36:17Z</time>
      </trkpt>
      <trkpt lat="45.35164" lon="4.27988">
        <ele>656</ele>
        <time>2021-02-27T09:36:18Z</time>
      </trkpt>
      <trkpt lat="45.35167" lon="4.27979">
        <ele>656</ele>
        <time>2021-02-27T09:36:19Z</time>
      </trkpt>
      <trkpt lat="45.3517" lon="4.2797">
        <ele>656</ele>
        <time>2021-02-27T09:36:20Z</time>
      </trkpt>
      <trkpt lat="45.35172" lon="4.27963">
        <ele>656</ele>
        <time>2021-02-27T09:36:21Z</time>
      </trkpt>
      <trkpt lat="45.35175" lon="4.27955">
        <ele>657</ele>
        <time>2021-02-27T09:36:22Z</time>
      </trkpt>
      <trkpt lat="45.35177" lon="4.27947">
        <ele>658</ele>
        <time>2021-02-27T09:36:23Z</time>
      </trkpt>
      <trkpt lat="45.35179" lon="4.27941">
        <ele>658</ele>
        <time>2021-02-27T09:36:24Z</time>
      </trkpt>
      <trkpt lat="45.3518" lon="4.27936">
        <ele>658</ele>
        <time>2021-02-27T09:36:25Z</time>
      </trkpt>
      <trkpt lat="45.35183" lon="4.2793">
        <ele>659</ele>
        <time>2021-02-27T09:36:27Z</time>
      </trkpt>
      <trkpt lat="45.35185" lon="4.27925">
        <ele>659</ele>
        <time>2021-02-27T09:36:29Z</time>
      </trkpt>
      <trkpt lat="45.35187" lon="4.2792">
        <ele>660</ele>
        <time>2021-02-27T09:36:30Z</time>
      </trkpt>
      <trkpt lat="45.35189" lon="4.27914">
        <ele>659</ele>
        <time>2021-02-27T09:36:32Z</time>
      </trkpt>
      <trkpt lat="45.35191" lon="4.27909">
        <ele>660</ele>
        <time>2021-02-27T09:36:34Z</time>
      </trkpt>
      <trkpt lat="45.35194" lon="4.27903">
        <ele>660</ele>
        <time>2021-02-27T09:36:36Z</time>
      </trkpt>
      <trkpt lat="45.35197" lon="4.27897">
        <ele>661</ele>
        <time>2021-02-27T09:36:38Z</time>
      </trkpt>
      <trkpt lat="45.35199" lon="4.27892">
        <ele>662</ele>
        <time>2021-02-27T09:36:40Z</time>
      </trkpt>
      <trkpt lat="45.35201" lon="4.27888">
        <ele>662</ele>
        <time>2021-02-27T09:36:42Z</time>
      </trkpt>
      <trkpt lat="45.35203" lon="4.27885">
        <ele>662</ele>
        <time>2021-02-27T09:36:44Z</time>
      </trkpt>
      <trkpt lat="45.35206" lon="4.27883">
        <ele>662</ele>
        <time>2021-02-27T09:36:46Z</time>
      </trkpt>
      <trkpt lat="45.35209" lon="4.27879">
        <ele>663</ele>
        <time>2021-02-27T09:36:48Z</time>
      </trkpt>
      <trkpt lat="45.35212" lon="4.27876">
        <ele>663</ele>
        <time>2021-02-27T09:36:50Z</time>
      </trkpt>
      <trkpt lat="45.35216" lon="4.27872">
        <ele>663</ele>
        <time>2021-02-27T09:36:52Z</time>
      </trkpt>
      <trkpt lat="45.3522" lon="4.27868">
        <ele>664</ele>
        <time>2021-02-27T09:36:54Z</time>
      </trkpt>
      <trkpt lat="45.35224" lon="4.27865">
        <ele>664</ele>
        <time>2021-02-27T09:36:56Z</time>
      </trkpt>
      <trkpt lat="45.35228" lon="4.27862">
        <ele>665</ele>
        <time>2021-02-27T09:36:58Z</time>
      </trkpt>
      <trkpt lat="45.35232" lon="4.2786">
        <ele>665</ele>
        <time>2021-02-27T09:36:59Z</time>
      </trkpt>
      <trkpt lat="45.35234" lon="4.27858">
        <ele>665</ele>
        <time>2021-02-27T09:37:00Z</time>
      </trkpt>
      <trkpt lat="45.35237" lon="4.27856">
        <ele>666</ele>
        <time>2021-02-27T09:37:01Z</time>
      </trkpt>
      <trkpt lat="45.3524" lon="4.27853">
        <ele>666</ele>
        <time>2021-02-27T09:37:02Z</time>
      </trkpt>
      <trkpt lat="45.35242" lon="4.2785">
        <ele>667</ele>
        <time>2021-02-27T09:37:03Z</time>
      </trkpt>
      <trkpt lat="45.35246" lon="4.27846">
        <ele>666</ele>
        <time>2021-02-27T09:37:05Z</time>
      </trkpt>
      <trkpt lat="45.3525" lon="4.27842">
        <ele>666</ele>
        <time>2021-02-27T09:37:06Z</time>
      </trkpt>
      <trkpt lat="45.35252" lon="4.27838">
        <ele>665</ele>
        <time>2021-02-27T09:37:07Z</time>
      </trkpt>
      <trkpt lat="45.35255" lon="4.27834">
        <ele>665</ele>
        <time>2021-02-27T09:37:08Z</time>
      </trkpt>
      <trkpt lat="45.35257" lon="4.2783">
        <ele>665</ele>
        <time>2021-02-27T09:37:09Z</time>
      </trkpt>
      <trkpt lat="45.3526" lon="4.27827">
        <ele>665</ele>
        <time>2021-02-27T09:37:10Z</time>
      </trkpt>
      <trkpt lat="45.35262" lon="4.27823">
        <ele>665</ele>
        <time>2021-02-27T09:37:11Z</time>
      </trkpt>
      <trkpt lat="45.35265" lon="4.27819">
        <ele>665</ele>
        <time>2021-02-27T09:37:12Z</time>
      </trkpt>
      <trkpt lat="45.35268" lon="4.27815">
        <ele>665</ele>
        <time>2021-02-27T09:37:13Z</time>
      </trkpt>
      <trkpt lat="45.35271" lon="4.27811">
        <ele>664</ele>
        <time>2021-02-27T09:37:14Z</time>
      </trkpt>
      <trkpt lat="45.35274" lon="4.27808">
        <ele>664</ele>
        <time>2021-02-27T09:37:15Z</time>
      </trkpt>
      <trkpt lat="45.35277" lon="4.27804">
        <ele>664</ele>
        <time>2021-02-27T09:37:16Z</time>
      </trkpt>
      <trkpt lat="45.3528" lon="4.278">
        <ele>664</ele>
        <time>2021-02-27T09:37:17Z</time>
      </trkpt>
      <trkpt lat="45.35283" lon="4.27796">
        <ele>664</ele>
        <time>2021-02-27T09:37:18Z</time>
      </trkpt>
      <trkpt lat="45.35286" lon="4.27793">
        <ele>665</ele>
        <time>2021-02-27T09:37:19Z</time>
      </trkpt>
      <trkpt lat="45.35289" lon="4.2779">
        <ele>665</ele>
        <time>2021-02-27T09:37:20Z</time>
      </trkpt>
      <trkpt lat="45.35293" lon="4.27788">
        <ele>664</ele>
        <time>2021-02-27T09:37:21Z</time>
      </trkpt>
      <trkpt lat="45.35297" lon="4.27784">
        <ele>664</ele>
        <time>2021-02-27T09:37:22Z</time>
      </trkpt>
      <trkpt lat="45.35301" lon="4.27781">
        <ele>664</ele>
        <time>2021-02-27T09:37:23Z</time>
      </trkpt>
      <trkpt lat="45.35305" lon="4.27776">
        <ele>664</ele>
        <time>2021-02-27T09:37:24Z</time>
      </trkpt>
      <trkpt lat="45.35308" lon="4.27772">
        <ele>664</ele>
        <time>2021-02-27T09:37:25Z</time>
      </trkpt>
      <trkpt lat="45.35312" lon="4.27767">
        <ele>665</ele>
        <time>2021-02-27T09:37:26Z</time>
      </trkpt>
      <trkpt lat="45.35315" lon="4.27762">
        <ele>665</ele>
        <time>2021-02-27T09:37:27Z</time>
      </trkpt>
      <trkpt lat="45.35318" lon="4.27758">
        <ele>666</ele>
        <time>2021-02-27T09:37:28Z</time>
      </trkpt>
      <trkpt lat="45.35319" lon="4.27754">
        <ele>665</ele>
        <time>2021-02-27T09:37:29Z</time>
      </trkpt>
      <trkpt lat="45.35321" lon="4.27749">
        <ele>665</ele>
        <time>2021-02-27T09:37:30Z</time>
      </trkpt>
      <trkpt lat="45.35323" lon="4.27745">
        <ele>665</ele>
        <time>2021-02-27T09:37:31Z</time>
      </trkpt>
      <trkpt lat="45.35324" lon="4.2774">
        <ele>665</ele>
        <time>2021-02-27T09:37:32Z</time>
      </trkpt>
      <trkpt lat="45.35326" lon="4.27735">
        <ele>666</ele>
        <time>2021-02-27T09:37:33Z</time>
      </trkpt>
      <trkpt lat="45.35327" lon="4.2773">
        <ele>666</ele>
        <time>2021-02-27T09:37:34Z</time>
      </trkpt>
      <trkpt lat="45.35328" lon="4.27726">
        <ele>666</ele>
        <time>2021-02-27T09:37:35Z</time>
      </trkpt>
      <trkpt lat="45.35329" lon="4.27721">
        <ele>666</ele>
        <time>2021-02-27T09:37:36Z</time>
      </trkpt>
      <trkpt lat="45.3533" lon="4.27717">
        <ele>667</ele>
        <time>2021-02-27T09:37:37Z</time>
      </trkpt>
      <trkpt lat="45.35331" lon="4.27713">
        <ele>667</ele>
        <time>2021-02-27T09:37:38Z</time>
      </trkpt>
      <trkpt lat="45.35335" lon="4.2771">
        <ele>668</ele>
        <time>2021-02-27T09:37:40Z</time>
      </trkpt>
      <trkpt lat="45.35338" lon="4.27709">
        <ele>669</ele>
        <time>2021-02-27T09:37:41Z</time>
      </trkpt>
      <trkpt lat="45.35341" lon="4.27709">
        <ele>669</ele>
        <time>2021-02-27T09:37:42Z</time>
      </trkpt>
      <trkpt lat="45.35345" lon="4.27711">
        <ele>670</ele>
        <time>2021-02-27T09:37:44Z</time>
      </trkpt>
      <trkpt lat="45.35348" lon="4.27713">
        <ele>671</ele>
        <time>2021-02-27T09:37:46Z</time>
      </trkpt>
      <trkpt lat="45.35352" lon="4.27714">
        <ele>672</ele>
        <time>2021-02-27T09:37:49Z</time>
      </trkpt>
      <trkpt lat="45.35355" lon="4.27716">
        <ele>673</ele>
        <time>2021-02-27T09:37:52Z</time>
      </trkpt>
      <trkpt lat="45.35359" lon="4.27716">
        <ele>672</ele>
        <time>2021-02-27T09:37:54Z</time>
      </trkpt>
      <trkpt lat="45.35362" lon="4.27716">
        <ele>674</ele>
        <time>2021-02-27T09:37:56Z</time>
      </trkpt>
      <trkpt lat="45.35365" lon="4.27715">
        <ele>675</ele>
        <time>2021-02-27T09:37:58Z</time>
      </trkpt>
      <trkpt lat="45.35368" lon="4.27714">
        <ele>675</ele>
        <time>2021-02-27T09:38:00Z</time>
      </trkpt>
      <trkpt lat="45.35372" lon="4.27712">
        <ele>676</ele>
        <time>2021-02-27T09:38:03Z</time>
      </trkpt>
      <trkpt lat="45.35375" lon="4.27709">
        <ele>676</ele>
        <time>2021-02-27T09:38:05Z</time>
      </trkpt>
      <trkpt lat="45.35378" lon="4.27706">
        <ele>678</ele>
        <time>2021-02-27T09:38:07Z</time>
      </trkpt>
      <trkpt lat="45.35381" lon="4.27702">
        <ele>678</ele>
        <time>2021-02-27T09:38:09Z</time>
      </trkpt>
      <trkpt lat="45.35383" lon="4.27698">
        <ele>679</ele>
        <time>2021-02-27T09:38:11Z</time>
      </trkpt>
      <trkpt lat="45.35385" lon="4.27693">
        <ele>679</ele>
        <time>2021-02-27T09:38:13Z</time>
      </trkpt>
      <trkpt lat="45.35388" lon="4.27687">
        <ele>679</ele>
        <time>2021-02-27T09:38:15Z</time>
      </trkpt>
      <trkpt lat="45.3539" lon="4.27682">
        <ele>679</ele>
        <time>2021-02-27T09:38:17Z</time>
      </trkpt>
      <trkpt lat="45.35393" lon="4.27678">
        <ele>680</ele>
        <time>2021-02-27T09:38:19Z</time>
      </trkpt>
      <trkpt lat="45.35396" lon="4.27673">
        <ele>679</ele>
        <time>2021-02-27T09:38:21Z</time>
      </trkpt>
      <trkpt lat="45.35399" lon="4.27669">
        <ele>680</ele>
        <time>2021-02-27T09:38:23Z</time>
      </trkpt>
      <trkpt lat="45.35402" lon="4.27664">
        <ele>680</ele>
        <time>2021-02-27T09:38:25Z</time>
      </trkpt>
      <trkpt lat="45.35406" lon="4.2766">
        <ele>681</ele>
        <time>2021-02-27T09:38:27Z</time>
      </trkpt>
      <trkpt lat="45.35409" lon="4.27656">
        <ele>680</ele>
        <time>2021-02-27T09:38:29Z</time>
      </trkpt>
      <trkpt lat="45.35412" lon="4.27651">
        <ele>681</ele>
        <time>2021-02-27T09:38:31Z</time>
      </trkpt>
      <trkpt lat="45.35416" lon="4.27647">
        <ele>681</ele>
        <time>2021-02-27T09:38:33Z</time>
      </trkpt>
      <trkpt lat="45.3542" lon="4.27643">
        <ele>681</ele>
        <time>2021-02-27T09:38:35Z</time>
      </trkpt>
      <trkpt lat="45.35424" lon="4.27639">
        <ele>682</ele>
        <time>2021-02-27T09:38:37Z</time>
      </trkpt>
      <trkpt lat="45.35428" lon="4.27635">
        <ele>682</ele>
        <time>2021-02-27T09:38:39Z</time>
      </trkpt>
      <trkpt lat="45.35433" lon="4.27632">
        <ele>682</ele>
        <time>2021-02-27T09:38:41Z</time>
      </trkpt>
      <trkpt lat="45.35437" lon="4.27629">
        <ele>683</ele>
        <time>2021-02-27T09:38:43Z</time>
      </trkpt>
      <trkpt lat="45.35441" lon="4.27626">
        <ele>684</ele>
        <time>2021-02-27T09:38:45Z</time>
      </trkpt>
      <trkpt lat="45.35445" lon="4.27623">
        <ele>684</ele>
        <time>2021-02-27T09:38:47Z</time>
      </trkpt>
      <trkpt lat="45.35448" lon="4.27621">
        <ele>684</ele>
        <time>2021-02-27T09:38:48Z</time>
      </trkpt>
      <trkpt lat="45.35452" lon="4.27619">
        <ele>685</ele>
        <time>2021-02-27T09:38:50Z</time>
      </trkpt>
      <trkpt lat="45.35455" lon="4.27618">
        <ele>685</ele>
        <time>2021-02-27T09:38:51Z</time>
      </trkpt>
      <trkpt lat="45.35459" lon="4.27617">
        <ele>685</ele>
        <time>2021-02-27T09:38:53Z</time>
      </trkpt>
      <trkpt lat="45.35463" lon="4.27617">
        <ele>686</ele>
        <time>2021-02-27T09:38:55Z</time>
      </trkpt>
      <trkpt lat="45.35468" lon="4.27618">
        <ele>686</ele>
        <time>2021-02-27T09:38:57Z</time>
      </trkpt>
      <trkpt lat="45.35472" lon="4.27618">
        <ele>687</ele>
        <time>2021-02-27T09:38:59Z</time>
      </trkpt>
      <trkpt lat="45.35477" lon="4.2762">
        <ele>687</ele>
        <time>2021-02-27T09:39:01Z</time>
      </trkpt>
      <trkpt lat="45.35481" lon="4.27621">
        <ele>689</ele>
        <time>2021-02-27T09:39:03Z</time>
      </trkpt>
      <trkpt lat="45.35486" lon="4.27624">
        <ele>689</ele>
        <time>2021-02-27T09:39:05Z</time>
      </trkpt>
      <trkpt lat="45.3549" lon="4.27626">
        <ele>689</ele>
        <time>2021-02-27T09:39:07Z</time>
      </trkpt>
      <trkpt lat="45.35494" lon="4.27629">
        <ele>690</ele>
        <time>2021-02-27T09:39:09Z</time>
      </trkpt>
      <trkpt lat="45.35498" lon="4.27633">
        <ele>690</ele>
        <time>2021-02-27T09:39:11Z</time>
      </trkpt>
      <trkpt lat="45.35502" lon="4.27636">
        <ele>690</ele>
        <time>2021-02-27T09:39:13Z</time>
      </trkpt>
      <trkpt lat="45.35505" lon="4.2764">
        <ele>691</ele>
        <time>2021-02-27T09:39:15Z</time>
      </trkpt>
      <trkpt lat="45.35508" lon="4.27644">
        <ele>691</ele>
        <time>2021-02-27T09:39:17Z</time>
      </trkpt>
      <trkpt lat="45.35512" lon="4.27647">
        <ele>692</ele>
        <time>2021-02-27T09:39:19Z</time>
      </trkpt>
      <trkpt lat="45.35516" lon="4.27651">
        <ele>690</ele>
        <time>2021-02-27T09:39:21Z</time>
      </trkpt>
      <trkpt lat="45.35519" lon="4.27654">
        <ele>691</ele>
        <time>2021-02-27T09:39:22Z</time>
      </trkpt>
      <trkpt lat="45.35522" lon="4.27657">
        <ele>691</ele>
        <time>2021-02-27T09:39:23Z</time>
      </trkpt>
      <trkpt lat="45.35524" lon="4.27659">
        <ele>691</ele>
        <time>2021-02-27T09:39:24Z</time>
      </trkpt>
      <trkpt lat="45.35527" lon="4.27664">
        <ele>693</ele>
        <time>2021-02-27T09:39:26Z</time>
      </trkpt>
      <trkpt lat="45.35528" lon="4.27669">
        <ele>693</ele>
        <time>2021-02-27T09:39:27Z</time>
      </trkpt>
      <trkpt lat="45.3553" lon="4.27673">
        <ele>693</ele>
        <time>2021-02-27T09:39:28Z</time>
      </trkpt>
      <trkpt lat="45.35532" lon="4.27678">
        <ele>692</ele>
        <time>2021-02-27T09:39:30Z</time>
      </trkpt>
      <trkpt lat="45.35534" lon="4.27684">
        <ele>693</ele>
        <time>2021-02-27T09:39:32Z</time>
      </trkpt>
      <trkpt lat="45.35536" lon="4.27689">
        <ele>694</ele>
        <time>2021-02-27T09:39:33Z</time>
      </trkpt>
      <trkpt lat="45.35537" lon="4.27694">
        <ele>693</ele>
        <time>2021-02-27T09:39:35Z</time>
      </trkpt>
      <trkpt lat="45.3554" lon="4.277">
        <ele>695</ele>
        <time>2021-02-27T09:39:37Z</time>
      </trkpt>
      <trkpt lat="45.35542" lon="4.27706">
        <ele>695</ele>
        <time>2021-02-27T09:39:39Z</time>
      </trkpt>
      <trkpt lat="45.35543" lon="4.27712">
        <ele>695</ele>
        <time>2021-02-27T09:39:41Z</time>
      </trkpt>
      <trkpt lat="45.35545" lon="4.27717">
        <ele>695</ele>
        <time>2021-02-27T09:39:43Z</time>
      </trkpt>
      <trkpt lat="45.35546" lon="4.27721">
        <ele>695</ele>
        <time>2021-02-27T09:39:44Z</time>
      </trkpt>
      <trkpt lat="45.35548" lon="4.27727">
        <ele>693</ele>
        <time>2021-02-27T09:39:46Z</time>
      </trkpt>
      <trkpt lat="45.3555" lon="4.27733">
        <ele>693</ele>
        <time>2021-02-27T09:39:47Z</time>
      </trkpt>
      <trkpt lat="45.35552" lon="4.27738">
        <ele>693</ele>
        <time>2021-02-27T09:39:48Z</time>
      </trkpt>
      <trkpt lat="45.35553" lon="4.27744">
        <ele>693</ele>
        <time>2021-02-27T09:39:49Z</time>
      </trkpt>
      <trkpt lat="45.35555" lon="4.27749">
        <ele>692</ele>
        <time>2021-02-27T09:39:50Z</time>
      </trkpt>
      <trkpt lat="45.35556" lon="4.27753">
        <ele>692</ele>
        <time>2021-02-27T09:39:51Z</time>
      </trkpt>
      <trkpt lat="45.35558" lon="4.27758">
        <ele>692</ele>
        <time>2021-02-27T09:39:52Z</time>
      </trkpt>
      <trkpt lat="45.3556" lon="4.27762">
        <ele>692</ele>
        <time>2021-02-27T09:39:53Z</time>
      </trkpt>
      <trkpt lat="45.35563" lon="4.27767">
        <ele>692</ele>
        <time>2021-02-27T09:39:55Z</time>
      </trkpt>
      <trkpt lat="45.35565" lon="4.2777">
        <ele>692</ele>
        <time>2021-02-27T09:39:56Z</time>
      </trkpt>
      <trkpt lat="45.35568" lon="4.27775">
        <ele>692</ele>
        <time>2021-02-27T09:39:58Z</time>
      </trkpt>
      <trkpt lat="45.35572" lon="4.27781">
        <ele>692</ele>
        <time>2021-02-27T09:40:00Z</time>
      </trkpt>
      <trkpt lat="45.35575" lon="4.27785">
        <ele>692</ele>
        <time>2021-02-27T09:40:01Z</time>
      </trkpt>
      <trkpt lat="45.35578" lon="4.27789">
        <ele>692</ele>
        <time>2021-02-27T09:40:02Z</time>
      </trkpt>
      <trkpt lat="45.35581" lon="4.27793">
        <ele>691</ele>
        <time>2021-02-27T09:40:03Z</time>
      </trkpt>
      <trkpt lat="45.35583" lon="4.27796">
        <ele>692</ele>
        <time>2021-02-27T09:40:04Z</time>
      </trkpt>
      <trkpt lat="45.35585" lon="4.27799">
        <ele>691</ele>
        <time>2021-02-27T09:40:05Z</time>
      </trkpt>
      <trkpt lat="45.35588" lon="4.27802">
        <ele>691</ele>
        <time>2021-02-27T09:40:06Z</time>
      </trkpt>
      <trkpt lat="45.3559" lon="4.27806">
        <ele>691</ele>
        <time>2021-02-27T09:40:07Z</time>
      </trkpt>
      <trkpt lat="45.35593" lon="4.27809">
        <ele>692</ele>
        <time>2021-02-27T09:40:08Z</time>
      </trkpt>
      <trkpt lat="45.35595" lon="4.27813">
        <ele>691</ele>
        <time>2021-02-27T09:40:09Z</time>
      </trkpt>
      <trkpt lat="45.35597" lon="4.27817">
        <ele>690</ele>
        <time>2021-02-27T09:40:10Z</time>
      </trkpt>
      <trkpt lat="45.356" lon="4.27821">
        <ele>690</ele>
        <time>2021-02-27T09:40:11Z</time>
      </trkpt>
      <trkpt lat="45.35603" lon="4.27825">
        <ele>690</ele>
        <time>2021-02-27T09:40:12Z</time>
      </trkpt>
      <trkpt lat="45.35606" lon="4.27829">
        <ele>690</ele>
        <time>2021-02-27T09:40:13Z</time>
      </trkpt>
      <trkpt lat="45.35608" lon="4.27833">
        <ele>689</ele>
        <time>2021-02-27T09:40:14Z</time>
      </trkpt>
      <trkpt lat="45.35611" lon="4.27838">
        <ele>689</ele>
        <time>2021-02-27T09:40:15Z</time>
      </trkpt>
      <trkpt lat="45.35614" lon="4.27842">
        <ele>689</ele>
        <time>2021-02-27T09:40:16Z</time>
      </trkpt>
      <trkpt lat="45.35616" lon="4.27846">
        <ele>688</ele>
        <time>2021-02-27T09:40:17Z</time>
      </trkpt>
      <trkpt lat="45.35619" lon="4.27851">
        <ele>688</ele>
        <time>2021-02-27T09:40:18Z</time>
      </trkpt>
      <trkpt lat="45.35621" lon="4.27855">
        <ele>688</ele>
        <time>2021-02-27T09:40:19Z</time>
      </trkpt>
      <trkpt lat="45.35624" lon="4.27859">
        <ele>687</ele>
        <time>2021-02-27T09:40:20Z</time>
      </trkpt>
      <trkpt lat="45.35626" lon="4.27864">
        <ele>687</ele>
        <time>2021-02-27T09:40:21Z</time>
      </trkpt>
      <trkpt lat="45.35629" lon="4.27868">
        <ele>687</ele>
        <time>2021-02-27T09:40:22Z</time>
      </trkpt>
      <trkpt lat="45.35632" lon="4.27873">
        <ele>686</ele>
        <time>2021-02-27T09:40:23Z</time>
      </trkpt>
      <trkpt lat="45.35636" lon="4.27877">
        <ele>685</ele>
        <time>2021-02-27T09:40:24Z</time>
      </trkpt>
      <trkpt lat="45.3564" lon="4.27882">
        <ele>685</ele>
        <time>2021-02-27T09:40:25Z</time>
      </trkpt>
      <trkpt lat="45.35643" lon="4.27887">
        <ele>685</ele>
        <time>2021-02-27T09:40:26Z</time>
      </trkpt>
      <trkpt lat="45.35647" lon="4.2789">
        <ele>685</ele>
        <time>2021-02-27T09:40:27Z</time>
      </trkpt>
      <trkpt lat="45.3565" lon="4.27892">
        <ele>685</ele>
        <time>2021-02-27T09:40:28Z</time>
      </trkpt>
      <trkpt lat="45.35653" lon="4.27894">
        <ele>685</ele>
        <time>2021-02-27T09:40:29Z</time>
      </trkpt>
      <trkpt lat="45.35655" lon="4.27896">
        <ele>683</ele>
        <time>2021-02-27T09:40:30Z</time>
      </trkpt>
      <trkpt lat="45.35659" lon="4.27898">
        <ele>682</ele>
        <time>2021-02-27T09:40:31Z</time>
      </trkpt>
      <trkpt lat="45.35662" lon="4.27899">
        <ele>681</ele>
        <time>2021-02-27T09:40:32Z</time>
      </trkpt>
      <trkpt lat="45.35665" lon="4.27901">
        <ele>680</ele>
        <time>2021-02-27T09:40:33Z</time>
      </trkpt>
      <trkpt lat="45.35669" lon="4.27904">
        <ele>679</ele>
        <time>2021-02-27T09:40:34Z</time>
      </trkpt>
      <trkpt lat="45.35672" lon="4.27907">
        <ele>678</ele>
        <time>2021-02-27T09:40:35Z</time>
      </trkpt>
      <trkpt lat="45.35678" lon="4.27912">
        <ele>677</ele>
        <time>2021-02-27T09:40:36Z</time>
      </trkpt>
      <trkpt lat="45.35683" lon="4.27917">
        <ele>676</ele>
        <time>2021-02-27T09:40:37Z</time>
      </trkpt>
      <trkpt lat="45.35688" lon="4.27923">
        <ele>676</ele>
        <time>2021-02-27T09:40:38Z</time>
      </trkpt>
      <trkpt lat="45.35692" lon="4.27929">
        <ele>675</ele>
        <time>2021-02-27T09:40:39Z</time>
      </trkpt>
      <trkpt lat="45.35697" lon="4.27935">
        <ele>675</ele>
        <time>2021-02-27T09:40:40Z</time>
      </trkpt>
      <trkpt lat="45.35702" lon="4.27941">
        <ele>674</ele>
        <time>2021-02-27T09:40:41Z</time>
      </trkpt>
      <trkpt lat="45.35707" lon="4.27947">
        <ele>674</ele>
        <time>2021-02-27T09:40:42Z</time>
      </trkpt>
      <trkpt lat="45.35712" lon="4.27952">
        <ele>673</ele>
        <time>2021-02-27T09:40:43Z</time>
      </trkpt>
      <trkpt lat="45.35719" lon="4.27956">
        <ele>673</ele>
        <time>2021-02-27T09:40:44Z</time>
      </trkpt>
      <trkpt lat="45.35726" lon="4.2796">
        <ele>673</ele>
        <time>2021-02-27T09:40:45Z</time>
      </trkpt>
      <trkpt lat="45.35733" lon="4.27962">
        <ele>672</ele>
        <time>2021-02-27T09:40:46Z</time>
      </trkpt>
      <trkpt lat="45.3574" lon="4.27965">
        <ele>671</ele>
        <time>2021-02-27T09:40:47Z</time>
      </trkpt>
      <trkpt lat="45.35746" lon="4.27966">
        <ele>671</ele>
        <time>2021-02-27T09:40:48Z</time>
      </trkpt>
      <trkpt lat="45.35753" lon="4.27968">
        <ele>671</ele>
        <time>2021-02-27T09:40:49Z</time>
      </trkpt>
      <trkpt lat="45.35761" lon="4.2797">
        <ele>670</ele>
        <time>2021-02-27T09:40:50Z</time>
      </trkpt>
      <trkpt lat="45.35769" lon="4.27971">
        <ele>669</ele>
        <time>2021-02-27T09:40:51Z</time>
      </trkpt>
      <trkpt lat="45.35778" lon="4.27973">
        <ele>667</ele>
        <time>2021-02-27T09:40:52Z</time>
      </trkpt>
      <trkpt lat="45.35787" lon="4.27975">
        <ele>666</ele>
        <time>2021-02-27T09:40:53Z</time>
      </trkpt>
      <trkpt lat="45.35796" lon="4.27977">
        <ele>665</ele>
        <time>2021-02-27T09:40:54Z</time>
      </trkpt>
      <trkpt lat="45.35804" lon="4.27979">
        <ele>664</ele>
        <time>2021-02-27T09:40:55Z</time>
      </trkpt>
      <trkpt lat="45.35813" lon="4.2798">
        <ele>663</ele>
        <time>2021-02-27T09:40:56Z</time>
      </trkpt>
      <trkpt lat="45.35822" lon="4.27982">
        <ele>663</ele>
        <time>2021-02-27T09:40:57Z</time>
      </trkpt>
      <trkpt lat="45.3583" lon="4.27984">
        <ele>663</ele>
        <time>2021-02-27T09:40:58Z</time>
      </trkpt>
      <trkpt lat="45.35838" lon="4.27987">
        <ele>661</ele>
        <time>2021-02-27T09:40:59Z</time>
      </trkpt>
      <trkpt lat="45.35846" lon="4.27992">
        <ele>660</ele>
        <time>2021-02-27T09:41:00Z</time>
      </trkpt>
      <trkpt lat="45.35853" lon="4.27996">
        <ele>659</ele>
        <time>2021-02-27T09:41:01Z</time>
      </trkpt>
      <trkpt lat="45.35861" lon="4.28">
        <ele>659</ele>
        <time>2021-02-27T09:41:02Z</time>
      </trkpt>
      <trkpt lat="45.3587" lon="4.28003">
        <ele>659</ele>
        <time>2021-02-27T09:41:03Z</time>
      </trkpt>
      <trkpt lat="45.35879" lon="4.28005">
        <ele>658</ele>
        <time>2021-02-27T09:41:04Z</time>
      </trkpt>
      <trkpt lat="45.35887" lon="4.28008">
        <ele>657</ele>
        <time>2021-02-27T09:41:05Z</time>
      </trkpt>
      <trkpt lat="45.35896" lon="4.28011">
        <ele>657</ele>
        <time>2021-02-27T09:41:06Z</time>
      </trkpt>
      <trkpt lat="45.35903" lon="4.28012">
        <ele>656</ele>
        <time>2021-02-27T09:41:07Z</time>
      </trkpt>
      <trkpt lat="45.3591" lon="4.28015">
        <ele>655</ele>
        <time>2021-02-27T09:41:08Z</time>
      </trkpt>
      <trkpt lat="45.35914" lon="4.28017">
        <ele>656</ele>
        <time>2021-02-27T09:41:09Z</time>
      </trkpt>
      <trkpt lat="45.35918" lon="4.2802">
        <ele>657</ele>
        <time>2021-02-27T09:41:10Z</time>
      </trkpt>
      <trkpt lat="45.35926" lon="4.28023">
        <ele>657</ele>
        <time>2021-02-27T09:41:11Z</time>
      </trkpt>
      <trkpt lat="45.35932" lon="4.28028">
        <ele>657</ele>
        <time>2021-02-27T09:41:12Z</time>
      </trkpt>
      <trkpt lat="45.35937" lon="4.28033">
        <ele>658</ele>
        <time>2021-02-27T09:41:13Z</time>
      </trkpt>
      <trkpt lat="45.35942" lon="4.28039">
        <ele>658</ele>
        <time>2021-02-27T09:41:14Z</time>
      </trkpt>
      <trkpt lat="45.35946" lon="4.28044">
        <ele>658</ele>
        <time>2021-02-27T09:41:15Z</time>
      </trkpt>
      <trkpt lat="45.3595" lon="4.28049">
        <ele>659</ele>
        <time>2021-02-27T09:41:16Z</time>
      </trkpt>
      <trkpt lat="45.35954" lon="4.28054">
        <ele>660</ele>
        <time>2021-02-27T09:41:17Z</time>
      </trkpt>
      <trkpt lat="45.35957" lon="4.28058">
        <ele>661</ele>
        <time>2021-02-27T09:41:18Z</time>
      </trkpt>
      <trkpt lat="45.3596" lon="4.28061">
        <ele>663</ele>
        <time>2021-02-27T09:41:19Z</time>
      </trkpt>
      <trkpt lat="45.35962" lon="4.28064">
        <ele>663</ele>
        <time>2021-02-27T09:41:20Z</time>
      </trkpt>
      <trkpt lat="45.35966" lon="4.28067">
        <ele>663</ele>
        <time>2021-02-27T09:41:21Z</time>
      </trkpt>
      <trkpt lat="45.3597" lon="4.2807">
        <ele>663</ele>
        <time>2021-02-27T09:41:23Z</time>
      </trkpt>
      <trkpt lat="45.35976" lon="4.28075">
        <ele>664</ele>
        <time>2021-02-27T09:41:25Z</time>
      </trkpt>
      <trkpt lat="45.3598" lon="4.28079">
        <ele>664</ele>
        <time>2021-02-27T09:41:26Z</time>
      </trkpt>
      <trkpt lat="45.35982" lon="4.28085">
        <ele>665</ele>
        <time>2021-02-27T09:41:28Z</time>
      </trkpt>
      <trkpt lat="45.35982" lon="4.28091">
        <ele>666</ele>
        <time>2021-02-27T09:41:30Z</time>
      </trkpt>
      <trkpt lat="45.35982" lon="4.28096">
        <ele>666</ele>
        <time>2021-02-27T09:41:32Z</time>
      </trkpt>
      <trkpt lat="45.35977" lon="4.28104">
        <ele>668</ele>
        <time>2021-02-27T09:41:38Z</time>
      </trkpt>
      <trkpt lat="45.35973" lon="4.28109">
        <ele>668</ele>
        <time>2021-02-27T09:41:41Z</time>
      </trkpt>
      <trkpt lat="45.35969" lon="4.28112">
        <ele>668</ele>
        <time>2021-02-27T09:41:43Z</time>
      </trkpt>
      <trkpt lat="45.35965" lon="4.28115">
        <ele>667</ele>
        <time>2021-02-27T09:41:44Z</time>
      </trkpt>
      <trkpt lat="45.35961" lon="4.28118">
        <ele>667</ele>
        <time>2021-02-27T09:41:46Z</time>
      </trkpt>
      <trkpt lat="45.35957" lon="4.2812">
        <ele>667</ele>
        <time>2021-02-27T09:41:47Z</time>
      </trkpt>
      <trkpt lat="45.35954" lon="4.28122">
        <ele>667</ele>
        <time>2021-02-27T09:41:48Z</time>
      </trkpt>
      <trkpt lat="45.35951" lon="4.28124">
        <ele>667</ele>
        <time>2021-02-27T09:41:49Z</time>
      </trkpt>
      <trkpt lat="45.35948" lon="4.28125">
        <ele>667</ele>
        <time>2021-02-27T09:41:50Z</time>
      </trkpt>
      <trkpt lat="45.35943" lon="4.28127">
        <ele>666</ele>
        <time>2021-02-27T09:41:52Z</time>
      </trkpt>
      <trkpt lat="45.35939" lon="4.28128">
        <ele>664</ele>
        <time>2021-02-27T09:41:53Z</time>
      </trkpt>
      <trkpt lat="45.35934" lon="4.28129">
        <ele>664</ele>
        <time>2021-02-27T09:41:54Z</time>
      </trkpt>
      <trkpt lat="45.35929" lon="4.28131">
        <ele>663</ele>
        <time>2021-02-27T09:41:55Z</time>
      </trkpt>
      <trkpt lat="45.35924" lon="4.28133">
        <ele>662</ele>
        <time>2021-02-27T09:41:56Z</time>
      </trkpt>
      <trkpt lat="45.35918" lon="4.28137">
        <ele>661</ele>
        <time>2021-02-27T09:41:57Z</time>
      </trkpt>
      <trkpt lat="45.35908" lon="4.28141">
        <ele>660</ele>
        <time>2021-02-27T09:41:58Z</time>
      </trkpt>
      <trkpt lat="45.35899" lon="4.28146">
        <ele>659</ele>
        <time>2021-02-27T09:41:59Z</time>
      </trkpt>
      <trkpt lat="45.3589" lon="4.28152">
        <ele>658</ele>
        <time>2021-02-27T09:42:00Z</time>
      </trkpt>
      <trkpt lat="45.35882" lon="4.28158">
        <ele>657</ele>
        <time>2021-02-27T09:42:01Z</time>
      </trkpt>
      <trkpt lat="45.35874" lon="4.28165">
        <ele>656</ele>
        <time>2021-02-27T09:42:02Z</time>
      </trkpt>
      <trkpt lat="45.35866" lon="4.28172">
        <ele>655</ele>
        <time>2021-02-27T09:42:03Z</time>
      </trkpt>
      <trkpt lat="45.35859" lon="4.28177">
        <ele>655</ele>
        <time>2021-02-27T09:42:04Z</time>
      </trkpt>
      <trkpt lat="45.35853" lon="4.28184">
        <ele>653</ele>
        <time>2021-02-27T09:42:05Z</time>
      </trkpt>
      <trkpt lat="45.35847" lon="4.28191">
        <ele>652</ele>
        <time>2021-02-27T09:42:06Z</time>
      </trkpt>
      <trkpt lat="45.35841" lon="4.28198">
        <ele>650</ele>
        <time>2021-02-27T09:42:07Z</time>
      </trkpt>
      <trkpt lat="45.35835" lon="4.28207">
        <ele>650</ele>
        <time>2021-02-27T09:42:08Z</time>
      </trkpt>
      <trkpt lat="45.35829" lon="4.28215">
        <ele>649</ele>
        <time>2021-02-27T09:42:09Z</time>
      </trkpt>
      <trkpt lat="45.35823" lon="4.28224">
        <ele>647</ele>
        <time>2021-02-27T09:42:10Z</time>
      </trkpt>
      <trkpt lat="45.35817" lon="4.28234">
        <ele>647</ele>
        <time>2021-02-27T09:42:11Z</time>
      </trkpt>
      <trkpt lat="45.35812" lon="4.28245">
        <ele>646</ele>
        <time>2021-02-27T09:42:12Z</time>
      </trkpt>
      <trkpt lat="45.35807" lon="4.28255">
        <ele>645</ele>
        <time>2021-02-27T09:42:13Z</time>
      </trkpt>
      <trkpt lat="45.35802" lon="4.28264">
        <ele>644</ele>
        <time>2021-02-27T09:42:14Z</time>
      </trkpt>
      <trkpt lat="45.35798" lon="4.28272">
        <ele>644</ele>
        <time>2021-02-27T09:42:15Z</time>
      </trkpt>
      <trkpt lat="45.35793" lon="4.28279">
        <ele>642</ele>
        <time>2021-02-27T09:42:16Z</time>
      </trkpt>
      <trkpt lat="45.35788" lon="4.28285">
        <ele>642</ele>
        <time>2021-02-27T09:42:17Z</time>
      </trkpt>
      <trkpt lat="45.35783" lon="4.28292">
        <ele>642</ele>
        <time>2021-02-27T09:42:18Z</time>
      </trkpt>
      <trkpt lat="45.35781" lon="4.283">
        <ele>641</ele>
        <time>2021-02-27T09:42:19Z</time>
      </trkpt>
      <trkpt lat="45.35777" lon="4.28309">
        <ele>640</ele>
        <time>2021-02-27T09:42:20Z</time>
      </trkpt>
      <trkpt lat="45.35774" lon="4.28316">
        <ele>640</ele>
        <time>2021-02-27T09:42:21Z</time>
      </trkpt>
      <trkpt lat="45.35771" lon="4.28323">
        <ele>639</ele>
        <time>2021-02-27T09:42:22Z</time>
      </trkpt>
      <trkpt lat="45.35767" lon="4.28333">
        <ele>638</ele>
        <time>2021-02-27T09:42:23Z</time>
      </trkpt>
      <trkpt lat="45.35765" lon="4.28345">
        <ele>637</ele>
        <time>2021-02-27T09:42:24Z</time>
      </trkpt>
      <trkpt lat="45.35766" lon="4.28355">
        <ele>637</ele>
        <time>2021-02-27T09:42:25Z</time>
      </trkpt>
      <trkpt lat="45.35766" lon="4.28365">
        <ele>639</ele>
        <time>2021-02-27T09:42:26Z</time>
      </trkpt>
      <trkpt lat="45.35768" lon="4.28373">
        <ele>639</ele>
        <time>2021-02-27T09:42:27Z</time>
      </trkpt>
      <trkpt lat="45.3577" lon="4.28379">
        <ele>640</ele>
        <time>2021-02-27T09:42:28Z</time>
      </trkpt>
      <trkpt lat="45.35772" lon="4.28382">
        <ele>640</ele>
        <time>2021-02-27T09:42:29Z</time>
      </trkpt>
      <trkpt lat="45.35775" lon="4.28386">
        <ele>641</ele>
        <time>2021-02-27T09:42:30Z</time>
      </trkpt>
      <trkpt lat="45.35779" lon="4.28389">
        <ele>641</ele>
        <time>2021-02-27T09:42:31Z</time>
      </trkpt>
      <trkpt lat="45.35782" lon="4.28392">
        <ele>641</ele>
        <time>2021-02-27T09:42:32Z</time>
      </trkpt>
      <trkpt lat="45.35786" lon="4.28397">
        <ele>640</ele>
        <time>2021-02-27T09:42:33Z</time>
      </trkpt>
      <trkpt lat="45.35789" lon="4.28402">
        <ele>641</ele>
        <time>2021-02-27T09:42:34Z</time>
      </trkpt>
      <trkpt lat="45.35792" lon="4.28406">
        <ele>641</ele>
        <time>2021-02-27T09:42:35Z</time>
      </trkpt>
      <trkpt lat="45.35795" lon="4.28408">
        <ele>641</ele>
        <time>2021-02-27T09:42:36Z</time>
      </trkpt>
      <trkpt lat="45.35798" lon="4.2841">
        <ele>641</ele>
        <time>2021-02-27T09:42:37Z</time>
      </trkpt>
      <trkpt lat="45.35802" lon="4.28411">
        <ele>641</ele>
        <time>2021-02-27T09:42:38Z</time>
      </trkpt>
      <trkpt lat="45.35806" lon="4.28412">
        <ele>640</ele>
        <time>2021-02-27T09:42:39Z</time>
      </trkpt>
      <trkpt lat="45.3581" lon="4.28412">
        <ele>640</ele>
        <time>2021-02-27T09:42:40Z</time>
      </trkpt>
      <trkpt lat="45.35815" lon="4.28412">
        <ele>640</ele>
        <time>2021-02-27T09:42:41Z</time>
      </trkpt>
      <trkpt lat="45.35818" lon="4.28413">
        <ele>640</ele>
        <time>2021-02-27T09:42:42Z</time>
      </trkpt>
      <trkpt lat="45.35822" lon="4.28414">
        <ele>640</ele>
        <time>2021-02-27T09:42:44Z</time>
      </trkpt>
      <trkpt lat="45.35826" lon="4.28416">
        <ele>640</ele>
        <time>2021-02-27T09:42:46Z</time>
      </trkpt>
      <trkpt lat="45.3583" lon="4.28417">
        <ele>639</ele>
        <time>2021-02-27T09:42:47Z</time>
      </trkpt>
      <trkpt lat="45.35833" lon="4.28418">
        <ele>639</ele>
        <time>2021-02-27T09:42:48Z</time>
      </trkpt>
      <trkpt lat="45.35835" lon="4.2842">
        <ele>639</ele>
        <time>2021-02-27T09:42:49Z</time>
      </trkpt>
      <trkpt lat="45.35838" lon="4.28421">
        <ele>640</ele>
        <time>2021-02-27T09:42:50Z</time>
      </trkpt>
      <trkpt lat="45.35841" lon="4.28423">
        <ele>639</ele>
        <time>2021-02-27T09:42:51Z</time>
      </trkpt>
      <trkpt lat="45.35846" lon="4.28426">
        <ele>638</ele>
        <time>2021-02-27T09:42:53Z</time>
      </trkpt>
      <trkpt lat="45.35849" lon="4.28428">
        <ele>638</ele>
        <time>2021-02-27T09:42:54Z</time>
      </trkpt>
      <trkpt lat="45.35852" lon="4.2843">
        <ele>638</ele>
        <time>2021-02-27T09:42:55Z</time>
      </trkpt>
      <trkpt lat="45.35857" lon="4.28433">
        <ele>638</ele>
        <time>2021-02-27T09:42:56Z</time>
      </trkpt>
      <trkpt lat="45.3586" lon="4.28436">
        <ele>638</ele>
        <time>2021-02-27T09:42:57Z</time>
      </trkpt>
      <trkpt lat="45.35863" lon="4.28439">
        <ele>638</ele>
        <time>2021-02-27T09:42:58Z</time>
      </trkpt>
      <trkpt lat="45.35868" lon="4.28442">
        <ele>639</ele>
        <time>2021-02-27T09:42:59Z</time>
      </trkpt>
      <trkpt lat="45.35872" lon="4.28445">
        <ele>638</ele>
        <time>2021-02-27T09:43:00Z</time>
      </trkpt>
      <trkpt lat="45.35875" lon="4.28447">
        <ele>638</ele>
        <time>2021-02-27T09:43:01Z</time>
      </trkpt>
      <trkpt lat="45.35878" lon="4.2845">
        <ele>638</ele>
        <time>2021-02-27T09:43:02Z</time>
      </trkpt>
      <trkpt lat="45.35881" lon="4.28453">
        <ele>639</ele>
        <time>2021-02-27T09:43:03Z</time>
      </trkpt>
      <trkpt lat="45.35884" lon="4.28455">
        <ele>638</ele>
        <time>2021-02-27T09:43:04Z</time>
      </trkpt>
      <trkpt lat="45.35889" lon="4.28459">
        <ele>639</ele>
        <time>2021-02-27T09:43:05Z</time>
      </trkpt>
      <trkpt lat="45.35893" lon="4.28462">
        <ele>639</ele>
        <time>2021-02-27T09:43:06Z</time>
      </trkpt>
      <trkpt lat="45.35897" lon="4.28465">
        <ele>638</ele>
        <time>2021-02-27T09:43:07Z</time>
      </trkpt>
      <trkpt lat="45.35902" lon="4.28468">
        <ele>638</ele>
        <time>2021-02-27T09:43:08Z</time>
      </trkpt>
      <trkpt lat="45.35905" lon="4.28471">
        <ele>639</ele>
        <time>2021-02-27T09:43:09Z</time>
      </trkpt>
      <trkpt lat="45.35909" lon="4.28476">
        <ele>638</ele>
        <time>2021-02-27T09:43:11Z</time>
      </trkpt>
      <trkpt lat="45.35914" lon="4.28481">
        <ele>639</ele>
        <time>2021-02-27T09:43:12Z</time>
      </trkpt>
      <trkpt lat="45.35917" lon="4.28484">
        <ele>639</ele>
        <time>2021-02-27T09:43:13Z</time>
      </trkpt>
      <trkpt lat="45.3592" lon="4.28487">
        <ele>638</ele>
        <time>2021-02-27T09:43:14Z</time>
      </trkpt>
      <trkpt lat="45.35923" lon="4.28492">
        <ele>638</ele>
        <time>2021-02-27T09:43:16Z</time>
      </trkpt>
      <trkpt lat="45.35927" lon="4.28496">
        <ele>638</ele>
        <time>2021-02-27T09:43:17Z</time>
      </trkpt>
      <trkpt lat="45.3593" lon="4.285">
        <ele>638</ele>
        <time>2021-02-27T09:43:18Z</time>
      </trkpt>
      <trkpt lat="45.35932" lon="4.28506">
        <ele>638</ele>
        <time>2021-02-27T09:43:20Z</time>
      </trkpt>
      <trkpt lat="45.35937" lon="4.28512">
        <ele>638</ele>
        <time>2021-02-27T09:43:22Z</time>
      </trkpt>
      <trkpt lat="45.35941" lon="4.28517">
        <ele>638</ele>
        <time>2021-02-27T09:43:23Z</time>
      </trkpt>
      <trkpt lat="45.35944" lon="4.28522">
        <ele>638</ele>
        <time>2021-02-27T09:43:24Z</time>
      </trkpt>
      <trkpt lat="45.35948" lon="4.28526">
        <ele>638</ele>
        <time>2021-02-27T09:43:25Z</time>
      </trkpt>
      <trkpt lat="45.35951" lon="4.2853">
        <ele>638</ele>
        <time>2021-02-27T09:43:26Z</time>
      </trkpt>
      <trkpt lat="45.35956" lon="4.28533">
        <ele>638</ele>
        <time>2021-02-27T09:43:27Z</time>
      </trkpt>
      <trkpt lat="45.35959" lon="4.28535">
        <ele>638</ele>
        <time>2021-02-27T09:43:28Z</time>
      </trkpt>
      <trkpt lat="45.35963" lon="4.28538">
        <ele>638</ele>
        <time>2021-02-27T09:43:29Z</time>
      </trkpt>
      <trkpt lat="45.35967" lon="4.28542">
        <ele>638</ele>
        <time>2021-02-27T09:43:30Z</time>
      </trkpt>
      <trkpt lat="45.35971" lon="4.28545">
        <ele>638</ele>
        <time>2021-02-27T09:43:31Z</time>
      </trkpt>
      <trkpt lat="45.35974" lon="4.2855">
        <ele>638</ele>
        <time>2021-02-27T09:43:33Z</time>
      </trkpt>
      <trkpt lat="45.35977" lon="4.28554">
        <ele>639</ele>
        <time>2021-02-27T09:43:34Z</time>
      </trkpt>
      <trkpt lat="45.35979" lon="4.28558">
        <ele>639</ele>
        <time>2021-02-27T09:43:35Z</time>
      </trkpt>
      <trkpt lat="45.35982" lon="4.28562">
        <ele>638</ele>
        <time>2021-02-27T09:43:36Z</time>
      </trkpt>
      <trkpt lat="45.35984" lon="4.28565">
        <ele>638</ele>
        <time>2021-02-27T09:43:37Z</time>
      </trkpt>
      <trkpt lat="45.35987" lon="4.28569">
        <ele>638</ele>
        <time>2021-02-27T09:43:38Z</time>
      </trkpt>
      <trkpt lat="45.35989" lon="4.28572">
        <ele>638</ele>
        <time>2021-02-27T09:43:39Z</time>
      </trkpt>
      <trkpt lat="45.35991" lon="4.28574">
        <ele>638</ele>
        <time>2021-02-27T09:43:40Z</time>
      </trkpt>
      <trkpt lat="45.35994" lon="4.28575">
        <ele>638</ele>
        <time>2021-02-27T09:43:41Z</time>
      </trkpt>
      <trkpt lat="45.35997" lon="4.28579">
        <ele>638</ele>
        <time>2021-02-27T09:43:43Z</time>
      </trkpt>
      <trkpt lat="45.36" lon="4.28583">
        <ele>638</ele>
        <time>2021-02-27T09:43:45Z</time>
      </trkpt>
      <trkpt lat="45.36003" lon="4.28587">
        <ele>638</ele>
        <time>2021-02-27T09:43:46Z</time>
      </trkpt>
      <trkpt lat="45.36007" lon="4.28591">
        <ele>639</ele>
        <time>2021-02-27T09:43:48Z</time>
      </trkpt>
      <trkpt lat="45.36011" lon="4.28596">
        <ele>638</ele>
        <time>2021-02-27T09:43:49Z</time>
      </trkpt>
      <trkpt lat="45.36016" lon="4.28599">
        <ele>639</ele>
        <time>2021-02-27T09:43:50Z</time>
      </trkpt>
      <trkpt lat="45.3602" lon="4.28602">
        <ele>638</ele>
        <time>2021-02-27T09:43:51Z</time>
      </trkpt>
      <trkpt lat="45.36025" lon="4.28605">
        <ele>638</ele>
        <time>2021-02-27T09:43:52Z</time>
      </trkpt>
      <trkpt lat="45.36031" lon="4.28608">
        <ele>638</ele>
        <time>2021-02-27T09:43:53Z</time>
      </trkpt>
      <trkpt lat="45.36038" lon="4.28612">
        <ele>638</ele>
        <time>2021-02-27T09:43:54Z</time>
      </trkpt>
      <trkpt lat="45.36045" lon="4.28617">
        <ele>638</ele>
        <time>2021-02-27T09:43:55Z</time>
      </trkpt>
      <trkpt lat="45.36052" lon="4.28623">
        <ele>638</ele>
        <time>2021-02-27T09:43:56Z</time>
      </trkpt>
      <trkpt lat="45.36056" lon="4.28627">
        <ele>639</ele>
        <time>2021-02-27T09:43:57Z</time>
      </trkpt>
      <trkpt lat="45.36059" lon="4.28632">
        <ele>639</ele>
        <time>2021-02-27T09:43:58Z</time>
      </trkpt>
      <trkpt lat="45.36061" lon="4.28636">
        <ele>639</ele>
        <time>2021-02-27T09:43:59Z</time>
      </trkpt>
      <trkpt lat="45.36063" lon="4.28641">
        <ele>639</ele>
        <time>2021-02-27T09:44:00Z</time>
      </trkpt>
      <trkpt lat="45.36065" lon="4.28645">
        <ele>639</ele>
        <time>2021-02-27T09:44:01Z</time>
      </trkpt>
      <trkpt lat="45.36066" lon="4.28649">
        <ele>639</ele>
        <time>2021-02-27T09:44:02Z</time>
      </trkpt>
      <trkpt lat="45.36066" lon="4.28654">
        <ele>638</ele>
        <time>2021-02-27T09:44:03Z</time>
      </trkpt>
      <trkpt lat="45.36065" lon="4.28659">
        <ele>639</ele>
        <time>2021-02-27T09:44:04Z</time>
      </trkpt>
      <trkpt lat="45.36065" lon="4.28663">
        <ele>639</ele>
        <time>2021-02-27T09:44:05Z</time>
      </trkpt>
      <trkpt lat="45.36065" lon="4.28669">
        <ele>638</ele>
        <time>2021-02-27T09:44:07Z</time>
      </trkpt>
      <trkpt lat="45.36064" lon="4.28675">
        <ele>638</ele>
        <time>2021-02-27T09:44:08Z</time>
      </trkpt>
      <trkpt lat="45.36063" lon="4.28681">
        <ele>639</ele>
        <time>2021-02-27T09:44:09Z</time>
      </trkpt>
      <trkpt lat="45.36061" lon="4.28685">
        <ele>639</ele>
        <time>2021-02-27T09:44:10Z</time>
      </trkpt>
      <trkpt lat="45.36059" lon="4.2869">
        <ele>639</ele>
        <time>2021-02-27T09:44:11Z</time>
      </trkpt>
      <trkpt lat="45.36058" lon="4.28695">
        <ele>639</ele>
        <time>2021-02-27T09:44:12Z</time>
      </trkpt>
      <trkpt lat="45.36055" lon="4.28699">
        <ele>639</ele>
        <time>2021-02-27T09:44:13Z</time>
      </trkpt>
      <trkpt lat="45.36053" lon="4.28704">
        <ele>638</ele>
        <time>2021-02-27T09:44:14Z</time>
      </trkpt>
      <trkpt lat="45.36051" lon="4.28708">
        <ele>639</ele>
        <time>2021-02-27T09:44:15Z</time>
      </trkpt>
      <trkpt lat="45.36048" lon="4.28712">
        <ele>638</ele>
        <time>2021-02-27T09:44:16Z</time>
      </trkpt>
      <trkpt lat="45.36046" lon="4.28717">
        <ele>638</ele>
        <time>2021-02-27T09:44:17Z</time>
      </trkpt>
      <trkpt lat="45.36043" lon="4.28721">
        <ele>638</ele>
        <time>2021-02-27T09:44:18Z</time>
      </trkpt>
      <trkpt lat="45.3604" lon="4.28726">
        <ele>638</ele>
        <time>2021-02-27T09:44:19Z</time>
      </trkpt>
      <trkpt lat="45.36037" lon="4.28731">
        <ele>638</ele>
        <time>2021-02-27T09:44:20Z</time>
      </trkpt>
      <trkpt lat="45.36035" lon="4.28736">
        <ele>638</ele>
        <time>2021-02-27T09:44:21Z</time>
      </trkpt>
      <trkpt lat="45.36032" lon="4.28741">
        <ele>637</ele>
        <time>2021-02-27T09:44:22Z</time>
      </trkpt>
      <trkpt lat="45.3603" lon="4.28745">
        <ele>638</ele>
        <time>2021-02-27T09:44:23Z</time>
      </trkpt>
      <trkpt lat="45.36028" lon="4.28749">
        <ele>637</ele>
        <time>2021-02-27T09:44:24Z</time>
      </trkpt>
      <trkpt lat="45.36026" lon="4.28752">
        <ele>638</ele>
        <time>2021-02-27T09:44:25Z</time>
      </trkpt>
      <trkpt lat="45.36024" lon="4.28755">
        <ele>637</ele>
        <time>2021-02-27T09:44:26Z</time>
      </trkpt>
      <trkpt lat="45.36021" lon="4.2876">
        <ele>637</ele>
        <time>2021-02-27T09:44:28Z</time>
      </trkpt>
      <trkpt lat="45.36019" lon="4.28765">
        <ele>638</ele>
        <time>2021-02-27T09:44:29Z</time>
      </trkpt>
      <trkpt lat="45.36016" lon="4.28769">
        <ele>638</ele>
        <time>2021-02-27T09:44:30Z</time>
      </trkpt>
      <trkpt lat="45.36014" lon="4.28772">
        <ele>638</ele>
        <time>2021-02-27T09:44:31Z</time>
      </trkpt>
      <trkpt lat="45.36011" lon="4.28777">
        <ele>638</ele>
        <time>2021-02-27T09:44:32Z</time>
      </trkpt>
      <trkpt lat="45.36009" lon="4.28781">
        <ele>638</ele>
        <time>2021-02-27T09:44:33Z</time>
      </trkpt>
      <trkpt lat="45.36006" lon="4.28787">
        <ele>638</ele>
        <time>2021-02-27T09:44:34Z</time>
      </trkpt>
      <trkpt lat="45.36003" lon="4.28792">
        <ele>638</ele>
        <time>2021-02-27T09:44:35Z</time>
      </trkpt>
      <trkpt lat="45.36002" lon="4.28796">
        <ele>638</ele>
        <time>2021-02-27T09:44:36Z</time>
      </trkpt>
      <trkpt lat="45.35999" lon="4.288">
        <ele>638</ele>
        <time>2021-02-27T09:44:37Z</time>
      </trkpt>
      <trkpt lat="45.35997" lon="4.28805">
        <ele>638</ele>
        <time>2021-02-27T09:44:38Z</time>
      </trkpt>
      <trkpt lat="45.35994" lon="4.28809">
        <ele>638</ele>
        <time>2021-02-27T09:44:39Z</time>
      </trkpt>
      <trkpt lat="45.35992" lon="4.28813">
        <ele>638</ele>
        <time>2021-02-27T09:44:40Z</time>
      </trkpt>
      <trkpt lat="45.35989" lon="4.28817">
        <ele>638</ele>
        <time>2021-02-27T09:44:41Z</time>
      </trkpt>
      <trkpt lat="45.35987" lon="4.2882">
        <ele>638</ele>
        <time>2021-02-27T09:44:42Z</time>
      </trkpt>
      <trkpt lat="45.35984" lon="4.28824">
        <ele>638</ele>
        <time>2021-02-27T09:44:43Z</time>
      </trkpt>
      <trkpt lat="45.35982" lon="4.28828">
        <ele>638</ele>
        <time>2021-02-27T09:44:44Z</time>
      </trkpt>
      <trkpt lat="45.35979" lon="4.28833">
        <ele>638</ele>
        <time>2021-02-27T09:44:45Z</time>
      </trkpt>
      <trkpt lat="45.35976" lon="4.28837">
        <ele>638</ele>
        <time>2021-02-27T09:44:46Z</time>
      </trkpt>
      <trkpt lat="45.35974" lon="4.28842">
        <ele>638</ele>
        <time>2021-02-27T09:44:47Z</time>
      </trkpt>
      <trkpt lat="45.35971" lon="4.28846">
        <ele>638</ele>
        <time>2021-02-27T09:44:48Z</time>
      </trkpt>
      <trkpt lat="45.35969" lon="4.2885">
        <ele>638</ele>
        <time>2021-02-27T09:44:49Z</time>
      </trkpt>
      <trkpt lat="45.35966" lon="4.28854">
        <ele>637</ele>
        <time>2021-02-27T09:44:50Z</time>
      </trkpt>
      <trkpt lat="45.35964" lon="4.28856">
        <ele>637</ele>
        <time>2021-02-27T09:44:51Z</time>
      </trkpt>
      <trkpt lat="45.35961" lon="4.2886">
        <ele>637</ele>
        <time>2021-02-27T09:44:52Z</time>
      </trkpt>
      <trkpt lat="45.35958" lon="4.28865">
        <ele>637</ele>
        <time>2021-02-27T09:44:53Z</time>
      </trkpt>
      <trkpt lat="45.35955" lon="4.28869">
        <ele>637</ele>
        <time>2021-02-27T09:44:54Z</time>
      </trkpt>
      <trkpt lat="45.35952" lon="4.28873">
        <ele>637</ele>
        <time>2021-02-27T09:44:55Z</time>
      </trkpt>
      <trkpt lat="45.35949" lon="4.28876">
        <ele>637</ele>
        <time>2021-02-27T09:44:56Z</time>
      </trkpt>
      <trkpt lat="45.35946" lon="4.2888">
        <ele>638</ele>
        <time>2021-02-27T09:44:57Z</time>
      </trkpt>
      <trkpt lat="45.35944" lon="4.28883">
        <ele>637</ele>
        <time>2021-02-27T09:44:58Z</time>
      </trkpt>
      <trkpt lat="45.35941" lon="4.28887">
        <ele>637</ele>
        <time>2021-02-27T09:45:00Z</time>
      </trkpt>
      <trkpt lat="45.35938" lon="4.28891">
        <ele>637</ele>
        <time>2021-02-27T09:45:02Z</time>
      </trkpt>
      <trkpt lat="45.35935" lon="4.28895">
        <ele>638</ele>
        <time>2021-02-27T09:45:04Z</time>
      </trkpt>
      <trkpt lat="45.35932" lon="4.28899">
        <ele>638</ele>
        <time>2021-02-27T09:45:06Z</time>
      </trkpt>
      <trkpt lat="45.35929" lon="4.28902">
        <ele>638</ele>
        <time>2021-02-27T09:45:07Z</time>
      </trkpt>
      <trkpt lat="45.35925" lon="4.28907">
        <ele>638</ele>
        <time>2021-02-27T09:45:09Z</time>
      </trkpt>
      <trkpt lat="45.35922" lon="4.28911">
        <ele>638</ele>
        <time>2021-02-27T09:45:10Z</time>
      </trkpt>
      <trkpt lat="45.35917" lon="4.28913">
        <ele>638</ele>
        <time>2021-02-27T09:45:11Z</time>
      </trkpt>
      <trkpt lat="45.35914" lon="4.28915">
        <ele>638</ele>
        <time>2021-02-27T09:45:12Z</time>
      </trkpt>
      <trkpt lat="45.3591" lon="4.28917">
        <ele>638</ele>
        <time>2021-02-27T09:45:14Z</time>
      </trkpt>
      <trkpt lat="45.35906" lon="4.28919">
        <ele>638</ele>
        <time>2021-02-27T09:45:15Z</time>
      </trkpt>
      <trkpt lat="45.35903" lon="4.28922">
        <ele>638</ele>
        <time>2021-02-27T09:45:16Z</time>
      </trkpt>
      <trkpt lat="45.35898" lon="4.28925">
        <ele>638</ele>
        <time>2021-02-27T09:45:17Z</time>
      </trkpt>
      <trkpt lat="45.35893" lon="4.28928">
        <ele>638</ele>
        <time>2021-02-27T09:45:19Z</time>
      </trkpt>
      <trkpt lat="45.3589" lon="4.28934">
        <ele>638</ele>
        <time>2021-02-27T09:45:21Z</time>
      </trkpt>
      <trkpt lat="45.35887" lon="4.28939">
        <ele>638</ele>
        <time>2021-02-27T09:45:22Z</time>
      </trkpt>
      <trkpt lat="45.35885" lon="4.28943">
        <ele>638</ele>
        <time>2021-02-27T09:45:23Z</time>
      </trkpt>
      <trkpt lat="45.35883" lon="4.28948">
        <ele>639</ele>
        <time>2021-02-27T09:45:24Z</time>
      </trkpt>
      <trkpt lat="45.35882" lon="4.28952">
        <ele>639</ele>
        <time>2021-02-27T09:45:25Z</time>
      </trkpt>
      <trkpt lat="45.3588" lon="4.28957">
        <ele>639</ele>
        <time>2021-02-27T09:45:26Z</time>
      </trkpt>
      <trkpt lat="45.3588" lon="4.28962">
        <ele>638</ele>
        <time>2021-02-27T09:45:27Z</time>
      </trkpt>
      <trkpt lat="45.35878" lon="4.28967">
        <ele>638</ele>
        <time>2021-02-27T09:45:28Z</time>
      </trkpt>
      <trkpt lat="45.35877" lon="4.28973">
        <ele>638</ele>
        <time>2021-02-27T09:45:29Z</time>
      </trkpt>
      <trkpt lat="45.35876" lon="4.28977">
        <ele>639</ele>
        <time>2021-02-27T09:45:30Z</time>
      </trkpt>
      <trkpt lat="45.35874" lon="4.28982">
        <ele>638</ele>
        <time>2021-02-27T09:45:31Z</time>
      </trkpt>
      <trkpt lat="45.35873" lon="4.28989">
        <ele>638</ele>
        <time>2021-02-27T09:45:32Z</time>
      </trkpt>
      <trkpt lat="45.35872" lon="4.28994">
        <ele>639</ele>
        <time>2021-02-27T09:45:33Z</time>
      </trkpt>
      <trkpt lat="45.35871" lon="4.29001">
        <ele>639</ele>
        <time>2021-02-27T09:45:34Z</time>
      </trkpt>
      <trkpt lat="45.3587" lon="4.29008">
        <ele>639</ele>
        <time>2021-02-27T09:45:35Z</time>
      </trkpt>
      <trkpt lat="45.35868" lon="4.29016">
        <ele>639</ele>
        <time>2021-02-27T09:45:36Z</time>
      </trkpt>
      <trkpt lat="45.35867" lon="4.29023">
        <ele>639</ele>
        <time>2021-02-27T09:45:37Z</time>
      </trkpt>
      <trkpt lat="45.35865" lon="4.29031">
        <ele>639</ele>
        <time>2021-02-27T09:45:38Z</time>
      </trkpt>
      <trkpt lat="45.35863" lon="4.29038">
        <ele>639</ele>
        <time>2021-02-27T09:45:39Z</time>
      </trkpt>
      <trkpt lat="45.35861" lon="4.29043">
        <ele>639</ele>
        <time>2021-02-27T09:45:40Z</time>
      </trkpt>
      <trkpt lat="45.35858" lon="4.29051">
        <ele>639</ele>
        <time>2021-02-27T09:45:41Z</time>
      </trkpt>
      <trkpt lat="45.35855" lon="4.29057">
        <ele>639</ele>
        <time>2021-02-27T09:45:42Z</time>
      </trkpt>
      <trkpt lat="45.35851" lon="4.29065">
        <ele>639</ele>
        <time>2021-02-27T09:45:43Z</time>
      </trkpt>
      <trkpt lat="45.35847" lon="4.29073">
        <ele>639</ele>
        <time>2021-02-27T09:45:44Z</time>
      </trkpt>
      <trkpt lat="45.35844" lon="4.2908">
        <ele>639</ele>
        <time>2021-02-27T09:45:45Z</time>
      </trkpt>
      <trkpt lat="45.3584" lon="4.29086">
        <ele>639</ele>
        <time>2021-02-27T09:45:46Z</time>
      </trkpt>
      <trkpt lat="45.35837" lon="4.29088">
        <ele>639</ele>
        <time>2021-02-27T09:45:48Z</time>
      </trkpt>
      <trkpt lat="45.35832" lon="4.29087">
        <ele>639</ele>
        <time>2021-02-27T09:45:50Z</time>
      </trkpt>
      <trkpt lat="45.35829" lon="4.29085">
        <ele>638</ele>
        <time>2021-02-27T09:45:51Z</time>
      </trkpt>
      <trkpt lat="45.35825" lon="4.29083">
        <ele>638</ele>
        <time>2021-02-27T09:45:52Z</time>
      </trkpt>
      <trkpt lat="45.35822" lon="4.29085">
        <ele>638</ele>
        <time>2021-02-27T09:45:54Z</time>
      </trkpt>
      <trkpt lat="45.35818" lon="4.29084">
        <ele>639</ele>
        <time>2021-02-27T09:45:56Z</time>
      </trkpt>
      <trkpt lat="45.35814" lon="4.29084">
        <ele>639</ele>
        <time>2021-02-27T09:45:58Z</time>
      </trkpt>
      <trkpt lat="45.3581" lon="4.29083">
        <ele>639</ele>
        <time>2021-02-27T09:46:00Z</time>
      </trkpt>
      <trkpt lat="45.35807" lon="4.29082">
        <ele>638</ele>
        <time>2021-02-27T09:46:01Z</time>
      </trkpt>
      <trkpt lat="45.35803" lon="4.29082">
        <ele>638</ele>
        <time>2021-02-27T09:46:03Z</time>
      </trkpt>
      <trkpt lat="45.35801" lon="4.29085">
        <ele>638</ele>
        <time>2021-02-27T09:46:04Z</time>
      </trkpt>
      <trkpt lat="45.35796" lon="4.29089">
        <ele>638</ele>
        <time>2021-02-27T09:46:05Z</time>
      </trkpt>
      <trkpt lat="45.35794" lon="4.29095">
        <ele>638</ele>
        <time>2021-02-27T09:46:07Z</time>
      </trkpt>
      <trkpt lat="45.35793" lon="4.291">
        <ele>639</ele>
        <time>2021-02-27T09:46:08Z</time>
      </trkpt>
      <trkpt lat="45.35792" lon="4.29104">
        <ele>639</ele>
        <time>2021-02-27T09:46:09Z</time>
      </trkpt>
      <trkpt lat="45.35791" lon="4.29111">
        <ele>639</ele>
        <time>2021-02-27T09:46:11Z</time>
      </trkpt>
      <trkpt lat="45.35788" lon="4.29115">
        <ele>638</ele>
        <time>2021-02-27T09:46:12Z</time>
      </trkpt>
      <trkpt lat="45.35786" lon="4.29119">
        <ele>639</ele>
        <time>2021-02-27T09:46:13Z</time>
      </trkpt>
      <trkpt lat="45.35785" lon="4.29123">
        <ele>638</ele>
        <time>2021-02-27T09:46:14Z</time>
      </trkpt>
      <trkpt lat="45.35785" lon="4.29128">
        <ele>638</ele>
        <time>2021-02-27T09:46:15Z</time>
      </trkpt>
      <trkpt lat="45.35786" lon="4.29133">
        <ele>638</ele>
        <time>2021-02-27T09:46:17Z</time>
      </trkpt>
      <trkpt lat="45.35788" lon="4.29137">
        <ele>638</ele>
        <time>2021-02-27T09:46:18Z</time>
      </trkpt>
      <trkpt lat="45.35789" lon="4.29142">
        <ele>639</ele>
        <time>2021-02-27T09:46:19Z</time>
      </trkpt>
      <trkpt lat="45.35789" lon="4.29147">
        <ele>638</ele>
        <time>2021-02-27T09:46:20Z</time>
      </trkpt>
      <trkpt lat="45.3579" lon="4.29151">
        <ele>638</ele>
        <time>2021-02-27T09:46:21Z</time>
      </trkpt>
      <trkpt lat="45.35789" lon="4.29157">
        <ele>639</ele>
        <time>2021-02-27T09:46:23Z</time>
      </trkpt>
      <trkpt lat="45.35788" lon="4.29162">
        <ele>638</ele>
        <time>2021-02-27T09:46:24Z</time>
      </trkpt>
      <trkpt lat="45.35786" lon="4.29165">
        <ele>639</ele>
        <time>2021-02-27T09:46:25Z</time>
      </trkpt>
      <trkpt lat="45.35785" lon="4.29169">
        <ele>638</ele>
        <time>2021-02-27T09:46:26Z</time>
      </trkpt>
      <trkpt lat="45.35783" lon="4.29175">
        <ele>639</ele>
        <time>2021-02-27T09:46:28Z</time>
      </trkpt>
      <trkpt lat="45.35781" lon="4.2918">
        <ele>638</ele>
        <time>2021-02-27T09:46:30Z</time>
      </trkpt>
      <trkpt lat="45.35779" lon="4.29185">
        <ele>638</ele>
        <time>2021-02-27T09:46:32Z</time>
      </trkpt>
      <trkpt lat="45.35776" lon="4.29191">
        <ele>638</ele>
        <time>2021-02-27T09:46:33Z</time>
      </trkpt>
      <trkpt lat="45.35772" lon="4.29197">
        <ele>639</ele>
        <time>2021-02-27T09:46:35Z</time>
      </trkpt>
      <trkpt lat="45.35769" lon="4.29201">
        <ele>638</ele>
        <time>2021-02-27T09:46:36Z</time>
      </trkpt>
      <trkpt lat="45.35767" lon="4.29205">
        <ele>639</ele>
        <time>2021-02-27T09:46:37Z</time>
      </trkpt>
      <trkpt lat="45.35764" lon="4.29209">
        <ele>639</ele>
        <time>2021-02-27T09:46:38Z</time>
      </trkpt>
      <trkpt lat="45.35761" lon="4.29212">
        <ele>638</ele>
        <time>2021-02-27T09:46:39Z</time>
      </trkpt>
      <trkpt lat="45.35757" lon="4.29218">
        <ele>638</ele>
        <time>2021-02-27T09:46:41Z</time>
      </trkpt>
      <trkpt lat="45.35752" lon="4.29222">
        <ele>638</ele>
        <time>2021-02-27T09:46:42Z</time>
      </trkpt>
      <trkpt lat="45.35748" lon="4.29227">
        <ele>638</ele>
        <time>2021-02-27T09:46:43Z</time>
      </trkpt>
      <trkpt lat="45.35744" lon="4.29231">
        <ele>638</ele>
        <time>2021-02-27T09:46:44Z</time>
      </trkpt>
      <trkpt lat="45.3574" lon="4.29236">
        <ele>638</ele>
        <time>2021-02-27T09:46:45Z</time>
      </trkpt>
      <trkpt lat="45.35737" lon="4.29239">
        <ele>638</ele>
        <time>2021-02-27T09:46:46Z</time>
      </trkpt>
      <trkpt lat="45.35735" lon="4.29246">
        <ele>638</ele>
        <time>2021-02-27T09:46:47Z</time>
      </trkpt>
      <trkpt lat="45.35733" lon="4.29255">
        <ele>638</ele>
        <time>2021-02-27T09:46:48Z</time>
      </trkpt>
      <trkpt lat="45.35735" lon="4.29265">
        <ele>638</ele>
        <time>2021-02-27T09:46:49Z</time>
      </trkpt>
      <trkpt lat="45.35735" lon="4.29272">
        <ele>637</ele>
        <time>2021-02-27T09:46:50Z</time>
      </trkpt>
      <trkpt lat="45.35737" lon="4.2928">
        <ele>638</ele>
        <time>2021-02-27T09:46:51Z</time>
      </trkpt>
      <trkpt lat="45.35738" lon="4.29288">
        <ele>637</ele>
        <time>2021-02-27T09:46:52Z</time>
      </trkpt>
      <trkpt lat="45.3574" lon="4.29294">
        <ele>638</ele>
        <time>2021-02-27T09:46:53Z</time>
      </trkpt>
      <trkpt lat="45.35744" lon="4.29302">
        <ele>638</ele>
        <time>2021-02-27T09:46:54Z</time>
      </trkpt>
      <trkpt lat="45.35747" lon="4.29312">
        <ele>638</ele>
        <time>2021-02-27T09:46:55Z</time>
      </trkpt>
      <trkpt lat="45.3575" lon="4.29319">
        <ele>638</ele>
        <time>2021-02-27T09:46:56Z</time>
      </trkpt>
      <trkpt lat="45.35753" lon="4.29325">
        <ele>637</ele>
        <time>2021-02-27T09:46:57Z</time>
      </trkpt>
      <trkpt lat="45.35756" lon="4.2933">
        <ele>638</ele>
        <time>2021-02-27T09:46:58Z</time>
      </trkpt>
      <trkpt lat="45.35759" lon="4.29335">
        <ele>638</ele>
        <time>2021-02-27T09:46:59Z</time>
      </trkpt>
      <trkpt lat="45.35763" lon="4.2934">
        <ele>638</ele>
        <time>2021-02-27T09:47:00Z</time>
      </trkpt>
      <trkpt lat="45.35766" lon="4.29345">
        <ele>638</ele>
        <time>2021-02-27T09:47:02Z</time>
      </trkpt>
      <trkpt lat="45.35769" lon="4.29349">
        <ele>638</ele>
        <time>2021-02-27T09:47:04Z</time>
      </trkpt>
      <trkpt lat="45.35774" lon="4.2935">
        <ele>638</ele>
        <time>2021-02-27T09:47:06Z</time>
      </trkpt>
      <trkpt lat="45.35777" lon="4.2935">
        <ele>639</ele>
        <time>2021-02-27T09:47:07Z</time>
      </trkpt>
      <trkpt lat="45.35781" lon="4.29349">
        <ele>639</ele>
        <time>2021-02-27T09:47:08Z</time>
      </trkpt>
      <trkpt lat="45.35785" lon="4.29348">
        <ele>639</ele>
        <time>2021-02-27T09:47:09Z</time>
      </trkpt>
      <trkpt lat="45.35788" lon="4.29347">
        <ele>639</ele>
        <time>2021-02-27T09:47:10Z</time>
      </trkpt>
      <trkpt lat="45.35792" lon="4.2935">
        <ele>638</ele>
        <time>2021-02-27T09:47:11Z</time>
      </trkpt>
      <trkpt lat="45.35796" lon="4.29349">
        <ele>638</ele>
        <time>2021-02-27T09:47:13Z</time>
      </trkpt>
      <trkpt lat="45.358" lon="4.29351">
        <ele>638</ele>
        <time>2021-02-27T09:47:14Z</time>
      </trkpt>
      <trkpt lat="45.35804" lon="4.29352">
        <ele>638</ele>
        <time>2021-02-27T09:47:15Z</time>
      </trkpt>
      <trkpt lat="45.35808" lon="4.29353">
        <ele>638</ele>
        <time>2021-02-27T09:47:17Z</time>
      </trkpt>
      <trkpt lat="45.35812" lon="4.29353">
        <ele>638</ele>
        <time>2021-02-27T09:47:19Z</time>
      </trkpt>
      <trkpt lat="45.35817" lon="4.29353">
        <ele>638</ele>
        <time>2021-02-27T09:47:21Z</time>
      </trkpt>
      <trkpt lat="45.35822" lon="4.29353">
        <ele>638</ele>
        <time>2021-02-27T09:47:23Z</time>
      </trkpt>
      <trkpt lat="45.35825" lon="4.29352">
        <ele>638</ele>
        <time>2021-02-27T09:47:24Z</time>
      </trkpt>
      <trkpt lat="45.35828" lon="4.29351">
        <ele>638</ele>
        <time>2021-02-27T09:47:25Z</time>
      </trkpt>
      <trkpt lat="45.35833" lon="4.2935">
        <ele>638</ele>
        <time>2021-02-27T09:47:27Z</time>
      </trkpt>
      <trkpt lat="45.35838" lon="4.2935">
        <ele>638</ele>
        <time>2021-02-27T09:47:29Z</time>
      </trkpt>
      <trkpt lat="45.35842" lon="4.29349">
        <ele>638</ele>
        <time>2021-02-27T09:47:31Z</time>
      </trkpt>
      <trkpt lat="45.35847" lon="4.29348">
        <ele>639</ele>
        <time>2021-02-27T09:47:33Z</time>
      </trkpt>
      <trkpt lat="45.35852" lon="4.29347">
        <ele>638</ele>
        <time>2021-02-27T09:47:35Z</time>
      </trkpt>
      <trkpt lat="45.35856" lon="4.29346">
        <ele>638</ele>
        <time>2021-02-27T09:47:36Z</time>
      </trkpt>
      <trkpt lat="45.35859" lon="4.29346">
        <ele>638</ele>
        <time>2021-02-27T09:47:37Z</time>
      </trkpt>
      <trkpt lat="45.35862" lon="4.29345">
        <ele>638</ele>
        <time>2021-02-27T09:47:38Z</time>
      </trkpt>
      <trkpt lat="45.35865" lon="4.29345">
        <ele>638</ele>
        <time>2021-02-27T09:47:39Z</time>
      </trkpt>
      <trkpt lat="45.35869" lon="4.29345">
        <ele>637</ele>
        <time>2021-02-27T09:47:40Z</time>
      </trkpt>
      <trkpt lat="45.35872" lon="4.29344">
        <ele>638</ele>
        <time>2021-02-27T09:47:41Z</time>
      </trkpt>
      <trkpt lat="45.35875" lon="4.29344">
        <ele>638</ele>
        <time>2021-02-27T09:47:42Z</time>
      </trkpt>
      <trkpt lat="45.35878" lon="4.29343">
        <ele>638</ele>
        <time>2021-02-27T09:47:43Z</time>
      </trkpt>
      <trkpt lat="45.35882" lon="4.29342">
        <ele>638</ele>
        <time>2021-02-27T09:47:45Z</time>
      </trkpt>
      <trkpt lat="45.35888" lon="4.2934">
        <ele>638</ele>
        <time>2021-02-27T09:47:46Z</time>
      </trkpt>
      <trkpt lat="45.35892" lon="4.29339">
        <ele>638</ele>
        <time>2021-02-27T09:47:47Z</time>
      </trkpt>
      <trkpt lat="45.35896" lon="4.29339">
        <ele>638</ele>
        <time>2021-02-27T09:47:48Z</time>
      </trkpt>
      <trkpt lat="45.359" lon="4.29338">
        <ele>637</ele>
        <time>2021-02-27T09:47:49Z</time>
      </trkpt>
      <trkpt lat="45.35903" lon="4.29337">
        <ele>638</ele>
        <time>2021-02-27T09:47:50Z</time>
      </trkpt>
      <trkpt lat="45.35906" lon="4.29337">
        <ele>637</ele>
        <time>2021-02-27T09:47:51Z</time>
      </trkpt>
      <trkpt lat="45.35909" lon="4.29336">
        <ele>638</ele>
        <time>2021-02-27T09:47:52Z</time>
      </trkpt>
      <trkpt lat="45.35912" lon="4.29335">
        <ele>638</ele>
        <time>2021-02-27T09:47:53Z</time>
      </trkpt>
      <trkpt lat="45.35915" lon="4.29335">
        <ele>638</ele>
        <time>2021-02-27T09:47:54Z</time>
      </trkpt>
      <trkpt lat="45.3592" lon="4.29334">
        <ele>638</ele>
        <time>2021-02-27T09:47:56Z</time>
      </trkpt>
      <trkpt lat="45.35923" lon="4.29333">
        <ele>638</ele>
        <time>2021-02-27T09:47:57Z</time>
      </trkpt>
      <trkpt lat="45.35927" lon="4.29332">
        <ele>637</ele>
        <time>2021-02-27T09:47:58Z</time>
      </trkpt>
      <trkpt lat="45.3593" lon="4.29331">
        <ele>638</ele>
        <time>2021-02-27T09:47:59Z</time>
      </trkpt>
      <trkpt lat="45.35933" lon="4.29329">
        <ele>637</ele>
        <time>2021-02-27T09:48:00Z</time>
      </trkpt>
      <trkpt lat="45.35936" lon="4.29328">
        <ele>637</ele>
        <time>2021-02-27T09:48:01Z</time>
      </trkpt>
      <trkpt lat="45.35939" lon="4.29326">
        <ele>638</ele>
        <time>2021-02-27T09:48:03Z</time>
      </trkpt>
      <trkpt lat="45.35942" lon="4.29324">
        <ele>638</ele>
        <time>2021-02-27T09:48:04Z</time>
      </trkpt>
      <trkpt lat="45.35947" lon="4.29323">
        <ele>638</ele>
        <time>2021-02-27T09:48:06Z</time>
      </trkpt>
      <trkpt lat="45.3595" lon="4.29322">
        <ele>637</ele>
        <time>2021-02-27T09:48:07Z</time>
      </trkpt>
      <trkpt lat="45.35954" lon="4.29322">
        <ele>638</ele>
        <time>2021-02-27T09:48:08Z</time>
      </trkpt>
      <trkpt lat="45.35961" lon="4.29323">
        <ele>638</ele>
        <time>2021-02-27T09:48:10Z</time>
      </trkpt>
      <trkpt lat="45.35966" lon="4.29325">
        <ele>638</ele>
        <time>2021-02-27T09:48:11Z</time>
      </trkpt>
      <trkpt lat="45.35969" lon="4.29328">
        <ele>638</ele>
        <time>2021-02-27T09:48:12Z</time>
      </trkpt>
      <trkpt lat="45.35972" lon="4.29332">
        <ele>638</ele>
        <time>2021-02-27T09:48:14Z</time>
      </trkpt>
      <trkpt lat="45.35973" lon="4.29336">
        <ele>637</ele>
        <time>2021-02-27T09:48:18Z</time>
      </trkpt>
      <trkpt lat="45.35976" lon="4.29339">
        <ele>638</ele>
        <time>2021-02-27T09:48:20Z</time>
      </trkpt>
      <trkpt lat="45.3598" lon="4.29337">
        <ele>637</ele>
        <time>2021-02-27T09:48:22Z</time>
      </trkpt>
      <trkpt lat="45.35985" lon="4.29334">
        <ele>637</ele>
        <time>2021-02-27T09:48:24Z</time>
      </trkpt>
      <trkpt lat="45.35994" lon="4.2933">
        <ele>637</ele>
        <time>2021-02-27T09:48:25Z</time>
      </trkpt>
      <trkpt lat="45.36" lon="4.29326">
        <ele>637</ele>
        <time>2021-02-27T09:48:26Z</time>
      </trkpt>
      <trkpt lat="45.36003" lon="4.29323">
        <ele>637</ele>
        <time>2021-02-27T09:48:27Z</time>
      </trkpt>
      <trkpt lat="45.36011" lon="4.29319">
        <ele>637</ele>
        <time>2021-02-27T09:48:28Z</time>
      </trkpt>
      <trkpt lat="45.36016" lon="4.29316">
        <ele>637</ele>
        <time>2021-02-27T09:48:29Z</time>
      </trkpt>
      <trkpt lat="45.36018" lon="4.29311">
        <ele>637</ele>
        <time>2021-02-27T09:48:30Z</time>
      </trkpt>
      <trkpt lat="45.36021" lon="4.29307">
        <ele>637</ele>
        <time>2021-02-27T09:48:31Z</time>
      </trkpt>
      <trkpt lat="45.36023" lon="4.29304">
        <ele>637</ele>
        <time>2021-02-27T09:48:32Z</time>
      </trkpt>
      <trkpt lat="45.36026" lon="4.29302">
        <ele>637</ele>
        <time>2021-02-27T09:48:33Z</time>
      </trkpt>
      <trkpt lat="45.36029" lon="4.293">
        <ele>637</ele>
        <time>2021-02-27T09:48:34Z</time>
      </trkpt>
      <trkpt lat="45.36032" lon="4.29298">
        <ele>637</ele>
        <time>2021-02-27T09:48:35Z</time>
      </trkpt>
      <trkpt lat="45.36042" lon="4.29294">
        <ele>637</ele>
        <time>2021-02-27T09:48:36Z</time>
      </trkpt>
      <trkpt lat="45.36052" lon="4.2929">
        <ele>637</ele>
        <time>2021-02-27T09:48:37Z</time>
      </trkpt>
      <trkpt lat="45.36057" lon="4.29288">
        <ele>637</ele>
        <time>2021-02-27T09:48:38Z</time>
      </trkpt>
      <trkpt lat="45.36063" lon="4.29285">
        <ele>637</ele>
        <time>2021-02-27T09:48:40Z</time>
      </trkpt>
      <trkpt lat="45.36067" lon="4.29282">
        <ele>638</ele>
        <time>2021-02-27T09:48:41Z</time>
      </trkpt>
      <trkpt lat="45.36074" lon="4.2928">
        <ele>638</ele>
        <time>2021-02-27T09:48:42Z</time>
      </trkpt>
      <trkpt lat="45.36079" lon="4.29278">
        <ele>637</ele>
        <time>2021-02-27T09:48:43Z</time>
      </trkpt>
      <trkpt lat="45.36086" lon="4.29275">
        <ele>637</ele>
        <time>2021-02-27T09:48:44Z</time>
      </trkpt>
      <trkpt lat="45.3609" lon="4.29272">
        <ele>638</ele>
        <time>2021-02-27T09:48:45Z</time>
      </trkpt>
      <trkpt lat="45.36096" lon="4.2927">
        <ele>638</ele>
        <time>2021-02-27T09:48:46Z</time>
      </trkpt>
      <trkpt lat="45.36102" lon="4.29266">
        <ele>638</ele>
        <time>2021-02-27T09:48:47Z</time>
      </trkpt>
      <trkpt lat="45.36107" lon="4.29264">
        <ele>637</ele>
        <time>2021-02-27T09:48:48Z</time>
      </trkpt>
      <trkpt lat="45.36111" lon="4.29261">
        <ele>638</ele>
        <time>2021-02-27T09:48:49Z</time>
      </trkpt>
      <trkpt lat="45.36117" lon="4.29259">
        <ele>638</ele>
        <time>2021-02-27T09:48:50Z</time>
      </trkpt>
      <trkpt lat="45.36123" lon="4.29258">
        <ele>638</ele>
        <time>2021-02-27T09:48:51Z</time>
      </trkpt>
      <trkpt lat="45.36128" lon="4.29255">
        <ele>637</ele>
        <time>2021-02-27T09:48:52Z</time>
      </trkpt>
      <trkpt lat="45.36133" lon="4.29254">
        <ele>638</ele>
        <time>2021-02-27T09:48:53Z</time>
      </trkpt>
      <trkpt lat="45.36139" lon="4.29252">
        <ele>638</ele>
        <time>2021-02-27T09:48:55Z</time>
      </trkpt>
      <trkpt lat="45.36143" lon="4.2925">
        <ele>638</ele>
        <time>2021-02-27T09:48:56Z</time>
      </trkpt>
      <trkpt lat="45.36148" lon="4.29249">
        <ele>638</ele>
        <time>2021-02-27T09:48:57Z</time>
      </trkpt>
      <trkpt lat="45.36153" lon="4.29248">
        <ele>638</ele>
        <time>2021-02-27T09:48:58Z</time>
      </trkpt>
      <trkpt lat="45.36157" lon="4.29247">
        <ele>638</ele>
        <time>2021-02-27T09:48:59Z</time>
      </trkpt>
      <trkpt lat="45.3616" lon="4.29247">
        <ele>638</ele>
        <time>2021-02-27T09:49:00Z</time>
      </trkpt>
      <trkpt lat="45.36165" lon="4.29246">
        <ele>638</ele>
        <time>2021-02-27T09:49:01Z</time>
      </trkpt>
      <trkpt lat="45.36168" lon="4.29246">
        <ele>638</ele>
        <time>2021-02-27T09:49:02Z</time>
      </trkpt>
      <trkpt lat="45.36172" lon="4.29245">
        <ele>638</ele>
        <time>2021-02-27T09:49:03Z</time>
      </trkpt>
      <trkpt lat="45.36175" lon="4.29243">
        <ele>638</ele>
        <time>2021-02-27T09:49:04Z</time>
      </trkpt>
      <trkpt lat="45.36179" lon="4.29242">
        <ele>638</ele>
        <time>2021-02-27T09:49:05Z</time>
      </trkpt>
      <trkpt lat="45.36183" lon="4.29241">
        <ele>638</ele>
        <time>2021-02-27T09:49:06Z</time>
      </trkpt>
      <trkpt lat="45.36189" lon="4.29241">
        <ele>638</ele>
        <time>2021-02-27T09:49:07Z</time>
      </trkpt>
      <trkpt lat="45.36193" lon="4.2924">
        <ele>638</ele>
        <time>2021-02-27T09:49:08Z</time>
      </trkpt>
      <trkpt lat="45.36198" lon="4.29239">
        <ele>638</ele>
        <time>2021-02-27T09:49:10Z</time>
      </trkpt>
      <trkpt lat="45.36202" lon="4.29237">
        <ele>637</ele>
        <time>2021-02-27T09:49:12Z</time>
      </trkpt>
      <trkpt lat="45.36207" lon="4.29237">
        <ele>638</ele>
        <time>2021-02-27T09:49:14Z</time>
      </trkpt>
      <trkpt lat="45.36213" lon="4.29237">
        <ele>638</ele>
        <time>2021-02-27T09:49:16Z</time>
      </trkpt>
      <trkpt lat="45.36218" lon="4.2924">
        <ele>638</ele>
        <time>2021-02-27T09:49:20Z</time>
      </trkpt>
      <trkpt lat="45.36221" lon="4.29242">
        <ele>638</ele>
        <time>2021-02-27T09:49:22Z</time>
      </trkpt>
      <trkpt lat="45.36225" lon="4.29246">
        <ele>638</ele>
        <time>2021-02-27T09:49:24Z</time>
      </trkpt>
      <trkpt lat="45.36227" lon="4.29251">
        <ele>638</ele>
        <time>2021-02-27T09:49:26Z</time>
      </trkpt>
      <trkpt lat="45.36228" lon="4.29256">
        <ele>638</ele>
        <time>2021-02-27T09:49:28Z</time>
      </trkpt>
      <trkpt lat="45.36229" lon="4.29262">
        <ele>638</ele>
        <time>2021-02-27T09:49:31Z</time>
      </trkpt>
      <trkpt lat="45.36234" lon="4.29266">
        <ele>637</ele>
        <time>2021-02-27T09:49:33Z</time>
      </trkpt>
      <trkpt lat="45.36238" lon="4.29268">
        <ele>638</ele>
        <time>2021-02-27T09:49:35Z</time>
      </trkpt>
      <trkpt lat="45.36241" lon="4.29266">
        <ele>638</ele>
        <time>2021-02-27T09:49:37Z</time>
      </trkpt>
      <trkpt lat="45.36246" lon="4.29262">
        <ele>638</ele>
        <time>2021-02-27T09:49:38Z</time>
      </trkpt>
      <trkpt lat="45.36252" lon="4.2926">
        <ele>638</ele>
        <time>2021-02-27T09:49:39Z</time>
      </trkpt>
      <trkpt lat="45.36257" lon="4.29259">
        <ele>638</ele>
        <time>2021-02-27T09:49:40Z</time>
      </trkpt>
      <trkpt lat="45.36264" lon="4.2926">
        <ele>639</ele>
        <time>2021-02-27T09:49:42Z</time>
      </trkpt>
      <trkpt lat="45.36269" lon="4.2926">
        <ele>639</ele>
        <time>2021-02-27T09:49:44Z</time>
      </trkpt>
      <trkpt lat="45.36273" lon="4.29262">
        <ele>640</ele>
        <time>2021-02-27T09:49:46Z</time>
      </trkpt>
      <trkpt lat="45.36276" lon="4.29263">
        <ele>640</ele>
        <time>2021-02-27T09:49:48Z</time>
      </trkpt>
      <trkpt lat="45.36279" lon="4.29264">
        <ele>641</ele>
        <time>2021-02-27T09:49:50Z</time>
      </trkpt>
      <trkpt lat="45.36282" lon="4.29265">
        <ele>642</ele>
        <time>2021-02-27T09:49:55Z</time>
      </trkpt>
      <trkpt lat="45.36288" lon="4.29266">
        <ele>642</ele>
        <time>2021-02-27T09:49:56Z</time>
      </trkpt>
      <trkpt lat="45.36295" lon="4.29268">
        <ele>642</ele>
        <time>2021-02-27T09:49:57Z</time>
      </trkpt>
      <trkpt lat="45.36302" lon="4.29269">
        <ele>642</ele>
        <time>2021-02-27T09:49:58Z</time>
      </trkpt>
      <trkpt lat="45.36308" lon="4.2927">
        <ele>643</ele>
        <time>2021-02-27T09:49:59Z</time>
      </trkpt>
      <trkpt lat="45.36313" lon="4.29271">
        <ele>643</ele>
        <time>2021-02-27T09:50:00Z</time>
      </trkpt>
      <trkpt lat="45.36317" lon="4.29272">
        <ele>643</ele>
        <time>2021-02-27T09:50:01Z</time>
      </trkpt>
      <trkpt lat="45.36321" lon="4.29272">
        <ele>643</ele>
        <time>2021-02-27T09:50:02Z</time>
      </trkpt>
      <trkpt lat="45.36325" lon="4.29273">
        <ele>644</ele>
        <time>2021-02-27T09:50:05Z</time>
      </trkpt>
      <trkpt lat="45.36329" lon="4.29274">
        <ele>645</ele>
        <time>2021-02-27T09:50:07Z</time>
      </trkpt>
      <trkpt lat="45.36332" lon="4.29275">
        <ele>645</ele>
        <time>2021-02-27T09:50:09Z</time>
      </trkpt>
      <trkpt lat="45.36336" lon="4.29275">
        <ele>645</ele>
        <time>2021-02-27T09:50:11Z</time>
      </trkpt>
      <trkpt lat="45.3634" lon="4.29275">
        <ele>646</ele>
        <time>2021-02-27T09:50:12Z</time>
      </trkpt>
      <trkpt lat="45.36344" lon="4.29275">
        <ele>647</ele>
        <time>2021-02-27T09:50:14Z</time>
      </trkpt>
      <trkpt lat="45.36347" lon="4.29275">
        <ele>647</ele>
        <time>2021-02-27T09:50:17Z</time>
      </trkpt>
      <trkpt lat="45.36351" lon="4.29275">
        <ele>647</ele>
        <time>2021-02-27T09:50:18Z</time>
      </trkpt>
      <trkpt lat="45.36356" lon="4.29274">
        <ele>648</ele>
        <time>2021-02-27T09:50:21Z</time>
      </trkpt>
      <trkpt lat="45.36361" lon="4.29273">
        <ele>649</ele>
        <time>2021-02-27T09:50:26Z</time>
      </trkpt>
      <trkpt lat="45.36365" lon="4.29272">
        <ele>650</ele>
        <time>2021-02-27T09:50:29Z</time>
      </trkpt>
      <trkpt lat="45.36369" lon="4.29271">
        <ele>650</ele>
        <time>2021-02-27T09:50:31Z</time>
      </trkpt>
      <trkpt lat="45.36373" lon="4.2927">
        <ele>651</ele>
        <time>2021-02-27T09:50:33Z</time>
      </trkpt>
      <trkpt lat="45.36378" lon="4.2927">
        <ele>651</ele>
        <time>2021-02-27T09:50:36Z</time>
      </trkpt>
      <trkpt lat="45.36382" lon="4.29268">
        <ele>652</ele>
        <time>2021-02-27T09:50:39Z</time>
      </trkpt>
      <trkpt lat="45.36386" lon="4.29267">
        <ele>653</ele>
        <time>2021-02-27T09:50:42Z</time>
      </trkpt>
      <trkpt lat="45.36389" lon="4.29266">
        <ele>653</ele>
        <time>2021-02-27T09:50:44Z</time>
      </trkpt>
      <trkpt lat="45.36393" lon="4.29265">
        <ele>654</ele>
        <time>2021-02-27T09:50:47Z</time>
      </trkpt>
      <trkpt lat="45.36396" lon="4.29265">
        <ele>654</ele>
        <time>2021-02-27T09:50:48Z</time>
      </trkpt>
      <trkpt lat="45.364" lon="4.29267">
        <ele>654</ele>
        <time>2021-02-27T09:50:50Z</time>
      </trkpt>
      <trkpt lat="45.36402" lon="4.2927">
        <ele>655</ele>
        <time>2021-02-27T09:50:54Z</time>
      </trkpt>
      <trkpt lat="45.36402" lon="4.29273">
        <ele>656</ele>
        <time>2021-02-27T09:50:59Z</time>
      </trkpt>
      <trkpt lat="45.36403" lon="4.29277">
        <ele>657</ele>
        <time>2021-02-27T09:51:04Z</time>
      </trkpt>
      <trkpt lat="45.36401" lon="4.29278">
        <ele>658</ele>
        <time>2021-02-27T09:51:10Z</time>
      </trkpt>
      <trkpt lat="45.36399" lon="4.2928">
        <ele>658</ele>
        <time>2021-02-27T09:51:13Z</time>
      </trkpt>
      <trkpt lat="45.36396" lon="4.29282">
        <ele>659</ele>
        <time>2021-02-27T09:51:18Z</time>
      </trkpt>
      <trkpt lat="45.36394" lon="4.29285">
        <ele>660</ele>
        <time>2021-02-27T09:51:23Z</time>
      </trkpt>
      <trkpt lat="45.3639" lon="4.29287">
        <ele>660</ele>
        <time>2021-02-27T09:51:26Z</time>
      </trkpt>
      <trkpt lat="45.36388" lon="4.29288">
        <ele>662</ele>
        <time>2021-02-27T09:51:30Z</time>
      </trkpt>
      <trkpt lat="45.36386" lon="4.29291">
        <ele>662</ele>
        <time>2021-02-27T09:51:35Z</time>
      </trkpt>
      <trkpt lat="45.36384" lon="4.29294">
        <ele>664</ele>
        <time>2021-02-27T09:51:40Z</time>
      </trkpt>
      <trkpt lat="45.36382" lon="4.29297">
        <ele>664</ele>
        <time>2021-02-27T09:51:44Z</time>
      </trkpt>
      <trkpt lat="45.3638" lon="4.293">
        <ele>666</ele>
        <time>2021-02-27T09:51:49Z</time>
      </trkpt>
      <trkpt lat="45.36377" lon="4.29304">
        <ele>667</ele>
        <time>2021-02-27T09:51:51Z</time>
      </trkpt>
      <trkpt lat="45.36377" lon="4.29308">
        <ele>670</ele>
        <time>2021-02-27T09:52:17Z</time>
      </trkpt>
      <trkpt lat="45.36377" lon="4.29311">
        <ele>671</ele>
        <time>2021-02-27T09:52:20Z</time>
      </trkpt>
      <trkpt lat="45.36379" lon="4.29315">
        <ele>671</ele>
        <time>2021-02-27T09:52:24Z</time>
      </trkpt>
      <trkpt lat="45.36382" lon="4.29317">
        <ele>672</ele>
        <time>2021-02-27T09:52:28Z</time>
      </trkpt>
      <trkpt lat="45.36385" lon="4.2932">
        <ele>673</ele>
        <time>2021-02-27T09:52:32Z</time>
      </trkpt>
      <trkpt lat="45.36388" lon="4.29322">
        <ele>673</ele>
        <time>2021-02-27T09:52:34Z</time>
      </trkpt>
      <trkpt lat="45.36391" lon="4.29325">
        <ele>674</ele>
        <time>2021-02-27T09:52:38Z</time>
      </trkpt>
      <trkpt lat="45.36394" lon="4.29328">
        <ele>675</ele>
        <time>2021-02-27T09:52:41Z</time>
      </trkpt>
      <trkpt lat="45.36397" lon="4.2933">
        <ele>676</ele>
        <time>2021-02-27T09:52:44Z</time>
      </trkpt>
      <trkpt lat="45.36399" lon="4.29333">
        <ele>677</ele>
        <time>2021-02-27T09:52:48Z</time>
      </trkpt>
      <trkpt lat="45.36402" lon="4.29335">
        <ele>678</ele>
        <time>2021-02-27T09:52:52Z</time>
      </trkpt>
      <trkpt lat="45.36406" lon="4.29336">
        <ele>679</ele>
        <time>2021-02-27T09:52:57Z</time>
      </trkpt>
      <trkpt lat="45.3641" lon="4.2934">
        <ele>679</ele>
        <time>2021-02-27T09:52:58Z</time>
      </trkpt>
      <trkpt lat="45.36414" lon="4.29342">
        <ele>679</ele>
        <time>2021-02-27T09:52:59Z</time>
      </trkpt>
      <trkpt lat="45.36419" lon="4.29343">
        <ele>680</ele>
        <time>2021-02-27T09:53:01Z</time>
      </trkpt>
      <trkpt lat="45.36423" lon="4.29344">
        <ele>680</ele>
        <time>2021-02-27T09:53:03Z</time>
      </trkpt>
      <trkpt lat="45.36427" lon="4.29345">
        <ele>680</ele>
        <time>2021-02-27T09:53:05Z</time>
      </trkpt>
      <trkpt lat="45.36431" lon="4.29346">
        <ele>681</ele>
        <time>2021-02-27T09:53:07Z</time>
      </trkpt>
      <trkpt lat="45.36435" lon="4.29347">
        <ele>681</ele>
        <time>2021-02-27T09:53:09Z</time>
      </trkpt>
      <trkpt lat="45.36439" lon="4.29349">
        <ele>682</ele>
        <time>2021-02-27T09:53:11Z</time>
      </trkpt>
      <trkpt lat="45.36442" lon="4.2935">
        <ele>682</ele>
        <time>2021-02-27T09:53:13Z</time>
      </trkpt>
      <trkpt lat="45.36445" lon="4.2935">
        <ele>683</ele>
        <time>2021-02-27T09:53:15Z</time>
      </trkpt>
      <trkpt lat="45.36448" lon="4.2935">
        <ele>683</ele>
        <time>2021-02-27T09:53:17Z</time>
      </trkpt>
      <trkpt lat="45.36452" lon="4.2935">
        <ele>683</ele>
        <time>2021-02-27T09:53:19Z</time>
      </trkpt>
      <trkpt lat="45.36456" lon="4.2935">
        <ele>684</ele>
        <time>2021-02-27T09:53:22Z</time>
      </trkpt>
      <trkpt lat="45.3646" lon="4.29349">
        <ele>684</ele>
        <time>2021-02-27T09:53:24Z</time>
      </trkpt>
      <trkpt lat="45.36463" lon="4.29349">
        <ele>685</ele>
        <time>2021-02-27T09:53:26Z</time>
      </trkpt>
      <trkpt lat="45.36467" lon="4.29349">
        <ele>685</ele>
        <time>2021-02-27T09:53:29Z</time>
      </trkpt>
      <trkpt lat="45.3647" lon="4.29348">
        <ele>686</ele>
        <time>2021-02-27T09:53:31Z</time>
      </trkpt>
      <trkpt lat="45.36474" lon="4.29348">
        <ele>686</ele>
        <time>2021-02-27T09:53:34Z</time>
      </trkpt>
      <trkpt lat="45.36477" lon="4.29348">
        <ele>687</ele>
        <time>2021-02-27T09:53:38Z</time>
      </trkpt>
      <trkpt lat="45.36481" lon="4.29347">
        <ele>687</ele>
        <time>2021-02-27T09:53:40Z</time>
      </trkpt>
      <trkpt lat="45.36484" lon="4.29347">
        <ele>688</ele>
        <time>2021-02-27T09:53:42Z</time>
      </trkpt>
      <trkpt lat="45.36488" lon="4.29348">
        <ele>688</ele>
        <time>2021-02-27T09:53:44Z</time>
      </trkpt>
      <trkpt lat="45.36491" lon="4.29348">
        <ele>689</ele>
        <time>2021-02-27T09:53:47Z</time>
      </trkpt>
      <trkpt lat="45.36494" lon="4.29348">
        <ele>691</ele>
        <time>2021-02-27T09:53:58Z</time>
      </trkpt>
      <trkpt lat="45.36498" lon="4.2935">
        <ele>691</ele>
        <time>2021-02-27T09:54:00Z</time>
      </trkpt>
      <trkpt lat="45.36501" lon="4.29351">
        <ele>691</ele>
        <time>2021-02-27T09:54:01Z</time>
      </trkpt>
      <trkpt lat="45.36505" lon="4.29355">
        <ele>692</ele>
        <time>2021-02-27T09:54:03Z</time>
      </trkpt>
      <trkpt lat="45.36509" lon="4.29359">
        <ele>693</ele>
        <time>2021-02-27T09:54:05Z</time>
      </trkpt>
      <trkpt lat="45.36512" lon="4.29362">
        <ele>693</ele>
        <time>2021-02-27T09:54:07Z</time>
      </trkpt>
      <trkpt lat="45.36516" lon="4.29364">
        <ele>694</ele>
        <time>2021-02-27T09:54:08Z</time>
      </trkpt>
      <trkpt lat="45.36518" lon="4.29366">
        <ele>694</ele>
        <time>2021-02-27T09:54:09Z</time>
      </trkpt>
      <trkpt lat="45.36521" lon="4.29368">
        <ele>694</ele>
        <time>2021-02-27T09:54:10Z</time>
      </trkpt>
      <trkpt lat="45.36525" lon="4.29371">
        <ele>694</ele>
        <time>2021-02-27T09:54:12Z</time>
      </trkpt>
      <trkpt lat="45.36528" lon="4.29373">
        <ele>694</ele>
        <time>2021-02-27T09:54:13Z</time>
      </trkpt>
      <trkpt lat="45.36531" lon="4.29375">
        <ele>694</ele>
        <time>2021-02-27T09:54:15Z</time>
      </trkpt>
      <trkpt lat="45.36534" lon="4.29377">
        <ele>694</ele>
        <time>2021-02-27T09:54:17Z</time>
      </trkpt>
      <trkpt lat="45.36536" lon="4.2938">
        <ele>695</ele>
        <time>2021-02-27T09:54:20Z</time>
      </trkpt>
      <trkpt lat="45.36537" lon="4.29383">
        <ele>695</ele>
        <time>2021-02-27T09:56:37Z</time>
      </trkpt>
      <trkpt lat="45.36537" lon="4.29386">
        <ele>695</ele>
        <time>2021-02-27T09:57:18Z</time>
      </trkpt>
      <trkpt lat="45.36535" lon="4.29389">
        <ele>695</ele>
        <time>2021-02-27T09:57:20Z</time>
      </trkpt>
      <trkpt lat="45.36533" lon="4.29392">
        <ele>696</ele>
        <time>2021-02-27T09:57:22Z</time>
      </trkpt>
      <trkpt lat="45.3653" lon="4.29396">
        <ele>696</ele>
        <time>2021-02-27T09:57:24Z</time>
      </trkpt>
      <trkpt lat="45.36527" lon="4.294">
        <ele>696</ele>
        <time>2021-02-27T09:57:26Z</time>
      </trkpt>
      <trkpt lat="45.36525" lon="4.29403">
        <ele>697</ele>
        <time>2021-02-27T09:57:28Z</time>
      </trkpt>
      <trkpt lat="45.36522" lon="4.29407">
        <ele>698</ele>
        <time>2021-02-27T09:57:30Z</time>
      </trkpt>
      <trkpt lat="45.3652" lon="4.2941">
        <ele>698</ele>
        <time>2021-02-27T09:57:32Z</time>
      </trkpt>
      <trkpt lat="45.36517" lon="4.29412">
        <ele>699</ele>
        <time>2021-02-27T09:57:34Z</time>
      </trkpt>
      <trkpt lat="45.36514" lon="4.29416">
        <ele>699</ele>
        <time>2021-02-27T09:57:36Z</time>
      </trkpt>
      <trkpt lat="45.36512" lon="4.29419">
        <ele>699</ele>
        <time>2021-02-27T09:57:38Z</time>
      </trkpt>
      <trkpt lat="45.3651" lon="4.29423">
        <ele>700</ele>
        <time>2021-02-27T09:57:40Z</time>
      </trkpt>
      <trkpt lat="45.36508" lon="4.29428">
        <ele>700</ele>
        <time>2021-02-27T09:57:42Z</time>
      </trkpt>
      <trkpt lat="45.36508" lon="4.29434">
        <ele>701</ele>
        <time>2021-02-27T09:57:44Z</time>
      </trkpt>
      <trkpt lat="45.36509" lon="4.29441">
        <ele>701</ele>
        <time>2021-02-27T09:57:46Z</time>
      </trkpt>
      <trkpt lat="45.36509" lon="4.29448">
        <ele>702</ele>
        <time>2021-02-27T09:57:48Z</time>
      </trkpt>
      <trkpt lat="45.36509" lon="4.29455">
        <ele>702</ele>
        <time>2021-02-27T09:57:50Z</time>
      </trkpt>
      <trkpt lat="45.36509" lon="4.29461">
        <ele>702</ele>
        <time>2021-02-27T09:57:51Z</time>
      </trkpt>
      <trkpt lat="45.36509" lon="4.29466">
        <ele>702</ele>
        <time>2021-02-27T09:57:52Z</time>
      </trkpt>
      <trkpt lat="45.3651" lon="4.2947">
        <ele>701</ele>
        <time>2021-02-27T09:57:53Z</time>
      </trkpt>
      <trkpt lat="45.3651" lon="4.29475">
        <ele>702</ele>
        <time>2021-02-27T09:57:54Z</time>
      </trkpt>
      <trkpt lat="45.36509" lon="4.2948">
        <ele>701</ele>
        <time>2021-02-27T09:57:55Z</time>
      </trkpt>
      <trkpt lat="45.36509" lon="4.29484">
        <ele>701</ele>
        <time>2021-02-27T09:57:56Z</time>
      </trkpt>
      <trkpt lat="45.36508" lon="4.29489">
        <ele>701</ele>
        <time>2021-02-27T09:57:57Z</time>
      </trkpt>
      <trkpt lat="45.36507" lon="4.29493">
        <ele>700</ele>
        <time>2021-02-27T09:57:58Z</time>
      </trkpt>
      <trkpt lat="45.36505" lon="4.29497">
        <ele>700</ele>
        <time>2021-02-27T09:57:59Z</time>
      </trkpt>
      <trkpt lat="45.36503" lon="4.29502">
        <ele>700</ele>
        <time>2021-02-27T09:58:00Z</time>
      </trkpt>
      <trkpt lat="45.365" lon="4.29506">
        <ele>699</ele>
        <time>2021-02-27T09:58:01Z</time>
      </trkpt>
      <trkpt lat="45.36497" lon="4.2951">
        <ele>699</ele>
        <time>2021-02-27T09:58:02Z</time>
      </trkpt>
      <trkpt lat="45.36494" lon="4.29515">
        <ele>697</ele>
        <time>2021-02-27T09:58:03Z</time>
      </trkpt>
      <trkpt lat="45.36491" lon="4.2952">
        <ele>697</ele>
        <time>2021-02-27T09:58:04Z</time>
      </trkpt>
      <trkpt lat="45.36488" lon="4.29526">
        <ele>697</ele>
        <time>2021-02-27T09:58:05Z</time>
      </trkpt>
      <trkpt lat="45.36485" lon="4.29532">
        <ele>696</ele>
        <time>2021-02-27T09:58:06Z</time>
      </trkpt>
      <trkpt lat="45.36481" lon="4.29539">
        <ele>696</ele>
        <time>2021-02-27T09:58:07Z</time>
      </trkpt>
      <trkpt lat="45.36477" lon="4.29545">
        <ele>696</ele>
        <time>2021-02-27T09:58:08Z</time>
      </trkpt>
      <trkpt lat="45.36474" lon="4.29551">
        <ele>695</ele>
        <time>2021-02-27T09:58:09Z</time>
      </trkpt>
      <trkpt lat="45.3647" lon="4.29558">
        <ele>694</ele>
        <time>2021-02-27T09:58:10Z</time>
      </trkpt>
      <trkpt lat="45.36465" lon="4.29567">
        <ele>694</ele>
        <time>2021-02-27T09:58:11Z</time>
      </trkpt>
      <trkpt lat="45.36461" lon="4.29577">
        <ele>694</ele>
        <time>2021-02-27T09:58:12Z</time>
      </trkpt>
      <trkpt lat="45.36457" lon="4.29585">
        <ele>694</ele>
        <time>2021-02-27T09:58:13Z</time>
      </trkpt>
      <trkpt lat="45.36454" lon="4.29593">
        <ele>694</ele>
        <time>2021-02-27T09:58:14Z</time>
      </trkpt>
      <trkpt lat="45.3645" lon="4.29601">
        <ele>693</ele>
        <time>2021-02-27T09:58:15Z</time>
      </trkpt>
      <trkpt lat="45.36446" lon="4.2961">
        <ele>693</ele>
        <time>2021-02-27T09:58:16Z</time>
      </trkpt>
      <trkpt lat="45.36442" lon="4.29618">
        <ele>693</ele>
        <time>2021-02-27T09:58:17Z</time>
      </trkpt>
      <trkpt lat="45.36439" lon="4.29627">
        <ele>693</ele>
        <time>2021-02-27T09:58:18Z</time>
      </trkpt>
      <trkpt lat="45.36436" lon="4.29635">
        <ele>693</ele>
        <time>2021-02-27T09:58:19Z</time>
      </trkpt>
      <trkpt lat="45.36432" lon="4.29642">
        <ele>693</ele>
        <time>2021-02-27T09:58:20Z</time>
      </trkpt>
      <trkpt lat="45.36427" lon="4.2965">
        <ele>692</ele>
        <time>2021-02-27T09:58:21Z</time>
      </trkpt>
      <trkpt lat="45.36424" lon="4.29658">
        <ele>692</ele>
        <time>2021-02-27T09:58:22Z</time>
      </trkpt>
      <trkpt lat="45.3642" lon="4.29666">
        <ele>691</ele>
        <time>2021-02-27T09:58:23Z</time>
      </trkpt>
      <trkpt lat="45.36417" lon="4.29674">
        <ele>692</ele>
        <time>2021-02-27T09:58:24Z</time>
      </trkpt>
      <trkpt lat="45.36414" lon="4.29682">
        <ele>692</ele>
        <time>2021-02-27T09:58:25Z</time>
      </trkpt>
      <trkpt lat="45.36412" lon="4.29689">
        <ele>691</ele>
        <time>2021-02-27T09:58:26Z</time>
      </trkpt>
      <trkpt lat="45.36411" lon="4.29696">
        <ele>691</ele>
        <time>2021-02-27T09:58:27Z</time>
      </trkpt>
      <trkpt lat="45.36409" lon="4.29703">
        <ele>692</ele>
        <time>2021-02-27T09:58:28Z</time>
      </trkpt>
      <trkpt lat="45.36408" lon="4.2971">
        <ele>692</ele>
        <time>2021-02-27T09:58:29Z</time>
      </trkpt>
      <trkpt lat="45.36407" lon="4.29717">
        <ele>692</ele>
        <time>2021-02-27T09:58:30Z</time>
      </trkpt>
      <trkpt lat="45.36406" lon="4.29724">
        <ele>692</ele>
        <time>2021-02-27T09:58:31Z</time>
      </trkpt>
      <trkpt lat="45.36406" lon="4.29731">
        <ele>692</ele>
        <time>2021-02-27T09:58:32Z</time>
      </trkpt>
      <trkpt lat="45.36406" lon="4.29737">
        <ele>693</ele>
        <time>2021-02-27T09:58:33Z</time>
      </trkpt>
      <trkpt lat="45.36405" lon="4.29743">
        <ele>693</ele>
        <time>2021-02-27T09:58:34Z</time>
      </trkpt>
      <trkpt lat="45.36405" lon="4.29749">
        <ele>693</ele>
        <time>2021-02-27T09:58:35Z</time>
      </trkpt>
      <trkpt lat="45.36405" lon="4.29756">
        <ele>694</ele>
        <time>2021-02-27T09:58:36Z</time>
      </trkpt>
      <trkpt lat="45.36404" lon="4.29762">
        <ele>694</ele>
        <time>2021-02-27T09:58:37Z</time>
      </trkpt>
      <trkpt lat="45.36404" lon="4.29769">
        <ele>694</ele>
        <time>2021-02-27T09:58:38Z</time>
      </trkpt>
      <trkpt lat="45.36404" lon="4.29774">
        <ele>694</ele>
        <time>2021-02-27T09:58:39Z</time>
      </trkpt>
      <trkpt lat="45.36404" lon="4.2978">
        <ele>694</ele>
        <time>2021-02-27T09:58:40Z</time>
      </trkpt>
      <trkpt lat="45.36404" lon="4.29785">
        <ele>694</ele>
        <time>2021-02-27T09:58:41Z</time>
      </trkpt>
      <trkpt lat="45.36403" lon="4.29791">
        <ele>694</ele>
        <time>2021-02-27T09:58:42Z</time>
      </trkpt>
      <trkpt lat="45.36403" lon="4.29796">
        <ele>695</ele>
        <time>2021-02-27T09:58:43Z</time>
      </trkpt>
      <trkpt lat="45.36403" lon="4.29802">
        <ele>695</ele>
        <time>2021-02-27T09:58:44Z</time>
      </trkpt>
      <trkpt lat="45.36403" lon="4.29808">
        <ele>695</ele>
        <time>2021-02-27T09:58:45Z</time>
      </trkpt>
      <trkpt lat="45.36403" lon="4.29813">
        <ele>695</ele>
        <time>2021-02-27T09:58:46Z</time>
      </trkpt>
      <trkpt lat="45.36403" lon="4.29818">
        <ele>695</ele>
        <time>2021-02-27T09:58:47Z</time>
      </trkpt>
      <trkpt lat="45.36403" lon="4.29822">
        <ele>695</ele>
        <time>2021-02-27T09:58:48Z</time>
      </trkpt>
      <trkpt lat="45.36403" lon="4.29827">
        <ele>695</ele>
        <time>2021-02-27T09:58:49Z</time>
      </trkpt>
      <trkpt lat="45.36403" lon="4.29833">
        <ele>695</ele>
        <time>2021-02-27T09:58:50Z</time>
      </trkpt>
      <trkpt lat="45.36404" lon="4.29838">
        <ele>695</ele>
        <time>2021-02-27T09:58:51Z</time>
      </trkpt>
      <trkpt lat="45.36406" lon="4.29842">
        <ele>695</ele>
        <time>2021-02-27T09:58:52Z</time>
      </trkpt>
      <trkpt lat="45.36408" lon="4.29846">
        <ele>695</ele>
        <time>2021-02-27T09:58:53Z</time>
      </trkpt>
      <trkpt lat="45.36412" lon="4.29846">
        <ele>695</ele>
        <time>2021-02-27T09:58:55Z</time>
      </trkpt>
      <trkpt lat="45.36416" lon="4.29845">
        <ele>695</ele>
        <time>2021-02-27T09:58:57Z</time>
      </trkpt>
      <trkpt lat="45.3642" lon="4.29843">
        <ele>696</ele>
        <time>2021-02-27T09:58:58Z</time>
      </trkpt>
      <trkpt lat="45.36423" lon="4.29842">
        <ele>697</ele>
        <time>2021-02-27T09:58:59Z</time>
      </trkpt>
      <trkpt lat="45.36426" lon="4.29841">
        <ele>696</ele>
        <time>2021-02-27T09:59:00Z</time>
      </trkpt>
      <trkpt lat="45.3643" lon="4.29841">
        <ele>698</ele>
        <time>2021-02-27T09:59:02Z</time>
      </trkpt>
      <trkpt lat="45.36435" lon="4.29841">
        <ele>698</ele>
        <time>2021-02-27T09:59:04Z</time>
      </trkpt>
      <trkpt lat="45.36439" lon="4.2984">
        <ele>699</ele>
        <time>2021-02-27T09:59:06Z</time>
      </trkpt>
      <trkpt lat="45.36444" lon="4.29837">
        <ele>699</ele>
        <time>2021-02-27T09:59:08Z</time>
      </trkpt>
      <trkpt lat="45.36447" lon="4.29835">
        <ele>700</ele>
        <time>2021-02-27T09:59:10Z</time>
      </trkpt>
      <trkpt lat="45.36451" lon="4.29832">
        <ele>701</ele>
        <time>2021-02-27T09:59:12Z</time>
      </trkpt>
      <trkpt lat="45.36456" lon="4.29829">
        <ele>701</ele>
        <time>2021-02-27T09:59:14Z</time>
      </trkpt>
      <trkpt lat="45.3646" lon="4.29827">
        <ele>701</ele>
        <time>2021-02-27T09:59:16Z</time>
      </trkpt>
      <trkpt lat="45.36465" lon="4.29825">
        <ele>701</ele>
        <time>2021-02-27T09:59:18Z</time>
      </trkpt>
      <trkpt lat="45.3647" lon="4.29824">
        <ele>701</ele>
        <time>2021-02-27T09:59:20Z</time>
      </trkpt>
      <trkpt lat="45.36475" lon="4.29822">
        <ele>701</ele>
        <time>2021-02-27T09:59:22Z</time>
      </trkpt>
      <trkpt lat="45.36479" lon="4.29821">
        <ele>702</ele>
        <time>2021-02-27T09:59:23Z</time>
      </trkpt>
      <trkpt lat="45.36482" lon="4.29819">
        <ele>702</ele>
        <time>2021-02-27T09:59:24Z</time>
      </trkpt>
      <trkpt lat="45.36486" lon="4.29818">
        <ele>701</ele>
        <time>2021-02-27T09:59:25Z</time>
      </trkpt>
      <trkpt lat="45.36489" lon="4.29817">
        <ele>702</ele>
        <time>2021-02-27T09:59:26Z</time>
      </trkpt>
      <trkpt lat="45.36492" lon="4.29816">
        <ele>701</ele>
        <time>2021-02-27T09:59:27Z</time>
      </trkpt>
      <trkpt lat="45.36495" lon="4.29816">
        <ele>702</ele>
        <time>2021-02-27T09:59:28Z</time>
      </trkpt>
      <trkpt lat="45.36499" lon="4.29815">
        <ele>702</ele>
        <time>2021-02-27T09:59:29Z</time>
      </trkpt>
      <trkpt lat="45.36501" lon="4.29815">
        <ele>703</ele>
        <time>2021-02-27T09:59:30Z</time>
      </trkpt>
      <trkpt lat="45.36505" lon="4.29817">
        <ele>703</ele>
        <time>2021-02-27T09:59:32Z</time>
      </trkpt>
      <trkpt lat="45.36508" lon="4.29821">
        <ele>704</ele>
        <time>2021-02-27T09:59:34Z</time>
      </trkpt>
      <trkpt lat="45.36507" lon="4.29827">
        <ele>704</ele>
        <time>2021-02-27T09:59:39Z</time>
      </trkpt>
      <trkpt lat="45.36506" lon="4.29831">
        <ele>705</ele>
        <time>2021-02-27T09:59:41Z</time>
      </trkpt>
      <trkpt lat="45.36503" lon="4.29834">
        <ele>706</ele>
        <time>2021-02-27T09:59:43Z</time>
      </trkpt>
      <trkpt lat="45.365" lon="4.29837">
        <ele>706</ele>
        <time>2021-02-27T09:59:45Z</time>
      </trkpt>
      <trkpt lat="45.36497" lon="4.29839">
        <ele>707</ele>
        <time>2021-02-27T09:59:48Z</time>
      </trkpt>
      <trkpt lat="45.36494" lon="4.2984">
        <ele>708</ele>
        <time>2021-02-27T09:59:51Z</time>
      </trkpt>
      <trkpt lat="45.36491" lon="4.29843">
        <ele>708</ele>
        <time>2021-02-27T09:59:53Z</time>
      </trkpt>
      <trkpt lat="45.36488" lon="4.29846">
        <ele>709</ele>
        <time>2021-02-27T09:59:55Z</time>
      </trkpt>
      <trkpt lat="45.36485" lon="4.29849">
        <ele>709</ele>
        <time>2021-02-27T09:59:57Z</time>
      </trkpt>
      <trkpt lat="45.36483" lon="4.29852">
        <ele>710</ele>
        <time>2021-02-27T09:59:59Z</time>
      </trkpt>
      <trkpt lat="45.3648" lon="4.29855">
        <ele>710</ele>
        <time>2021-02-27T10:00:01Z</time>
      </trkpt>
      <trkpt lat="45.36477" lon="4.29858">
        <ele>711</ele>
        <time>2021-02-27T10:00:03Z</time>
      </trkpt>
      <trkpt lat="45.36475" lon="4.29861">
        <ele>712</ele>
        <time>2021-02-27T10:00:06Z</time>
      </trkpt>
      <trkpt lat="45.36472" lon="4.29863">
        <ele>712</ele>
        <time>2021-02-27T10:00:08Z</time>
      </trkpt>
      <trkpt lat="45.3647" lon="4.29866">
        <ele>712</ele>
        <time>2021-02-27T10:00:10Z</time>
      </trkpt>
      <trkpt lat="45.36468" lon="4.29869">
        <ele>713</ele>
        <time>2021-02-27T10:00:12Z</time>
      </trkpt>
      <trkpt lat="45.36466" lon="4.29873">
        <ele>713</ele>
        <time>2021-02-27T10:00:14Z</time>
      </trkpt>
      <trkpt lat="45.36464" lon="4.29876">
        <ele>714</ele>
        <time>2021-02-27T10:00:16Z</time>
      </trkpt>
      <trkpt lat="45.36463" lon="4.2988">
        <ele>714</ele>
        <time>2021-02-27T10:00:18Z</time>
      </trkpt>
      <trkpt lat="45.36465" lon="4.29882">
        <ele>716</ele>
        <time>2021-02-27T10:00:26Z</time>
      </trkpt>
      <trkpt lat="45.36469" lon="4.29882">
        <ele>716</ele>
        <time>2021-02-27T10:00:29Z</time>
      </trkpt>
      <trkpt lat="45.36472" lon="4.29882">
        <ele>716</ele>
        <time>2021-02-27T10:00:31Z</time>
      </trkpt>
      <trkpt lat="45.36475" lon="4.29882">
        <ele>717</ele>
        <time>2021-02-27T10:00:34Z</time>
      </trkpt>
      <trkpt lat="45.3648" lon="4.29881">
        <ele>718</ele>
        <time>2021-02-27T10:00:39Z</time>
      </trkpt>
      <trkpt lat="45.36485" lon="4.29881">
        <ele>718</ele>
        <time>2021-02-27T10:00:41Z</time>
      </trkpt>
      <trkpt lat="45.36488" lon="4.29881">
        <ele>718</ele>
        <time>2021-02-27T10:00:42Z</time>
      </trkpt>
      <trkpt lat="45.36494" lon="4.29881">
        <ele>719</ele>
        <time>2021-02-27T10:00:45Z</time>
      </trkpt>
      <trkpt lat="45.365" lon="4.29882">
        <ele>718</ele>
        <time>2021-02-27T10:00:47Z</time>
      </trkpt>
      <trkpt lat="45.36504" lon="4.29882">
        <ele>719</ele>
        <time>2021-02-27T10:00:48Z</time>
      </trkpt>
      <trkpt lat="45.36508" lon="4.29882">
        <ele>719</ele>
        <time>2021-02-27T10:00:49Z</time>
      </trkpt>
      <trkpt lat="45.36511" lon="4.29882">
        <ele>719</ele>
        <time>2021-02-27T10:00:50Z</time>
      </trkpt>
      <trkpt lat="45.36514" lon="4.29883">
        <ele>720</ele>
        <time>2021-02-27T10:00:51Z</time>
      </trkpt>
      <trkpt lat="45.36519" lon="4.29883">
        <ele>720</ele>
        <time>2021-02-27T10:00:53Z</time>
      </trkpt>
      <trkpt lat="45.36523" lon="4.29885">
        <ele>720</ele>
        <time>2021-02-27T10:00:54Z</time>
      </trkpt>
      <trkpt lat="45.36527" lon="4.29886">
        <ele>721</ele>
        <time>2021-02-27T10:00:56Z</time>
      </trkpt>
      <trkpt lat="45.36531" lon="4.29887">
        <ele>721</ele>
        <time>2021-02-27T10:00:58Z</time>
      </trkpt>
      <trkpt lat="45.36535" lon="4.29889">
        <ele>721</ele>
        <time>2021-02-27T10:01:00Z</time>
      </trkpt>
      <trkpt lat="45.36539" lon="4.29891">
        <ele>721</ele>
        <time>2021-02-27T10:01:02Z</time>
      </trkpt>
      <trkpt lat="45.36542" lon="4.29893">
        <ele>721</ele>
        <time>2021-02-27T10:01:04Z</time>
      </trkpt>
      <trkpt lat="45.36545" lon="4.29895">
        <ele>722</ele>
        <time>2021-02-27T10:01:06Z</time>
      </trkpt>
      <trkpt lat="45.36548" lon="4.29896">
        <ele>722</ele>
        <time>2021-02-27T10:01:08Z</time>
      </trkpt>
      <trkpt lat="45.36552" lon="4.29898">
        <ele>722</ele>
        <time>2021-02-27T10:01:10Z</time>
      </trkpt>
      <trkpt lat="45.36555" lon="4.299">
        <ele>722</ele>
        <time>2021-02-27T10:01:12Z</time>
      </trkpt>
      <trkpt lat="45.36559" lon="4.29901">
        <ele>723</ele>
        <time>2021-02-27T10:01:14Z</time>
      </trkpt>
      <trkpt lat="45.36563" lon="4.29903">
        <ele>723</ele>
        <time>2021-02-27T10:01:16Z</time>
      </trkpt>
      <trkpt lat="45.36567" lon="4.29904">
        <ele>723</ele>
        <time>2021-02-27T10:01:18Z</time>
      </trkpt>
      <trkpt lat="45.3657" lon="4.29906">
        <ele>723</ele>
        <time>2021-02-27T10:01:20Z</time>
      </trkpt>
      <trkpt lat="45.36574" lon="4.29907">
        <ele>724</ele>
        <time>2021-02-27T10:01:22Z</time>
      </trkpt>
      <trkpt lat="45.36578" lon="4.29909">
        <ele>724</ele>
        <time>2021-02-27T10:01:24Z</time>
      </trkpt>
      <trkpt lat="45.36582" lon="4.29912">
        <ele>724</ele>
        <time>2021-02-27T10:01:26Z</time>
      </trkpt>
      <trkpt lat="45.36586" lon="4.29915">
        <ele>725</ele>
        <time>2021-02-27T10:01:28Z</time>
      </trkpt>
      <trkpt lat="45.36589" lon="4.29918">
        <ele>725</ele>
        <time>2021-02-27T10:01:29Z</time>
      </trkpt>
      <trkpt lat="45.36592" lon="4.29921">
        <ele>725</ele>
        <time>2021-02-27T10:01:31Z</time>
      </trkpt>
      <trkpt lat="45.36594" lon="4.29924">
        <ele>726</ele>
        <time>2021-02-27T10:01:33Z</time>
      </trkpt>
      <trkpt lat="45.36597" lon="4.29927">
        <ele>726</ele>
        <time>2021-02-27T10:01:35Z</time>
      </trkpt>
      <trkpt lat="45.366" lon="4.2993">
        <ele>727</ele>
        <time>2021-02-27T10:01:37Z</time>
      </trkpt>
      <trkpt lat="45.36604" lon="4.29933">
        <ele>727</ele>
        <time>2021-02-27T10:01:39Z</time>
      </trkpt>
      <trkpt lat="45.36607" lon="4.29936">
        <ele>728</ele>
        <time>2021-02-27T10:01:41Z</time>
      </trkpt>
      <trkpt lat="45.36611" lon="4.29939">
        <ele>728</ele>
        <time>2021-02-27T10:01:43Z</time>
      </trkpt>
      <trkpt lat="45.36614" lon="4.29943">
        <ele>728</ele>
        <time>2021-02-27T10:01:45Z</time>
      </trkpt>
      <trkpt lat="45.36617" lon="4.29945">
        <ele>728</ele>
        <time>2021-02-27T10:01:46Z</time>
      </trkpt>
      <trkpt lat="45.36622" lon="4.2995">
        <ele>729</ele>
        <time>2021-02-27T10:01:48Z</time>
      </trkpt>
      <trkpt lat="45.36626" lon="4.29952">
        <ele>729</ele>
        <time>2021-02-27T10:01:49Z</time>
      </trkpt>
      <trkpt lat="45.36629" lon="4.29955">
        <ele>729</ele>
        <time>2021-02-27T10:01:50Z</time>
      </trkpt>
      <trkpt lat="45.36633" lon="4.29958">
        <ele>730</ele>
        <time>2021-02-27T10:01:52Z</time>
      </trkpt>
      <trkpt lat="45.36635" lon="4.29962">
        <ele>730</ele>
        <time>2021-02-27T10:01:54Z</time>
      </trkpt>
      <trkpt lat="45.36638" lon="4.29966">
        <ele>731</ele>
        <time>2021-02-27T10:01:56Z</time>
      </trkpt>
      <trkpt lat="45.36641" lon="4.2997">
        <ele>731</ele>
        <time>2021-02-27T10:01:58Z</time>
      </trkpt>
      <trkpt lat="45.36644" lon="4.29975">
        <ele>731</ele>
        <time>2021-02-27T10:02:00Z</time>
      </trkpt>
      <trkpt lat="45.36646" lon="4.29979">
        <ele>732</ele>
        <time>2021-02-27T10:02:02Z</time>
      </trkpt>
      <trkpt lat="45.36649" lon="4.29983">
        <ele>733</ele>
        <time>2021-02-27T10:02:05Z</time>
      </trkpt>
      <trkpt lat="45.36651" lon="4.29987">
        <ele>733</ele>
        <time>2021-02-27T10:02:07Z</time>
      </trkpt>
      <trkpt lat="45.36653" lon="4.2999">
        <ele>734</ele>
        <time>2021-02-27T10:02:09Z</time>
      </trkpt>
      <trkpt lat="45.36655" lon="4.29994">
        <ele>735</ele>
        <time>2021-02-27T10:02:12Z</time>
      </trkpt>
      <trkpt lat="45.36657" lon="4.29999">
        <ele>735</ele>
        <time>2021-02-27T10:02:15Z</time>
      </trkpt>
      <trkpt lat="45.36658" lon="4.30004">
        <ele>735</ele>
        <time>2021-02-27T10:02:17Z</time>
      </trkpt>
      <trkpt lat="45.36659" lon="4.30009">
        <ele>737</ele>
        <time>2021-02-27T10:02:19Z</time>
      </trkpt>
      <trkpt lat="45.36658" lon="4.30013">
        <ele>737</ele>
        <time>2021-02-27T10:02:22Z</time>
      </trkpt>
      <trkpt lat="45.36659" lon="4.30018">
        <ele>738</ele>
        <time>2021-02-27T10:02:25Z</time>
      </trkpt>
      <trkpt lat="45.3666" lon="4.30022">
        <ele>738</ele>
        <time>2021-02-27T10:02:27Z</time>
      </trkpt>
      <trkpt lat="45.36661" lon="4.30027">
        <ele>738</ele>
        <time>2021-02-27T10:02:29Z</time>
      </trkpt>
      <trkpt lat="45.36662" lon="4.30033">
        <ele>738</ele>
        <time>2021-02-27T10:02:31Z</time>
      </trkpt>
      <trkpt lat="45.36664" lon="4.30037">
        <ele>739</ele>
        <time>2021-02-27T10:02:33Z</time>
      </trkpt>
      <trkpt lat="45.36667" lon="4.30043">
        <ele>738</ele>
        <time>2021-02-27T10:02:36Z</time>
      </trkpt>
      <trkpt lat="45.3667" lon="4.30047">
        <ele>738</ele>
        <time>2021-02-27T10:02:38Z</time>
      </trkpt>
      <trkpt lat="45.36673" lon="4.30049">
        <ele>738</ele>
        <time>2021-02-27T10:02:40Z</time>
      </trkpt>
      <trkpt lat="45.36676" lon="4.3005">
        <ele>738</ele>
        <time>2021-02-27T10:02:42Z</time>
      </trkpt>
      <trkpt lat="45.3668" lon="4.30051">
        <ele>737</ele>
        <time>2021-02-27T10:02:59Z</time>
      </trkpt>
      <trkpt lat="45.36683" lon="4.30053">
        <ele>736</ele>
        <time>2021-02-27T10:03:01Z</time>
      </trkpt>
      <trkpt lat="45.36686" lon="4.30056">
        <ele>735</ele>
        <time>2021-02-27T10:03:03Z</time>
      </trkpt>
      <trkpt lat="45.36689" lon="4.30059">
        <ele>735</ele>
        <time>2021-02-27T10:03:04Z</time>
      </trkpt>
      <trkpt lat="45.36692" lon="4.30061">
        <ele>734</ele>
        <time>2021-02-27T10:03:05Z</time>
      </trkpt>
      <trkpt lat="45.36695" lon="4.30064">
        <ele>734</ele>
        <time>2021-02-27T10:03:06Z</time>
      </trkpt>
      <trkpt lat="45.36698" lon="4.30067">
        <ele>733</ele>
        <time>2021-02-27T10:03:07Z</time>
      </trkpt>
      <trkpt lat="45.36701" lon="4.30069">
        <ele>733</ele>
        <time>2021-02-27T10:03:08Z</time>
      </trkpt>
      <trkpt lat="45.36705" lon="4.30072">
        <ele>732</ele>
        <time>2021-02-27T10:03:09Z</time>
      </trkpt>
      <trkpt lat="45.36709" lon="4.30075">
        <ele>731</ele>
        <time>2021-02-27T10:03:10Z</time>
      </trkpt>
      <trkpt lat="45.36712" lon="4.30078">
        <ele>731</ele>
        <time>2021-02-27T10:03:11Z</time>
      </trkpt>
      <trkpt lat="45.36716" lon="4.30082">
        <ele>730</ele>
        <time>2021-02-27T10:03:12Z</time>
      </trkpt>
      <trkpt lat="45.36719" lon="4.30085">
        <ele>729</ele>
        <time>2021-02-27T10:03:13Z</time>
      </trkpt>
      <trkpt lat="45.36722" lon="4.30088">
        <ele>729</ele>
        <time>2021-02-27T10:03:14Z</time>
      </trkpt>
      <trkpt lat="45.36725" lon="4.3009">
        <ele>728</ele>
        <time>2021-02-27T10:03:15Z</time>
      </trkpt>
      <trkpt lat="45.36727" lon="4.30097">
        <ele>729</ele>
        <time>2021-02-27T10:03:18Z</time>
      </trkpt>
      <trkpt lat="45.36726" lon="4.30102">
        <ele>729</ele>
        <time>2021-02-27T10:03:20Z</time>
      </trkpt>
      <trkpt lat="45.36724" lon="4.30106">
        <ele>729</ele>
        <time>2021-02-27T10:03:21Z</time>
      </trkpt>
      <trkpt lat="45.36722" lon="4.30109">
        <ele>730</ele>
        <time>2021-02-27T10:03:23Z</time>
      </trkpt>
      <trkpt lat="45.36719" lon="4.30111">
        <ele>730</ele>
        <time>2021-02-27T10:03:25Z</time>
      </trkpt>
      <trkpt lat="45.36716" lon="4.30113">
        <ele>730</ele>
        <time>2021-02-27T10:03:27Z</time>
      </trkpt>
      <trkpt lat="45.36712" lon="4.30113">
        <ele>731</ele>
        <time>2021-02-27T10:03:29Z</time>
      </trkpt>
      <trkpt lat="45.36708" lon="4.30114">
        <ele>731</ele>
        <time>2021-02-27T10:03:31Z</time>
      </trkpt>
      <trkpt lat="45.36704" lon="4.30114">
        <ele>731</ele>
        <time>2021-02-27T10:03:33Z</time>
      </trkpt>
      <trkpt lat="45.367" lon="4.30114">
        <ele>731</ele>
        <time>2021-02-27T10:03:35Z</time>
      </trkpt>
      <trkpt lat="45.36697" lon="4.30114">
        <ele>732</ele>
        <time>2021-02-27T10:03:37Z</time>
      </trkpt>
      <trkpt lat="45.36693" lon="4.30113">
        <ele>732</ele>
        <time>2021-02-27T10:03:39Z</time>
      </trkpt>
      <trkpt lat="45.36689" lon="4.30113">
        <ele>732</ele>
        <time>2021-02-27T10:03:41Z</time>
      </trkpt>
      <trkpt lat="45.36686" lon="4.30113">
        <ele>733</ele>
        <time>2021-02-27T10:03:43Z</time>
      </trkpt>
      <trkpt lat="45.36682" lon="4.30112">
        <ele>733</ele>
        <time>2021-02-27T10:03:45Z</time>
      </trkpt>
      <trkpt lat="45.36678" lon="4.30112">
        <ele>734</ele>
        <time>2021-02-27T10:03:47Z</time>
      </trkpt>
      <trkpt lat="45.36675" lon="4.30112">
        <ele>734</ele>
        <time>2021-02-27T10:03:49Z</time>
      </trkpt>
      <trkpt lat="45.3667" lon="4.30114">
        <ele>735</ele>
        <time>2021-02-27T10:03:51Z</time>
      </trkpt>
      <trkpt lat="45.36666" lon="4.30115">
        <ele>735</ele>
        <time>2021-02-27T10:03:53Z</time>
      </trkpt>
      <trkpt lat="45.36663" lon="4.30115">
        <ele>736</ele>
        <time>2021-02-27T10:03:55Z</time>
      </trkpt>
      <trkpt lat="45.3666" lon="4.30116">
        <ele>735</ele>
        <time>2021-02-27T10:03:57Z</time>
      </trkpt>
      <trkpt lat="45.36657" lon="4.30116">
        <ele>736</ele>
        <time>2021-02-27T10:03:59Z</time>
      </trkpt>
      <trkpt lat="45.36653" lon="4.30116">
        <ele>737</ele>
        <time>2021-02-27T10:04:01Z</time>
      </trkpt>
      <trkpt lat="45.3665" lon="4.30116">
        <ele>737</ele>
        <time>2021-02-27T10:04:03Z</time>
      </trkpt>
      <trkpt lat="45.36646" lon="4.30116">
        <ele>738</ele>
        <time>2021-02-27T10:04:05Z</time>
      </trkpt>
      <trkpt lat="45.36643" lon="4.30115">
        <ele>739</ele>
        <time>2021-02-27T10:04:07Z</time>
      </trkpt>
      <trkpt lat="45.3664" lon="4.30114">
        <ele>739</ele>
        <time>2021-02-27T10:04:09Z</time>
      </trkpt>
      <trkpt lat="45.36637" lon="4.30113">
        <ele>739</ele>
        <time>2021-02-27T10:04:11Z</time>
      </trkpt>
      <trkpt lat="45.36634" lon="4.30113">
        <ele>740</ele>
        <time>2021-02-27T10:04:14Z</time>
      </trkpt>
      <trkpt lat="45.3663" lon="4.30112">
        <ele>740</ele>
        <time>2021-02-27T10:04:16Z</time>
      </trkpt>
      <trkpt lat="45.36627" lon="4.30113">
        <ele>740</ele>
        <time>2021-02-27T10:04:18Z</time>
      </trkpt>
      <trkpt lat="45.36624" lon="4.30113">
        <ele>741</ele>
        <time>2021-02-27T10:04:20Z</time>
      </trkpt>
      <trkpt lat="45.3662" lon="4.30113">
        <ele>742</ele>
        <time>2021-02-27T10:04:22Z</time>
      </trkpt>
      <trkpt lat="45.36617" lon="4.30113">
        <ele>742</ele>
        <time>2021-02-27T10:04:24Z</time>
      </trkpt>
      <trkpt lat="45.36613" lon="4.30112">
        <ele>743</ele>
        <time>2021-02-27T10:04:26Z</time>
      </trkpt>
      <trkpt lat="45.36609" lon="4.30112">
        <ele>743</ele>
        <time>2021-02-27T10:04:28Z</time>
      </trkpt>
      <trkpt lat="45.36606" lon="4.30113">
        <ele>743</ele>
        <time>2021-02-27T10:04:30Z</time>
      </trkpt>
      <trkpt lat="45.36602" lon="4.30114">
        <ele>743</ele>
        <time>2021-02-27T10:04:32Z</time>
      </trkpt>
      <trkpt lat="45.36598" lon="4.30114">
        <ele>743</ele>
        <time>2021-02-27T10:04:34Z</time>
      </trkpt>
      <trkpt lat="45.36594" lon="4.30114">
        <ele>744</ele>
        <time>2021-02-27T10:04:36Z</time>
      </trkpt>
      <trkpt lat="45.3659" lon="4.30115">
        <ele>744</ele>
        <time>2021-02-27T10:04:38Z</time>
      </trkpt>
      <trkpt lat="45.36587" lon="4.30115">
        <ele>744</ele>
        <time>2021-02-27T10:04:40Z</time>
      </trkpt>
      <trkpt lat="45.36582" lon="4.30116">
        <ele>745</ele>
        <time>2021-02-27T10:04:42Z</time>
      </trkpt>
      <trkpt lat="45.36577" lon="4.30116">
        <ele>745</ele>
        <time>2021-02-27T10:04:44Z</time>
      </trkpt>
      <trkpt lat="45.36573" lon="4.30116">
        <ele>746</ele>
        <time>2021-02-27T10:04:46Z</time>
      </trkpt>
      <trkpt lat="45.3657" lon="4.30116">
        <ele>746</ele>
        <time>2021-02-27T10:04:48Z</time>
      </trkpt>
      <trkpt lat="45.36566" lon="4.30116">
        <ele>747</ele>
        <time>2021-02-27T10:04:50Z</time>
      </trkpt>
      <trkpt lat="45.36563" lon="4.30117">
        <ele>747</ele>
        <time>2021-02-27T10:04:52Z</time>
      </trkpt>
      <trkpt lat="45.36559" lon="4.30118">
        <ele>748</ele>
        <time>2021-02-27T10:04:54Z</time>
      </trkpt>
      <trkpt lat="45.36556" lon="4.30119">
        <ele>748</ele>
        <time>2021-02-27T10:04:56Z</time>
      </trkpt>
      <trkpt lat="45.36552" lon="4.3012">
        <ele>748</ele>
        <time>2021-02-27T10:04:58Z</time>
      </trkpt>
      <trkpt lat="45.36549" lon="4.30121">
        <ele>749</ele>
        <time>2021-02-27T10:05:00Z</time>
      </trkpt>
      <trkpt lat="45.36546" lon="4.30123">
        <ele>750</ele>
        <time>2021-02-27T10:05:02Z</time>
      </trkpt>
      <trkpt lat="45.36543" lon="4.30124">
        <ele>750</ele>
        <time>2021-02-27T10:05:04Z</time>
      </trkpt>
      <trkpt lat="45.36539" lon="4.30126">
        <ele>750</ele>
        <time>2021-02-27T10:05:06Z</time>
      </trkpt>
      <trkpt lat="45.36536" lon="4.30127">
        <ele>750</ele>
        <time>2021-02-27T10:05:08Z</time>
      </trkpt>
      <trkpt lat="45.36533" lon="4.30129">
        <ele>751</ele>
        <time>2021-02-27T10:05:11Z</time>
      </trkpt>
      <trkpt lat="45.3653" lon="4.30131">
        <ele>751</ele>
        <time>2021-02-27T10:05:14Z</time>
      </trkpt>
      <trkpt lat="45.36527" lon="4.30133">
        <ele>752</ele>
        <time>2021-02-27T10:05:16Z</time>
      </trkpt>
      <trkpt lat="45.36523" lon="4.30134">
        <ele>751</ele>
        <time>2021-02-27T10:05:18Z</time>
      </trkpt>
      <trkpt lat="45.3652" lon="4.30135">
        <ele>752</ele>
        <time>2021-02-27T10:05:20Z</time>
      </trkpt>
      <trkpt lat="45.36517" lon="4.30137">
        <ele>752</ele>
        <time>2021-02-27T10:05:22Z</time>
      </trkpt>
      <trkpt lat="45.36513" lon="4.30138">
        <ele>753</ele>
        <time>2021-02-27T10:05:24Z</time>
      </trkpt>
      <trkpt lat="45.3651" lon="4.3014">
        <ele>753</ele>
        <time>2021-02-27T10:05:26Z</time>
      </trkpt>
      <trkpt lat="45.36507" lon="4.30143">
        <ele>753</ele>
        <time>2021-02-27T10:05:28Z</time>
      </trkpt>
      <trkpt lat="45.36503" lon="4.30146">
        <ele>754</ele>
        <time>2021-02-27T10:05:30Z</time>
      </trkpt>
      <trkpt lat="45.365" lon="4.30148">
        <ele>754</ele>
        <time>2021-02-27T10:05:32Z</time>
      </trkpt>
      <trkpt lat="45.36497" lon="4.3015">
        <ele>755</ele>
        <time>2021-02-27T10:05:34Z</time>
      </trkpt>
      <trkpt lat="45.36494" lon="4.30153">
        <ele>755</ele>
        <time>2021-02-27T10:05:36Z</time>
      </trkpt>
      <trkpt lat="45.36491" lon="4.30155">
        <ele>755</ele>
        <time>2021-02-27T10:05:38Z</time>
      </trkpt>
      <trkpt lat="45.36488" lon="4.30157">
        <ele>756</ele>
        <time>2021-02-27T10:05:40Z</time>
      </trkpt>
      <trkpt lat="45.36484" lon="4.30158">
        <ele>756</ele>
        <time>2021-02-27T10:05:42Z</time>
      </trkpt>
      <trkpt lat="45.36481" lon="4.3016">
        <ele>756</ele>
        <time>2021-02-27T10:05:44Z</time>
      </trkpt>
      <trkpt lat="45.36478" lon="4.30162">
        <ele>757</ele>
        <time>2021-02-27T10:05:47Z</time>
      </trkpt>
      <trkpt lat="45.36475" lon="4.30165">
        <ele>757</ele>
        <time>2021-02-27T10:05:49Z</time>
      </trkpt>
      <trkpt lat="45.36471" lon="4.30167">
        <ele>757</ele>
        <time>2021-02-27T10:05:51Z</time>
      </trkpt>
      <trkpt lat="45.36468" lon="4.30169">
        <ele>758</ele>
        <time>2021-02-27T10:05:53Z</time>
      </trkpt>
      <trkpt lat="45.36465" lon="4.30171">
        <ele>759</ele>
        <time>2021-02-27T10:05:55Z</time>
      </trkpt>
      <trkpt lat="45.36463" lon="4.30173">
        <ele>759</ele>
        <time>2021-02-27T10:05:57Z</time>
      </trkpt>
      <trkpt lat="45.36459" lon="4.30175">
        <ele>760</ele>
        <time>2021-02-27T10:06:00Z</time>
      </trkpt>
      <trkpt lat="45.36455" lon="4.30178">
        <ele>760</ele>
        <time>2021-02-27T10:06:03Z</time>
      </trkpt>
      <trkpt lat="45.36452" lon="4.3018">
        <ele>761</ele>
        <time>2021-02-27T10:06:05Z</time>
      </trkpt>
      <trkpt lat="45.36449" lon="4.30182">
        <ele>762</ele>
        <time>2021-02-27T10:06:08Z</time>
      </trkpt>
      <trkpt lat="45.36446" lon="4.30184">
        <ele>762</ele>
        <time>2021-02-27T10:06:10Z</time>
      </trkpt>
      <trkpt lat="45.36443" lon="4.30186">
        <ele>763</ele>
        <time>2021-02-27T10:06:12Z</time>
      </trkpt>
      <trkpt lat="45.3644" lon="4.30188">
        <ele>763</ele>
        <time>2021-02-27T10:06:14Z</time>
      </trkpt>
      <trkpt lat="45.36438" lon="4.3019">
        <ele>764</ele>
        <time>2021-02-27T10:06:16Z</time>
      </trkpt>
      <trkpt lat="45.36435" lon="4.30192">
        <ele>764</ele>
        <time>2021-02-27T10:06:18Z</time>
      </trkpt>
      <trkpt lat="45.36432" lon="4.30194">
        <ele>764</ele>
        <time>2021-02-27T10:06:21Z</time>
      </trkpt>
      <trkpt lat="45.36429" lon="4.30197">
        <ele>765</ele>
        <time>2021-02-27T10:06:23Z</time>
      </trkpt>
      <trkpt lat="45.36427" lon="4.30199">
        <ele>765</ele>
        <time>2021-02-27T10:06:25Z</time>
      </trkpt>
      <trkpt lat="45.36425" lon="4.30202">
        <ele>766</ele>
        <time>2021-02-27T10:06:27Z</time>
      </trkpt>
      <trkpt lat="45.36422" lon="4.30203">
        <ele>766</ele>
        <time>2021-02-27T10:06:29Z</time>
      </trkpt>
      <trkpt lat="45.36419" lon="4.30203">
        <ele>767</ele>
        <time>2021-02-27T10:06:32Z</time>
      </trkpt>
      <trkpt lat="45.36415" lon="4.30203">
        <ele>768</ele>
        <time>2021-02-27T10:06:35Z</time>
      </trkpt>
      <trkpt lat="45.36412" lon="4.30204">
        <ele>768</ele>
        <time>2021-02-27T10:06:37Z</time>
      </trkpt>
      <trkpt lat="45.3641" lon="4.30205">
        <ele>768</ele>
        <time>2021-02-27T10:06:39Z</time>
      </trkpt>
      <trkpt lat="45.36407" lon="4.30207">
        <ele>769</ele>
        <time>2021-02-27T10:06:41Z</time>
      </trkpt>
      <trkpt lat="45.36404" lon="4.30209">
        <ele>770</ele>
        <time>2021-02-27T10:06:44Z</time>
      </trkpt>
      <trkpt lat="45.36401" lon="4.30212">
        <ele>770</ele>
        <time>2021-02-27T10:06:47Z</time>
      </trkpt>
      <trkpt lat="45.36398" lon="4.30213">
        <ele>771</ele>
        <time>2021-02-27T10:06:49Z</time>
      </trkpt>
      <trkpt lat="45.36395" lon="4.30215">
        <ele>771</ele>
        <time>2021-02-27T10:06:51Z</time>
      </trkpt>
      <trkpt lat="45.36392" lon="4.30217">
        <ele>772</ele>
        <time>2021-02-27T10:06:54Z</time>
      </trkpt>
      <trkpt lat="45.36389" lon="4.30219">
        <ele>772</ele>
        <time>2021-02-27T10:06:56Z</time>
      </trkpt>
      <trkpt lat="45.36387" lon="4.30221">
        <ele>773</ele>
        <time>2021-02-27T10:06:58Z</time>
      </trkpt>
      <trkpt lat="45.36385" lon="4.30224">
        <ele>773</ele>
        <time>2021-02-27T10:07:00Z</time>
      </trkpt>
      <trkpt lat="45.36382" lon="4.30226">
        <ele>773</ele>
        <time>2021-02-27T10:07:02Z</time>
      </trkpt>
      <trkpt lat="45.36379" lon="4.30228">
        <ele>774</ele>
        <time>2021-02-27T10:07:04Z</time>
      </trkpt>
      <trkpt lat="45.36376" lon="4.30229">
        <ele>773</ele>
        <time>2021-02-27T10:07:06Z</time>
      </trkpt>
      <trkpt lat="45.36373" lon="4.30231">
        <ele>774</ele>
        <time>2021-02-27T10:07:08Z</time>
      </trkpt>
      <trkpt lat="45.3637" lon="4.30232">
        <ele>774</ele>
        <time>2021-02-27T10:07:10Z</time>
      </trkpt>
      <trkpt lat="45.36367" lon="4.30232">
        <ele>774</ele>
        <time>2021-02-27T10:07:12Z</time>
      </trkpt>
      <trkpt lat="45.36364" lon="4.30233">
        <ele>775</ele>
        <time>2021-02-27T10:07:15Z</time>
      </trkpt>
      <trkpt lat="45.3636" lon="4.30233">
        <ele>776</ele>
        <time>2021-02-27T10:07:17Z</time>
      </trkpt>
      <trkpt lat="45.36357" lon="4.30233">
        <ele>776</ele>
        <time>2021-02-27T10:07:19Z</time>
      </trkpt>
      <trkpt lat="45.36354" lon="4.30234">
        <ele>777</ele>
        <time>2021-02-27T10:07:21Z</time>
      </trkpt>
      <trkpt lat="45.36351" lon="4.30234">
        <ele>777</ele>
        <time>2021-02-27T10:07:23Z</time>
      </trkpt>
      <trkpt lat="45.36348" lon="4.30234">
        <ele>778</ele>
        <time>2021-02-27T10:07:25Z</time>
      </trkpt>
      <trkpt lat="45.36345" lon="4.30235">
        <ele>778</ele>
        <time>2021-02-27T10:07:27Z</time>
      </trkpt>
      <trkpt lat="45.36341" lon="4.30237">
        <ele>778</ele>
        <time>2021-02-27T10:07:31Z</time>
      </trkpt>
      <trkpt lat="45.36338" lon="4.30239">
        <ele>779</ele>
        <time>2021-02-27T10:07:33Z</time>
      </trkpt>
      <trkpt lat="45.36335" lon="4.30241">
        <ele>780</ele>
        <time>2021-02-27T10:07:36Z</time>
      </trkpt>
      <trkpt lat="45.36332" lon="4.30244">
        <ele>780</ele>
        <time>2021-02-27T10:07:38Z</time>
      </trkpt>
      <trkpt lat="45.36329" lon="4.30246">
        <ele>780</ele>
        <time>2021-02-27T10:07:41Z</time>
      </trkpt>
      <trkpt lat="45.36326" lon="4.30248">
        <ele>780</ele>
        <time>2021-02-27T10:07:44Z</time>
      </trkpt>
      <trkpt lat="45.36323" lon="4.3025">
        <ele>781</ele>
        <time>2021-02-27T10:07:46Z</time>
      </trkpt>
      <trkpt lat="45.36319" lon="4.30253">
        <ele>782</ele>
        <time>2021-02-27T10:07:48Z</time>
      </trkpt>
      <trkpt lat="45.36316" lon="4.30255">
        <ele>781</ele>
        <time>2021-02-27T10:07:50Z</time>
      </trkpt>
      <trkpt lat="45.36313" lon="4.30258">
        <ele>781</ele>
        <time>2021-02-27T10:07:52Z</time>
      </trkpt>
      <trkpt lat="45.3631" lon="4.3026">
        <ele>782</ele>
        <time>2021-02-27T10:07:54Z</time>
      </trkpt>
      <trkpt lat="45.36306" lon="4.30263">
        <ele>782</ele>
        <time>2021-02-27T10:07:56Z</time>
      </trkpt>
      <trkpt lat="45.36302" lon="4.30265">
        <ele>782</ele>
        <time>2021-02-27T10:07:58Z</time>
      </trkpt>
      <trkpt lat="45.36298" lon="4.30267">
        <ele>783</ele>
        <time>2021-02-27T10:08:00Z</time>
      </trkpt>
      <trkpt lat="45.36294" lon="4.3027">
        <ele>783</ele>
        <time>2021-02-27T10:08:02Z</time>
      </trkpt>
      <trkpt lat="45.36291" lon="4.30272">
        <ele>783</ele>
        <time>2021-02-27T10:08:04Z</time>
      </trkpt>
      <trkpt lat="45.36288" lon="4.30273">
        <ele>783</ele>
        <time>2021-02-27T10:08:06Z</time>
      </trkpt>
      <trkpt lat="45.36284" lon="4.30273">
        <ele>783</ele>
        <time>2021-02-27T10:08:08Z</time>
      </trkpt>
      <trkpt lat="45.3628" lon="4.30273">
        <ele>783</ele>
        <time>2021-02-27T10:08:10Z</time>
      </trkpt>
      <trkpt lat="45.36275" lon="4.30274">
        <ele>783</ele>
        <time>2021-02-27T10:08:12Z</time>
      </trkpt>
      <trkpt lat="45.36271" lon="4.30275">
        <ele>783</ele>
        <time>2021-02-27T10:08:13Z</time>
      </trkpt>
      <trkpt lat="45.36268" lon="4.30275">
        <ele>783</ele>
        <time>2021-02-27T10:08:14Z</time>
      </trkpt>
      <trkpt lat="45.36264" lon="4.30275">
        <ele>783</ele>
        <time>2021-02-27T10:08:15Z</time>
      </trkpt>
      <trkpt lat="45.36261" lon="4.30275">
        <ele>784</ele>
        <time>2021-02-27T10:08:16Z</time>
      </trkpt>
      <trkpt lat="45.36257" lon="4.30276">
        <ele>784</ele>
        <time>2021-02-27T10:08:18Z</time>
      </trkpt>
      <trkpt lat="45.36253" lon="4.30277">
        <ele>784</ele>
        <time>2021-02-27T10:08:20Z</time>
      </trkpt>
      <trkpt lat="45.36249" lon="4.30278">
        <ele>785</ele>
        <time>2021-02-27T10:08:22Z</time>
      </trkpt>
      <trkpt lat="45.36246" lon="4.30279">
        <ele>785</ele>
        <time>2021-02-27T10:08:24Z</time>
      </trkpt>
      <trkpt lat="45.36242" lon="4.3028">
        <ele>785</ele>
        <time>2021-02-27T10:08:26Z</time>
      </trkpt>
      <trkpt lat="45.36238" lon="4.30281">
        <ele>786</ele>
        <time>2021-02-27T10:08:28Z</time>
      </trkpt>
      <trkpt lat="45.36234" lon="4.30281">
        <ele>786</ele>
        <time>2021-02-27T10:08:30Z</time>
      </trkpt>
      <trkpt lat="45.3623" lon="4.30282">
        <ele>786</ele>
        <time>2021-02-27T10:08:32Z</time>
      </trkpt>
      <trkpt lat="45.36226" lon="4.30283">
        <ele>787</ele>
        <time>2021-02-27T10:08:34Z</time>
      </trkpt>
      <trkpt lat="45.36222" lon="4.30284">
        <ele>787</ele>
        <time>2021-02-27T10:08:36Z</time>
      </trkpt>
      <trkpt lat="45.36217" lon="4.30285">
        <ele>787</ele>
        <time>2021-02-27T10:08:38Z</time>
      </trkpt>
      <trkpt lat="45.36212" lon="4.30285">
        <ele>787</ele>
        <time>2021-02-27T10:08:40Z</time>
      </trkpt>
      <trkpt lat="45.36209" lon="4.30286">
        <ele>788</ele>
        <time>2021-02-27T10:08:41Z</time>
      </trkpt>
      <trkpt lat="45.36204" lon="4.30286">
        <ele>788</ele>
        <time>2021-02-27T10:08:43Z</time>
      </trkpt>
      <trkpt lat="45.36199" lon="4.30285">
        <ele>788</ele>
        <time>2021-02-27T10:08:45Z</time>
      </trkpt>
      <trkpt lat="45.36196" lon="4.30285">
        <ele>788</ele>
        <time>2021-02-27T10:08:46Z</time>
      </trkpt>
      <trkpt lat="45.36191" lon="4.30284">
        <ele>789</ele>
        <time>2021-02-27T10:08:48Z</time>
      </trkpt>
      <trkpt lat="45.36186" lon="4.30283">
        <ele>789</ele>
        <time>2021-02-27T10:08:50Z</time>
      </trkpt>
      <trkpt lat="45.36181" lon="4.30283">
        <ele>789</ele>
        <time>2021-02-27T10:08:52Z</time>
      </trkpt>
      <trkpt lat="45.36177" lon="4.30284">
        <ele>790</ele>
        <time>2021-02-27T10:08:54Z</time>
      </trkpt>
      <trkpt lat="45.36173" lon="4.30285">
        <ele>790</ele>
        <time>2021-02-27T10:08:56Z</time>
      </trkpt>
      <trkpt lat="45.36168" lon="4.30286">
        <ele>790</ele>
        <time>2021-02-27T10:08:58Z</time>
      </trkpt>
      <trkpt lat="45.36164" lon="4.30288">
        <ele>790</ele>
        <time>2021-02-27T10:09:00Z</time>
      </trkpt>
      <trkpt lat="45.3616" lon="4.30289">
        <ele>790</ele>
        <time>2021-02-27T10:09:02Z</time>
      </trkpt>
      <trkpt lat="45.36157" lon="4.3029">
        <ele>790</ele>
        <time>2021-02-27T10:09:03Z</time>
      </trkpt>
      <trkpt lat="45.36154" lon="4.30291">
        <ele>791</ele>
        <time>2021-02-27T10:09:04Z</time>
      </trkpt>
      <trkpt lat="45.36151" lon="4.30292">
        <ele>791</ele>
        <time>2021-02-27T10:09:05Z</time>
      </trkpt>
      <trkpt lat="45.36147" lon="4.30292">
        <ele>791</ele>
        <time>2021-02-27T10:09:07Z</time>
      </trkpt>
      <trkpt lat="45.36141" lon="4.30293">
        <ele>791</ele>
        <time>2021-02-27T10:09:09Z</time>
      </trkpt>
      <trkpt lat="45.36137" lon="4.30294">
        <ele>791</ele>
        <time>2021-02-27T10:09:10Z</time>
      </trkpt>
      <trkpt lat="45.36133" lon="4.30295">
        <ele>792</ele>
        <time>2021-02-27T10:09:11Z</time>
      </trkpt>
      <trkpt lat="45.3613" lon="4.30296">
        <ele>791</ele>
        <time>2021-02-27T10:09:12Z</time>
      </trkpt>
      <trkpt lat="45.36127" lon="4.30297">
        <ele>792</ele>
        <time>2021-02-27T10:09:13Z</time>
      </trkpt>
      <trkpt lat="45.36125" lon="4.30298">
        <ele>792</ele>
        <time>2021-02-27T10:09:14Z</time>
      </trkpt>
      <trkpt lat="45.36122" lon="4.30299">
        <ele>792</ele>
        <time>2021-02-27T10:09:15Z</time>
      </trkpt>
      <trkpt lat="45.36119" lon="4.30299">
        <ele>792</ele>
        <time>2021-02-27T10:09:16Z</time>
      </trkpt>
      <trkpt lat="45.36116" lon="4.303">
        <ele>792</ele>
        <time>2021-02-27T10:09:17Z</time>
      </trkpt>
      <trkpt lat="45.36113" lon="4.30301">
        <ele>792</ele>
        <time>2021-02-27T10:09:18Z</time>
      </trkpt>
      <trkpt lat="45.3611" lon="4.30301">
        <ele>792</ele>
        <time>2021-02-27T10:09:19Z</time>
      </trkpt>
      <trkpt lat="45.36106" lon="4.30302">
        <ele>792</ele>
        <time>2021-02-27T10:09:21Z</time>
      </trkpt>
      <trkpt lat="45.361" lon="4.30302">
        <ele>792</ele>
        <time>2021-02-27T10:09:23Z</time>
      </trkpt>
      <trkpt lat="45.36096" lon="4.30301">
        <ele>792</ele>
        <time>2021-02-27T10:09:24Z</time>
      </trkpt>
      <trkpt lat="45.36092" lon="4.303">
        <ele>793</ele>
        <time>2021-02-27T10:09:25Z</time>
      </trkpt>
      <trkpt lat="45.36088" lon="4.30299">
        <ele>792</ele>
        <time>2021-02-27T10:09:26Z</time>
      </trkpt>
      <trkpt lat="45.36085" lon="4.30298">
        <ele>792</ele>
        <time>2021-02-27T10:09:27Z</time>
      </trkpt>
      <trkpt lat="45.36082" lon="4.30297">
        <ele>792</ele>
        <time>2021-02-27T10:09:28Z</time>
      </trkpt>
      <trkpt lat="45.36079" lon="4.30297">
        <ele>792</ele>
        <time>2021-02-27T10:09:29Z</time>
      </trkpt>
      <trkpt lat="45.36076" lon="4.30296">
        <ele>792</ele>
        <time>2021-02-27T10:09:30Z</time>
      </trkpt>
      <trkpt lat="45.36073" lon="4.30295">
        <ele>792</ele>
        <time>2021-02-27T10:09:31Z</time>
      </trkpt>
      <trkpt lat="45.3607" lon="4.30294">
        <ele>792</ele>
        <time>2021-02-27T10:09:32Z</time>
      </trkpt>
      <trkpt lat="45.36067" lon="4.30293">
        <ele>793</ele>
        <time>2021-02-27T10:09:33Z</time>
      </trkpt>
      <trkpt lat="45.36064" lon="4.30292">
        <ele>793</ele>
        <time>2021-02-27T10:09:34Z</time>
      </trkpt>
      <trkpt lat="45.36059" lon="4.30293">
        <ele>793</ele>
        <time>2021-02-27T10:09:36Z</time>
      </trkpt>
      <trkpt lat="45.36056" lon="4.30294">
        <ele>793</ele>
        <time>2021-02-27T10:09:37Z</time>
      </trkpt>
      <trkpt lat="45.36053" lon="4.30295">
        <ele>793</ele>
        <time>2021-02-27T10:09:38Z</time>
      </trkpt>
      <trkpt lat="45.36049" lon="4.30297">
        <ele>793</ele>
        <time>2021-02-27T10:09:39Z</time>
      </trkpt>
      <trkpt lat="45.36046" lon="4.30298">
        <ele>793</ele>
        <time>2021-02-27T10:09:40Z</time>
      </trkpt>
      <trkpt lat="45.36043" lon="4.30299">
        <ele>794</ele>
        <time>2021-02-27T10:09:41Z</time>
      </trkpt>
      <trkpt lat="45.36039" lon="4.30302">
        <ele>794</ele>
        <time>2021-02-27T10:09:43Z</time>
      </trkpt>
      <trkpt lat="45.36035" lon="4.30303">
        <ele>794</ele>
        <time>2021-02-27T10:09:44Z</time>
      </trkpt>
      <trkpt lat="45.36031" lon="4.30306">
        <ele>794</ele>
        <time>2021-02-27T10:09:46Z</time>
      </trkpt>
      <trkpt lat="45.36028" lon="4.30308">
        <ele>794</ele>
        <time>2021-02-27T10:09:47Z</time>
      </trkpt>
      <trkpt lat="45.36025" lon="4.3031">
        <ele>795</ele>
        <time>2021-02-27T10:09:48Z</time>
      </trkpt>
      <trkpt lat="45.36021" lon="4.30313">
        <ele>795</ele>
        <time>2021-02-27T10:09:50Z</time>
      </trkpt>
      <trkpt lat="45.36017" lon="4.30316">
        <ele>795</ele>
        <time>2021-02-27T10:09:52Z</time>
      </trkpt>
      <trkpt lat="45.36013" lon="4.30319">
        <ele>796</ele>
        <time>2021-02-27T10:09:54Z</time>
      </trkpt>
      <trkpt lat="45.36008" lon="4.30322">
        <ele>796</ele>
        <time>2021-02-27T10:09:56Z</time>
      </trkpt>
      <trkpt lat="45.36004" lon="4.30325">
        <ele>797</ele>
        <time>2021-02-27T10:09:58Z</time>
      </trkpt>
      <trkpt lat="45.36" lon="4.30328">
        <ele>797</ele>
        <time>2021-02-27T10:10:00Z</time>
      </trkpt>
      <trkpt lat="45.35996" lon="4.30331">
        <ele>798</ele>
        <time>2021-02-27T10:10:02Z</time>
      </trkpt>
      <trkpt lat="45.35992" lon="4.30333">
        <ele>799</ele>
        <time>2021-02-27T10:10:04Z</time>
      </trkpt>
      <trkpt lat="45.35989" lon="4.30336">
        <ele>800</ele>
        <time>2021-02-27T10:10:06Z</time>
      </trkpt>
      <trkpt lat="45.35986" lon="4.30339">
        <ele>800</ele>
        <time>2021-02-27T10:10:08Z</time>
      </trkpt>
      <trkpt lat="45.35982" lon="4.30342">
        <ele>801</ele>
        <time>2021-02-27T10:10:11Z</time>
      </trkpt>
      <trkpt lat="45.35979" lon="4.30345">
        <ele>802</ele>
        <time>2021-02-27T10:10:13Z</time>
      </trkpt>
      <trkpt lat="45.35976" lon="4.30348">
        <ele>802</ele>
        <time>2021-02-27T10:10:15Z</time>
      </trkpt>
      <trkpt lat="45.35974" lon="4.30351">
        <ele>802</ele>
        <time>2021-02-27T10:10:17Z</time>
      </trkpt>
      <trkpt lat="45.35971" lon="4.30355">
        <ele>803</ele>
        <time>2021-02-27T10:10:19Z</time>
      </trkpt>
      <trkpt lat="45.35968" lon="4.30359">
        <ele>803</ele>
        <time>2021-02-27T10:10:21Z</time>
      </trkpt>
      <trkpt lat="45.35965" lon="4.30363">
        <ele>804</ele>
        <time>2021-02-27T10:10:23Z</time>
      </trkpt>
      <trkpt lat="45.35962" lon="4.30367">
        <ele>804</ele>
        <time>2021-02-27T10:10:25Z</time>
      </trkpt>
      <trkpt lat="45.35959" lon="4.30371">
        <ele>804</ele>
        <time>2021-02-27T10:10:27Z</time>
      </trkpt>
      <trkpt lat="45.35956" lon="4.30375">
        <ele>805</ele>
        <time>2021-02-27T10:10:29Z</time>
      </trkpt>
      <trkpt lat="45.35953" lon="4.30379">
        <ele>805</ele>
        <time>2021-02-27T10:10:31Z</time>
      </trkpt>
      <trkpt lat="45.3595" lon="4.30382">
        <ele>805</ele>
        <time>2021-02-27T10:10:33Z</time>
      </trkpt>
      <trkpt lat="45.35946" lon="4.30386">
        <ele>805</ele>
        <time>2021-02-27T10:10:35Z</time>
      </trkpt>
      <trkpt lat="45.35943" lon="4.3039">
        <ele>806</ele>
        <time>2021-02-27T10:10:37Z</time>
      </trkpt>
      <trkpt lat="45.35939" lon="4.30394">
        <ele>806</ele>
        <time>2021-02-27T10:10:39Z</time>
      </trkpt>
      <trkpt lat="45.35935" lon="4.30398">
        <ele>807</ele>
        <time>2021-02-27T10:10:41Z</time>
      </trkpt>
      <trkpt lat="45.35932" lon="4.30401">
        <ele>807</ele>
        <time>2021-02-27T10:10:42Z</time>
      </trkpt>
      <trkpt lat="45.35929" lon="4.30403">
        <ele>806</ele>
        <time>2021-02-27T10:10:43Z</time>
      </trkpt>
      <trkpt lat="45.35926" lon="4.30406">
        <ele>806</ele>
        <time>2021-02-27T10:10:45Z</time>
      </trkpt>
      <trkpt lat="45.35923" lon="4.30409">
        <ele>807</ele>
        <time>2021-02-27T10:10:46Z</time>
      </trkpt>
      <trkpt lat="45.3592" lon="4.30411">
        <ele>807</ele>
        <time>2021-02-27T10:10:47Z</time>
      </trkpt>
      <trkpt lat="45.35916" lon="4.30415">
        <ele>807</ele>
        <time>2021-02-27T10:10:49Z</time>
      </trkpt>
      <trkpt lat="45.35913" lon="4.30417">
        <ele>807</ele>
        <time>2021-02-27T10:10:50Z</time>
      </trkpt>
      <trkpt lat="45.35911" lon="4.3042">
        <ele>807</ele>
        <time>2021-02-27T10:10:51Z</time>
      </trkpt>
      <trkpt lat="45.35907" lon="4.30422">
        <ele>808</ele>
        <time>2021-02-27T10:10:53Z</time>
      </trkpt>
      <trkpt lat="45.35903" lon="4.30426">
        <ele>807</ele>
        <time>2021-02-27T10:10:55Z</time>
      </trkpt>
      <trkpt lat="45.359" lon="4.30428">
        <ele>808</ele>
        <time>2021-02-27T10:10:57Z</time>
      </trkpt>
      <trkpt lat="45.35897" lon="4.30432">
        <ele>807</ele>
        <time>2021-02-27T10:10:59Z</time>
      </trkpt>
      <trkpt lat="45.35893" lon="4.30435">
        <ele>807</ele>
        <time>2021-02-27T10:11:01Z</time>
      </trkpt>
      <trkpt lat="45.3589" lon="4.30437">
        <ele>808</ele>
        <time>2021-02-27T10:11:03Z</time>
      </trkpt>
      <trkpt lat="45.35887" lon="4.3044">
        <ele>808</ele>
        <time>2021-02-27T10:11:06Z</time>
      </trkpt>
      <trkpt lat="45.35885" lon="4.30442">
        <ele>807</ele>
        <time>2021-02-27T10:12:04Z</time>
      </trkpt>
      <trkpt lat="45.35881" lon="4.30445">
        <ele>808</ele>
        <time>2021-02-27T10:12:06Z</time>
      </trkpt>
      <trkpt lat="45.35878" lon="4.30447">
        <ele>808</ele>
        <time>2021-02-27T10:12:07Z</time>
      </trkpt>
      <trkpt lat="45.35876" lon="4.3045">
        <ele>807</ele>
        <time>2021-02-27T10:12:08Z</time>
      </trkpt>
      <trkpt lat="45.35873" lon="4.30452">
        <ele>807</ele>
        <time>2021-02-27T10:12:09Z</time>
      </trkpt>
      <trkpt lat="45.3587" lon="4.30455">
        <ele>807</ele>
        <time>2021-02-27T10:12:10Z</time>
      </trkpt>
      <trkpt lat="45.35867" lon="4.30457">
        <ele>807</ele>
        <time>2021-02-27T10:12:11Z</time>
      </trkpt>
      <trkpt lat="45.35864" lon="4.3046">
        <ele>807</ele>
        <time>2021-02-27T10:12:12Z</time>
      </trkpt>
      <trkpt lat="45.35861" lon="4.30462">
        <ele>807</ele>
        <time>2021-02-27T10:12:13Z</time>
      </trkpt>
      <trkpt lat="45.35858" lon="4.30464">
        <ele>807</ele>
        <time>2021-02-27T10:12:14Z</time>
      </trkpt>
      <trkpt lat="45.35855" lon="4.30467">
        <ele>806</ele>
        <time>2021-02-27T10:12:15Z</time>
      </trkpt>
      <trkpt lat="45.35852" lon="4.30469">
        <ele>807</ele>
        <time>2021-02-27T10:12:16Z</time>
      </trkpt>
      <trkpt lat="45.35848" lon="4.30472">
        <ele>806</ele>
        <time>2021-02-27T10:12:17Z</time>
      </trkpt>
      <trkpt lat="45.35845" lon="4.30475">
        <ele>807</ele>
        <time>2021-02-27T10:12:18Z</time>
      </trkpt>
      <trkpt lat="45.35842" lon="4.30477">
        <ele>806</ele>
        <time>2021-02-27T10:12:19Z</time>
      </trkpt>
      <trkpt lat="45.35839" lon="4.30479">
        <ele>806</ele>
        <time>2021-02-27T10:12:20Z</time>
      </trkpt>
      <trkpt lat="45.35836" lon="4.30481">
        <ele>806</ele>
        <time>2021-02-27T10:12:21Z</time>
      </trkpt>
      <trkpt lat="45.35833" lon="4.30483">
        <ele>807</ele>
        <time>2021-02-27T10:12:22Z</time>
      </trkpt>
      <trkpt lat="45.3583" lon="4.30485">
        <ele>806</ele>
        <time>2021-02-27T10:12:23Z</time>
      </trkpt>
      <trkpt lat="45.35827" lon="4.30488">
        <ele>807</ele>
        <time>2021-02-27T10:12:24Z</time>
      </trkpt>
      <trkpt lat="45.35824" lon="4.3049">
        <ele>806</ele>
        <time>2021-02-27T10:12:25Z</time>
      </trkpt>
      <trkpt lat="45.3582" lon="4.30494">
        <ele>807</ele>
        <time>2021-02-27T10:12:27Z</time>
      </trkpt>
      <trkpt lat="45.35816" lon="4.30496">
        <ele>806</ele>
        <time>2021-02-27T10:12:28Z</time>
      </trkpt>
      <trkpt lat="45.35813" lon="4.30497">
        <ele>806</ele>
        <time>2021-02-27T10:12:29Z</time>
      </trkpt>
      <trkpt lat="45.3581" lon="4.30499">
        <ele>807</ele>
        <time>2021-02-27T10:12:30Z</time>
      </trkpt>
      <trkpt lat="45.35808" lon="4.30501">
        <ele>807</ele>
        <time>2021-02-27T10:12:31Z</time>
      </trkpt>
      <trkpt lat="45.35805" lon="4.30502">
        <ele>806</ele>
        <time>2021-02-27T10:12:32Z</time>
      </trkpt>
      <trkpt lat="45.35802" lon="4.30504">
        <ele>807</ele>
        <time>2021-02-27T10:12:33Z</time>
      </trkpt>
      <trkpt lat="45.35799" lon="4.30505">
        <ele>807</ele>
        <time>2021-02-27T10:12:34Z</time>
      </trkpt>
      <trkpt lat="45.35796" lon="4.30507">
        <ele>806</ele>
        <time>2021-02-27T10:12:35Z</time>
      </trkpt>
      <trkpt lat="45.35793" lon="4.30509">
        <ele>807</ele>
        <time>2021-02-27T10:12:36Z</time>
      </trkpt>
      <trkpt lat="45.3579" lon="4.30511">
        <ele>807</ele>
        <time>2021-02-27T10:12:37Z</time>
      </trkpt>
      <trkpt lat="45.35787" lon="4.30512">
        <ele>807</ele>
        <time>2021-02-27T10:12:38Z</time>
      </trkpt>
      <trkpt lat="45.35784" lon="4.30514">
        <ele>807</ele>
        <time>2021-02-27T10:12:39Z</time>
      </trkpt>
      <trkpt lat="45.35781" lon="4.30516">
        <ele>807</ele>
        <time>2021-02-27T10:12:40Z</time>
      </trkpt>
      <trkpt lat="45.35778" lon="4.30518">
        <ele>807</ele>
        <time>2021-02-27T10:12:41Z</time>
      </trkpt>
      <trkpt lat="45.35776" lon="4.3052">
        <ele>807</ele>
        <time>2021-02-27T10:12:42Z</time>
      </trkpt>
      <trkpt lat="45.35773" lon="4.30522">
        <ele>807</ele>
        <time>2021-02-27T10:12:43Z</time>
      </trkpt>
      <trkpt lat="45.35769" lon="4.30523">
        <ele>807</ele>
        <time>2021-02-27T10:12:44Z</time>
      </trkpt>
      <trkpt lat="45.35766" lon="4.30525">
        <ele>807</ele>
        <time>2021-02-27T10:12:45Z</time>
      </trkpt>
      <trkpt lat="45.35763" lon="4.30527">
        <ele>807</ele>
        <time>2021-02-27T10:12:46Z</time>
      </trkpt>
      <trkpt lat="45.3576" lon="4.30528">
        <ele>808</ele>
        <time>2021-02-27T10:12:47Z</time>
      </trkpt>
      <trkpt lat="45.35757" lon="4.3053">
        <ele>808</ele>
        <time>2021-02-27T10:12:48Z</time>
      </trkpt>
      <trkpt lat="45.35754" lon="4.30532">
        <ele>808</ele>
        <time>2021-02-27T10:12:49Z</time>
      </trkpt>
      <trkpt lat="45.3575" lon="4.30534">
        <ele>808</ele>
        <time>2021-02-27T10:12:51Z</time>
      </trkpt>
      <trkpt lat="45.35747" lon="4.30536">
        <ele>808</ele>
        <time>2021-02-27T10:12:52Z</time>
      </trkpt>
      <trkpt lat="45.35742" lon="4.30539">
        <ele>808</ele>
        <time>2021-02-27T10:12:54Z</time>
      </trkpt>
      <trkpt lat="45.35737" lon="4.30541">
        <ele>809</ele>
        <time>2021-02-27T10:12:56Z</time>
      </trkpt>
      <trkpt lat="45.35733" lon="4.30543">
        <ele>809</ele>
        <time>2021-02-27T10:12:57Z</time>
      </trkpt>
      <trkpt lat="45.35729" lon="4.30544">
        <ele>808</ele>
        <time>2021-02-27T10:12:58Z</time>
      </trkpt>
      <trkpt lat="45.35726" lon="4.30546">
        <ele>809</ele>
        <time>2021-02-27T10:12:59Z</time>
      </trkpt>
      <trkpt lat="45.35722" lon="4.30547">
        <ele>809</ele>
        <time>2021-02-27T10:13:01Z</time>
      </trkpt>
      <trkpt lat="45.35718" lon="4.30549">
        <ele>809</ele>
        <time>2021-02-27T10:13:03Z</time>
      </trkpt>
      <trkpt lat="45.35714" lon="4.3055">
        <ele>809</ele>
        <time>2021-02-27T10:13:04Z</time>
      </trkpt>
      <trkpt lat="45.35711" lon="4.30551">
        <ele>809</ele>
        <time>2021-02-27T10:13:05Z</time>
      </trkpt>
      <trkpt lat="45.35708" lon="4.30553">
        <ele>810</ele>
        <time>2021-02-27T10:13:06Z</time>
      </trkpt>
      <trkpt lat="45.35705" lon="4.30554">
        <ele>810</ele>
        <time>2021-02-27T10:13:07Z</time>
      </trkpt>
      <trkpt lat="45.35702" lon="4.30556">
        <ele>810</ele>
        <time>2021-02-27T10:13:08Z</time>
      </trkpt>
      <trkpt lat="45.35699" lon="4.30558">
        <ele>809</ele>
        <time>2021-02-27T10:13:09Z</time>
      </trkpt>
      <trkpt lat="45.35696" lon="4.30559">
        <ele>810</ele>
        <time>2021-02-27T10:13:10Z</time>
      </trkpt>
      <trkpt lat="45.35692" lon="4.30561">
        <ele>810</ele>
        <time>2021-02-27T10:13:11Z</time>
      </trkpt>
      <trkpt lat="45.35688" lon="4.30563">
        <ele>810</ele>
        <time>2021-02-27T10:13:12Z</time>
      </trkpt>
      <trkpt lat="45.35685" lon="4.30564">
        <ele>810</ele>
        <time>2021-02-27T10:13:13Z</time>
      </trkpt>
      <trkpt lat="45.35681" lon="4.30565">
        <ele>810</ele>
        <time>2021-02-27T10:13:14Z</time>
      </trkpt>
      <trkpt lat="45.35677" lon="4.30567">
        <ele>811</ele>
        <time>2021-02-27T10:13:16Z</time>
      </trkpt>
      <trkpt lat="45.35673" lon="4.30568">
        <ele>811</ele>
        <time>2021-02-27T10:13:17Z</time>
      </trkpt>
      <trkpt lat="45.3567" lon="4.30569">
        <ele>811</ele>
        <time>2021-02-27T10:13:18Z</time>
      </trkpt>
      <trkpt lat="45.35667" lon="4.3057">
        <ele>811</ele>
        <time>2021-02-27T10:13:19Z</time>
      </trkpt>
      <trkpt lat="45.35664" lon="4.30571">
        <ele>812</ele>
        <time>2021-02-27T10:13:20Z</time>
      </trkpt>
      <trkpt lat="45.35659" lon="4.30573">
        <ele>812</ele>
        <time>2021-02-27T10:13:22Z</time>
      </trkpt>
      <trkpt lat="45.35656" lon="4.30575">
        <ele>812</ele>
        <time>2021-02-27T10:13:23Z</time>
      </trkpt>
      <trkpt lat="45.35652" lon="4.30577">
        <ele>812</ele>
        <time>2021-02-27T10:13:25Z</time>
      </trkpt>
      <trkpt lat="45.35647" lon="4.3058">
        <ele>813</ele>
        <time>2021-02-27T10:13:27Z</time>
      </trkpt>
      <trkpt lat="45.35642" lon="4.30582">
        <ele>813</ele>
        <time>2021-02-27T10:13:28Z</time>
      </trkpt>
      <trkpt lat="45.35637" lon="4.30584">
        <ele>813</ele>
        <time>2021-02-27T10:13:29Z</time>
      </trkpt>
      <trkpt lat="45.35633" lon="4.30586">
        <ele>813</ele>
        <time>2021-02-27T10:13:30Z</time>
      </trkpt>
      <trkpt lat="45.3563" lon="4.30588">
        <ele>813</ele>
        <time>2021-02-27T10:13:31Z</time>
      </trkpt>
      <trkpt lat="45.35626" lon="4.30589">
        <ele>813</ele>
        <time>2021-02-27T10:13:32Z</time>
      </trkpt>
      <trkpt lat="45.35623" lon="4.3059">
        <ele>814</ele>
        <time>2021-02-27T10:13:33Z</time>
      </trkpt>
      <trkpt lat="45.3562" lon="4.30592">
        <ele>814</ele>
        <time>2021-02-27T10:13:34Z</time>
      </trkpt>
      <trkpt lat="45.35617" lon="4.30594">
        <ele>814</ele>
        <time>2021-02-27T10:13:35Z</time>
      </trkpt>
      <trkpt lat="45.35613" lon="4.30596">
        <ele>814</ele>
        <time>2021-02-27T10:13:36Z</time>
      </trkpt>
      <trkpt lat="45.3561" lon="4.30598">
        <ele>813</ele>
        <time>2021-02-27T10:13:37Z</time>
      </trkpt>
      <trkpt lat="45.35607" lon="4.30599">
        <ele>813</ele>
        <time>2021-02-27T10:13:38Z</time>
      </trkpt>
      <trkpt lat="45.35603" lon="4.306">
        <ele>813</ele>
        <time>2021-02-27T10:13:39Z</time>
      </trkpt>
      <trkpt lat="45.356" lon="4.30602">
        <ele>813</ele>
        <time>2021-02-27T10:13:40Z</time>
      </trkpt>
      <trkpt lat="45.35596" lon="4.30604">
        <ele>813</ele>
        <time>2021-02-27T10:13:41Z</time>
      </trkpt>
      <trkpt lat="45.35592" lon="4.30606">
        <ele>813</ele>
        <time>2021-02-27T10:13:42Z</time>
      </trkpt>
      <trkpt lat="45.35589" lon="4.30608">
        <ele>813</ele>
        <time>2021-02-27T10:13:43Z</time>
      </trkpt>
      <trkpt lat="45.35585" lon="4.3061">
        <ele>813</ele>
        <time>2021-02-27T10:13:44Z</time>
      </trkpt>
      <trkpt lat="45.35582" lon="4.30612">
        <ele>813</ele>
        <time>2021-02-27T10:13:45Z</time>
      </trkpt>
      <trkpt lat="45.35579" lon="4.30614">
        <ele>812</ele>
        <time>2021-02-27T10:13:46Z</time>
      </trkpt>
      <trkpt lat="45.35576" lon="4.30616">
        <ele>813</ele>
        <time>2021-02-27T10:13:47Z</time>
      </trkpt>
      <trkpt lat="45.35572" lon="4.30618">
        <ele>813</ele>
        <time>2021-02-27T10:13:48Z</time>
      </trkpt>
      <trkpt lat="45.35569" lon="4.30621">
        <ele>812</ele>
        <time>2021-02-27T10:13:49Z</time>
      </trkpt>
      <trkpt lat="45.35565" lon="4.30623">
        <ele>813</ele>
        <time>2021-02-27T10:13:50Z</time>
      </trkpt>
      <trkpt lat="45.35562" lon="4.30625">
        <ele>813</ele>
        <time>2021-02-27T10:13:51Z</time>
      </trkpt>
      <trkpt lat="45.35558" lon="4.30628">
        <ele>813</ele>
        <time>2021-02-27T10:13:52Z</time>
      </trkpt>
      <trkpt lat="45.35554" lon="4.30631">
        <ele>813</ele>
        <time>2021-02-27T10:13:53Z</time>
      </trkpt>
      <trkpt lat="45.35551" lon="4.30633">
        <ele>813</ele>
        <time>2021-02-27T10:13:54Z</time>
      </trkpt>
      <trkpt lat="45.35547" lon="4.30636">
        <ele>813</ele>
        <time>2021-02-27T10:13:55Z</time>
      </trkpt>
      <trkpt lat="45.35543" lon="4.30638">
        <ele>813</ele>
        <time>2021-02-27T10:13:56Z</time>
      </trkpt>
      <trkpt lat="45.35539" lon="4.3064">
        <ele>812</ele>
        <time>2021-02-27T10:13:57Z</time>
      </trkpt>
      <trkpt lat="45.35534" lon="4.30642">
        <ele>812</ele>
        <time>2021-02-27T10:13:58Z</time>
      </trkpt>
      <trkpt lat="45.3553" lon="4.30644">
        <ele>812</ele>
        <time>2021-02-27T10:13:59Z</time>
      </trkpt>
      <trkpt lat="45.35525" lon="4.30645">
        <ele>811</ele>
        <time>2021-02-27T10:14:00Z</time>
      </trkpt>
      <trkpt lat="45.35521" lon="4.30647">
        <ele>812</ele>
        <time>2021-02-27T10:14:01Z</time>
      </trkpt>
      <trkpt lat="45.35516" lon="4.30648">
        <ele>812</ele>
        <time>2021-02-27T10:14:02Z</time>
      </trkpt>
      <trkpt lat="45.35512" lon="4.3065">
        <ele>812</ele>
        <time>2021-02-27T10:14:03Z</time>
      </trkpt>
      <trkpt lat="45.35508" lon="4.30652">
        <ele>812</ele>
        <time>2021-02-27T10:14:04Z</time>
      </trkpt>
      <trkpt lat="45.35503" lon="4.30654">
        <ele>812</ele>
        <time>2021-02-27T10:14:05Z</time>
      </trkpt>
      <trkpt lat="45.35498" lon="4.30656">
        <ele>812</ele>
        <time>2021-02-27T10:14:06Z</time>
      </trkpt>
      <trkpt lat="45.35494" lon="4.30659">
        <ele>812</ele>
        <time>2021-02-27T10:14:07Z</time>
      </trkpt>
      <trkpt lat="45.3549" lon="4.30661">
        <ele>812</ele>
        <time>2021-02-27T10:14:08Z</time>
      </trkpt>
      <trkpt lat="45.35487" lon="4.30663">
        <ele>812</ele>
        <time>2021-02-27T10:14:09Z</time>
      </trkpt>
      <trkpt lat="45.35483" lon="4.30665">
        <ele>812</ele>
        <time>2021-02-27T10:14:10Z</time>
      </trkpt>
      <trkpt lat="45.35479" lon="4.30667">
        <ele>812</ele>
        <time>2021-02-27T10:14:11Z</time>
      </trkpt>
      <trkpt lat="45.35475" lon="4.30669">
        <ele>812</ele>
        <time>2021-02-27T10:14:12Z</time>
      </trkpt>
      <trkpt lat="45.35471" lon="4.30672">
        <ele>812</ele>
        <time>2021-02-27T10:14:13Z</time>
      </trkpt>
      <trkpt lat="45.35468" lon="4.30674">
        <ele>812</ele>
        <time>2021-02-27T10:14:14Z</time>
      </trkpt>
      <trkpt lat="45.35464" lon="4.30676">
        <ele>812</ele>
        <time>2021-02-27T10:14:15Z</time>
      </trkpt>
      <trkpt lat="45.3546" lon="4.30678">
        <ele>812</ele>
        <time>2021-02-27T10:14:16Z</time>
      </trkpt>
      <trkpt lat="45.35456" lon="4.30679">
        <ele>812</ele>
        <time>2021-02-27T10:14:17Z</time>
      </trkpt>
      <trkpt lat="45.35452" lon="4.3068">
        <ele>812</ele>
        <time>2021-02-27T10:14:18Z</time>
      </trkpt>
      <trkpt lat="45.35449" lon="4.30681">
        <ele>812</ele>
        <time>2021-02-27T10:14:19Z</time>
      </trkpt>
      <trkpt lat="45.35445" lon="4.30681">
        <ele>812</ele>
        <time>2021-02-27T10:14:20Z</time>
      </trkpt>
      <trkpt lat="45.35441" lon="4.30682">
        <ele>812</ele>
        <time>2021-02-27T10:14:21Z</time>
      </trkpt>
      <trkpt lat="45.35437" lon="4.30683">
        <ele>812</ele>
        <time>2021-02-27T10:14:22Z</time>
      </trkpt>
      <trkpt lat="45.35433" lon="4.30683">
        <ele>813</ele>
        <time>2021-02-27T10:14:23Z</time>
      </trkpt>
      <trkpt lat="45.35429" lon="4.30684">
        <ele>813</ele>
        <time>2021-02-27T10:14:24Z</time>
      </trkpt>
      <trkpt lat="45.35424" lon="4.30684">
        <ele>812</ele>
        <time>2021-02-27T10:14:25Z</time>
      </trkpt>
      <trkpt lat="45.3542" lon="4.30684">
        <ele>813</ele>
        <time>2021-02-27T10:14:26Z</time>
      </trkpt>
      <trkpt lat="45.35416" lon="4.30685">
        <ele>812</ele>
        <time>2021-02-27T10:14:27Z</time>
      </trkpt>
      <trkpt lat="45.35411" lon="4.30685">
        <ele>812</ele>
        <time>2021-02-27T10:14:28Z</time>
      </trkpt>
      <trkpt lat="45.35407" lon="4.30686">
        <ele>812</ele>
        <time>2021-02-27T10:14:29Z</time>
      </trkpt>
      <trkpt lat="45.35402" lon="4.30686">
        <ele>812</ele>
        <time>2021-02-27T10:14:30Z</time>
      </trkpt>
      <trkpt lat="45.35398" lon="4.30686">
        <ele>813</ele>
        <time>2021-02-27T10:14:31Z</time>
      </trkpt>
      <trkpt lat="45.35394" lon="4.30686">
        <ele>812</ele>
        <time>2021-02-27T10:14:32Z</time>
      </trkpt>
      <trkpt lat="45.35389" lon="4.30687">
        <ele>812</ele>
        <time>2021-02-27T10:14:33Z</time>
      </trkpt>
      <trkpt lat="45.35385" lon="4.30687">
        <ele>813</ele>
        <time>2021-02-27T10:14:34Z</time>
      </trkpt>
      <trkpt lat="45.35381" lon="4.30687">
        <ele>813</ele>
        <time>2021-02-27T10:14:35Z</time>
      </trkpt>
      <trkpt lat="45.35376" lon="4.30687">
        <ele>813</ele>
        <time>2021-02-27T10:14:36Z</time>
      </trkpt>
      <trkpt lat="45.35372" lon="4.30687">
        <ele>813</ele>
        <time>2021-02-27T10:14:37Z</time>
      </trkpt>
      <trkpt lat="45.35367" lon="4.30686">
        <ele>813</ele>
        <time>2021-02-27T10:14:38Z</time>
      </trkpt>
      <trkpt lat="45.35362" lon="4.30686">
        <ele>813</ele>
        <time>2021-02-27T10:14:39Z</time>
      </trkpt>
      <trkpt lat="45.35358" lon="4.30686">
        <ele>813</ele>
        <time>2021-02-27T10:14:40Z</time>
      </trkpt>
      <trkpt lat="45.35353" lon="4.30686">
        <ele>813</ele>
        <time>2021-02-27T10:14:41Z</time>
      </trkpt>
      <trkpt lat="45.35349" lon="4.30686">
        <ele>813</ele>
        <time>2021-02-27T10:14:42Z</time>
      </trkpt>
      <trkpt lat="45.35344" lon="4.30686">
        <ele>813</ele>
        <time>2021-02-27T10:14:43Z</time>
      </trkpt>
      <trkpt lat="45.3534" lon="4.30686">
        <ele>814</ele>
        <time>2021-02-27T10:14:44Z</time>
      </trkpt>
      <trkpt lat="45.35336" lon="4.30685">
        <ele>814</ele>
        <time>2021-02-27T10:14:45Z</time>
      </trkpt>
      <trkpt lat="45.35331" lon="4.30685">
        <ele>814</ele>
        <time>2021-02-27T10:14:46Z</time>
      </trkpt>
      <trkpt lat="45.35327" lon="4.30685">
        <ele>814</ele>
        <time>2021-02-27T10:14:47Z</time>
      </trkpt>
      <trkpt lat="45.35323" lon="4.30684">
        <ele>814</ele>
        <time>2021-02-27T10:14:48Z</time>
      </trkpt>
      <trkpt lat="45.35318" lon="4.30684">
        <ele>815</ele>
        <time>2021-02-27T10:14:49Z</time>
      </trkpt>
      <trkpt lat="45.35313" lon="4.30683">
        <ele>815</ele>
        <time>2021-02-27T10:14:50Z</time>
      </trkpt>
      <trkpt lat="45.35308" lon="4.30683">
        <ele>815</ele>
        <time>2021-02-27T10:14:51Z</time>
      </trkpt>
      <trkpt lat="45.35303" lon="4.30682">
        <ele>815</ele>
        <time>2021-02-27T10:14:52Z</time>
      </trkpt>
      <trkpt lat="45.35299" lon="4.30682">
        <ele>815</ele>
        <time>2021-02-27T10:14:53Z</time>
      </trkpt>
      <trkpt lat="45.35294" lon="4.30681">
        <ele>815</ele>
        <time>2021-02-27T10:14:54Z</time>
      </trkpt>
      <trkpt lat="45.35289" lon="4.30681">
        <ele>816</ele>
        <time>2021-02-27T10:14:55Z</time>
      </trkpt>
      <trkpt lat="45.35285" lon="4.3068">
        <ele>816</ele>
        <time>2021-02-27T10:14:56Z</time>
      </trkpt>
      <trkpt lat="45.3528" lon="4.3068">
        <ele>816</ele>
        <time>2021-02-27T10:14:57Z</time>
      </trkpt>
      <trkpt lat="45.35276" lon="4.3068">
        <ele>817</ele>
        <time>2021-02-27T10:14:58Z</time>
      </trkpt>
      <trkpt lat="45.35271" lon="4.30679">
        <ele>817</ele>
        <time>2021-02-27T10:14:59Z</time>
      </trkpt>
      <trkpt lat="45.35267" lon="4.30679">
        <ele>817</ele>
        <time>2021-02-27T10:15:00Z</time>
      </trkpt>
      <trkpt lat="45.35263" lon="4.30679">
        <ele>817</ele>
        <time>2021-02-27T10:15:01Z</time>
      </trkpt>
      <trkpt lat="45.35259" lon="4.30679">
        <ele>818</ele>
        <time>2021-02-27T10:15:02Z</time>
      </trkpt>
      <trkpt lat="45.35254" lon="4.30679">
        <ele>818</ele>
        <time>2021-02-27T10:15:03Z</time>
      </trkpt>
      <trkpt lat="45.3525" lon="4.30679">
        <ele>818</ele>
        <time>2021-02-27T10:15:04Z</time>
      </trkpt>
      <trkpt lat="45.35246" lon="4.30679">
        <ele>818</ele>
        <time>2021-02-27T10:15:05Z</time>
      </trkpt>
      <trkpt lat="45.35242" lon="4.30679">
        <ele>819</ele>
        <time>2021-02-27T10:15:06Z</time>
      </trkpt>
      <trkpt lat="45.35238" lon="4.30679">
        <ele>819</ele>
        <time>2021-02-27T10:15:07Z</time>
      </trkpt>
      <trkpt lat="45.35234" lon="4.30679">
        <ele>819</ele>
        <time>2021-02-27T10:15:08Z</time>
      </trkpt>
      <trkpt lat="45.3523" lon="4.30679">
        <ele>820</ele>
        <time>2021-02-27T10:15:09Z</time>
      </trkpt>
      <trkpt lat="45.35225" lon="4.3068">
        <ele>820</ele>
        <time>2021-02-27T10:15:10Z</time>
      </trkpt>
      <trkpt lat="45.35221" lon="4.3068">
        <ele>821</ele>
        <time>2021-02-27T10:15:11Z</time>
      </trkpt>
      <trkpt lat="45.35218" lon="4.30681">
        <ele>821</ele>
        <time>2021-02-27T10:15:12Z</time>
      </trkpt>
      <trkpt lat="45.35214" lon="4.30681">
        <ele>821</ele>
        <time>2021-02-27T10:15:13Z</time>
      </trkpt>
      <trkpt lat="45.35211" lon="4.30682">
        <ele>821</ele>
        <time>2021-02-27T10:15:14Z</time>
      </trkpt>
      <trkpt lat="45.35207" lon="4.30683">
        <ele>822</ele>
        <time>2021-02-27T10:15:15Z</time>
      </trkpt>
      <trkpt lat="45.35204" lon="4.30684">
        <ele>822</ele>
        <time>2021-02-27T10:15:16Z</time>
      </trkpt>
      <trkpt lat="45.35201" lon="4.30685">
        <ele>822</ele>
        <time>2021-02-27T10:15:17Z</time>
      </trkpt>
      <trkpt lat="45.35197" lon="4.30686">
        <ele>822</ele>
        <time>2021-02-27T10:15:18Z</time>
      </trkpt>
      <trkpt lat="45.35194" lon="4.30687">
        <ele>822</ele>
        <time>2021-02-27T10:15:19Z</time>
      </trkpt>
      <trkpt lat="45.3519" lon="4.30689">
        <ele>822</ele>
        <time>2021-02-27T10:15:20Z</time>
      </trkpt>
      <trkpt lat="45.35186" lon="4.3069">
        <ele>823</ele>
        <time>2021-02-27T10:15:21Z</time>
      </trkpt>
      <trkpt lat="45.35183" lon="4.30692">
        <ele>823</ele>
        <time>2021-02-27T10:15:22Z</time>
      </trkpt>
      <trkpt lat="45.3518" lon="4.30694">
        <ele>823</ele>
        <time>2021-02-27T10:15:23Z</time>
      </trkpt>
      <trkpt lat="45.35176" lon="4.30696">
        <ele>822</ele>
        <time>2021-02-27T10:15:24Z</time>
      </trkpt>
      <trkpt lat="45.35173" lon="4.30698">
        <ele>822</ele>
        <time>2021-02-27T10:15:25Z</time>
      </trkpt>
      <trkpt lat="45.35169" lon="4.30701">
        <ele>823</ele>
        <time>2021-02-27T10:15:26Z</time>
      </trkpt>
      <trkpt lat="45.35165" lon="4.30704">
        <ele>823</ele>
        <time>2021-02-27T10:15:27Z</time>
      </trkpt>
      <trkpt lat="45.35161" lon="4.30707">
        <ele>822</ele>
        <time>2021-02-27T10:15:28Z</time>
      </trkpt>
      <trkpt lat="45.35158" lon="4.3071">
        <ele>823</ele>
        <time>2021-02-27T10:15:29Z</time>
      </trkpt>
      <trkpt lat="45.35154" lon="4.30712">
        <ele>823</ele>
        <time>2021-02-27T10:15:30Z</time>
      </trkpt>
      <trkpt lat="45.3515" lon="4.30715">
        <ele>822</ele>
        <time>2021-02-27T10:15:31Z</time>
      </trkpt>
      <trkpt lat="45.35147" lon="4.30717">
        <ele>822</ele>
        <time>2021-02-27T10:15:32Z</time>
      </trkpt>
      <trkpt lat="45.35142" lon="4.30719">
        <ele>822</ele>
        <time>2021-02-27T10:15:33Z</time>
      </trkpt>
      <trkpt lat="45.35139" lon="4.30722">
        <ele>822</ele>
        <time>2021-02-27T10:15:34Z</time>
      </trkpt>
      <trkpt lat="45.35136" lon="4.30724">
        <ele>823</ele>
        <time>2021-02-27T10:15:35Z</time>
      </trkpt>
      <trkpt lat="45.35132" lon="4.30726">
        <ele>822</ele>
        <time>2021-02-27T10:15:36Z</time>
      </trkpt>
      <trkpt lat="45.35128" lon="4.30728">
        <ele>823</ele>
        <time>2021-02-27T10:15:37Z</time>
      </trkpt>
      <trkpt lat="45.35124" lon="4.3073">
        <ele>823</ele>
        <time>2021-02-27T10:15:38Z</time>
      </trkpt>
      <trkpt lat="45.35121" lon="4.30732">
        <ele>823</ele>
        <time>2021-02-27T10:15:39Z</time>
      </trkpt>
      <trkpt lat="45.35116" lon="4.30735">
        <ele>823</ele>
        <time>2021-02-27T10:15:40Z</time>
      </trkpt>
      <trkpt lat="45.35113" lon="4.30737">
        <ele>823</ele>
        <time>2021-02-27T10:15:41Z</time>
      </trkpt>
      <trkpt lat="45.35109" lon="4.30739">
        <ele>823</ele>
        <time>2021-02-27T10:15:42Z</time>
      </trkpt>
      <trkpt lat="45.35105" lon="4.30742">
        <ele>823</ele>
        <time>2021-02-27T10:15:43Z</time>
      </trkpt>
      <trkpt lat="45.35102" lon="4.30744">
        <ele>823</ele>
        <time>2021-02-27T10:15:44Z</time>
      </trkpt>
      <trkpt lat="45.35099" lon="4.30747">
        <ele>823</ele>
        <time>2021-02-27T10:15:45Z</time>
      </trkpt>
      <trkpt lat="45.35095" lon="4.3075">
        <ele>823</ele>
        <time>2021-02-27T10:15:46Z</time>
      </trkpt>
      <trkpt lat="45.35092" lon="4.30753">
        <ele>823</ele>
        <time>2021-02-27T10:15:47Z</time>
      </trkpt>
      <trkpt lat="45.35088" lon="4.30755">
        <ele>823</ele>
        <time>2021-02-27T10:15:48Z</time>
      </trkpt>
      <trkpt lat="45.35085" lon="4.30757">
        <ele>823</ele>
        <time>2021-02-27T10:15:49Z</time>
      </trkpt>
      <trkpt lat="45.35082" lon="4.3076">
        <ele>823</ele>
        <time>2021-02-27T10:15:50Z</time>
      </trkpt>
      <trkpt lat="45.35079" lon="4.30763">
        <ele>822</ele>
        <time>2021-02-27T10:15:51Z</time>
      </trkpt>
      <trkpt lat="45.35076" lon="4.30765">
        <ele>822</ele>
        <time>2021-02-27T10:15:52Z</time>
      </trkpt>
      <trkpt lat="45.35072" lon="4.30768">
        <ele>822</ele>
        <time>2021-02-27T10:15:53Z</time>
      </trkpt>
      <trkpt lat="45.35069" lon="4.30771">
        <ele>822</ele>
        <time>2021-02-27T10:15:54Z</time>
      </trkpt>
      <trkpt lat="45.35065" lon="4.30774">
        <ele>822</ele>
        <time>2021-02-27T10:15:55Z</time>
      </trkpt>
      <trkpt lat="45.35062" lon="4.30777">
        <ele>823</ele>
        <time>2021-02-27T10:15:56Z</time>
      </trkpt>
      <trkpt lat="45.35058" lon="4.3078">
        <ele>823</ele>
        <time>2021-02-27T10:15:57Z</time>
      </trkpt>
      <trkpt lat="45.35054" lon="4.30783">
        <ele>822</ele>
        <time>2021-02-27T10:15:58Z</time>
      </trkpt>
      <trkpt lat="45.3505" lon="4.30786">
        <ele>822</ele>
        <time>2021-02-27T10:15:59Z</time>
      </trkpt>
      <trkpt lat="45.35046" lon="4.3079">
        <ele>822</ele>
        <time>2021-02-27T10:16:00Z</time>
      </trkpt>
      <trkpt lat="45.35042" lon="4.30793">
        <ele>822</ele>
        <time>2021-02-27T10:16:01Z</time>
      </trkpt>
      <trkpt lat="45.35038" lon="4.30796">
        <ele>822</ele>
        <time>2021-02-27T10:16:02Z</time>
      </trkpt>
      <trkpt lat="45.35035" lon="4.308">
        <ele>822</ele>
        <time>2021-02-27T10:16:03Z</time>
      </trkpt>
      <trkpt lat="45.35031" lon="4.30803">
        <ele>822</ele>
        <time>2021-02-27T10:16:04Z</time>
      </trkpt>
      <trkpt lat="45.35028" lon="4.30806">
        <ele>822</ele>
        <time>2021-02-27T10:16:05Z</time>
      </trkpt>
      <trkpt lat="45.35024" lon="4.3081">
        <ele>823</ele>
        <time>2021-02-27T10:16:06Z</time>
      </trkpt>
      <trkpt lat="45.3502" lon="4.30814">
        <ele>823</ele>
        <time>2021-02-27T10:16:07Z</time>
      </trkpt>
      <trkpt lat="45.35016" lon="4.30817">
        <ele>823</ele>
        <time>2021-02-27T10:16:08Z</time>
      </trkpt>
      <trkpt lat="45.35012" lon="4.30821">
        <ele>823</ele>
        <time>2021-02-27T10:16:09Z</time>
      </trkpt>
      <trkpt lat="45.35009" lon="4.30824">
        <ele>823</ele>
        <time>2021-02-27T10:16:10Z</time>
      </trkpt>
      <trkpt lat="45.35005" lon="4.30828">
        <ele>822</ele>
        <time>2021-02-27T10:16:11Z</time>
      </trkpt>
      <trkpt lat="45.35001" lon="4.30831">
        <ele>823</ele>
        <time>2021-02-27T10:16:12Z</time>
      </trkpt>
      <trkpt lat="45.34997" lon="4.30835">
        <ele>822</ele>
        <time>2021-02-27T10:16:13Z</time>
      </trkpt>
      <trkpt lat="45.34994" lon="4.30839">
        <ele>823</ele>
        <time>2021-02-27T10:16:14Z</time>
      </trkpt>
      <trkpt lat="45.3499" lon="4.30842">
        <ele>822</ele>
        <time>2021-02-27T10:16:15Z</time>
      </trkpt>
      <trkpt lat="45.34986" lon="4.30846">
        <ele>822</ele>
        <time>2021-02-27T10:16:16Z</time>
      </trkpt>
      <trkpt lat="45.34983" lon="4.30851">
        <ele>822</ele>
        <time>2021-02-27T10:16:17Z</time>
      </trkpt>
      <trkpt lat="45.34979" lon="4.30855">
        <ele>822</ele>
        <time>2021-02-27T10:16:18Z</time>
      </trkpt>
      <trkpt lat="45.34975" lon="4.30859">
        <ele>822</ele>
        <time>2021-02-27T10:16:19Z</time>
      </trkpt>
      <trkpt lat="45.34972" lon="4.30864">
        <ele>823</ele>
        <time>2021-02-27T10:16:20Z</time>
      </trkpt>
      <trkpt lat="45.34968" lon="4.30868">
        <ele>822</ele>
        <time>2021-02-27T10:16:21Z</time>
      </trkpt>
      <trkpt lat="45.34964" lon="4.30873">
        <ele>822</ele>
        <time>2021-02-27T10:16:22Z</time>
      </trkpt>
      <trkpt lat="45.3496" lon="4.30877">
        <ele>822</ele>
        <time>2021-02-27T10:16:23Z</time>
      </trkpt>
      <trkpt lat="45.34957" lon="4.30882">
        <ele>822</ele>
        <time>2021-02-27T10:16:24Z</time>
      </trkpt>
      <trkpt lat="45.34953" lon="4.30887">
        <ele>822</ele>
        <time>2021-02-27T10:16:25Z</time>
      </trkpt>
      <trkpt lat="45.34949" lon="4.30891">
        <ele>822</ele>
        <time>2021-02-27T10:16:26Z</time>
      </trkpt>
      <trkpt lat="45.34946" lon="4.30896">
        <ele>822</ele>
        <time>2021-02-27T10:16:27Z</time>
      </trkpt>
      <trkpt lat="45.34942" lon="4.30901">
        <ele>821</ele>
        <time>2021-02-27T10:16:28Z</time>
      </trkpt>
      <trkpt lat="45.34938" lon="4.30906">
        <ele>822</ele>
        <time>2021-02-27T10:16:29Z</time>
      </trkpt>
      <trkpt lat="45.34935" lon="4.3091">
        <ele>822</ele>
        <time>2021-02-27T10:16:30Z</time>
      </trkpt>
      <trkpt lat="45.34931" lon="4.30915">
        <ele>822</ele>
        <time>2021-02-27T10:16:31Z</time>
      </trkpt>
      <trkpt lat="45.34927" lon="4.3092">
        <ele>822</ele>
        <time>2021-02-27T10:16:32Z</time>
      </trkpt>
      <trkpt lat="45.34923" lon="4.30924">
        <ele>822</ele>
        <time>2021-02-27T10:16:33Z</time>
      </trkpt>
      <trkpt lat="45.34919" lon="4.30928">
        <ele>822</ele>
        <time>2021-02-27T10:16:34Z</time>
      </trkpt>
      <trkpt lat="45.34915" lon="4.30932">
        <ele>822</ele>
        <time>2021-02-27T10:16:35Z</time>
      </trkpt>
      <trkpt lat="45.34912" lon="4.30937">
        <ele>822</ele>
        <time>2021-02-27T10:16:36Z</time>
      </trkpt>
      <trkpt lat="45.34908" lon="4.30941">
        <ele>822</ele>
        <time>2021-02-27T10:16:37Z</time>
      </trkpt>
      <trkpt lat="45.34904" lon="4.30945">
        <ele>822</ele>
        <time>2021-02-27T10:16:38Z</time>
      </trkpt>
      <trkpt lat="45.34899" lon="4.3095">
        <ele>822</ele>
        <time>2021-02-27T10:16:39Z</time>
      </trkpt>
      <trkpt lat="45.34895" lon="4.30954">
        <ele>823</ele>
        <time>2021-02-27T10:16:40Z</time>
      </trkpt>
      <trkpt lat="45.34891" lon="4.30958">
        <ele>822</ele>
        <time>2021-02-27T10:16:41Z</time>
      </trkpt>
      <trkpt lat="45.34887" lon="4.30962">
        <ele>822</ele>
        <time>2021-02-27T10:16:42Z</time>
      </trkpt>
      <trkpt lat="45.34882" lon="4.30966">
        <ele>822</ele>
        <time>2021-02-27T10:16:43Z</time>
      </trkpt>
      <trkpt lat="45.34878" lon="4.3097">
        <ele>822</ele>
        <time>2021-02-27T10:16:44Z</time>
      </trkpt>
      <trkpt lat="45.34874" lon="4.30973">
        <ele>822</ele>
        <time>2021-02-27T10:16:45Z</time>
      </trkpt>
      <trkpt lat="45.34869" lon="4.30977">
        <ele>822</ele>
        <time>2021-02-27T10:16:46Z</time>
      </trkpt>
      <trkpt lat="45.34864" lon="4.3098">
        <ele>822</ele>
        <time>2021-02-27T10:16:47Z</time>
      </trkpt>
      <trkpt lat="45.34859" lon="4.30983">
        <ele>822</ele>
        <time>2021-02-27T10:16:48Z</time>
      </trkpt>
      <trkpt lat="45.34855" lon="4.30986">
        <ele>822</ele>
        <time>2021-02-27T10:16:49Z</time>
      </trkpt>
      <trkpt lat="45.3485" lon="4.30989">
        <ele>822</ele>
        <time>2021-02-27T10:16:50Z</time>
      </trkpt>
      <trkpt lat="45.34845" lon="4.30991">
        <ele>822</ele>
        <time>2021-02-27T10:16:51Z</time>
      </trkpt>
      <trkpt lat="45.3484" lon="4.30993">
        <ele>822</ele>
        <time>2021-02-27T10:16:52Z</time>
      </trkpt>
      <trkpt lat="45.34835" lon="4.30996">
        <ele>822</ele>
        <time>2021-02-27T10:16:53Z</time>
      </trkpt>
      <trkpt lat="45.3483" lon="4.30997">
        <ele>822</ele>
        <time>2021-02-27T10:16:54Z</time>
      </trkpt>
      <trkpt lat="45.34825" lon="4.30998">
        <ele>822</ele>
        <time>2021-02-27T10:16:55Z</time>
      </trkpt>
      <trkpt lat="45.3482" lon="4.30999">
        <ele>822</ele>
        <time>2021-02-27T10:16:56Z</time>
      </trkpt>
      <trkpt lat="45.34815" lon="4.31001">
        <ele>822</ele>
        <time>2021-02-27T10:16:57Z</time>
      </trkpt>
      <trkpt lat="45.3481" lon="4.31002">
        <ele>822</ele>
        <time>2021-02-27T10:16:58Z</time>
      </trkpt>
      <trkpt lat="45.34805" lon="4.31003">
        <ele>822</ele>
        <time>2021-02-27T10:16:59Z</time>
      </trkpt>
      <trkpt lat="45.348" lon="4.31004">
        <ele>823</ele>
        <time>2021-02-27T10:17:00Z</time>
      </trkpt>
      <trkpt lat="45.34795" lon="4.31005">
        <ele>823</ele>
        <time>2021-02-27T10:17:01Z</time>
      </trkpt>
      <trkpt lat="45.3479" lon="4.31006">
        <ele>823</ele>
        <time>2021-02-27T10:17:02Z</time>
      </trkpt>
      <trkpt lat="45.34785" lon="4.31007">
        <ele>824</ele>
        <time>2021-02-27T10:17:03Z</time>
      </trkpt>
      <trkpt lat="45.34781" lon="4.31008">
        <ele>823</ele>
        <time>2021-02-27T10:17:04Z</time>
      </trkpt>
      <trkpt lat="45.34776" lon="4.31009">
        <ele>824</ele>
        <time>2021-02-27T10:17:05Z</time>
      </trkpt>
      <trkpt lat="45.34771" lon="4.31011">
        <ele>823</ele>
        <time>2021-02-27T10:17:06Z</time>
      </trkpt>
      <trkpt lat="45.34766" lon="4.31012">
        <ele>824</ele>
        <time>2021-02-27T10:17:07Z</time>
      </trkpt>
      <trkpt lat="45.34761" lon="4.31013">
        <ele>824</ele>
        <time>2021-02-27T10:17:08Z</time>
      </trkpt>
      <trkpt lat="45.34757" lon="4.31015">
        <ele>824</ele>
        <time>2021-02-27T10:17:09Z</time>
      </trkpt>
      <trkpt lat="45.34752" lon="4.31016">
        <ele>825</ele>
        <time>2021-02-27T10:17:10Z</time>
      </trkpt>
      <trkpt lat="45.34748" lon="4.31017">
        <ele>825</ele>
        <time>2021-02-27T10:17:11Z</time>
      </trkpt>
      <trkpt lat="45.34744" lon="4.31019">
        <ele>825</ele>
        <time>2021-02-27T10:17:12Z</time>
      </trkpt>
      <trkpt lat="45.34739" lon="4.3102">
        <ele>825</ele>
        <time>2021-02-27T10:17:13Z</time>
      </trkpt>
      <trkpt lat="45.34735" lon="4.31021">
        <ele>826</ele>
        <time>2021-02-27T10:17:14Z</time>
      </trkpt>
      <trkpt lat="45.34731" lon="4.31021">
        <ele>826</ele>
        <time>2021-02-27T10:17:15Z</time>
      </trkpt>
      <trkpt lat="45.34727" lon="4.31022">
        <ele>826</ele>
        <time>2021-02-27T10:17:16Z</time>
      </trkpt>
      <trkpt lat="45.34724" lon="4.31022">
        <ele>826</ele>
        <time>2021-02-27T10:17:17Z</time>
      </trkpt>
      <trkpt lat="45.3472" lon="4.31023">
        <ele>826</ele>
        <time>2021-02-27T10:17:18Z</time>
      </trkpt>
      <trkpt lat="45.34716" lon="4.31024">
        <ele>826</ele>
        <time>2021-02-27T10:17:19Z</time>
      </trkpt>
      <trkpt lat="45.34712" lon="4.31026">
        <ele>826</ele>
        <time>2021-02-27T10:17:20Z</time>
      </trkpt>
      <trkpt lat="45.34709" lon="4.31028">
        <ele>826</ele>
        <time>2021-02-27T10:17:21Z</time>
      </trkpt>
      <trkpt lat="45.34705" lon="4.31031">
        <ele>826</ele>
        <time>2021-02-27T10:17:22Z</time>
      </trkpt>
      <trkpt lat="45.34701" lon="4.31033">
        <ele>826</ele>
        <time>2021-02-27T10:17:23Z</time>
      </trkpt>
      <trkpt lat="45.34697" lon="4.31035">
        <ele>827</ele>
        <time>2021-02-27T10:17:24Z</time>
      </trkpt>
      <trkpt lat="45.34693" lon="4.31037">
        <ele>827</ele>
        <time>2021-02-27T10:17:25Z</time>
      </trkpt>
      <trkpt lat="45.34689" lon="4.31039">
        <ele>827</ele>
        <time>2021-02-27T10:17:26Z</time>
      </trkpt>
      <trkpt lat="45.34685" lon="4.31042">
        <ele>827</ele>
        <time>2021-02-27T10:17:27Z</time>
      </trkpt>
      <trkpt lat="45.3468" lon="4.31045">
        <ele>827</ele>
        <time>2021-02-27T10:17:28Z</time>
      </trkpt>
      <trkpt lat="45.34676" lon="4.31047">
        <ele>827</ele>
        <time>2021-02-27T10:17:29Z</time>
      </trkpt>
      <trkpt lat="45.34672" lon="4.31049">
        <ele>828</ele>
        <time>2021-02-27T10:17:30Z</time>
      </trkpt>
      <trkpt lat="45.34669" lon="4.31051">
        <ele>827</ele>
        <time>2021-02-27T10:17:31Z</time>
      </trkpt>
      <trkpt lat="45.34665" lon="4.31053">
        <ele>827</ele>
        <time>2021-02-27T10:17:32Z</time>
      </trkpt>
      <trkpt lat="45.34661" lon="4.31056">
        <ele>827</ele>
        <time>2021-02-27T10:17:33Z</time>
      </trkpt>
      <trkpt lat="45.34657" lon="4.31058">
        <ele>828</ele>
        <time>2021-02-27T10:17:34Z</time>
      </trkpt>
      <trkpt lat="45.34652" lon="4.3106">
        <ele>828</ele>
        <time>2021-02-27T10:17:35Z</time>
      </trkpt>
      <trkpt lat="45.34648" lon="4.31062">
        <ele>827</ele>
        <time>2021-02-27T10:17:36Z</time>
      </trkpt>
      <trkpt lat="45.34644" lon="4.31065">
        <ele>827</ele>
        <time>2021-02-27T10:17:37Z</time>
      </trkpt>
      <trkpt lat="45.34639" lon="4.31067">
        <ele>827</ele>
        <time>2021-02-27T10:17:38Z</time>
      </trkpt>
      <trkpt lat="45.34635" lon="4.31069">
        <ele>827</ele>
        <time>2021-02-27T10:17:39Z</time>
      </trkpt>
      <trkpt lat="45.3463" lon="4.31072">
        <ele>827</ele>
        <time>2021-02-27T10:17:40Z</time>
      </trkpt>
      <trkpt lat="45.34626" lon="4.31074">
        <ele>827</ele>
        <time>2021-02-27T10:17:41Z</time>
      </trkpt>
      <trkpt lat="45.34621" lon="4.31077">
        <ele>827</ele>
        <time>2021-02-27T10:17:42Z</time>
      </trkpt>
      <trkpt lat="45.34616" lon="4.31079">
        <ele>827</ele>
        <time>2021-02-27T10:17:43Z</time>
      </trkpt>
      <trkpt lat="45.34611" lon="4.31082">
        <ele>827</ele>
        <time>2021-02-27T10:17:44Z</time>
      </trkpt>
      <trkpt lat="45.34607" lon="4.31084">
        <ele>827</ele>
        <time>2021-02-27T10:17:45Z</time>
      </trkpt>
      <trkpt lat="45.34602" lon="4.31087">
        <ele>827</ele>
        <time>2021-02-27T10:17:46Z</time>
      </trkpt>
      <trkpt lat="45.34597" lon="4.3109">
        <ele>827</ele>
        <time>2021-02-27T10:17:47Z</time>
      </trkpt>
      <trkpt lat="45.34592" lon="4.31093">
        <ele>827</ele>
        <time>2021-02-27T10:17:48Z</time>
      </trkpt>
      <trkpt lat="45.34588" lon="4.31095">
        <ele>827</ele>
        <time>2021-02-27T10:17:49Z</time>
      </trkpt>
      <trkpt lat="45.34583" lon="4.31097">
        <ele>827</ele>
        <time>2021-02-27T10:17:50Z</time>
      </trkpt>
      <trkpt lat="45.34578" lon="4.311">
        <ele>826</ele>
        <time>2021-02-27T10:17:51Z</time>
      </trkpt>
      <trkpt lat="45.34573" lon="4.31103">
        <ele>827</ele>
        <time>2021-02-27T10:17:52Z</time>
      </trkpt>
      <trkpt lat="45.34567" lon="4.31105">
        <ele>826</ele>
        <time>2021-02-27T10:17:53Z</time>
      </trkpt>
      <trkpt lat="45.34563" lon="4.31108">
        <ele>826</ele>
        <time>2021-02-27T10:17:54Z</time>
      </trkpt>
      <trkpt lat="45.34558" lon="4.31111">
        <ele>826</ele>
        <time>2021-02-27T10:17:55Z</time>
      </trkpt>
      <trkpt lat="45.34552" lon="4.31114">
        <ele>826</ele>
        <time>2021-02-27T10:17:56Z</time>
      </trkpt>
      <trkpt lat="45.34547" lon="4.31116">
        <ele>826</ele>
        <time>2021-02-27T10:17:57Z</time>
      </trkpt>
      <trkpt lat="45.34542" lon="4.31118">
        <ele>826</ele>
        <time>2021-02-27T10:17:58Z</time>
      </trkpt>
      <trkpt lat="45.34537" lon="4.3112">
        <ele>826</ele>
        <time>2021-02-27T10:17:59Z</time>
      </trkpt>
      <trkpt lat="45.34532" lon="4.31122">
        <ele>826</ele>
        <time>2021-02-27T10:18:00Z</time>
      </trkpt>
      <trkpt lat="45.34526" lon="4.31124">
        <ele>826</ele>
        <time>2021-02-27T10:18:01Z</time>
      </trkpt>
      <trkpt lat="45.34521" lon="4.31125">
        <ele>826</ele>
        <time>2021-02-27T10:18:02Z</time>
      </trkpt>
      <trkpt lat="45.34516" lon="4.31127">
        <ele>826</ele>
        <time>2021-02-27T10:18:03Z</time>
      </trkpt>
      <trkpt lat="45.34511" lon="4.31129">
        <ele>826</ele>
        <time>2021-02-27T10:18:04Z</time>
      </trkpt>
      <trkpt lat="45.34505" lon="4.3113">
        <ele>826</ele>
        <time>2021-02-27T10:18:05Z</time>
      </trkpt>
      <trkpt lat="45.345" lon="4.31131">
        <ele>826</ele>
        <time>2021-02-27T10:18:06Z</time>
      </trkpt>
      <trkpt lat="45.34495" lon="4.31133">
        <ele>826</ele>
        <time>2021-02-27T10:18:07Z</time>
      </trkpt>
      <trkpt lat="45.3449" lon="4.31134">
        <ele>827</ele>
        <time>2021-02-27T10:18:08Z</time>
      </trkpt>
      <trkpt lat="45.34485" lon="4.31135">
        <ele>826</ele>
        <time>2021-02-27T10:18:09Z</time>
      </trkpt>
      <trkpt lat="45.34479" lon="4.31136">
        <ele>827</ele>
        <time>2021-02-27T10:18:10Z</time>
      </trkpt>
      <trkpt lat="45.34474" lon="4.31137">
        <ele>827</ele>
        <time>2021-02-27T10:18:11Z</time>
      </trkpt>
      <trkpt lat="45.34469" lon="4.31138">
        <ele>827</ele>
        <time>2021-02-27T10:18:12Z</time>
      </trkpt>
      <trkpt lat="45.34464" lon="4.31138">
        <ele>827</ele>
        <time>2021-02-27T10:18:13Z</time>
      </trkpt>
      <trkpt lat="45.34459" lon="4.31139">
        <ele>827</ele>
        <time>2021-02-27T10:18:14Z</time>
      </trkpt>
      <trkpt lat="45.34454" lon="4.3114">
        <ele>827</ele>
        <time>2021-02-27T10:18:15Z</time>
      </trkpt>
      <trkpt lat="45.34449" lon="4.31141">
        <ele>827</ele>
        <time>2021-02-27T10:18:16Z</time>
      </trkpt>
      <trkpt lat="45.34444" lon="4.31142">
        <ele>826</ele>
        <time>2021-02-27T10:18:17Z</time>
      </trkpt>
      <trkpt lat="45.34438" lon="4.31143">
        <ele>827</ele>
        <time>2021-02-27T10:18:18Z</time>
      </trkpt>
      <trkpt lat="45.34433" lon="4.31143">
        <ele>827</ele>
        <time>2021-02-27T10:18:19Z</time>
      </trkpt>
      <trkpt lat="45.34428" lon="4.31144">
        <ele>826</ele>
        <time>2021-02-27T10:18:20Z</time>
      </trkpt>
      <trkpt lat="45.34422" lon="4.31145">
        <ele>826</ele>
        <time>2021-02-27T10:18:21Z</time>
      </trkpt>
      <trkpt lat="45.34417" lon="4.31146">
        <ele>826</ele>
        <time>2021-02-27T10:18:22Z</time>
      </trkpt>
      <trkpt lat="45.34411" lon="4.31147">
        <ele>827</ele>
        <time>2021-02-27T10:18:23Z</time>
      </trkpt>
      <trkpt lat="45.34405" lon="4.31147">
        <ele>826</ele>
        <time>2021-02-27T10:18:24Z</time>
      </trkpt>
      <trkpt lat="45.344" lon="4.31148">
        <ele>825</ele>
        <time>2021-02-27T10:18:25Z</time>
      </trkpt>
      <trkpt lat="45.34394" lon="4.31149">
        <ele>826</ele>
        <time>2021-02-27T10:18:26Z</time>
      </trkpt>
      <trkpt lat="45.34388" lon="4.31151">
        <ele>825</ele>
        <time>2021-02-27T10:18:27Z</time>
      </trkpt>
      <trkpt lat="45.34383" lon="4.31152">
        <ele>825</ele>
        <time>2021-02-27T10:18:28Z</time>
      </trkpt>
      <trkpt lat="45.34377" lon="4.31152">
        <ele>824</ele>
        <time>2021-02-27T10:18:29Z</time>
      </trkpt>
      <trkpt lat="45.34371" lon="4.31153">
        <ele>824</ele>
        <time>2021-02-27T10:18:30Z</time>
      </trkpt>
      <trkpt lat="45.34365" lon="4.31154">
        <ele>824</ele>
        <time>2021-02-27T10:18:31Z</time>
      </trkpt>
      <trkpt lat="45.34359" lon="4.31155">
        <ele>824</ele>
        <time>2021-02-27T10:18:32Z</time>
      </trkpt>
      <trkpt lat="45.34353" lon="4.31156">
        <ele>825</ele>
        <time>2021-02-27T10:18:33Z</time>
      </trkpt>
      <trkpt lat="45.34347" lon="4.31157">
        <ele>824</ele>
        <time>2021-02-27T10:18:34Z</time>
      </trkpt>
      <trkpt lat="45.34341" lon="4.31158">
        <ele>824</ele>
        <time>2021-02-27T10:18:35Z</time>
      </trkpt>
      <trkpt lat="45.34334" lon="4.31159">
        <ele>824</ele>
        <time>2021-02-27T10:18:36Z</time>
      </trkpt>
      <trkpt lat="45.34328" lon="4.3116">
        <ele>824</ele>
        <time>2021-02-27T10:18:37Z</time>
      </trkpt>
      <trkpt lat="45.34321" lon="4.3116">
        <ele>823</ele>
        <time>2021-02-27T10:18:38Z</time>
      </trkpt>
      <trkpt lat="45.34315" lon="4.31161">
        <ele>823</ele>
        <time>2021-02-27T10:18:39Z</time>
      </trkpt>
      <trkpt lat="45.34308" lon="4.31162">
        <ele>823</ele>
        <time>2021-02-27T10:18:40Z</time>
      </trkpt>
      <trkpt lat="45.34301" lon="4.31163">
        <ele>823</ele>
        <time>2021-02-27T10:18:41Z</time>
      </trkpt>
      <trkpt lat="45.34294" lon="4.31165">
        <ele>823</ele>
        <time>2021-02-27T10:18:42Z</time>
      </trkpt>
      <trkpt lat="45.34288" lon="4.31166">
        <ele>823</ele>
        <time>2021-02-27T10:18:43Z</time>
      </trkpt>
      <trkpt lat="45.34281" lon="4.31168">
        <ele>822</ele>
        <time>2021-02-27T10:18:44Z</time>
      </trkpt>
      <trkpt lat="45.34274" lon="4.31169">
        <ele>822</ele>
        <time>2021-02-27T10:18:45Z</time>
      </trkpt>
      <trkpt lat="45.34268" lon="4.31171">
        <ele>823</ele>
        <time>2021-02-27T10:18:46Z</time>
      </trkpt>
      <trkpt lat="45.34262" lon="4.31173">
        <ele>823</ele>
        <time>2021-02-27T10:18:47Z</time>
      </trkpt>
      <trkpt lat="45.34257" lon="4.31175">
        <ele>823</ele>
        <time>2021-02-27T10:18:48Z</time>
      </trkpt>
      <trkpt lat="45.34251" lon="4.31177">
        <ele>823</ele>
        <time>2021-02-27T10:18:49Z</time>
      </trkpt>
      <trkpt lat="45.34247" lon="4.31179">
        <ele>823</ele>
        <time>2021-02-27T10:18:50Z</time>
      </trkpt>
      <trkpt lat="45.34242" lon="4.31181">
        <ele>823</ele>
        <time>2021-02-27T10:18:51Z</time>
      </trkpt>
      <trkpt lat="45.34238" lon="4.31184">
        <ele>823</ele>
        <time>2021-02-27T10:18:52Z</time>
      </trkpt>
      <trkpt lat="45.34233" lon="4.31186">
        <ele>823</ele>
        <time>2021-02-27T10:18:53Z</time>
      </trkpt>
      <trkpt lat="45.34228" lon="4.31188">
        <ele>823</ele>
        <time>2021-02-27T10:18:54Z</time>
      </trkpt>
      <trkpt lat="45.34223" lon="4.3119">
        <ele>824</ele>
        <time>2021-02-27T10:18:55Z</time>
      </trkpt>
      <trkpt lat="45.34219" lon="4.31192">
        <ele>823</ele>
        <time>2021-02-27T10:18:56Z</time>
      </trkpt>
      <trkpt lat="45.34214" lon="4.31195">
        <ele>824</ele>
        <time>2021-02-27T10:18:57Z</time>
      </trkpt>
      <trkpt lat="45.3421" lon="4.31197">
        <ele>824</ele>
        <time>2021-02-27T10:18:58Z</time>
      </trkpt>
      <trkpt lat="45.34206" lon="4.312">
        <ele>824</ele>
        <time>2021-02-27T10:18:59Z</time>
      </trkpt>
      <trkpt lat="45.34202" lon="4.31203">
        <ele>825</ele>
        <time>2021-02-27T10:19:00Z</time>
      </trkpt>
      <trkpt lat="45.34198" lon="4.31206">
        <ele>824</ele>
        <time>2021-02-27T10:19:01Z</time>
      </trkpt>
      <trkpt lat="45.34194" lon="4.31211">
        <ele>825</ele>
        <time>2021-02-27T10:19:02Z</time>
      </trkpt>
      <trkpt lat="45.3419" lon="4.31215">
        <ele>824</ele>
        <time>2021-02-27T10:19:03Z</time>
      </trkpt>
      <trkpt lat="45.34186" lon="4.3122">
        <ele>824</ele>
        <time>2021-02-27T10:19:04Z</time>
      </trkpt>
      <trkpt lat="45.34183" lon="4.31224">
        <ele>825</ele>
        <time>2021-02-27T10:19:05Z</time>
      </trkpt>
      <trkpt lat="45.34179" lon="4.31229">
        <ele>825</ele>
        <time>2021-02-27T10:19:06Z</time>
      </trkpt>
      <trkpt lat="45.34175" lon="4.31233">
        <ele>826</ele>
        <time>2021-02-27T10:19:07Z</time>
      </trkpt>
      <trkpt lat="45.34172" lon="4.31237">
        <ele>825</ele>
        <time>2021-02-27T10:19:08Z</time>
      </trkpt>
      <trkpt lat="45.34168" lon="4.31241">
        <ele>826</ele>
        <time>2021-02-27T10:19:09Z</time>
      </trkpt>
      <trkpt lat="45.34164" lon="4.31245">
        <ele>827</ele>
        <time>2021-02-27T10:19:10Z</time>
      </trkpt>
      <trkpt lat="45.3416" lon="4.3125">
        <ele>826</ele>
        <time>2021-02-27T10:19:11Z</time>
      </trkpt>
      <trkpt lat="45.34156" lon="4.31254">
        <ele>826</ele>
        <time>2021-02-27T10:19:12Z</time>
      </trkpt>
      <trkpt lat="45.34153" lon="4.31258">
        <ele>827</ele>
        <time>2021-02-27T10:19:13Z</time>
      </trkpt>
      <trkpt lat="45.34149" lon="4.31262">
        <ele>827</ele>
        <time>2021-02-27T10:19:14Z</time>
      </trkpt>
      <trkpt lat="45.34145" lon="4.31266">
        <ele>827</ele>
        <time>2021-02-27T10:19:15Z</time>
      </trkpt>
      <trkpt lat="45.34141" lon="4.31271">
        <ele>828</ele>
        <time>2021-02-27T10:19:16Z</time>
      </trkpt>
      <trkpt lat="45.34137" lon="4.31274">
        <ele>828</ele>
        <time>2021-02-27T10:19:17Z</time>
      </trkpt>
      <trkpt lat="45.34134" lon="4.31278">
        <ele>828</ele>
        <time>2021-02-27T10:19:18Z</time>
      </trkpt>
      <trkpt lat="45.3413" lon="4.31281">
        <ele>828</ele>
        <time>2021-02-27T10:19:19Z</time>
      </trkpt>
      <trkpt lat="45.34126" lon="4.31284">
        <ele>829</ele>
        <time>2021-02-27T10:19:20Z</time>
      </trkpt>
      <trkpt lat="45.34122" lon="4.31287">
        <ele>829</ele>
        <time>2021-02-27T10:19:21Z</time>
      </trkpt>
      <trkpt lat="45.34118" lon="4.3129">
        <ele>829</ele>
        <time>2021-02-27T10:19:22Z</time>
      </trkpt>
      <trkpt lat="45.34115" lon="4.31293">
        <ele>829</ele>
        <time>2021-02-27T10:19:23Z</time>
      </trkpt>
      <trkpt lat="45.34111" lon="4.31295">
        <ele>829</ele>
        <time>2021-02-27T10:19:24Z</time>
      </trkpt>
      <trkpt lat="45.34107" lon="4.31298">
        <ele>829</ele>
        <time>2021-02-27T10:19:25Z</time>
      </trkpt>
      <trkpt lat="45.34104" lon="4.31301">
        <ele>830</ele>
        <time>2021-02-27T10:19:26Z</time>
      </trkpt>
      <trkpt lat="45.341" lon="4.31303">
        <ele>830</ele>
        <time>2021-02-27T10:19:27Z</time>
      </trkpt>
      <trkpt lat="45.34097" lon="4.31306">
        <ele>829</ele>
        <time>2021-02-27T10:19:28Z</time>
      </trkpt>
      <trkpt lat="45.34093" lon="4.31308">
        <ele>830</ele>
        <time>2021-02-27T10:19:29Z</time>
      </trkpt>
      <trkpt lat="45.34089" lon="4.31312">
        <ele>829</ele>
        <time>2021-02-27T10:19:30Z</time>
      </trkpt>
      <trkpt lat="45.34085" lon="4.31315">
        <ele>829</ele>
        <time>2021-02-27T10:19:31Z</time>
      </trkpt>
      <trkpt lat="45.34081" lon="4.31317">
        <ele>829</ele>
        <time>2021-02-27T10:19:32Z</time>
      </trkpt>
      <trkpt lat="45.34076" lon="4.31319">
        <ele>829</ele>
        <time>2021-02-27T10:19:33Z</time>
      </trkpt>
      <trkpt lat="45.34072" lon="4.31321">
        <ele>829</ele>
        <time>2021-02-27T10:19:34Z</time>
      </trkpt>
      <trkpt lat="45.34068" lon="4.31323">
        <ele>829</ele>
        <time>2021-02-27T10:19:35Z</time>
      </trkpt>
      <trkpt lat="45.34064" lon="4.31325">
        <ele>829</ele>
        <time>2021-02-27T10:19:36Z</time>
      </trkpt>
      <trkpt lat="45.3406" lon="4.31327">
        <ele>829</ele>
        <time>2021-02-27T10:19:37Z</time>
      </trkpt>
      <trkpt lat="45.34055" lon="4.31328">
        <ele>829</ele>
        <time>2021-02-27T10:19:38Z</time>
      </trkpt>
      <trkpt lat="45.34051" lon="4.3133">
        <ele>829</ele>
        <time>2021-02-27T10:19:39Z</time>
      </trkpt>
      <trkpt lat="45.34046" lon="4.31331">
        <ele>829</ele>
        <time>2021-02-27T10:19:40Z</time>
      </trkpt>
      <trkpt lat="45.34041" lon="4.31332">
        <ele>829</ele>
        <time>2021-02-27T10:19:41Z</time>
      </trkpt>
      <trkpt lat="45.34036" lon="4.31334">
        <ele>829</ele>
        <time>2021-02-27T10:19:42Z</time>
      </trkpt>
      <trkpt lat="45.34032" lon="4.31335">
        <ele>829</ele>
        <time>2021-02-27T10:19:43Z</time>
      </trkpt>
      <trkpt lat="45.34028" lon="4.31337">
        <ele>829</ele>
        <time>2021-02-27T10:19:44Z</time>
      </trkpt>
      <trkpt lat="45.34023" lon="4.3134">
        <ele>830</ele>
        <time>2021-02-27T10:19:45Z</time>
      </trkpt>
      <trkpt lat="45.3402" lon="4.31342">
        <ele>830</ele>
        <time>2021-02-27T10:19:46Z</time>
      </trkpt>
      <trkpt lat="45.34016" lon="4.31344">
        <ele>830</ele>
        <time>2021-02-27T10:19:47Z</time>
      </trkpt>
      <trkpt lat="45.34013" lon="4.31345">
        <ele>831</ele>
        <time>2021-02-27T10:19:48Z</time>
      </trkpt>
      <trkpt lat="45.34009" lon="4.31347">
        <ele>830</ele>
        <time>2021-02-27T10:19:49Z</time>
      </trkpt>
      <trkpt lat="45.34005" lon="4.31348">
        <ele>831</ele>
        <time>2021-02-27T10:19:50Z</time>
      </trkpt>
      <trkpt lat="45.34002" lon="4.31349">
        <ele>831</ele>
        <time>2021-02-27T10:19:51Z</time>
      </trkpt>
      <trkpt lat="45.33998" lon="4.3135">
        <ele>831</ele>
        <time>2021-02-27T10:19:52Z</time>
      </trkpt>
      <trkpt lat="45.33993" lon="4.3135">
        <ele>831</ele>
        <time>2021-02-27T10:19:53Z</time>
      </trkpt>
      <trkpt lat="45.33988" lon="4.31351">
        <ele>831</ele>
        <time>2021-02-27T10:19:54Z</time>
      </trkpt>
      <trkpt lat="45.33984" lon="4.31353">
        <ele>831</ele>
        <time>2021-02-27T10:19:55Z</time>
      </trkpt>
      <trkpt lat="45.3398" lon="4.31355">
        <ele>830</ele>
        <time>2021-02-27T10:19:56Z</time>
      </trkpt>
      <trkpt lat="45.33976" lon="4.31357">
        <ele>830</ele>
        <time>2021-02-27T10:19:57Z</time>
      </trkpt>
      <trkpt lat="45.33972" lon="4.31359">
        <ele>830</ele>
        <time>2021-02-27T10:19:58Z</time>
      </trkpt>
      <trkpt lat="45.33967" lon="4.31362">
        <ele>829</ele>
        <time>2021-02-27T10:19:59Z</time>
      </trkpt>
      <trkpt lat="45.33963" lon="4.31365">
        <ele>830</ele>
        <time>2021-02-27T10:20:00Z</time>
      </trkpt>
      <trkpt lat="45.33959" lon="4.31368">
        <ele>830</ele>
        <time>2021-02-27T10:20:01Z</time>
      </trkpt>
      <trkpt lat="45.33955" lon="4.3137">
        <ele>829</ele>
        <time>2021-02-27T10:20:02Z</time>
      </trkpt>
      <trkpt lat="45.33951" lon="4.31373">
        <ele>828</ele>
        <time>2021-02-27T10:20:03Z</time>
      </trkpt>
      <trkpt lat="45.33947" lon="4.31375">
        <ele>828</ele>
        <time>2021-02-27T10:20:04Z</time>
      </trkpt>
      <trkpt lat="45.33943" lon="4.31378">
        <ele>828</ele>
        <time>2021-02-27T10:20:05Z</time>
      </trkpt>
      <trkpt lat="45.33941" lon="4.31382">
        <ele>828</ele>
        <time>2021-02-27T10:20:06Z</time>
      </trkpt>
      <trkpt lat="45.3394" lon="4.31388">
        <ele>828</ele>
        <time>2021-02-27T10:20:07Z</time>
      </trkpt>
      <trkpt lat="45.33939" lon="4.31394">
        <ele>827</ele>
        <time>2021-02-27T10:20:08Z</time>
      </trkpt>
      <trkpt lat="45.33938" lon="4.31401">
        <ele>827</ele>
        <time>2021-02-27T10:20:09Z</time>
      </trkpt>
      <trkpt lat="45.33937" lon="4.31409">
        <ele>827</ele>
        <time>2021-02-27T10:20:10Z</time>
      </trkpt>
      <trkpt lat="45.33936" lon="4.31418">
        <ele>827</ele>
        <time>2021-02-27T10:20:11Z</time>
      </trkpt>
      <trkpt lat="45.33935" lon="4.31426">
        <ele>825</ele>
        <time>2021-02-27T10:20:12Z</time>
      </trkpt>
      <trkpt lat="45.33934" lon="4.31434">
        <ele>824</ele>
        <time>2021-02-27T10:20:13Z</time>
      </trkpt>
      <trkpt lat="45.33932" lon="4.31442">
        <ele>825</ele>
        <time>2021-02-27T10:20:14Z</time>
      </trkpt>
      <trkpt lat="45.33929" lon="4.3145">
        <ele>825</ele>
        <time>2021-02-27T10:20:15Z</time>
      </trkpt>
      <trkpt lat="45.33927" lon="4.31458">
        <ele>823</ele>
        <time>2021-02-27T10:20:16Z</time>
      </trkpt>
      <trkpt lat="45.33923" lon="4.31465">
        <ele>824</ele>
        <time>2021-02-27T10:20:17Z</time>
      </trkpt>
      <trkpt lat="45.3392" lon="4.31473">
        <ele>823</ele>
        <time>2021-02-27T10:20:18Z</time>
      </trkpt>
      <trkpt lat="45.33915" lon="4.31482">
        <ele>823</ele>
        <time>2021-02-27T10:20:19Z</time>
      </trkpt>
      <trkpt lat="45.33911" lon="4.3149">
        <ele>822</ele>
        <time>2021-02-27T10:20:20Z</time>
      </trkpt>
      <trkpt lat="45.33907" lon="4.31499">
        <ele>822</ele>
        <time>2021-02-27T10:20:21Z</time>
      </trkpt>
      <trkpt lat="45.33902" lon="4.31508">
        <ele>821</ele>
        <time>2021-02-27T10:20:22Z</time>
      </trkpt>
      <trkpt lat="45.33897" lon="4.31517">
        <ele>821</ele>
        <time>2021-02-27T10:20:23Z</time>
      </trkpt>
      <trkpt lat="45.33893" lon="4.31526">
        <ele>821</ele>
        <time>2021-02-27T10:20:24Z</time>
      </trkpt>
      <trkpt lat="45.33888" lon="4.31535">
        <ele>821</ele>
        <time>2021-02-27T10:20:25Z</time>
      </trkpt>
      <trkpt lat="45.33884" lon="4.31544">
        <ele>820</ele>
        <time>2021-02-27T10:20:26Z</time>
      </trkpt>
      <trkpt lat="45.33879" lon="4.31554">
        <ele>819</ele>
        <time>2021-02-27T10:20:27Z</time>
      </trkpt>
      <trkpt lat="45.33875" lon="4.31563">
        <ele>819</ele>
        <time>2021-02-27T10:20:28Z</time>
      </trkpt>
      <trkpt lat="45.33871" lon="4.31573">
        <ele>819</ele>
        <time>2021-02-27T10:20:29Z</time>
      </trkpt>
      <trkpt lat="45.33866" lon="4.31583">
        <ele>819</ele>
        <time>2021-02-27T10:20:30Z</time>
      </trkpt>
      <trkpt lat="45.33862" lon="4.31592">
        <ele>819</ele>
        <time>2021-02-27T10:20:31Z</time>
      </trkpt>
      <trkpt lat="45.33858" lon="4.31601">
        <ele>819</ele>
        <time>2021-02-27T10:20:32Z</time>
      </trkpt>
      <trkpt lat="45.33854" lon="4.31611">
        <ele>819</ele>
        <time>2021-02-27T10:20:33Z</time>
      </trkpt>
      <trkpt lat="45.3385" lon="4.3162">
        <ele>820</ele>
        <time>2021-02-27T10:20:34Z</time>
      </trkpt>
      <trkpt lat="45.33846" lon="4.31628">
        <ele>820</ele>
        <time>2021-02-27T10:20:35Z</time>
      </trkpt>
      <trkpt lat="45.33843" lon="4.31637">
        <ele>821</ele>
        <time>2021-02-27T10:20:36Z</time>
      </trkpt>
      <trkpt lat="45.3384" lon="4.31644">
        <ele>821</ele>
        <time>2021-02-27T10:20:37Z</time>
      </trkpt>
      <trkpt lat="45.33837" lon="4.31651">
        <ele>821</ele>
        <time>2021-02-27T10:20:38Z</time>
      </trkpt>
      <trkpt lat="45.33834" lon="4.31658">
        <ele>821</ele>
        <time>2021-02-27T10:20:39Z</time>
      </trkpt>
      <trkpt lat="45.33831" lon="4.31664">
        <ele>820</ele>
        <time>2021-02-27T10:20:40Z</time>
      </trkpt>
      <trkpt lat="45.33828" lon="4.31671">
        <ele>819</ele>
        <time>2021-02-27T10:20:41Z</time>
      </trkpt>
      <trkpt lat="45.33825" lon="4.31677">
        <ele>818</ele>
        <time>2021-02-27T10:20:42Z</time>
      </trkpt>
      <trkpt lat="45.33822" lon="4.31683">
        <ele>819</ele>
        <time>2021-02-27T10:20:43Z</time>
      </trkpt>
      <trkpt lat="45.33819" lon="4.3169">
        <ele>821</ele>
        <time>2021-02-27T10:20:44Z</time>
      </trkpt>
      <trkpt lat="45.33816" lon="4.31697">
        <ele>821</ele>
        <time>2021-02-27T10:20:45Z</time>
      </trkpt>
      <trkpt lat="45.33813" lon="4.31703">
        <ele>821</ele>
        <time>2021-02-27T10:20:46Z</time>
      </trkpt>
      <trkpt lat="45.3381" lon="4.3171">
        <ele>821</ele>
        <time>2021-02-27T10:20:47Z</time>
      </trkpt>
      <trkpt lat="45.33806" lon="4.31717">
        <ele>821</ele>
        <time>2021-02-27T10:20:48Z</time>
      </trkpt>
      <trkpt lat="45.33803" lon="4.31723">
        <ele>821</ele>
        <time>2021-02-27T10:20:49Z</time>
      </trkpt>
      <trkpt lat="45.33799" lon="4.31729">
        <ele>821</ele>
        <time>2021-02-27T10:20:50Z</time>
      </trkpt>
      <trkpt lat="45.33795" lon="4.31735">
        <ele>821</ele>
        <time>2021-02-27T10:20:51Z</time>
      </trkpt>
      <trkpt lat="45.33791" lon="4.31741">
        <ele>822</ele>
        <time>2021-02-27T10:20:52Z</time>
      </trkpt>
      <trkpt lat="45.33787" lon="4.31746">
        <ele>821</ele>
        <time>2021-02-27T10:20:53Z</time>
      </trkpt>
      <trkpt lat="45.33783" lon="4.31751">
        <ele>822</ele>
        <time>2021-02-27T10:20:54Z</time>
      </trkpt>
      <trkpt lat="45.33778" lon="4.31756">
        <ele>822</ele>
        <time>2021-02-27T10:20:55Z</time>
      </trkpt>
      <trkpt lat="45.33774" lon="4.3176">
        <ele>822</ele>
        <time>2021-02-27T10:20:56Z</time>
      </trkpt>
      <trkpt lat="45.33769" lon="4.31765">
        <ele>821</ele>
        <time>2021-02-27T10:20:57Z</time>
      </trkpt>
      <trkpt lat="45.33765" lon="4.31769">
        <ele>821</ele>
        <time>2021-02-27T10:20:58Z</time>
      </trkpt>
      <trkpt lat="45.3376" lon="4.31773">
        <ele>822</ele>
        <time>2021-02-27T10:20:59Z</time>
      </trkpt>
      <trkpt lat="45.33756" lon="4.31777">
        <ele>822</ele>
        <time>2021-02-27T10:21:00Z</time>
      </trkpt>
      <trkpt lat="45.33751" lon="4.31781">
        <ele>823</ele>
        <time>2021-02-27T10:21:01Z</time>
      </trkpt>
      <trkpt lat="45.33747" lon="4.31786">
        <ele>823</ele>
        <time>2021-02-27T10:21:02Z</time>
      </trkpt>
      <trkpt lat="45.33742" lon="4.3179">
        <ele>822</ele>
        <time>2021-02-27T10:21:03Z</time>
      </trkpt>
      <trkpt lat="45.33738" lon="4.31794">
        <ele>822</ele>
        <time>2021-02-27T10:21:04Z</time>
      </trkpt>
      <trkpt lat="45.33734" lon="4.31798">
        <ele>824</ele>
        <time>2021-02-27T10:21:05Z</time>
      </trkpt>
      <trkpt lat="45.3373" lon="4.31802">
        <ele>824</ele>
        <time>2021-02-27T10:21:06Z</time>
      </trkpt>
      <trkpt lat="45.33725" lon="4.31806">
        <ele>824</ele>
        <time>2021-02-27T10:21:07Z</time>
      </trkpt>
      <trkpt lat="45.33721" lon="4.31809">
        <ele>825</ele>
        <time>2021-02-27T10:21:08Z</time>
      </trkpt>
      <trkpt lat="45.33717" lon="4.31813">
        <ele>825</ele>
        <time>2021-02-27T10:21:09Z</time>
      </trkpt>
      <trkpt lat="45.33713" lon="4.31817">
        <ele>826</ele>
        <time>2021-02-27T10:21:10Z</time>
      </trkpt>
      <trkpt lat="45.33709" lon="4.31822">
        <ele>826</ele>
        <time>2021-02-27T10:21:11Z</time>
      </trkpt>
      <trkpt lat="45.33705" lon="4.31826">
        <ele>826</ele>
        <time>2021-02-27T10:21:12Z</time>
      </trkpt>
      <trkpt lat="45.33702" lon="4.3183">
        <ele>827</ele>
        <time>2021-02-27T10:21:13Z</time>
      </trkpt>
      <trkpt lat="45.33699" lon="4.31834">
        <ele>826</ele>
        <time>2021-02-27T10:21:14Z</time>
      </trkpt>
      <trkpt lat="45.33696" lon="4.31839">
        <ele>827</ele>
        <time>2021-02-27T10:21:15Z</time>
      </trkpt>
      <trkpt lat="45.33693" lon="4.31844">
        <ele>828</ele>
        <time>2021-02-27T10:21:16Z</time>
      </trkpt>
      <trkpt lat="45.3369" lon="4.31849">
        <ele>827</ele>
        <time>2021-02-27T10:21:17Z</time>
      </trkpt>
      <trkpt lat="45.33688" lon="4.31856">
        <ele>827</ele>
        <time>2021-02-27T10:21:18Z</time>
      </trkpt>
      <trkpt lat="45.33687" lon="4.31862">
        <ele>827</ele>
        <time>2021-02-27T10:21:19Z</time>
      </trkpt>
      <trkpt lat="45.33686" lon="4.3187">
        <ele>826</ele>
        <time>2021-02-27T10:21:20Z</time>
      </trkpt>
      <trkpt lat="45.33686" lon="4.31878">
        <ele>826</ele>
        <time>2021-02-27T10:21:21Z</time>
      </trkpt>
      <trkpt lat="45.33686" lon="4.31885">
        <ele>826</ele>
        <time>2021-02-27T10:21:22Z</time>
      </trkpt>
      <trkpt lat="45.33686" lon="4.31892">
        <ele>826</ele>
        <time>2021-02-27T10:21:23Z</time>
      </trkpt>
      <trkpt lat="45.33686" lon="4.31899">
        <ele>827</ele>
        <time>2021-02-27T10:21:24Z</time>
      </trkpt>
      <trkpt lat="45.33686" lon="4.31906">
        <ele>826</ele>
        <time>2021-02-27T10:21:25Z</time>
      </trkpt>
      <trkpt lat="45.33686" lon="4.31912">
        <ele>827</ele>
        <time>2021-02-27T10:21:26Z</time>
      </trkpt>
      <trkpt lat="45.33686" lon="4.31918">
        <ele>826</ele>
        <time>2021-02-27T10:21:27Z</time>
      </trkpt>
      <trkpt lat="45.33685" lon="4.31925">
        <ele>825</ele>
        <time>2021-02-27T10:21:28Z</time>
      </trkpt>
      <trkpt lat="45.33685" lon="4.31932">
        <ele>825</ele>
        <time>2021-02-27T10:21:29Z</time>
      </trkpt>
      <trkpt lat="45.33685" lon="4.31941">
        <ele>824</ele>
        <time>2021-02-27T10:21:30Z</time>
      </trkpt>
      <trkpt lat="45.33685" lon="4.3195">
        <ele>824</ele>
        <time>2021-02-27T10:21:31Z</time>
      </trkpt>
      <trkpt lat="45.33684" lon="4.3196">
        <ele>823</ele>
        <time>2021-02-27T10:21:32Z</time>
      </trkpt>
      <trkpt lat="45.33684" lon="4.31971">
        <ele>823</ele>
        <time>2021-02-27T10:21:33Z</time>
      </trkpt>
      <trkpt lat="45.33683" lon="4.31982">
        <ele>822</ele>
        <time>2021-02-27T10:21:34Z</time>
      </trkpt>
      <trkpt lat="45.33682" lon="4.31994">
        <ele>821</ele>
        <time>2021-02-27T10:21:35Z</time>
      </trkpt>
      <trkpt lat="45.33682" lon="4.32006">
        <ele>820</ele>
        <time>2021-02-27T10:21:36Z</time>
      </trkpt>
      <trkpt lat="45.33681" lon="4.32018">
        <ele>820</ele>
        <time>2021-02-27T10:21:37Z</time>
      </trkpt>
      <trkpt lat="45.33681" lon="4.3203">
        <ele>820</ele>
        <time>2021-02-27T10:21:38Z</time>
      </trkpt>
      <trkpt lat="45.3368" lon="4.3204">
        <ele>820</ele>
        <time>2021-02-27T10:21:39Z</time>
      </trkpt>
      <trkpt lat="45.33679" lon="4.3205">
        <ele>821</ele>
        <time>2021-02-27T10:21:40Z</time>
      </trkpt>
      <trkpt lat="45.33679" lon="4.3206">
        <ele>821</ele>
        <time>2021-02-27T10:21:41Z</time>
      </trkpt>
      <trkpt lat="45.33678" lon="4.32068">
        <ele>821</ele>
        <time>2021-02-27T10:21:42Z</time>
      </trkpt>
      <trkpt lat="45.33677" lon="4.32075">
        <ele>822</ele>
        <time>2021-02-27T10:21:43Z</time>
      </trkpt>
      <trkpt lat="45.33676" lon="4.32081">
        <ele>823</ele>
        <time>2021-02-27T10:21:44Z</time>
      </trkpt>
      <trkpt lat="45.33675" lon="4.32087">
        <ele>823</ele>
        <time>2021-02-27T10:21:45Z</time>
      </trkpt>
      <trkpt lat="45.33674" lon="4.32093">
        <ele>824</ele>
        <time>2021-02-27T10:21:46Z</time>
      </trkpt>
      <trkpt lat="45.33672" lon="4.321">
        <ele>825</ele>
        <time>2021-02-27T10:21:48Z</time>
      </trkpt>
      <trkpt lat="45.3367" lon="4.32106">
        <ele>825</ele>
        <time>2021-02-27T10:21:49Z</time>
      </trkpt>
      <trkpt lat="45.33669" lon="4.32111">
        <ele>826</ele>
        <time>2021-02-27T10:21:50Z</time>
      </trkpt>
      <trkpt lat="45.33668" lon="4.32115">
        <ele>825</ele>
        <time>2021-02-27T10:21:51Z</time>
      </trkpt>
      <trkpt lat="45.33669" lon="4.3212">
        <ele>824</ele>
        <time>2021-02-27T10:21:52Z</time>
      </trkpt>
      <trkpt lat="45.3367" lon="4.32124">
        <ele>824</ele>
        <time>2021-02-27T10:21:53Z</time>
      </trkpt>
      <trkpt lat="45.33671" lon="4.3213">
        <ele>824</ele>
        <time>2021-02-27T10:21:54Z</time>
      </trkpt>
      <trkpt lat="45.33672" lon="4.32136">
        <ele>824</ele>
        <time>2021-02-27T10:21:55Z</time>
      </trkpt>
      <trkpt lat="45.33674" lon="4.32144">
        <ele>823</ele>
        <time>2021-02-27T10:21:56Z</time>
      </trkpt>
      <trkpt lat="45.33676" lon="4.32153">
        <ele>822</ele>
        <time>2021-02-27T10:21:57Z</time>
      </trkpt>
      <trkpt lat="45.33678" lon="4.32163">
        <ele>821</ele>
        <time>2021-02-27T10:21:58Z</time>
      </trkpt>
      <trkpt lat="45.3368" lon="4.32173">
        <ele>821</ele>
        <time>2021-02-27T10:21:59Z</time>
      </trkpt>
      <trkpt lat="45.33682" lon="4.32182">
        <ele>821</ele>
        <time>2021-02-27T10:22:00Z</time>
      </trkpt>
      <trkpt lat="45.33685" lon="4.32192">
        <ele>820</ele>
        <time>2021-02-27T10:22:01Z</time>
      </trkpt>
      <trkpt lat="45.33688" lon="4.32202">
        <ele>820</ele>
        <time>2021-02-27T10:22:02Z</time>
      </trkpt>
      <trkpt lat="45.3369" lon="4.32211">
        <ele>820</ele>
        <time>2021-02-27T10:22:03Z</time>
      </trkpt>
      <trkpt lat="45.33693" lon="4.32219">
        <ele>820</ele>
        <time>2021-02-27T10:22:04Z</time>
      </trkpt>
      <trkpt lat="45.33696" lon="4.32228">
        <ele>820</ele>
        <time>2021-02-27T10:22:05Z</time>
      </trkpt>
      <trkpt lat="45.33699" lon="4.32235">
        <ele>820</ele>
        <time>2021-02-27T10:22:06Z</time>
      </trkpt>
      <trkpt lat="45.33702" lon="4.32243">
        <ele>820</ele>
        <time>2021-02-27T10:22:07Z</time>
      </trkpt>
      <trkpt lat="45.33705" lon="4.3225">
        <ele>821</ele>
        <time>2021-02-27T10:22:08Z</time>
      </trkpt>
      <trkpt lat="45.33709" lon="4.32257">
        <ele>820</ele>
        <time>2021-02-27T10:22:09Z</time>
      </trkpt>
      <trkpt lat="45.33712" lon="4.32265">
        <ele>820</ele>
        <time>2021-02-27T10:22:10Z</time>
      </trkpt>
      <trkpt lat="45.33715" lon="4.32272">
        <ele>819</ele>
        <time>2021-02-27T10:22:11Z</time>
      </trkpt>
      <trkpt lat="45.33718" lon="4.32279">
        <ele>820</ele>
        <time>2021-02-27T10:22:12Z</time>
      </trkpt>
      <trkpt lat="45.33721" lon="4.32286">
        <ele>820</ele>
        <time>2021-02-27T10:22:13Z</time>
      </trkpt>
      <trkpt lat="45.33724" lon="4.32293">
        <ele>819</ele>
        <time>2021-02-27T10:22:14Z</time>
      </trkpt>
      <trkpt lat="45.33727" lon="4.323">
        <ele>820</ele>
        <time>2021-02-27T10:22:15Z</time>
      </trkpt>
      <trkpt lat="45.3373" lon="4.32307">
        <ele>819</ele>
        <time>2021-02-27T10:22:16Z</time>
      </trkpt>
      <trkpt lat="45.33733" lon="4.32314">
        <ele>820</ele>
        <time>2021-02-27T10:22:17Z</time>
      </trkpt>
      <trkpt lat="45.33735" lon="4.32321">
        <ele>819</ele>
        <time>2021-02-27T10:22:18Z</time>
      </trkpt>
      <trkpt lat="45.33737" lon="4.32328">
        <ele>819</ele>
        <time>2021-02-27T10:22:19Z</time>
      </trkpt>
      <trkpt lat="45.33739" lon="4.32335">
        <ele>819</ele>
        <time>2021-02-27T10:22:20Z</time>
      </trkpt>
      <trkpt lat="45.33741" lon="4.32342">
        <ele>819</ele>
        <time>2021-02-27T10:22:21Z</time>
      </trkpt>
      <trkpt lat="45.33742" lon="4.32349">
        <ele>819</ele>
        <time>2021-02-27T10:22:22Z</time>
      </trkpt>
      <trkpt lat="45.33744" lon="4.32357">
        <ele>819</ele>
        <time>2021-02-27T10:22:23Z</time>
      </trkpt>
      <trkpt lat="45.33746" lon="4.32365">
        <ele>818</ele>
        <time>2021-02-27T10:22:24Z</time>
      </trkpt>
      <trkpt lat="45.33747" lon="4.32373">
        <ele>818</ele>
        <time>2021-02-27T10:22:25Z</time>
      </trkpt>
      <trkpt lat="45.33748" lon="4.32382">
        <ele>817</ele>
        <time>2021-02-27T10:22:26Z</time>
      </trkpt>
      <trkpt lat="45.33749" lon="4.32392">
        <ele>816</ele>
        <time>2021-02-27T10:22:27Z</time>
      </trkpt>
      <trkpt lat="45.3375" lon="4.32402">
        <ele>815</ele>
        <time>2021-02-27T10:22:28Z</time>
      </trkpt>
      <trkpt lat="45.33751" lon="4.32412">
        <ele>813</ele>
        <time>2021-02-27T10:22:29Z</time>
      </trkpt>
      <trkpt lat="45.3375" lon="4.32424">
        <ele>813</ele>
        <time>2021-02-27T10:22:30Z</time>
      </trkpt>
      <trkpt lat="45.33749" lon="4.32435">
        <ele>811</ele>
        <time>2021-02-27T10:22:31Z</time>
      </trkpt>
      <trkpt lat="45.33746" lon="4.32447">
        <ele>811</ele>
        <time>2021-02-27T10:22:32Z</time>
      </trkpt>
      <trkpt lat="45.33742" lon="4.32458">
        <ele>810</ele>
        <time>2021-02-27T10:22:33Z</time>
      </trkpt>
      <trkpt lat="45.33737" lon="4.32469">
        <ele>810</ele>
        <time>2021-02-27T10:22:34Z</time>
      </trkpt>
      <trkpt lat="45.33731" lon="4.3248">
        <ele>810</ele>
        <time>2021-02-27T10:22:35Z</time>
      </trkpt>
      <trkpt lat="45.33725" lon="4.3249">
        <ele>810</ele>
        <time>2021-02-27T10:22:36Z</time>
      </trkpt>
      <trkpt lat="45.33719" lon="4.325">
        <ele>811</ele>
        <time>2021-02-27T10:22:37Z</time>
      </trkpt>
      <trkpt lat="45.33713" lon="4.32509">
        <ele>811</ele>
        <time>2021-02-27T10:22:38Z</time>
      </trkpt>
      <trkpt lat="45.33707" lon="4.32518">
        <ele>811</ele>
        <time>2021-02-27T10:22:39Z</time>
      </trkpt>
      <trkpt lat="45.33701" lon="4.32527">
        <ele>811</ele>
        <time>2021-02-27T10:22:40Z</time>
      </trkpt>
      <trkpt lat="45.33697" lon="4.32536">
        <ele>812</ele>
        <time>2021-02-27T10:22:41Z</time>
      </trkpt>
      <trkpt lat="45.33694" lon="4.32545">
        <ele>812</ele>
        <time>2021-02-27T10:22:42Z</time>
      </trkpt>
      <trkpt lat="45.33693" lon="4.32554">
        <ele>813</ele>
        <time>2021-02-27T10:22:43Z</time>
      </trkpt>
      <trkpt lat="45.33692" lon="4.32563">
        <ele>814</ele>
        <time>2021-02-27T10:22:44Z</time>
      </trkpt>
      <trkpt lat="45.33692" lon="4.3257">
        <ele>814</ele>
        <time>2021-02-27T10:22:45Z</time>
      </trkpt>
      <trkpt lat="45.33693" lon="4.32577">
        <ele>815</ele>
        <time>2021-02-27T10:22:46Z</time>
      </trkpt>
      <trkpt lat="45.33695" lon="4.32583">
        <ele>815</ele>
        <time>2021-02-27T10:22:47Z</time>
      </trkpt>
      <trkpt lat="45.33697" lon="4.32587">
        <ele>816</ele>
        <time>2021-02-27T10:22:48Z</time>
      </trkpt>
      <trkpt lat="45.33699" lon="4.3259">
        <ele>816</ele>
        <time>2021-02-27T10:22:49Z</time>
      </trkpt>
      <trkpt lat="45.33701" lon="4.32593">
        <ele>816</ele>
        <time>2021-02-27T10:22:50Z</time>
      </trkpt>
      <trkpt lat="45.33704" lon="4.32597">
        <ele>817</ele>
        <time>2021-02-27T10:22:51Z</time>
      </trkpt>
      <trkpt lat="45.33707" lon="4.32599">
        <ele>818</ele>
        <time>2021-02-27T10:22:52Z</time>
      </trkpt>
      <trkpt lat="45.33711" lon="4.32602">
        <ele>818</ele>
        <time>2021-02-27T10:22:54Z</time>
      </trkpt>
      <trkpt lat="45.33714" lon="4.32605">
        <ele>819</ele>
        <time>2021-02-27T10:22:55Z</time>
      </trkpt>
      <trkpt lat="45.33718" lon="4.32608">
        <ele>820</ele>
        <time>2021-02-27T10:22:57Z</time>
      </trkpt>
      <trkpt lat="45.33721" lon="4.3261">
        <ele>820</ele>
        <time>2021-02-27T10:22:58Z</time>
      </trkpt>
      <trkpt lat="45.33724" lon="4.32612">
        <ele>820</ele>
        <time>2021-02-27T10:22:59Z</time>
      </trkpt>
      <trkpt lat="45.33727" lon="4.32614">
        <ele>821</ele>
        <time>2021-02-27T10:23:00Z</time>
      </trkpt>
      <trkpt lat="45.3373" lon="4.32615">
        <ele>821</ele>
        <time>2021-02-27T10:23:01Z</time>
      </trkpt>
      <trkpt lat="45.33733" lon="4.32618">
        <ele>822</ele>
        <time>2021-02-27T10:23:03Z</time>
      </trkpt>
      <trkpt lat="45.33736" lon="4.32622">
        <ele>822</ele>
        <time>2021-02-27T10:23:05Z</time>
      </trkpt>
      <trkpt lat="45.33739" lon="4.32625">
        <ele>823</ele>
        <time>2021-02-27T10:23:06Z</time>
      </trkpt>
      <trkpt lat="45.33742" lon="4.32629">
        <ele>823</ele>
        <time>2021-02-27T10:23:08Z</time>
      </trkpt>
      <trkpt lat="45.33744" lon="4.32634">
        <ele>824</ele>
        <time>2021-02-27T10:23:10Z</time>
      </trkpt>
      <trkpt lat="45.33746" lon="4.3264">
        <ele>824</ele>
        <time>2021-02-27T10:23:12Z</time>
      </trkpt>
      <trkpt lat="45.33747" lon="4.32645">
        <ele>824</ele>
        <time>2021-02-27T10:23:14Z</time>
      </trkpt>
      <trkpt lat="45.33748" lon="4.3265">
        <ele>825</ele>
        <time>2021-02-27T10:23:16Z</time>
      </trkpt>
      <trkpt lat="45.3375" lon="4.32655">
        <ele>826</ele>
        <time>2021-02-27T10:23:18Z</time>
      </trkpt>
      <trkpt lat="45.33752" lon="4.3266">
        <ele>826</ele>
        <time>2021-02-27T10:23:20Z</time>
      </trkpt>
      <trkpt lat="45.33753" lon="4.32664">
        <ele>827</ele>
        <time>2021-02-27T10:23:22Z</time>
      </trkpt>
      <trkpt lat="45.33755" lon="4.32669">
        <ele>828</ele>
        <time>2021-02-27T10:23:25Z</time>
      </trkpt>
      <trkpt lat="45.33756" lon="4.32675">
        <ele>829</ele>
        <time>2021-02-27T10:23:27Z</time>
      </trkpt>
      <trkpt lat="45.33757" lon="4.32683">
        <ele>830</ele>
        <time>2021-02-27T10:23:32Z</time>
      </trkpt>
      <trkpt lat="45.33757" lon="4.32688">
        <ele>831</ele>
        <time>2021-02-27T10:23:34Z</time>
      </trkpt>
      <trkpt lat="45.33758" lon="4.32694">
        <ele>831</ele>
        <time>2021-02-27T10:23:36Z</time>
      </trkpt>
      <trkpt lat="45.33758" lon="4.32701">
        <ele>831</ele>
        <time>2021-02-27T10:23:38Z</time>
      </trkpt>
      <trkpt lat="45.33759" lon="4.32707">
        <ele>832</ele>
        <time>2021-02-27T10:23:40Z</time>
      </trkpt>
      <trkpt lat="45.33758" lon="4.32711">
        <ele>833</ele>
        <time>2021-02-27T10:23:42Z</time>
      </trkpt>
      <trkpt lat="45.33758" lon="4.32716">
        <ele>832</ele>
        <time>2021-02-27T10:23:44Z</time>
      </trkpt>
      <trkpt lat="45.33758" lon="4.32721">
        <ele>834</ele>
        <time>2021-02-27T10:23:47Z</time>
      </trkpt>
      <trkpt lat="45.33757" lon="4.32726">
        <ele>835</ele>
        <time>2021-02-27T10:23:50Z</time>
      </trkpt>
      <trkpt lat="45.33756" lon="4.32731">
        <ele>835</ele>
        <time>2021-02-27T10:23:52Z</time>
      </trkpt>
      <trkpt lat="45.33753" lon="4.32739">
        <ele>836</ele>
        <time>2021-02-27T10:23:57Z</time>
      </trkpt>
      <trkpt lat="45.33751" lon="4.32745">
        <ele>836</ele>
        <time>2021-02-27T10:23:59Z</time>
      </trkpt>
      <trkpt lat="45.3375" lon="4.32749">
        <ele>837</ele>
        <time>2021-02-27T10:24:01Z</time>
      </trkpt>
      <trkpt lat="45.33747" lon="4.32754">
        <ele>838</ele>
        <time>2021-02-27T10:24:05Z</time>
      </trkpt>
      <trkpt lat="45.33745" lon="4.32758">
        <ele>838</ele>
        <time>2021-02-27T10:24:07Z</time>
      </trkpt>
      <trkpt lat="45.33743" lon="4.32763">
        <ele>838</ele>
        <time>2021-02-27T10:24:09Z</time>
      </trkpt>
      <trkpt lat="45.33739" lon="4.32768">
        <ele>838</ele>
        <time>2021-02-27T10:24:12Z</time>
      </trkpt>
      <trkpt lat="45.33736" lon="4.32772">
        <ele>839</ele>
        <time>2021-02-27T10:24:15Z</time>
      </trkpt>
      <trkpt lat="45.33731" lon="4.32778">
        <ele>841</ele>
        <time>2021-02-27T10:24:20Z</time>
      </trkpt>
      <trkpt lat="45.33727" lon="4.32781">
        <ele>841</ele>
        <time>2021-02-27T10:24:22Z</time>
      </trkpt>
      <trkpt lat="45.33724" lon="4.32785">
        <ele>842</ele>
        <time>2021-02-27T10:24:24Z</time>
      </trkpt>
      <trkpt lat="45.33722" lon="4.32789">
        <ele>842</ele>
        <time>2021-02-27T10:24:26Z</time>
      </trkpt>
      <trkpt lat="45.33719" lon="4.32793">
        <ele>842</ele>
        <time>2021-02-27T10:24:28Z</time>
      </trkpt>
      <trkpt lat="45.33715" lon="4.32798">
        <ele>843</ele>
        <time>2021-02-27T10:24:33Z</time>
      </trkpt>
      <trkpt lat="45.33711" lon="4.32802">
        <ele>843</ele>
        <time>2021-02-27T10:24:35Z</time>
      </trkpt>
      <trkpt lat="45.33708" lon="4.32806">
        <ele>843</ele>
        <time>2021-02-27T10:24:37Z</time>
      </trkpt>
      <trkpt lat="45.33706" lon="4.32809">
        <ele>844</ele>
        <time>2021-02-27T10:24:39Z</time>
      </trkpt>
      <trkpt lat="45.33703" lon="4.32813">
        <ele>844</ele>
        <time>2021-02-27T10:24:41Z</time>
      </trkpt>
      <trkpt lat="45.337" lon="4.32817">
        <ele>845</ele>
        <time>2021-02-27T10:24:43Z</time>
      </trkpt>
      <trkpt lat="45.33697" lon="4.3282">
        <ele>845</ele>
        <time>2021-02-27T10:24:45Z</time>
      </trkpt>
      <trkpt lat="45.33695" lon="4.32823">
        <ele>846</ele>
        <time>2021-02-27T10:24:47Z</time>
      </trkpt>
      <trkpt lat="45.33692" lon="4.32827">
        <ele>845</ele>
        <time>2021-02-27T10:24:49Z</time>
      </trkpt>
      <trkpt lat="45.3369" lon="4.32831">
        <ele>846</ele>
        <time>2021-02-27T10:24:51Z</time>
      </trkpt>
      <trkpt lat="45.33687" lon="4.32835">
        <ele>846</ele>
        <time>2021-02-27T10:24:53Z</time>
      </trkpt>
      <trkpt lat="45.33686" lon="4.32839">
        <ele>847</ele>
        <time>2021-02-27T10:24:55Z</time>
      </trkpt>
      <trkpt lat="45.33684" lon="4.32842">
        <ele>847</ele>
        <time>2021-02-27T10:24:57Z</time>
      </trkpt>
      <trkpt lat="45.33682" lon="4.32846">
        <ele>847</ele>
        <time>2021-02-27T10:24:59Z</time>
      </trkpt>
      <trkpt lat="45.33679" lon="4.32851">
        <ele>848</ele>
        <time>2021-02-27T10:25:01Z</time>
      </trkpt>
      <trkpt lat="45.33677" lon="4.32854">
        <ele>848</ele>
        <time>2021-02-27T10:25:03Z</time>
      </trkpt>
      <trkpt lat="45.33674" lon="4.32857">
        <ele>849</ele>
        <time>2021-02-27T10:25:05Z</time>
      </trkpt>
      <trkpt lat="45.33672" lon="4.32862">
        <ele>849</ele>
        <time>2021-02-27T10:25:08Z</time>
      </trkpt>
      <trkpt lat="45.3367" lon="4.32865">
        <ele>849</ele>
        <time>2021-02-27T10:25:10Z</time>
      </trkpt>
      <trkpt lat="45.33668" lon="4.32869">
        <ele>850</ele>
        <time>2021-02-27T10:25:12Z</time>
      </trkpt>
      <trkpt lat="45.33666" lon="4.32874">
        <ele>850</ele>
        <time>2021-02-27T10:25:14Z</time>
      </trkpt>
      <trkpt lat="45.33663" lon="4.32878">
        <ele>851</ele>
        <time>2021-02-27T10:25:16Z</time>
      </trkpt>
      <trkpt lat="45.33661" lon="4.32882">
        <ele>851</ele>
        <time>2021-02-27T10:25:18Z</time>
      </trkpt>
      <trkpt lat="45.33657" lon="4.32888">
        <ele>852</ele>
        <time>2021-02-27T10:25:21Z</time>
      </trkpt>
      <trkpt lat="45.33654" lon="4.32895">
        <ele>852</ele>
        <time>2021-02-27T10:25:24Z</time>
      </trkpt>
      <trkpt lat="45.33652" lon="4.329">
        <ele>852</ele>
        <time>2021-02-27T10:25:26Z</time>
      </trkpt>
      <trkpt lat="45.33649" lon="4.32906">
        <ele>852</ele>
        <time>2021-02-27T10:25:30Z</time>
      </trkpt>
      <trkpt lat="45.33646" lon="4.32911">
        <ele>853</ele>
        <time>2021-02-27T10:25:32Z</time>
      </trkpt>
      <trkpt lat="45.33643" lon="4.32916">
        <ele>853</ele>
        <time>2021-02-27T10:25:34Z</time>
      </trkpt>
      <trkpt lat="45.3364" lon="4.3292">
        <ele>854</ele>
        <time>2021-02-27T10:25:36Z</time>
      </trkpt>
      <trkpt lat="45.33637" lon="4.32925">
        <ele>853</ele>
        <time>2021-02-27T10:25:38Z</time>
      </trkpt>
      <trkpt lat="45.33634" lon="4.3293">
        <ele>854</ele>
        <time>2021-02-27T10:25:40Z</time>
      </trkpt>
      <trkpt lat="45.33631" lon="4.32935">
        <ele>854</ele>
        <time>2021-02-27T10:25:42Z</time>
      </trkpt>
      <trkpt lat="45.33629" lon="4.3294">
        <ele>854</ele>
        <time>2021-02-27T10:25:44Z</time>
      </trkpt>
      <trkpt lat="45.33626" lon="4.32944">
        <ele>854</ele>
        <time>2021-02-27T10:25:46Z</time>
      </trkpt>
      <trkpt lat="45.33623" lon="4.32949">
        <ele>855</ele>
        <time>2021-02-27T10:25:48Z</time>
      </trkpt>
      <trkpt lat="45.3362" lon="4.32953">
        <ele>855</ele>
        <time>2021-02-27T10:25:50Z</time>
      </trkpt>
      <trkpt lat="45.33616" lon="4.32957">
        <ele>855</ele>
        <time>2021-02-27T10:25:52Z</time>
      </trkpt>
      <trkpt lat="45.33613" lon="4.32961">
        <ele>856</ele>
        <time>2021-02-27T10:25:53Z</time>
      </trkpt>
      <trkpt lat="45.33611" lon="4.32965">
        <ele>856</ele>
        <time>2021-02-27T10:25:55Z</time>
      </trkpt>
      <trkpt lat="45.33608" lon="4.3297">
        <ele>856</ele>
        <time>2021-02-27T10:25:57Z</time>
      </trkpt>
      <trkpt lat="45.33605" lon="4.32975">
        <ele>856</ele>
        <time>2021-02-27T10:25:59Z</time>
      </trkpt>
      <trkpt lat="45.33602" lon="4.3298">
        <ele>856</ele>
        <time>2021-02-27T10:26:01Z</time>
      </trkpt>
      <trkpt lat="45.336" lon="4.32984">
        <ele>856</ele>
        <time>2021-02-27T10:26:02Z</time>
      </trkpt>
      <trkpt lat="45.33598" lon="4.32988">
        <ele>856</ele>
        <time>2021-02-27T10:26:03Z</time>
      </trkpt>
      <trkpt lat="45.33595" lon="4.32992">
        <ele>857</ele>
        <time>2021-02-27T10:26:05Z</time>
      </trkpt>
      <trkpt lat="45.33592" lon="4.32998">
        <ele>858</ele>
        <time>2021-02-27T10:26:07Z</time>
      </trkpt>
      <trkpt lat="45.33589" lon="4.33003">
        <ele>857</ele>
        <time>2021-02-27T10:26:09Z</time>
      </trkpt>
      <trkpt lat="45.33586" lon="4.33009">
        <ele>858</ele>
        <time>2021-02-27T10:26:11Z</time>
      </trkpt>
      <trkpt lat="45.33583" lon="4.33014">
        <ele>858</ele>
        <time>2021-02-27T10:26:13Z</time>
      </trkpt>
      <trkpt lat="45.33581" lon="4.3302">
        <ele>858</ele>
        <time>2021-02-27T10:26:15Z</time>
      </trkpt>
      <trkpt lat="45.33579" lon="4.33027">
        <ele>858</ele>
        <time>2021-02-27T10:26:17Z</time>
      </trkpt>
      <trkpt lat="45.33578" lon="4.33034">
        <ele>859</ele>
        <time>2021-02-27T10:26:19Z</time>
      </trkpt>
      <trkpt lat="45.33576" lon="4.3304">
        <ele>859</ele>
        <time>2021-02-27T10:26:21Z</time>
      </trkpt>
      <trkpt lat="45.33574" lon="4.33045">
        <ele>858</ele>
        <time>2021-02-27T10:26:23Z</time>
      </trkpt>
      <trkpt lat="45.33572" lon="4.3305">
        <ele>858</ele>
        <time>2021-02-27T10:26:25Z</time>
      </trkpt>
      <trkpt lat="45.33569" lon="4.33056">
        <ele>859</ele>
        <time>2021-02-27T10:26:27Z</time>
      </trkpt>
      <trkpt lat="45.33567" lon="4.33061">
        <ele>859</ele>
        <time>2021-02-27T10:26:29Z</time>
      </trkpt>
      <trkpt lat="45.33565" lon="4.33066">
        <ele>860</ele>
        <time>2021-02-27T10:26:30Z</time>
      </trkpt>
      <trkpt lat="45.33563" lon="4.3307">
        <ele>860</ele>
        <time>2021-02-27T10:26:31Z</time>
      </trkpt>
      <trkpt lat="45.33562" lon="4.33074">
        <ele>860</ele>
        <time>2021-02-27T10:26:32Z</time>
      </trkpt>
      <trkpt lat="45.33561" lon="4.33078">
        <ele>860</ele>
        <time>2021-02-27T10:26:33Z</time>
      </trkpt>
      <trkpt lat="45.33559" lon="4.33082">
        <ele>860</ele>
        <time>2021-02-27T10:26:35Z</time>
      </trkpt>
      <trkpt lat="45.33557" lon="4.33086">
        <ele>861</ele>
        <time>2021-02-27T10:26:37Z</time>
      </trkpt>
      <trkpt lat="45.33555" lon="4.33091">
        <ele>861</ele>
        <time>2021-02-27T10:26:39Z</time>
      </trkpt>
      <trkpt lat="45.33552" lon="4.33095">
        <ele>861</ele>
        <time>2021-02-27T10:26:41Z</time>
      </trkpt>
      <trkpt lat="45.3355" lon="4.33101">
        <ele>862</ele>
        <time>2021-02-27T10:26:43Z</time>
      </trkpt>
      <trkpt lat="45.33547" lon="4.33106">
        <ele>862</ele>
        <time>2021-02-27T10:26:45Z</time>
      </trkpt>
      <trkpt lat="45.33545" lon="4.3311">
        <ele>863</ele>
        <time>2021-02-27T10:26:47Z</time>
      </trkpt>
      <trkpt lat="45.33544" lon="4.33114">
        <ele>863</ele>
        <time>2021-02-27T10:26:48Z</time>
      </trkpt>
      <trkpt lat="45.33542" lon="4.33117">
        <ele>863</ele>
        <time>2021-02-27T10:26:49Z</time>
      </trkpt>
      <trkpt lat="45.33539" lon="4.33121">
        <ele>863</ele>
        <time>2021-02-27T10:26:51Z</time>
      </trkpt>
      <trkpt lat="45.33537" lon="4.33124">
        <ele>863</ele>
        <time>2021-02-27T10:26:53Z</time>
      </trkpt>
      <trkpt lat="45.33535" lon="4.33128">
        <ele>863</ele>
        <time>2021-02-27T10:26:55Z</time>
      </trkpt>
      <trkpt lat="45.33533" lon="4.33133">
        <ele>864</ele>
        <time>2021-02-27T10:26:57Z</time>
      </trkpt>
      <trkpt lat="45.33529" lon="4.33139">
        <ele>865</ele>
        <time>2021-02-27T10:27:00Z</time>
      </trkpt>
      <trkpt lat="45.33526" lon="4.33143">
        <ele>865</ele>
        <time>2021-02-27T10:27:02Z</time>
      </trkpt>
      <trkpt lat="45.33523" lon="4.33146">
        <ele>865</ele>
        <time>2021-02-27T10:27:04Z</time>
      </trkpt>
      <trkpt lat="45.3352" lon="4.33151">
        <ele>866</ele>
        <time>2021-02-27T10:27:06Z</time>
      </trkpt>
      <trkpt lat="45.33516" lon="4.33155">
        <ele>866</ele>
        <time>2021-02-27T10:27:08Z</time>
      </trkpt>
      <trkpt lat="45.33513" lon="4.33158">
        <ele>867</ele>
        <time>2021-02-27T10:27:09Z</time>
      </trkpt>
      <trkpt lat="45.3351" lon="4.33161">
        <ele>867</ele>
        <time>2021-02-27T10:27:10Z</time>
      </trkpt>
      <trkpt lat="45.33507" lon="4.33164">
        <ele>867</ele>
        <time>2021-02-27T10:27:11Z</time>
      </trkpt>
      <trkpt lat="45.33505" lon="4.33168">
        <ele>867</ele>
        <time>2021-02-27T10:27:12Z</time>
      </trkpt>
      <trkpt lat="45.33502" lon="4.33171">
        <ele>867</ele>
        <time>2021-02-27T10:27:13Z</time>
      </trkpt>
      <trkpt lat="45.33499" lon="4.33175">
        <ele>868</ele>
        <time>2021-02-27T10:27:15Z</time>
      </trkpt>
      <trkpt lat="45.33497" lon="4.33179">
        <ele>867</ele>
        <time>2021-02-27T10:27:16Z</time>
      </trkpt>
      <trkpt lat="45.33494" lon="4.33184">
        <ele>868</ele>
        <time>2021-02-27T10:27:18Z</time>
      </trkpt>
      <trkpt lat="45.33492" lon="4.33188">
        <ele>868</ele>
        <time>2021-02-27T10:27:20Z</time>
      </trkpt>
      <trkpt lat="45.33488" lon="4.33193">
        <ele>868</ele>
        <time>2021-02-27T10:27:22Z</time>
      </trkpt>
      <trkpt lat="45.33485" lon="4.33197">
        <ele>868</ele>
        <time>2021-02-27T10:27:23Z</time>
      </trkpt>
      <trkpt lat="45.33482" lon="4.33202">
        <ele>868</ele>
        <time>2021-02-27T10:27:25Z</time>
      </trkpt>
      <trkpt lat="45.3348" lon="4.33207">
        <ele>868</ele>
        <time>2021-02-27T10:27:26Z</time>
      </trkpt>
      <trkpt lat="45.33478" lon="4.3321">
        <ele>868</ele>
        <time>2021-02-27T10:27:27Z</time>
      </trkpt>
      <trkpt lat="45.33475" lon="4.33215">
        <ele>869</ele>
        <time>2021-02-27T10:27:29Z</time>
      </trkpt>
      <trkpt lat="45.33472" lon="4.3322">
        <ele>869</ele>
        <time>2021-02-27T10:27:30Z</time>
      </trkpt>
      <trkpt lat="45.3347" lon="4.33225">
        <ele>869</ele>
        <time>2021-02-27T10:27:31Z</time>
      </trkpt>
      <trkpt lat="45.33468" lon="4.3323">
        <ele>869</ele>
        <time>2021-02-27T10:27:32Z</time>
      </trkpt>
      <trkpt lat="45.33466" lon="4.33234">
        <ele>868</ele>
        <time>2021-02-27T10:27:33Z</time>
      </trkpt>
      <trkpt lat="45.33464" lon="4.33239">
        <ele>869</ele>
        <time>2021-02-27T10:27:34Z</time>
      </trkpt>
      <trkpt lat="45.33462" lon="4.33244">
        <ele>868</ele>
        <time>2021-02-27T10:27:35Z</time>
      </trkpt>
      <trkpt lat="45.33459" lon="4.3325">
        <ele>868</ele>
        <time>2021-02-27T10:27:37Z</time>
      </trkpt>
      <trkpt lat="45.33457" lon="4.33256">
        <ele>868</ele>
        <time>2021-02-27T10:27:38Z</time>
      </trkpt>
      <trkpt lat="45.33455" lon="4.33261">
        <ele>868</ele>
        <time>2021-02-27T10:27:39Z</time>
      </trkpt>
      <trkpt lat="45.33453" lon="4.33267">
        <ele>868</ele>
        <time>2021-02-27T10:27:40Z</time>
      </trkpt>
      <trkpt lat="45.33451" lon="4.33272">
        <ele>869</ele>
        <time>2021-02-27T10:27:41Z</time>
      </trkpt>
      <trkpt lat="45.33449" lon="4.33278">
        <ele>868</ele>
        <time>2021-02-27T10:27:42Z</time>
      </trkpt>
      <trkpt lat="45.33447" lon="4.33284">
        <ele>869</ele>
        <time>2021-02-27T10:27:43Z</time>
      </trkpt>
      <trkpt lat="45.33445" lon="4.33291">
        <ele>869</ele>
        <time>2021-02-27T10:27:44Z</time>
      </trkpt>
      <trkpt lat="45.33444" lon="4.33297">
        <ele>868</ele>
        <time>2021-02-27T10:27:45Z</time>
      </trkpt>
      <trkpt lat="45.33442" lon="4.33303">
        <ele>869</ele>
        <time>2021-02-27T10:27:46Z</time>
      </trkpt>
      <trkpt lat="45.33441" lon="4.33309">
        <ele>869</ele>
        <time>2021-02-27T10:27:47Z</time>
      </trkpt>
      <trkpt lat="45.3344" lon="4.33315">
        <ele>868</ele>
        <time>2021-02-27T10:27:48Z</time>
      </trkpt>
      <trkpt lat="45.33439" lon="4.33321">
        <ele>868</ele>
        <time>2021-02-27T10:27:49Z</time>
      </trkpt>
      <trkpt lat="45.33439" lon="4.33327">
        <ele>869</ele>
        <time>2021-02-27T10:27:50Z</time>
      </trkpt>
      <trkpt lat="45.33438" lon="4.33332">
        <ele>869</ele>
        <time>2021-02-27T10:27:51Z</time>
      </trkpt>
      <trkpt lat="45.33438" lon="4.33338">
        <ele>869</ele>
        <time>2021-02-27T10:27:52Z</time>
      </trkpt>
      <trkpt lat="45.33438" lon="4.33343">
        <ele>869</ele>
        <time>2021-02-27T10:27:53Z</time>
      </trkpt>
      <trkpt lat="45.33437" lon="4.33348">
        <ele>869</ele>
        <time>2021-02-27T10:27:54Z</time>
      </trkpt>
      <trkpt lat="45.33437" lon="4.33354">
        <ele>869</ele>
        <time>2021-02-27T10:27:55Z</time>
      </trkpt>
      <trkpt lat="45.33436" lon="4.33358">
        <ele>869</ele>
        <time>2021-02-27T10:27:56Z</time>
      </trkpt>
      <trkpt lat="45.33436" lon="4.33365">
        <ele>870</ele>
        <time>2021-02-27T10:27:58Z</time>
      </trkpt>
      <trkpt lat="45.33436" lon="4.33371">
        <ele>870</ele>
        <time>2021-02-27T10:28:00Z</time>
      </trkpt>
      <trkpt lat="45.33436" lon="4.33377">
        <ele>871</ele>
        <time>2021-02-27T10:28:02Z</time>
      </trkpt>
      <trkpt lat="45.33437" lon="4.33382">
        <ele>870</ele>
        <time>2021-02-27T10:28:04Z</time>
      </trkpt>
      <trkpt lat="45.33438" lon="4.33388">
        <ele>870</ele>
        <time>2021-02-27T10:28:06Z</time>
      </trkpt>
      <trkpt lat="45.33438" lon="4.33394">
        <ele>870</ele>
        <time>2021-02-27T10:28:08Z</time>
      </trkpt>
      <trkpt lat="45.33439" lon="4.33401">
        <ele>870</ele>
        <time>2021-02-27T10:28:10Z</time>
      </trkpt>
      <trkpt lat="45.3344" lon="4.33405">
        <ele>870</ele>
        <time>2021-02-27T10:28:11Z</time>
      </trkpt>
      <trkpt lat="45.33441" lon="4.3341">
        <ele>871</ele>
        <time>2021-02-27T10:28:12Z</time>
      </trkpt>
      <trkpt lat="45.33442" lon="4.33416">
        <ele>870</ele>
        <time>2021-02-27T10:28:14Z</time>
      </trkpt>
      <trkpt lat="45.33442" lon="4.33421">
        <ele>870</ele>
        <time>2021-02-27T10:28:15Z</time>
      </trkpt>
      <trkpt lat="45.33443" lon="4.33429">
        <ele>871</ele>
        <time>2021-02-27T10:28:17Z</time>
      </trkpt>
      <trkpt lat="45.33443" lon="4.33435">
        <ele>870</ele>
        <time>2021-02-27T10:28:18Z</time>
      </trkpt>
      <trkpt lat="45.33443" lon="4.3344">
        <ele>871</ele>
        <time>2021-02-27T10:28:19Z</time>
      </trkpt>
      <trkpt lat="45.33444" lon="4.33445">
        <ele>871</ele>
        <time>2021-02-27T10:28:20Z</time>
      </trkpt>
      <trkpt lat="45.33444" lon="4.3345">
        <ele>871</ele>
        <time>2021-02-27T10:28:21Z</time>
      </trkpt>
      <trkpt lat="45.33444" lon="4.33456">
        <ele>871</ele>
        <time>2021-02-27T10:28:22Z</time>
      </trkpt>
      <trkpt lat="45.33444" lon="4.33461">
        <ele>871</ele>
        <time>2021-02-27T10:28:23Z</time>
      </trkpt>
      <trkpt lat="45.33444" lon="4.33466">
        <ele>870</ele>
        <time>2021-02-27T10:28:24Z</time>
      </trkpt>
      <trkpt lat="45.33444" lon="4.33471">
        <ele>871</ele>
        <time>2021-02-27T10:28:25Z</time>
      </trkpt>
      <trkpt lat="45.33445" lon="4.33475">
        <ele>871</ele>
        <time>2021-02-27T10:28:26Z</time>
      </trkpt>
      <trkpt lat="45.33445" lon="4.3348">
        <ele>872</ele>
        <time>2021-02-27T10:28:27Z</time>
      </trkpt>
      <trkpt lat="45.33445" lon="4.33485">
        <ele>872</ele>
        <time>2021-02-27T10:28:28Z</time>
      </trkpt>
      <trkpt lat="45.33445" lon="4.3349">
        <ele>871</ele>
        <time>2021-02-27T10:28:29Z</time>
      </trkpt>
      <trkpt lat="45.33445" lon="4.33496">
        <ele>872</ele>
        <time>2021-02-27T10:28:30Z</time>
      </trkpt>
      <trkpt lat="45.33445" lon="4.33501">
        <ele>872</ele>
        <time>2021-02-27T10:28:31Z</time>
      </trkpt>
      <trkpt lat="45.33445" lon="4.33507">
        <ele>872</ele>
        <time>2021-02-27T10:28:32Z</time>
      </trkpt>
      <trkpt lat="45.33445" lon="4.33512">
        <ele>872</ele>
        <time>2021-02-27T10:28:33Z</time>
      </trkpt>
      <trkpt lat="45.33445" lon="4.33517">
        <ele>872</ele>
        <time>2021-02-27T10:28:34Z</time>
      </trkpt>
      <trkpt lat="45.33445" lon="4.33522">
        <ele>873</ele>
        <time>2021-02-27T10:28:35Z</time>
      </trkpt>
      <trkpt lat="45.33445" lon="4.33528">
        <ele>872</ele>
        <time>2021-02-27T10:28:36Z</time>
      </trkpt>
      <trkpt lat="45.33444" lon="4.33533">
        <ele>872</ele>
        <time>2021-02-27T10:28:37Z</time>
      </trkpt>
      <trkpt lat="45.33444" lon="4.33538">
        <ele>872</ele>
        <time>2021-02-27T10:28:38Z</time>
      </trkpt>
      <trkpt lat="45.33444" lon="4.33544">
        <ele>873</ele>
        <time>2021-02-27T10:28:39Z</time>
      </trkpt>
      <trkpt lat="45.33443" lon="4.33549">
        <ele>873</ele>
        <time>2021-02-27T10:28:40Z</time>
      </trkpt>
      <trkpt lat="45.33443" lon="4.33554">
        <ele>873</ele>
        <time>2021-02-27T10:28:41Z</time>
      </trkpt>
      <trkpt lat="45.33442" lon="4.33559">
        <ele>873</ele>
        <time>2021-02-27T10:28:42Z</time>
      </trkpt>
      <trkpt lat="45.33442" lon="4.33564">
        <ele>873</ele>
        <time>2021-02-27T10:28:43Z</time>
      </trkpt>
      <trkpt lat="45.33441" lon="4.33569">
        <ele>873</ele>
        <time>2021-02-27T10:28:44Z</time>
      </trkpt>
      <trkpt lat="45.33441" lon="4.33573">
        <ele>873</ele>
        <time>2021-02-27T10:28:45Z</time>
      </trkpt>
      <trkpt lat="45.3344" lon="4.33578">
        <ele>874</ele>
        <time>2021-02-27T10:28:46Z</time>
      </trkpt>
      <trkpt lat="45.33439" lon="4.33583">
        <ele>874</ele>
        <time>2021-02-27T10:28:47Z</time>
      </trkpt>
      <trkpt lat="45.33439" lon="4.33588">
        <ele>874</ele>
        <time>2021-02-27T10:28:48Z</time>
      </trkpt>
      <trkpt lat="45.33438" lon="4.33593">
        <ele>875</ele>
        <time>2021-02-27T10:28:49Z</time>
      </trkpt>
      <trkpt lat="45.33437" lon="4.33598">
        <ele>874</ele>
        <time>2021-02-27T10:28:50Z</time>
      </trkpt>
      <trkpt lat="45.33437" lon="4.33602">
        <ele>875</ele>
        <time>2021-02-27T10:28:51Z</time>
      </trkpt>
      <trkpt lat="45.33436" lon="4.33607">
        <ele>875</ele>
        <time>2021-02-27T10:28:52Z</time>
      </trkpt>
      <trkpt lat="45.33435" lon="4.33612">
        <ele>875</ele>
        <time>2021-02-27T10:28:53Z</time>
      </trkpt>
      <trkpt lat="45.33434" lon="4.33617">
        <ele>876</ele>
        <time>2021-02-27T10:28:54Z</time>
      </trkpt>
      <trkpt lat="45.33433" lon="4.33621">
        <ele>875</ele>
        <time>2021-02-27T10:28:55Z</time>
      </trkpt>
      <trkpt lat="45.33432" lon="4.33625">
        <ele>876</ele>
        <time>2021-02-27T10:28:56Z</time>
      </trkpt>
      <trkpt lat="45.33431" lon="4.3363">
        <ele>876</ele>
        <time>2021-02-27T10:28:57Z</time>
      </trkpt>
      <trkpt lat="45.3343" lon="4.33634">
        <ele>876</ele>
        <time>2021-02-27T10:28:58Z</time>
      </trkpt>
      <trkpt lat="45.33428" lon="4.33639">
        <ele>877</ele>
        <time>2021-02-27T10:28:59Z</time>
      </trkpt>
      <trkpt lat="45.33427" lon="4.33643">
        <ele>877</ele>
        <time>2021-02-27T10:29:00Z</time>
      </trkpt>
      <trkpt lat="45.33426" lon="4.33648">
        <ele>876</ele>
        <time>2021-02-27T10:29:01Z</time>
      </trkpt>
      <trkpt lat="45.33424" lon="4.33652">
        <ele>877</ele>
        <time>2021-02-27T10:29:02Z</time>
      </trkpt>
      <trkpt lat="45.33423" lon="4.33657">
        <ele>877</ele>
        <time>2021-02-27T10:29:03Z</time>
      </trkpt>
      <trkpt lat="45.33421" lon="4.33661">
        <ele>877</ele>
        <time>2021-02-27T10:29:04Z</time>
      </trkpt>
      <trkpt lat="45.3342" lon="4.33666">
        <ele>878</ele>
        <time>2021-02-27T10:29:05Z</time>
      </trkpt>
      <trkpt lat="45.33418" lon="4.3367">
        <ele>877</ele>
        <time>2021-02-27T10:29:06Z</time>
      </trkpt>
      <trkpt lat="45.33417" lon="4.33675">
        <ele>878</ele>
        <time>2021-02-27T10:29:07Z</time>
      </trkpt>
      <trkpt lat="45.33415" lon="4.33679">
        <ele>877</ele>
        <time>2021-02-27T10:29:08Z</time>
      </trkpt>
      <trkpt lat="45.33414" lon="4.33684">
        <ele>878</ele>
        <time>2021-02-27T10:29:09Z</time>
      </trkpt>
      <trkpt lat="45.33412" lon="4.33689">
        <ele>878</ele>
        <time>2021-02-27T10:29:10Z</time>
      </trkpt>
      <trkpt lat="45.33411" lon="4.33693">
        <ele>878</ele>
        <time>2021-02-27T10:29:11Z</time>
      </trkpt>
      <trkpt lat="45.33409" lon="4.33698">
        <ele>878</ele>
        <time>2021-02-27T10:29:12Z</time>
      </trkpt>
      <trkpt lat="45.33408" lon="4.33703">
        <ele>878</ele>
        <time>2021-02-27T10:29:13Z</time>
      </trkpt>
      <trkpt lat="45.33406" lon="4.33708">
        <ele>878</ele>
        <time>2021-02-27T10:29:14Z</time>
      </trkpt>
      <trkpt lat="45.33405" lon="4.33713">
        <ele>878</ele>
        <time>2021-02-27T10:29:15Z</time>
      </trkpt>
      <trkpt lat="45.33403" lon="4.33718">
        <ele>878</ele>
        <time>2021-02-27T10:29:16Z</time>
      </trkpt>
      <trkpt lat="45.33402" lon="4.33723">
        <ele>878</ele>
        <time>2021-02-27T10:29:17Z</time>
      </trkpt>
      <trkpt lat="45.334" lon="4.33728">
        <ele>878</ele>
        <time>2021-02-27T10:29:18Z</time>
      </trkpt>
      <trkpt lat="45.33399" lon="4.33734">
        <ele>879</ele>
        <time>2021-02-27T10:29:19Z</time>
      </trkpt>
      <trkpt lat="45.33398" lon="4.33739">
        <ele>878</ele>
        <time>2021-02-27T10:29:20Z</time>
      </trkpt>
      <trkpt lat="45.33396" lon="4.33745">
        <ele>878</ele>
        <time>2021-02-27T10:29:21Z</time>
      </trkpt>
      <trkpt lat="45.33395" lon="4.3375">
        <ele>878</ele>
        <time>2021-02-27T10:29:22Z</time>
      </trkpt>
      <trkpt lat="45.33394" lon="4.33755">
        <ele>878</ele>
        <time>2021-02-27T10:29:23Z</time>
      </trkpt>
      <trkpt lat="45.33392" lon="4.33761">
        <ele>878</ele>
        <time>2021-02-27T10:29:24Z</time>
      </trkpt>
      <trkpt lat="45.33391" lon="4.33766">
        <ele>878</ele>
        <time>2021-02-27T10:29:25Z</time>
      </trkpt>
      <trkpt lat="45.33389" lon="4.33771">
        <ele>878</ele>
        <time>2021-02-27T10:29:26Z</time>
      </trkpt>
      <trkpt lat="45.33388" lon="4.33776">
        <ele>879</ele>
        <time>2021-02-27T10:29:27Z</time>
      </trkpt>
      <trkpt lat="45.33386" lon="4.33781">
        <ele>879</ele>
        <time>2021-02-27T10:29:28Z</time>
      </trkpt>
      <trkpt lat="45.33385" lon="4.33786">
        <ele>878</ele>
        <time>2021-02-27T10:29:29Z</time>
      </trkpt>
      <trkpt lat="45.33383" lon="4.3379">
        <ele>879</ele>
        <time>2021-02-27T10:29:30Z</time>
      </trkpt>
      <trkpt lat="45.33382" lon="4.33795">
        <ele>878</ele>
        <time>2021-02-27T10:29:31Z</time>
      </trkpt>
      <trkpt lat="45.3338" lon="4.338">
        <ele>878</ele>
        <time>2021-02-27T10:29:32Z</time>
      </trkpt>
      <trkpt lat="45.33378" lon="4.33805">
        <ele>878</ele>
        <time>2021-02-27T10:29:33Z</time>
      </trkpt>
      <trkpt lat="45.33376" lon="4.3381">
        <ele>878</ele>
        <time>2021-02-27T10:29:34Z</time>
      </trkpt>
      <trkpt lat="45.33374" lon="4.33815">
        <ele>878</ele>
        <time>2021-02-27T10:29:35Z</time>
      </trkpt>
      <trkpt lat="45.33372" lon="4.33819">
        <ele>879</ele>
        <time>2021-02-27T10:29:36Z</time>
      </trkpt>
      <trkpt lat="45.3337" lon="4.33824">
        <ele>878</ele>
        <time>2021-02-27T10:29:37Z</time>
      </trkpt>
      <trkpt lat="45.33368" lon="4.33828">
        <ele>879</ele>
        <time>2021-02-27T10:29:38Z</time>
      </trkpt>
      <trkpt lat="45.33366" lon="4.33833">
        <ele>879</ele>
        <time>2021-02-27T10:29:39Z</time>
      </trkpt>
      <trkpt lat="45.33364" lon="4.33837">
        <ele>879</ele>
        <time>2021-02-27T10:29:40Z</time>
      </trkpt>
      <trkpt lat="45.33362" lon="4.33842">
        <ele>879</ele>
        <time>2021-02-27T10:29:41Z</time>
      </trkpt>
      <trkpt lat="45.33359" lon="4.33846">
        <ele>879</ele>
        <time>2021-02-27T10:29:42Z</time>
      </trkpt>
      <trkpt lat="45.33356" lon="4.3385">
        <ele>879</ele>
        <time>2021-02-27T10:29:43Z</time>
      </trkpt>
      <trkpt lat="45.33354" lon="4.33854">
        <ele>879</ele>
        <time>2021-02-27T10:29:44Z</time>
      </trkpt>
      <trkpt lat="45.33351" lon="4.33858">
        <ele>880</ele>
        <time>2021-02-27T10:29:45Z</time>
      </trkpt>
      <trkpt lat="45.33349" lon="4.33861">
        <ele>880</ele>
        <time>2021-02-27T10:29:46Z</time>
      </trkpt>
      <trkpt lat="45.33346" lon="4.33865">
        <ele>880</ele>
        <time>2021-02-27T10:29:47Z</time>
      </trkpt>
      <trkpt lat="45.33344" lon="4.33868">
        <ele>880</ele>
        <time>2021-02-27T10:29:48Z</time>
      </trkpt>
      <trkpt lat="45.33342" lon="4.33871">
        <ele>880</ele>
        <time>2021-02-27T10:29:49Z</time>
      </trkpt>
      <trkpt lat="45.33339" lon="4.33874">
        <ele>880</ele>
        <time>2021-02-27T10:29:50Z</time>
      </trkpt>
      <trkpt lat="45.33337" lon="4.33877">
        <ele>881</ele>
        <time>2021-02-27T10:29:51Z</time>
      </trkpt>
      <trkpt lat="45.33335" lon="4.3388">
        <ele>881</ele>
        <time>2021-02-27T10:29:52Z</time>
      </trkpt>
      <trkpt lat="45.33331" lon="4.33885">
        <ele>881</ele>
        <time>2021-02-27T10:29:54Z</time>
      </trkpt>
      <trkpt lat="45.33329" lon="4.33889">
        <ele>881</ele>
        <time>2021-02-27T10:29:55Z</time>
      </trkpt>
      <trkpt lat="45.33327" lon="4.33892">
        <ele>882</ele>
        <time>2021-02-27T10:29:56Z</time>
      </trkpt>
      <trkpt lat="45.33325" lon="4.33895">
        <ele>882</ele>
        <time>2021-02-27T10:29:57Z</time>
      </trkpt>
      <trkpt lat="45.33322" lon="4.33899">
        <ele>882</ele>
        <time>2021-02-27T10:29:59Z</time>
      </trkpt>
      <trkpt lat="45.33319" lon="4.33905">
        <ele>883</ele>
        <time>2021-02-27T10:30:01Z</time>
      </trkpt>
      <trkpt lat="45.33316" lon="4.3391">
        <ele>883</ele>
        <time>2021-02-27T10:30:03Z</time>
      </trkpt>
      <trkpt lat="45.33314" lon="4.33915">
        <ele>884</ele>
        <time>2021-02-27T10:30:05Z</time>
      </trkpt>
      <trkpt lat="45.33311" lon="4.33921">
        <ele>884</ele>
        <time>2021-02-27T10:30:07Z</time>
      </trkpt>
      <trkpt lat="45.33309" lon="4.33927">
        <ele>885</ele>
        <time>2021-02-27T10:30:09Z</time>
      </trkpt>
      <trkpt lat="45.33306" lon="4.33933">
        <ele>886</ele>
        <time>2021-02-27T10:30:11Z</time>
      </trkpt>
      <trkpt lat="45.33304" lon="4.33939">
        <ele>886</ele>
        <time>2021-02-27T10:30:13Z</time>
      </trkpt>
      <trkpt lat="45.33301" lon="4.33945">
        <ele>887</ele>
        <time>2021-02-27T10:30:15Z</time>
      </trkpt>
      <trkpt lat="45.33299" lon="4.33951">
        <ele>887</ele>
        <time>2021-02-27T10:30:17Z</time>
      </trkpt>
      <trkpt lat="45.33296" lon="4.33957">
        <ele>887</ele>
        <time>2021-02-27T10:30:19Z</time>
      </trkpt>
      <trkpt lat="45.33293" lon="4.33962">
        <ele>888</ele>
        <time>2021-02-27T10:30:21Z</time>
      </trkpt>
      <trkpt lat="45.3329" lon="4.33967">
        <ele>888</ele>
        <time>2021-02-27T10:30:23Z</time>
      </trkpt>
      <trkpt lat="45.33286" lon="4.33971">
        <ele>888</ele>
        <time>2021-02-27T10:30:25Z</time>
      </trkpt>
      <trkpt lat="45.33284" lon="4.33977">
        <ele>888</ele>
        <time>2021-02-27T10:30:27Z</time>
      </trkpt>
      <trkpt lat="45.33281" lon="4.33982">
        <ele>888</ele>
        <time>2021-02-27T10:30:29Z</time>
      </trkpt>
      <trkpt lat="45.33277" lon="4.33987">
        <ele>888</ele>
        <time>2021-02-27T10:30:31Z</time>
      </trkpt>
      <trkpt lat="45.33275" lon="4.33991">
        <ele>888</ele>
        <time>2021-02-27T10:30:32Z</time>
      </trkpt>
      <trkpt lat="45.33272" lon="4.33995">
        <ele>889</ele>
        <time>2021-02-27T10:30:34Z</time>
      </trkpt>
      <trkpt lat="45.33268" lon="4.34">
        <ele>889</ele>
        <time>2021-02-27T10:30:36Z</time>
      </trkpt>
      <trkpt lat="45.33265" lon="4.34003">
        <ele>889</ele>
        <time>2021-02-27T10:30:37Z</time>
      </trkpt>
      <trkpt lat="45.33261" lon="4.34007">
        <ele>889</ele>
        <time>2021-02-27T10:30:39Z</time>
      </trkpt>
      <trkpt lat="45.33256" lon="4.34011">
        <ele>888</ele>
        <time>2021-02-27T10:30:41Z</time>
      </trkpt>
      <trkpt lat="45.33252" lon="4.34013">
        <ele>888</ele>
        <time>2021-02-27T10:30:42Z</time>
      </trkpt>
      <trkpt lat="45.33249" lon="4.34016">
        <ele>888</ele>
        <time>2021-02-27T10:30:43Z</time>
      </trkpt>
      <trkpt lat="45.33246" lon="4.34018">
        <ele>888</ele>
        <time>2021-02-27T10:30:44Z</time>
      </trkpt>
      <trkpt lat="45.33243" lon="4.3402">
        <ele>888</ele>
        <time>2021-02-27T10:30:45Z</time>
      </trkpt>
      <trkpt lat="45.3324" lon="4.34022">
        <ele>888</ele>
        <time>2021-02-27T10:30:46Z</time>
      </trkpt>
      <trkpt lat="45.33237" lon="4.34025">
        <ele>888</ele>
        <time>2021-02-27T10:30:47Z</time>
      </trkpt>
      <trkpt lat="45.33233" lon="4.34028">
        <ele>888</ele>
        <time>2021-02-27T10:30:48Z</time>
      </trkpt>
      <trkpt lat="45.3323" lon="4.3403">
        <ele>888</ele>
        <time>2021-02-27T10:30:49Z</time>
      </trkpt>
      <trkpt lat="45.33227" lon="4.34033">
        <ele>888</ele>
        <time>2021-02-27T10:30:50Z</time>
      </trkpt>
      <trkpt lat="45.33224" lon="4.34035">
        <ele>888</ele>
        <time>2021-02-27T10:30:51Z</time>
      </trkpt>
      <trkpt lat="45.33221" lon="4.34038">
        <ele>888</ele>
        <time>2021-02-27T10:30:52Z</time>
      </trkpt>
      <trkpt lat="45.33218" lon="4.3404">
        <ele>888</ele>
        <time>2021-02-27T10:30:53Z</time>
      </trkpt>
      <trkpt lat="45.33214" lon="4.34043">
        <ele>888</ele>
        <time>2021-02-27T10:30:54Z</time>
      </trkpt>
      <trkpt lat="45.33211" lon="4.34046">
        <ele>888</ele>
        <time>2021-02-27T10:30:55Z</time>
      </trkpt>
      <trkpt lat="45.33207" lon="4.34049">
        <ele>888</ele>
        <time>2021-02-27T10:30:56Z</time>
      </trkpt>
      <trkpt lat="45.33204" lon="4.34051">
        <ele>889</ele>
        <time>2021-02-27T10:30:57Z</time>
      </trkpt>
      <trkpt lat="45.33201" lon="4.34054">
        <ele>889</ele>
        <time>2021-02-27T10:30:58Z</time>
      </trkpt>
      <trkpt lat="45.33197" lon="4.34056">
        <ele>889</ele>
        <time>2021-02-27T10:30:59Z</time>
      </trkpt>
      <trkpt lat="45.33194" lon="4.34059">
        <ele>888</ele>
        <time>2021-02-27T10:31:00Z</time>
      </trkpt>
      <trkpt lat="45.3319" lon="4.34062">
        <ele>889</ele>
        <time>2021-02-27T10:31:01Z</time>
      </trkpt>
      <trkpt lat="45.33187" lon="4.34065">
        <ele>888</ele>
        <time>2021-02-27T10:31:02Z</time>
      </trkpt>
      <trkpt lat="45.33184" lon="4.34068">
        <ele>889</ele>
        <time>2021-02-27T10:31:03Z</time>
      </trkpt>
      <trkpt lat="45.33181" lon="4.34072">
        <ele>889</ele>
        <time>2021-02-27T10:31:04Z</time>
      </trkpt>
      <trkpt lat="45.33178" lon="4.34075">
        <ele>888</ele>
        <time>2021-02-27T10:31:05Z</time>
      </trkpt>
      <trkpt lat="45.33175" lon="4.34078">
        <ele>889</ele>
        <time>2021-02-27T10:31:06Z</time>
      </trkpt>
      <trkpt lat="45.33171" lon="4.34082">
        <ele>889</ele>
        <time>2021-02-27T10:31:07Z</time>
      </trkpt>
      <trkpt lat="45.33168" lon="4.34085">
        <ele>889</ele>
        <time>2021-02-27T10:31:08Z</time>
      </trkpt>
      <trkpt lat="45.33165" lon="4.34089">
        <ele>889</ele>
        <time>2021-02-27T10:31:09Z</time>
      </trkpt>
      <trkpt lat="45.33162" lon="4.34092">
        <ele>890</ele>
        <time>2021-02-27T10:31:10Z</time>
      </trkpt>
      <trkpt lat="45.33159" lon="4.34096">
        <ele>889</ele>
        <time>2021-02-27T10:31:11Z</time>
      </trkpt>
      <trkpt lat="45.33156" lon="4.34099">
        <ele>889</ele>
        <time>2021-02-27T10:31:12Z</time>
      </trkpt>
      <trkpt lat="45.33153" lon="4.34103">
        <ele>889</ele>
        <time>2021-02-27T10:31:13Z</time>
      </trkpt>
      <trkpt lat="45.3315" lon="4.34106">
        <ele>890</ele>
        <time>2021-02-27T10:31:14Z</time>
      </trkpt>
      <trkpt lat="45.33147" lon="4.3411">
        <ele>890</ele>
        <time>2021-02-27T10:31:15Z</time>
      </trkpt>
      <trkpt lat="45.33144" lon="4.34113">
        <ele>890</ele>
        <time>2021-02-27T10:31:16Z</time>
      </trkpt>
      <trkpt lat="45.33141" lon="4.34116">
        <ele>890</ele>
        <time>2021-02-27T10:31:17Z</time>
      </trkpt>
      <trkpt lat="45.33138" lon="4.3412">
        <ele>890</ele>
        <time>2021-02-27T10:31:18Z</time>
      </trkpt>
      <trkpt lat="45.33135" lon="4.34123">
        <ele>891</ele>
        <time>2021-02-27T10:31:19Z</time>
      </trkpt>
      <trkpt lat="45.33133" lon="4.34127">
        <ele>890</ele>
        <time>2021-02-27T10:31:20Z</time>
      </trkpt>
      <trkpt lat="45.3313" lon="4.34131">
        <ele>890</ele>
        <time>2021-02-27T10:31:21Z</time>
      </trkpt>
      <trkpt lat="45.33128" lon="4.34134">
        <ele>891</ele>
        <time>2021-02-27T10:31:22Z</time>
      </trkpt>
      <trkpt lat="45.33125" lon="4.34138">
        <ele>891</ele>
        <time>2021-02-27T10:31:23Z</time>
      </trkpt>
      <trkpt lat="45.33123" lon="4.34142">
        <ele>891</ele>
        <time>2021-02-27T10:31:24Z</time>
      </trkpt>
      <trkpt lat="45.33121" lon="4.34146">
        <ele>891</ele>
        <time>2021-02-27T10:31:25Z</time>
      </trkpt>
      <trkpt lat="45.33118" lon="4.34149">
        <ele>891</ele>
        <time>2021-02-27T10:31:26Z</time>
      </trkpt>
      <trkpt lat="45.33116" lon="4.34152">
        <ele>892</ele>
        <time>2021-02-27T10:31:27Z</time>
      </trkpt>
      <trkpt lat="45.33114" lon="4.34155">
        <ele>892</ele>
        <time>2021-02-27T10:31:28Z</time>
      </trkpt>
      <trkpt lat="45.33111" lon="4.34159">
        <ele>892</ele>
        <time>2021-02-27T10:31:29Z</time>
      </trkpt>
      <trkpt lat="45.33108" lon="4.34162">
        <ele>892</ele>
        <time>2021-02-27T10:31:30Z</time>
      </trkpt>
      <trkpt lat="45.33106" lon="4.34165">
        <ele>893</ele>
        <time>2021-02-27T10:31:31Z</time>
      </trkpt>
      <trkpt lat="45.33103" lon="4.34167">
        <ele>893</ele>
        <time>2021-02-27T10:31:32Z</time>
      </trkpt>
      <trkpt lat="45.33101" lon="4.3417">
        <ele>893</ele>
        <time>2021-02-27T10:31:33Z</time>
      </trkpt>
      <trkpt lat="45.33098" lon="4.34172">
        <ele>893</ele>
        <time>2021-02-27T10:31:34Z</time>
      </trkpt>
      <trkpt lat="45.33096" lon="4.34175">
        <ele>893</ele>
        <time>2021-02-27T10:31:35Z</time>
      </trkpt>
      <trkpt lat="45.33093" lon="4.34179">
        <ele>893</ele>
        <time>2021-02-27T10:31:36Z</time>
      </trkpt>
      <trkpt lat="45.3309" lon="4.34183">
        <ele>894</ele>
        <time>2021-02-27T10:31:37Z</time>
      </trkpt>
      <trkpt lat="45.33087" lon="4.34187">
        <ele>893</ele>
        <time>2021-02-27T10:31:38Z</time>
      </trkpt>
      <trkpt lat="45.33084" lon="4.3419">
        <ele>894</ele>
        <time>2021-02-27T10:31:39Z</time>
      </trkpt>
      <trkpt lat="45.33082" lon="4.34193">
        <ele>894</ele>
        <time>2021-02-27T10:31:40Z</time>
      </trkpt>
      <trkpt lat="45.33079" lon="4.34196">
        <ele>894</ele>
        <time>2021-02-27T10:31:41Z</time>
      </trkpt>
      <trkpt lat="45.33078" lon="4.34199">
        <ele>895</ele>
        <time>2021-02-27T10:31:42Z</time>
      </trkpt>
      <trkpt lat="45.33076" lon="4.34203">
        <ele>895</ele>
        <time>2021-02-27T10:31:43Z</time>
      </trkpt>
      <trkpt lat="45.33074" lon="4.34206">
        <ele>895</ele>
        <time>2021-02-27T10:31:44Z</time>
      </trkpt>
      <trkpt lat="45.3307" lon="4.3421">
        <ele>895</ele>
        <time>2021-02-27T10:31:46Z</time>
      </trkpt>
      <trkpt lat="45.33067" lon="4.34215">
        <ele>896</ele>
        <time>2021-02-27T10:31:48Z</time>
      </trkpt>
      <trkpt lat="45.33063" lon="4.3422">
        <ele>896</ele>
        <time>2021-02-27T10:31:50Z</time>
      </trkpt>
      <trkpt lat="45.33059" lon="4.34224">
        <ele>896</ele>
        <time>2021-02-27T10:31:52Z</time>
      </trkpt>
      <trkpt lat="45.33056" lon="4.3423">
        <ele>897</ele>
        <time>2021-02-27T10:31:54Z</time>
      </trkpt>
      <trkpt lat="45.33053" lon="4.34234">
        <ele>897</ele>
        <time>2021-02-27T10:31:56Z</time>
      </trkpt>
      <trkpt lat="45.33051" lon="4.34238">
        <ele>898</ele>
        <time>2021-02-27T10:31:58Z</time>
      </trkpt>
      <trkpt lat="45.33048" lon="4.34242">
        <ele>898</ele>
        <time>2021-02-27T10:32:00Z</time>
      </trkpt>
      <trkpt lat="45.33045" lon="4.34245">
        <ele>898</ele>
        <time>2021-02-27T10:32:02Z</time>
      </trkpt>
      <trkpt lat="45.33042" lon="4.34249">
        <ele>898</ele>
        <time>2021-02-27T10:32:04Z</time>
      </trkpt>
      <trkpt lat="45.3304" lon="4.34253">
        <ele>899</ele>
        <time>2021-02-27T10:32:06Z</time>
      </trkpt>
      <trkpt lat="45.33038" lon="4.34256">
        <ele>899</ele>
        <time>2021-02-27T10:32:08Z</time>
      </trkpt>
      <trkpt lat="45.33035" lon="4.3426">
        <ele>899</ele>
        <time>2021-02-27T10:32:10Z</time>
      </trkpt>
      <trkpt lat="45.33033" lon="4.34264">
        <ele>900</ele>
        <time>2021-02-27T10:32:12Z</time>
      </trkpt>
      <trkpt lat="45.33031" lon="4.34268">
        <ele>900</ele>
        <time>2021-02-27T10:32:14Z</time>
      </trkpt>
      <trkpt lat="45.33028" lon="4.34272">
        <ele>901</ele>
        <time>2021-02-27T10:32:16Z</time>
      </trkpt>
      <trkpt lat="45.33026" lon="4.34276">
        <ele>901</ele>
        <time>2021-02-27T10:32:17Z</time>
      </trkpt>
      <trkpt lat="45.33024" lon="4.34281">
        <ele>901</ele>
        <time>2021-02-27T10:32:19Z</time>
      </trkpt>
      <trkpt lat="45.33022" lon="4.34287">
        <ele>901</ele>
        <time>2021-02-27T10:32:21Z</time>
      </trkpt>
      <trkpt lat="45.3302" lon="4.34292">
        <ele>902</ele>
        <time>2021-02-27T10:32:23Z</time>
      </trkpt>
      <trkpt lat="45.33017" lon="4.34298">
        <ele>902</ele>
        <time>2021-02-27T10:32:25Z</time>
      </trkpt>
      <trkpt lat="45.33013" lon="4.34303">
        <ele>902</ele>
        <time>2021-02-27T10:32:27Z</time>
      </trkpt>
      <trkpt lat="45.3301" lon="4.34308">
        <ele>902</ele>
        <time>2021-02-27T10:32:29Z</time>
      </trkpt>
      <trkpt lat="45.33008" lon="4.34313">
        <ele>902</ele>
        <time>2021-02-27T10:32:30Z</time>
      </trkpt>
      <trkpt lat="45.33006" lon="4.34318">
        <ele>902</ele>
        <time>2021-02-27T10:32:31Z</time>
      </trkpt>
      <trkpt lat="45.33005" lon="4.34322">
        <ele>902</ele>
        <time>2021-02-27T10:32:32Z</time>
      </trkpt>
      <trkpt lat="45.33003" lon="4.34327">
        <ele>901</ele>
        <time>2021-02-27T10:32:33Z</time>
      </trkpt>
      <trkpt lat="45.33001" lon="4.34332">
        <ele>901</ele>
        <time>2021-02-27T10:32:34Z</time>
      </trkpt>
      <trkpt lat="45.32999" lon="4.34337">
        <ele>901</ele>
        <time>2021-02-27T10:32:35Z</time>
      </trkpt>
      <trkpt lat="45.32998" lon="4.34342">
        <ele>901</ele>
        <time>2021-02-27T10:32:36Z</time>
      </trkpt>
      <trkpt lat="45.32996" lon="4.34347">
        <ele>901</ele>
        <time>2021-02-27T10:32:37Z</time>
      </trkpt>
      <trkpt lat="45.32995" lon="4.34354">
        <ele>900</ele>
        <time>2021-02-27T10:32:38Z</time>
      </trkpt>
      <trkpt lat="45.32993" lon="4.3436">
        <ele>900</ele>
        <time>2021-02-27T10:32:39Z</time>
      </trkpt>
      <trkpt lat="45.32992" lon="4.34367">
        <ele>900</ele>
        <time>2021-02-27T10:32:40Z</time>
      </trkpt>
      <trkpt lat="45.32991" lon="4.34375">
        <ele>899</ele>
        <time>2021-02-27T10:32:41Z</time>
      </trkpt>
      <trkpt lat="45.32989" lon="4.34383">
        <ele>899</ele>
        <time>2021-02-27T10:32:42Z</time>
      </trkpt>
      <trkpt lat="45.32987" lon="4.34391">
        <ele>898</ele>
        <time>2021-02-27T10:32:43Z</time>
      </trkpt>
      <trkpt lat="45.32985" lon="4.344">
        <ele>898</ele>
        <time>2021-02-27T10:32:44Z</time>
      </trkpt>
      <trkpt lat="45.32982" lon="4.34409">
        <ele>898</ele>
        <time>2021-02-27T10:32:45Z</time>
      </trkpt>
      <trkpt lat="45.32979" lon="4.34417">
        <ele>897</ele>
        <time>2021-02-27T10:32:46Z</time>
      </trkpt>
      <trkpt lat="45.32975" lon="4.34425">
        <ele>897</ele>
        <time>2021-02-27T10:32:47Z</time>
      </trkpt>
      <trkpt lat="45.32972" lon="4.34433">
        <ele>897</ele>
        <time>2021-02-27T10:32:48Z</time>
      </trkpt>
      <trkpt lat="45.32967" lon="4.34439">
        <ele>896</ele>
        <time>2021-02-27T10:32:49Z</time>
      </trkpt>
      <trkpt lat="45.32963" lon="4.34446">
        <ele>896</ele>
        <time>2021-02-27T10:32:50Z</time>
      </trkpt>
      <trkpt lat="45.32959" lon="4.34451">
        <ele>896</ele>
        <time>2021-02-27T10:32:51Z</time>
      </trkpt>
      <trkpt lat="45.32955" lon="4.34457">
        <ele>897</ele>
        <time>2021-02-27T10:32:52Z</time>
      </trkpt>
      <trkpt lat="45.32951" lon="4.34462">
        <ele>896</ele>
        <time>2021-02-27T10:32:53Z</time>
      </trkpt>
      <trkpt lat="45.32947" lon="4.34467">
        <ele>896</ele>
        <time>2021-02-27T10:32:54Z</time>
      </trkpt>
      <trkpt lat="45.32942" lon="4.34472">
        <ele>896</ele>
        <time>2021-02-27T10:32:55Z</time>
      </trkpt>
      <trkpt lat="45.32938" lon="4.34477">
        <ele>896</ele>
        <time>2021-02-27T10:32:56Z</time>
      </trkpt>
      <trkpt lat="45.32934" lon="4.34482">
        <ele>896</ele>
        <time>2021-02-27T10:32:57Z</time>
      </trkpt>
      <trkpt lat="45.32931" lon="4.34487">
        <ele>896</ele>
        <time>2021-02-27T10:32:58Z</time>
      </trkpt>
      <trkpt lat="45.32928" lon="4.34493">
        <ele>896</ele>
        <time>2021-02-27T10:32:59Z</time>
      </trkpt>
      <trkpt lat="45.32924" lon="4.34498">
        <ele>896</ele>
        <time>2021-02-27T10:33:00Z</time>
      </trkpt>
      <trkpt lat="45.32921" lon="4.34503">
        <ele>896</ele>
        <time>2021-02-27T10:33:01Z</time>
      </trkpt>
      <trkpt lat="45.32918" lon="4.34509">
        <ele>896</ele>
        <time>2021-02-27T10:33:02Z</time>
      </trkpt>
      <trkpt lat="45.32915" lon="4.34513">
        <ele>896</ele>
        <time>2021-02-27T10:33:03Z</time>
      </trkpt>
      <trkpt lat="45.32913" lon="4.34518">
        <ele>896</ele>
        <time>2021-02-27T10:33:04Z</time>
      </trkpt>
      <trkpt lat="45.3291" lon="4.34524">
        <ele>896</ele>
        <time>2021-02-27T10:33:05Z</time>
      </trkpt>
      <trkpt lat="45.32909" lon="4.3453">
        <ele>896</ele>
        <time>2021-02-27T10:33:06Z</time>
      </trkpt>
      <trkpt lat="45.32907" lon="4.34536">
        <ele>896</ele>
        <time>2021-02-27T10:33:07Z</time>
      </trkpt>
      <trkpt lat="45.32906" lon="4.34542">
        <ele>897</ele>
        <time>2021-02-27T10:33:08Z</time>
      </trkpt>
      <trkpt lat="45.32904" lon="4.34548">
        <ele>896</ele>
        <time>2021-02-27T10:33:09Z</time>
      </trkpt>
      <trkpt lat="45.32903" lon="4.34554">
        <ele>897</ele>
        <time>2021-02-27T10:33:10Z</time>
      </trkpt>
      <trkpt lat="45.32902" lon="4.34559">
        <ele>897</ele>
        <time>2021-02-27T10:33:11Z</time>
      </trkpt>
      <trkpt lat="45.329" lon="4.34565">
        <ele>897</ele>
        <time>2021-02-27T10:33:12Z</time>
      </trkpt>
      <trkpt lat="45.32899" lon="4.34571">
        <ele>897</ele>
        <time>2021-02-27T10:33:13Z</time>
      </trkpt>
      <trkpt lat="45.32898" lon="4.34576">
        <ele>897</ele>
        <time>2021-02-27T10:33:14Z</time>
      </trkpt>
      <trkpt lat="45.32896" lon="4.34581">
        <ele>898</ele>
        <time>2021-02-27T10:33:15Z</time>
      </trkpt>
      <trkpt lat="45.32894" lon="4.34585">
        <ele>898</ele>
        <time>2021-02-27T10:33:16Z</time>
      </trkpt>
      <trkpt lat="45.32891" lon="4.3459">
        <ele>898</ele>
        <time>2021-02-27T10:33:17Z</time>
      </trkpt>
      <trkpt lat="45.32889" lon="4.34594">
        <ele>899</ele>
        <time>2021-02-27T10:33:18Z</time>
      </trkpt>
      <trkpt lat="45.32886" lon="4.34598">
        <ele>899</ele>
        <time>2021-02-27T10:33:19Z</time>
      </trkpt>
      <trkpt lat="45.32883" lon="4.34602">
        <ele>899</ele>
        <time>2021-02-27T10:33:20Z</time>
      </trkpt>
      <trkpt lat="45.3288" lon="4.34605">
        <ele>900</ele>
        <time>2021-02-27T10:33:21Z</time>
      </trkpt>
      <trkpt lat="45.32877" lon="4.34608">
        <ele>900</ele>
        <time>2021-02-27T10:33:22Z</time>
      </trkpt>
      <trkpt lat="45.32874" lon="4.34611">
        <ele>900</ele>
        <time>2021-02-27T10:33:23Z</time>
      </trkpt>
      <trkpt lat="45.3287" lon="4.34614">
        <ele>900</ele>
        <time>2021-02-27T10:33:24Z</time>
      </trkpt>
      <trkpt lat="45.32867" lon="4.34616">
        <ele>900</ele>
        <time>2021-02-27T10:33:25Z</time>
      </trkpt>
      <trkpt lat="45.32864" lon="4.34618">
        <ele>901</ele>
        <time>2021-02-27T10:33:26Z</time>
      </trkpt>
      <trkpt lat="45.32861" lon="4.34621">
        <ele>901</ele>
        <time>2021-02-27T10:33:27Z</time>
      </trkpt>
      <trkpt lat="45.32858" lon="4.34623">
        <ele>901</ele>
        <time>2021-02-27T10:33:28Z</time>
      </trkpt>
      <trkpt lat="45.32855" lon="4.34626">
        <ele>901</ele>
        <time>2021-02-27T10:33:29Z</time>
      </trkpt>
      <trkpt lat="45.32851" lon="4.34628">
        <ele>901</ele>
        <time>2021-02-27T10:33:30Z</time>
      </trkpt>
      <trkpt lat="45.32848" lon="4.34631">
        <ele>901</ele>
        <time>2021-02-27T10:33:31Z</time>
      </trkpt>
      <trkpt lat="45.32846" lon="4.34633">
        <ele>902</ele>
        <time>2021-02-27T10:33:32Z</time>
      </trkpt>
      <trkpt lat="45.32843" lon="4.34635">
        <ele>902</ele>
        <time>2021-02-27T10:33:33Z</time>
      </trkpt>
      <trkpt lat="45.3284" lon="4.34638">
        <ele>902</ele>
        <time>2021-02-27T10:33:34Z</time>
      </trkpt>
      <trkpt lat="45.32837" lon="4.3464">
        <ele>902</ele>
        <time>2021-02-27T10:33:35Z</time>
      </trkpt>
      <trkpt lat="45.32835" lon="4.34643">
        <ele>902</ele>
        <time>2021-02-27T10:33:36Z</time>
      </trkpt>
      <trkpt lat="45.32831" lon="4.34648">
        <ele>902</ele>
        <time>2021-02-27T10:33:38Z</time>
      </trkpt>
      <trkpt lat="45.32827" lon="4.34652">
        <ele>902</ele>
        <time>2021-02-27T10:33:39Z</time>
      </trkpt>
      <trkpt lat="45.32825" lon="4.34656">
        <ele>901</ele>
        <time>2021-02-27T10:33:40Z</time>
      </trkpt>
      <trkpt lat="45.32822" lon="4.34659">
        <ele>901</ele>
        <time>2021-02-27T10:33:41Z</time>
      </trkpt>
      <trkpt lat="45.32819" lon="4.34662">
        <ele>902</ele>
        <time>2021-02-27T10:33:42Z</time>
      </trkpt>
      <trkpt lat="45.32817" lon="4.34665">
        <ele>901</ele>
        <time>2021-02-27T10:33:43Z</time>
      </trkpt>
      <trkpt lat="45.32815" lon="4.34668">
        <ele>902</ele>
        <time>2021-02-27T10:33:44Z</time>
      </trkpt>
      <trkpt lat="45.32813" lon="4.34671">
        <ele>902</ele>
        <time>2021-02-27T10:33:45Z</time>
      </trkpt>
      <trkpt lat="45.3281" lon="4.34676">
        <ele>902</ele>
        <time>2021-02-27T10:33:47Z</time>
      </trkpt>
      <trkpt lat="45.32808" lon="4.3468">
        <ele>902</ele>
        <time>2021-02-27T10:33:48Z</time>
      </trkpt>
      <trkpt lat="45.32805" lon="4.34684">
        <ele>903</ele>
        <time>2021-02-27T10:33:50Z</time>
      </trkpt>
      <trkpt lat="45.32803" lon="4.3469">
        <ele>902</ele>
        <time>2021-02-27T10:33:52Z</time>
      </trkpt>
      <trkpt lat="45.32802" lon="4.34695">
        <ele>902</ele>
        <time>2021-02-27T10:33:54Z</time>
      </trkpt>
      <trkpt lat="45.32802" lon="4.34701">
        <ele>901</ele>
        <time>2021-02-27T10:33:56Z</time>
      </trkpt>
      <trkpt lat="45.32801" lon="4.34707">
        <ele>901</ele>
        <time>2021-02-27T10:33:58Z</time>
      </trkpt>
      <trkpt lat="45.328" lon="4.34712">
        <ele>902</ele>
        <time>2021-02-27T10:33:59Z</time>
      </trkpt>
      <trkpt lat="45.32797" lon="4.34717">
        <ele>901</ele>
        <time>2021-02-27T10:34:01Z</time>
      </trkpt>
      <trkpt lat="45.32794" lon="4.34723">
        <ele>901</ele>
        <time>2021-02-27T10:34:03Z</time>
      </trkpt>
      <trkpt lat="45.32791" lon="4.34728">
        <ele>901</ele>
        <time>2021-02-27T10:34:05Z</time>
      </trkpt>
      <trkpt lat="45.32788" lon="4.34732">
        <ele>901</ele>
        <time>2021-02-27T10:34:07Z</time>
      </trkpt>
      <trkpt lat="45.32785" lon="4.34737">
        <ele>901</ele>
        <time>2021-02-27T10:34:09Z</time>
      </trkpt>
      <trkpt lat="45.32782" lon="4.34742">
        <ele>901</ele>
        <time>2021-02-27T10:34:11Z</time>
      </trkpt>
      <trkpt lat="45.32779" lon="4.34747">
        <ele>901</ele>
        <time>2021-02-27T10:34:13Z</time>
      </trkpt>
      <trkpt lat="45.32776" lon="4.34753">
        <ele>901</ele>
        <time>2021-02-27T10:34:15Z</time>
      </trkpt>
      <trkpt lat="45.32773" lon="4.34759">
        <ele>901</ele>
        <time>2021-02-27T10:34:17Z</time>
      </trkpt>
      <trkpt lat="45.32771" lon="4.34763">
        <ele>900</ele>
        <time>2021-02-27T10:34:18Z</time>
      </trkpt>
      <trkpt lat="45.32769" lon="4.34767">
        <ele>901</ele>
        <time>2021-02-27T10:34:19Z</time>
      </trkpt>
      <trkpt lat="45.32767" lon="4.34771">
        <ele>901</ele>
        <time>2021-02-27T10:34:21Z</time>
      </trkpt>
      <trkpt lat="45.32763" lon="4.34776">
        <ele>901</ele>
        <time>2021-02-27T10:34:23Z</time>
      </trkpt>
      <trkpt lat="45.3276" lon="4.3478">
        <ele>901</ele>
        <time>2021-02-27T10:34:25Z</time>
      </trkpt>
      <trkpt lat="45.32757" lon="4.34784">
        <ele>901</ele>
        <time>2021-02-27T10:34:27Z</time>
      </trkpt>
      <trkpt lat="45.32754" lon="4.34787">
        <ele>901</ele>
        <time>2021-02-27T10:34:29Z</time>
      </trkpt>
      <trkpt lat="45.3275" lon="4.34791">
        <ele>901</ele>
        <time>2021-02-27T10:34:31Z</time>
      </trkpt>
      <trkpt lat="45.32746" lon="4.34794">
        <ele>901</ele>
        <time>2021-02-27T10:34:32Z</time>
      </trkpt>
      <trkpt lat="45.32743" lon="4.34797">
        <ele>901</ele>
        <time>2021-02-27T10:34:33Z</time>
      </trkpt>
      <trkpt lat="45.3274" lon="4.34799">
        <ele>901</ele>
        <time>2021-02-27T10:34:34Z</time>
      </trkpt>
      <trkpt lat="45.32737" lon="4.34801">
        <ele>900</ele>
        <time>2021-02-27T10:34:35Z</time>
      </trkpt>
      <trkpt lat="45.32734" lon="4.34802">
        <ele>900</ele>
        <time>2021-02-27T10:34:36Z</time>
      </trkpt>
      <trkpt lat="45.32731" lon="4.34804">
        <ele>900</ele>
        <time>2021-02-27T10:34:37Z</time>
      </trkpt>
      <trkpt lat="45.32728" lon="4.34806">
        <ele>900</ele>
        <time>2021-02-27T10:34:38Z</time>
      </trkpt>
      <trkpt lat="45.32725" lon="4.34808">
        <ele>900</ele>
        <time>2021-02-27T10:34:39Z</time>
      </trkpt>
      <trkpt lat="45.32722" lon="4.3481">
        <ele>900</ele>
        <time>2021-02-27T10:34:40Z</time>
      </trkpt>
      <trkpt lat="45.32719" lon="4.34812">
        <ele>900</ele>
        <time>2021-02-27T10:34:41Z</time>
      </trkpt>
      <trkpt lat="45.32716" lon="4.34814">
        <ele>900</ele>
        <time>2021-02-27T10:34:42Z</time>
      </trkpt>
      <trkpt lat="45.32713" lon="4.34816">
        <ele>900</ele>
        <time>2021-02-27T10:34:43Z</time>
      </trkpt>
      <trkpt lat="45.32709" lon="4.34817">
        <ele>899</ele>
        <time>2021-02-27T10:34:44Z</time>
      </trkpt>
      <trkpt lat="45.32705" lon="4.34819">
        <ele>899</ele>
        <time>2021-02-27T10:34:45Z</time>
      </trkpt>
      <trkpt lat="45.32702" lon="4.3482">
        <ele>899</ele>
        <time>2021-02-27T10:34:46Z</time>
      </trkpt>
      <trkpt lat="45.32699" lon="4.34821">
        <ele>899</ele>
        <time>2021-02-27T10:34:47Z</time>
      </trkpt>
      <trkpt lat="45.32696" lon="4.34823">
        <ele>900</ele>
        <time>2021-02-27T10:34:48Z</time>
      </trkpt>
      <trkpt lat="45.32693" lon="4.34825">
        <ele>900</ele>
        <time>2021-02-27T10:34:49Z</time>
      </trkpt>
      <trkpt lat="45.32689" lon="4.34828">
        <ele>899</ele>
        <time>2021-02-27T10:34:51Z</time>
      </trkpt>
      <trkpt lat="45.32686" lon="4.34831">
        <ele>899</ele>
        <time>2021-02-27T10:34:52Z</time>
      </trkpt>
      <trkpt lat="45.32683" lon="4.34833">
        <ele>899</ele>
        <time>2021-02-27T10:34:53Z</time>
      </trkpt>
      <trkpt lat="45.3268" lon="4.34837">
        <ele>899</ele>
        <time>2021-02-27T10:34:55Z</time>
      </trkpt>
      <trkpt lat="45.32676" lon="4.34839">
        <ele>899</ele>
        <time>2021-02-27T10:34:56Z</time>
      </trkpt>
      <trkpt lat="45.32673" lon="4.34841">
        <ele>899</ele>
        <time>2021-02-27T10:34:57Z</time>
      </trkpt>
      <trkpt lat="45.3267" lon="4.34842">
        <ele>899</ele>
        <time>2021-02-27T10:34:58Z</time>
      </trkpt>
      <trkpt lat="45.32667" lon="4.34844">
        <ele>898</ele>
        <time>2021-02-27T10:34:59Z</time>
      </trkpt>
      <trkpt lat="45.32664" lon="4.34846">
        <ele>898</ele>
        <time>2021-02-27T10:35:00Z</time>
      </trkpt>
      <trkpt lat="45.32661" lon="4.34849">
        <ele>898</ele>
        <time>2021-02-27T10:35:02Z</time>
      </trkpt>
      <trkpt lat="45.32657" lon="4.34852">
        <ele>899</ele>
        <time>2021-02-27T10:35:04Z</time>
      </trkpt>
      <trkpt lat="45.32654" lon="4.34855">
        <ele>898</ele>
        <time>2021-02-27T10:35:06Z</time>
      </trkpt>
      <trkpt lat="45.32651" lon="4.34857">
        <ele>898</ele>
        <time>2021-02-27T10:35:07Z</time>
      </trkpt>
      <trkpt lat="45.32648" lon="4.34859">
        <ele>898</ele>
        <time>2021-02-27T10:35:08Z</time>
      </trkpt>
      <trkpt lat="45.32645" lon="4.34861">
        <ele>898</ele>
        <time>2021-02-27T10:35:09Z</time>
      </trkpt>
      <trkpt lat="45.32642" lon="4.34863">
        <ele>898</ele>
        <time>2021-02-27T10:35:10Z</time>
      </trkpt>
      <trkpt lat="45.3264" lon="4.34865">
        <ele>898</ele>
        <time>2021-02-27T10:35:11Z</time>
      </trkpt>
      <trkpt lat="45.32637" lon="4.34867">
        <ele>898</ele>
        <time>2021-02-27T10:35:12Z</time>
      </trkpt>
      <trkpt lat="45.32634" lon="4.3487">
        <ele>898</ele>
        <time>2021-02-27T10:35:13Z</time>
      </trkpt>
      <trkpt lat="45.32631" lon="4.34872">
        <ele>897</ele>
        <time>2021-02-27T10:35:14Z</time>
      </trkpt>
      <trkpt lat="45.32628" lon="4.34874">
        <ele>897</ele>
        <time>2021-02-27T10:35:15Z</time>
      </trkpt>
      <trkpt lat="45.32625" lon="4.34877">
        <ele>897</ele>
        <time>2021-02-27T10:35:16Z</time>
      </trkpt>
      <trkpt lat="45.32622" lon="4.34879">
        <ele>897</ele>
        <time>2021-02-27T10:35:17Z</time>
      </trkpt>
      <trkpt lat="45.32619" lon="4.34881">
        <ele>897</ele>
        <time>2021-02-27T10:35:18Z</time>
      </trkpt>
      <trkpt lat="45.32615" lon="4.34883">
        <ele>897</ele>
        <time>2021-02-27T10:35:19Z</time>
      </trkpt>
      <trkpt lat="45.32612" lon="4.34884">
        <ele>897</ele>
        <time>2021-02-27T10:35:20Z</time>
      </trkpt>
      <trkpt lat="45.32609" lon="4.34885">
        <ele>897</ele>
        <time>2021-02-27T10:35:21Z</time>
      </trkpt>
      <trkpt lat="45.32605" lon="4.34886">
        <ele>896</ele>
        <time>2021-02-27T10:35:22Z</time>
      </trkpt>
      <trkpt lat="45.32602" lon="4.34889">
        <ele>896</ele>
        <time>2021-02-27T10:35:24Z</time>
      </trkpt>
      <trkpt lat="45.32597" lon="4.34894">
        <ele>896</ele>
        <time>2021-02-27T10:35:26Z</time>
      </trkpt>
      <trkpt lat="45.32594" lon="4.34898">
        <ele>895</ele>
        <time>2021-02-27T10:35:27Z</time>
      </trkpt>
      <trkpt lat="45.3259" lon="4.34902">
        <ele>895</ele>
        <time>2021-02-27T10:35:28Z</time>
      </trkpt>
      <trkpt lat="45.32587" lon="4.34908">
        <ele>895</ele>
        <time>2021-02-27T10:35:29Z</time>
      </trkpt>
      <trkpt lat="45.32583" lon="4.34913">
        <ele>894</ele>
        <time>2021-02-27T10:35:30Z</time>
      </trkpt>
      <trkpt lat="45.32579" lon="4.34918">
        <ele>893</ele>
        <time>2021-02-27T10:35:31Z</time>
      </trkpt>
      <trkpt lat="45.32575" lon="4.34924">
        <ele>893</ele>
        <time>2021-02-27T10:35:32Z</time>
      </trkpt>
      <trkpt lat="45.32571" lon="4.3493">
        <ele>892</ele>
        <time>2021-02-27T10:35:33Z</time>
      </trkpt>
      <trkpt lat="45.32567" lon="4.34935">
        <ele>892</ele>
        <time>2021-02-27T10:35:34Z</time>
      </trkpt>
      <trkpt lat="45.32564" lon="4.34941">
        <ele>891</ele>
        <time>2021-02-27T10:35:35Z</time>
      </trkpt>
      <trkpt lat="45.3256" lon="4.34946">
        <ele>891</ele>
        <time>2021-02-27T10:35:36Z</time>
      </trkpt>
      <trkpt lat="45.32557" lon="4.34952">
        <ele>891</ele>
        <time>2021-02-27T10:35:37Z</time>
      </trkpt>
      <trkpt lat="45.32552" lon="4.34959">
        <ele>890</ele>
        <time>2021-02-27T10:35:38Z</time>
      </trkpt>
      <trkpt lat="45.32548" lon="4.34965">
        <ele>890</ele>
        <time>2021-02-27T10:35:39Z</time>
      </trkpt>
      <trkpt lat="45.32543" lon="4.34971">
        <ele>890</ele>
        <time>2021-02-27T10:35:40Z</time>
      </trkpt>
      <trkpt lat="45.32538" lon="4.34977">
        <ele>890</ele>
        <time>2021-02-27T10:35:41Z</time>
      </trkpt>
      <trkpt lat="45.32533" lon="4.34984">
        <ele>890</ele>
        <time>2021-02-27T10:35:42Z</time>
      </trkpt>
      <trkpt lat="45.32529" lon="4.3499">
        <ele>889</ele>
        <time>2021-02-27T10:35:43Z</time>
      </trkpt>
      <trkpt lat="45.32524" lon="4.34997">
        <ele>889</ele>
        <time>2021-02-27T10:35:44Z</time>
      </trkpt>
      <trkpt lat="45.3252" lon="4.35003">
        <ele>888</ele>
        <time>2021-02-27T10:35:45Z</time>
      </trkpt>
      <trkpt lat="45.32516" lon="4.3501">
        <ele>888</ele>
        <time>2021-02-27T10:35:46Z</time>
      </trkpt>
      <trkpt lat="45.32511" lon="4.35015">
        <ele>888</ele>
        <time>2021-02-27T10:35:47Z</time>
      </trkpt>
      <trkpt lat="45.32505" lon="4.35019">
        <ele>888</ele>
        <time>2021-02-27T10:35:48Z</time>
      </trkpt>
      <trkpt lat="45.32499" lon="4.35021">
        <ele>888</ele>
        <time>2021-02-27T10:35:49Z</time>
      </trkpt>
      <trkpt lat="45.32494" lon="4.35023">
        <ele>888</ele>
        <time>2021-02-27T10:35:50Z</time>
      </trkpt>
      <trkpt lat="45.32488" lon="4.35025">
        <ele>888</ele>
        <time>2021-02-27T10:35:51Z</time>
      </trkpt>
      <trkpt lat="45.32483" lon="4.35026">
        <ele>888</ele>
        <time>2021-02-27T10:35:52Z</time>
      </trkpt>
      <trkpt lat="45.32477" lon="4.35028">
        <ele>888</ele>
        <time>2021-02-27T10:35:53Z</time>
      </trkpt>
      <trkpt lat="45.32472" lon="4.35029">
        <ele>888</ele>
        <time>2021-02-27T10:35:54Z</time>
      </trkpt>
      <trkpt lat="45.32466" lon="4.35031">
        <ele>888</ele>
        <time>2021-02-27T10:35:55Z</time>
      </trkpt>
      <trkpt lat="45.32461" lon="4.35033">
        <ele>889</ele>
        <time>2021-02-27T10:35:56Z</time>
      </trkpt>
      <trkpt lat="45.32456" lon="4.35036">
        <ele>889</ele>
        <time>2021-02-27T10:35:57Z</time>
      </trkpt>
      <trkpt lat="45.32451" lon="4.35037">
        <ele>889</ele>
        <time>2021-02-27T10:35:58Z</time>
      </trkpt>
      <trkpt lat="45.32446" lon="4.35039">
        <ele>889</ele>
        <time>2021-02-27T10:35:59Z</time>
      </trkpt>
      <trkpt lat="45.32441" lon="4.35039">
        <ele>889</ele>
        <time>2021-02-27T10:36:00Z</time>
      </trkpt>
      <trkpt lat="45.32437" lon="4.3504">
        <ele>890</ele>
        <time>2021-02-27T10:36:01Z</time>
      </trkpt>
      <trkpt lat="45.32432" lon="4.3504">
        <ele>889</ele>
        <time>2021-02-27T10:36:02Z</time>
      </trkpt>
      <trkpt lat="45.32428" lon="4.35039">
        <ele>890</ele>
        <time>2021-02-27T10:36:03Z</time>
      </trkpt>
      <trkpt lat="45.32423" lon="4.35038">
        <ele>890</ele>
        <time>2021-02-27T10:36:04Z</time>
      </trkpt>
      <trkpt lat="45.32419" lon="4.35037">
        <ele>890</ele>
        <time>2021-02-27T10:36:05Z</time>
      </trkpt>
      <trkpt lat="45.32415" lon="4.35036">
        <ele>890</ele>
        <time>2021-02-27T10:36:06Z</time>
      </trkpt>
      <trkpt lat="45.32412" lon="4.35035">
        <ele>889</ele>
        <time>2021-02-27T10:36:07Z</time>
      </trkpt>
      <trkpt lat="45.32408" lon="4.35034">
        <ele>889</ele>
        <time>2021-02-27T10:36:08Z</time>
      </trkpt>
      <trkpt lat="45.32405" lon="4.35034">
        <ele>889</ele>
        <time>2021-02-27T10:36:09Z</time>
      </trkpt>
      <trkpt lat="45.32401" lon="4.35033">
        <ele>889</ele>
        <time>2021-02-27T10:36:10Z</time>
      </trkpt>
      <trkpt lat="45.32397" lon="4.35033">
        <ele>889</ele>
        <time>2021-02-27T10:36:11Z</time>
      </trkpt>
      <trkpt lat="45.32392" lon="4.35032">
        <ele>889</ele>
        <time>2021-02-27T10:36:12Z</time>
      </trkpt>
      <trkpt lat="45.32387" lon="4.35031">
        <ele>889</ele>
        <time>2021-02-27T10:36:13Z</time>
      </trkpt>
      <trkpt lat="45.32381" lon="4.3503">
        <ele>888</ele>
        <time>2021-02-27T10:36:14Z</time>
      </trkpt>
      <trkpt lat="45.32375" lon="4.35029">
        <ele>889</ele>
        <time>2021-02-27T10:36:15Z</time>
      </trkpt>
      <trkpt lat="45.32369" lon="4.35028">
        <ele>888</ele>
        <time>2021-02-27T10:36:16Z</time>
      </trkpt>
      <trkpt lat="45.32363" lon="4.35026">
        <ele>887</ele>
        <time>2021-02-27T10:36:17Z</time>
      </trkpt>
      <trkpt lat="45.32357" lon="4.35025">
        <ele>886</ele>
        <time>2021-02-27T10:36:18Z</time>
      </trkpt>
      <trkpt lat="45.3235" lon="4.35023">
        <ele>886</ele>
        <time>2021-02-27T10:36:19Z</time>
      </trkpt>
      <trkpt lat="45.32344" lon="4.35021">
        <ele>885</ele>
        <time>2021-02-27T10:36:20Z</time>
      </trkpt>
      <trkpt lat="45.32337" lon="4.35019">
        <ele>885</ele>
        <time>2021-02-27T10:36:21Z</time>
      </trkpt>
      <trkpt lat="45.3233" lon="4.35017">
        <ele>885</ele>
        <time>2021-02-27T10:36:22Z</time>
      </trkpt>
      <trkpt lat="45.32323" lon="4.35015">
        <ele>884</ele>
        <time>2021-02-27T10:36:23Z</time>
      </trkpt>
      <trkpt lat="45.32316" lon="4.35014">
        <ele>885</ele>
        <time>2021-02-27T10:36:24Z</time>
      </trkpt>
      <trkpt lat="45.3231" lon="4.35013">
        <ele>885</ele>
        <time>2021-02-27T10:36:25Z</time>
      </trkpt>
      <trkpt lat="45.32303" lon="4.35015">
        <ele>884</ele>
        <time>2021-02-27T10:36:26Z</time>
      </trkpt>
      <trkpt lat="45.32297" lon="4.35018">
        <ele>884</ele>
        <time>2021-02-27T10:36:27Z</time>
      </trkpt>
      <trkpt lat="45.32291" lon="4.35022">
        <ele>885</ele>
        <time>2021-02-27T10:36:28Z</time>
      </trkpt>
      <trkpt lat="45.32286" lon="4.35026">
        <ele>884</ele>
        <time>2021-02-27T10:36:29Z</time>
      </trkpt>
      <trkpt lat="45.3228" lon="4.3503">
        <ele>884</ele>
        <time>2021-02-27T10:36:30Z</time>
      </trkpt>
      <trkpt lat="45.32275" lon="4.35035">
        <ele>884</ele>
        <time>2021-02-27T10:36:31Z</time>
      </trkpt>
      <trkpt lat="45.32269" lon="4.35039">
        <ele>884</ele>
        <time>2021-02-27T10:36:32Z</time>
      </trkpt>
      <trkpt lat="45.32264" lon="4.35043">
        <ele>885</ele>
        <time>2021-02-27T10:36:33Z</time>
      </trkpt>
      <trkpt lat="45.32258" lon="4.35046">
        <ele>885</ele>
        <time>2021-02-27T10:36:34Z</time>
      </trkpt>
      <trkpt lat="45.32253" lon="4.35048">
        <ele>885</ele>
        <time>2021-02-27T10:36:35Z</time>
      </trkpt>
      <trkpt lat="45.32247" lon="4.3505">
        <ele>885</ele>
        <time>2021-02-27T10:36:36Z</time>
      </trkpt>
      <trkpt lat="45.32241" lon="4.35052">
        <ele>885</ele>
        <time>2021-02-27T10:36:37Z</time>
      </trkpt>
      <trkpt lat="45.32235" lon="4.35054">
        <ele>885</ele>
        <time>2021-02-27T10:36:38Z</time>
      </trkpt>
      <trkpt lat="45.3223" lon="4.35056">
        <ele>885</ele>
        <time>2021-02-27T10:36:39Z</time>
      </trkpt>
      <trkpt lat="45.32225" lon="4.35058">
        <ele>886</ele>
        <time>2021-02-27T10:36:40Z</time>
      </trkpt>
      <trkpt lat="45.32219" lon="4.35059">
        <ele>885</ele>
        <time>2021-02-27T10:36:41Z</time>
      </trkpt>
      <trkpt lat="45.32214" lon="4.3506">
        <ele>885</ele>
        <time>2021-02-27T10:36:42Z</time>
      </trkpt>
      <trkpt lat="45.32208" lon="4.35061">
        <ele>884</ele>
        <time>2021-02-27T10:36:43Z</time>
      </trkpt>
      <trkpt lat="45.32202" lon="4.35061">
        <ele>884</ele>
        <time>2021-02-27T10:36:44Z</time>
      </trkpt>
      <trkpt lat="45.32195" lon="4.35062">
        <ele>883</ele>
        <time>2021-02-27T10:36:45Z</time>
      </trkpt>
      <trkpt lat="45.32189" lon="4.35063">
        <ele>883</ele>
        <time>2021-02-27T10:36:46Z</time>
      </trkpt>
      <trkpt lat="45.32182" lon="4.35064">
        <ele>882</ele>
        <time>2021-02-27T10:36:47Z</time>
      </trkpt>
      <trkpt lat="45.32176" lon="4.35064">
        <ele>881</ele>
        <time>2021-02-27T10:36:48Z</time>
      </trkpt>
      <trkpt lat="45.32169" lon="4.35066">
        <ele>880</ele>
        <time>2021-02-27T10:36:49Z</time>
      </trkpt>
      <trkpt lat="45.32161" lon="4.35067">
        <ele>880</ele>
        <time>2021-02-27T10:36:50Z</time>
      </trkpt>
      <trkpt lat="45.32154" lon="4.35068">
        <ele>879</ele>
        <time>2021-02-27T10:36:51Z</time>
      </trkpt>
      <trkpt lat="45.32147" lon="4.35069">
        <ele>878</ele>
        <time>2021-02-27T10:36:52Z</time>
      </trkpt>
      <trkpt lat="45.32142" lon="4.35068">
        <ele>878</ele>
        <time>2021-02-27T10:36:53Z</time>
      </trkpt>
      <trkpt lat="45.32136" lon="4.35067">
        <ele>877</ele>
        <time>2021-02-27T10:36:54Z</time>
      </trkpt>
      <trkpt lat="45.32131" lon="4.35062">
        <ele>876</ele>
        <time>2021-02-27T10:36:55Z</time>
      </trkpt>
      <trkpt lat="45.32127" lon="4.35055">
        <ele>876</ele>
        <time>2021-02-27T10:36:56Z</time>
      </trkpt>
      <trkpt lat="45.32124" lon="4.35047">
        <ele>875</ele>
        <time>2021-02-27T10:36:57Z</time>
      </trkpt>
      <trkpt lat="45.32121" lon="4.3504">
        <ele>875</ele>
        <time>2021-02-27T10:36:58Z</time>
      </trkpt>
      <trkpt lat="45.32116" lon="4.35034">
        <ele>875</ele>
        <time>2021-02-27T10:36:59Z</time>
      </trkpt>
      <trkpt lat="45.32111" lon="4.3503">
        <ele>875</ele>
        <time>2021-02-27T10:37:00Z</time>
      </trkpt>
      <trkpt lat="45.32106" lon="4.35028">
        <ele>875</ele>
        <time>2021-02-27T10:37:01Z</time>
      </trkpt>
      <trkpt lat="45.321" lon="4.35029">
        <ele>875</ele>
        <time>2021-02-27T10:37:02Z</time>
      </trkpt>
      <trkpt lat="45.32095" lon="4.35032">
        <ele>875</ele>
        <time>2021-02-27T10:37:03Z</time>
      </trkpt>
      <trkpt lat="45.32089" lon="4.35035">
        <ele>875</ele>
        <time>2021-02-27T10:37:04Z</time>
      </trkpt>
      <trkpt lat="45.32083" lon="4.3504">
        <ele>875</ele>
        <time>2021-02-27T10:37:05Z</time>
      </trkpt>
      <trkpt lat="45.32078" lon="4.35044">
        <ele>876</ele>
        <time>2021-02-27T10:37:06Z</time>
      </trkpt>
      <trkpt lat="45.32073" lon="4.35049">
        <ele>875</ele>
        <time>2021-02-27T10:37:07Z</time>
      </trkpt>
      <trkpt lat="45.32068" lon="4.35053">
        <ele>876</ele>
        <time>2021-02-27T10:37:08Z</time>
      </trkpt>
      <trkpt lat="45.32063" lon="4.35057">
        <ele>876</ele>
        <time>2021-02-27T10:37:09Z</time>
      </trkpt>
      <trkpt lat="45.32058" lon="4.35062">
        <ele>876</ele>
        <time>2021-02-27T10:37:10Z</time>
      </trkpt>
      <trkpt lat="45.32054" lon="4.35066">
        <ele>876</ele>
        <time>2021-02-27T10:37:11Z</time>
      </trkpt>
      <trkpt lat="45.32049" lon="4.3507">
        <ele>876</ele>
        <time>2021-02-27T10:37:12Z</time>
      </trkpt>
      <trkpt lat="45.32045" lon="4.35074">
        <ele>876</ele>
        <time>2021-02-27T10:37:13Z</time>
      </trkpt>
      <trkpt lat="45.3204" lon="4.35078">
        <ele>876</ele>
        <time>2021-02-27T10:37:14Z</time>
      </trkpt>
      <trkpt lat="45.32035" lon="4.35083">
        <ele>876</ele>
        <time>2021-02-27T10:37:15Z</time>
      </trkpt>
      <trkpt lat="45.32031" lon="4.35088">
        <ele>876</ele>
        <time>2021-02-27T10:37:16Z</time>
      </trkpt>
      <trkpt lat="45.32027" lon="4.35093">
        <ele>876</ele>
        <time>2021-02-27T10:37:17Z</time>
      </trkpt>
      <trkpt lat="45.32022" lon="4.35098">
        <ele>876</ele>
        <time>2021-02-27T10:37:18Z</time>
      </trkpt>
      <trkpt lat="45.32018" lon="4.35103">
        <ele>876</ele>
        <time>2021-02-27T10:37:19Z</time>
      </trkpt>
      <trkpt lat="45.32014" lon="4.35107">
        <ele>876</ele>
        <time>2021-02-27T10:37:20Z</time>
      </trkpt>
      <trkpt lat="45.32011" lon="4.35112">
        <ele>876</ele>
        <time>2021-02-27T10:37:21Z</time>
      </trkpt>
      <trkpt lat="45.32007" lon="4.35116">
        <ele>877</ele>
        <time>2021-02-27T10:37:22Z</time>
      </trkpt>
      <trkpt lat="45.32003" lon="4.35121">
        <ele>877</ele>
        <time>2021-02-27T10:37:23Z</time>
      </trkpt>
      <trkpt lat="45.31999" lon="4.35126">
        <ele>877</ele>
        <time>2021-02-27T10:37:24Z</time>
      </trkpt>
      <trkpt lat="45.31996" lon="4.35131">
        <ele>877</ele>
        <time>2021-02-27T10:37:25Z</time>
      </trkpt>
      <trkpt lat="45.31992" lon="4.35137">
        <ele>877</ele>
        <time>2021-02-27T10:37:26Z</time>
      </trkpt>
      <trkpt lat="45.31988" lon="4.35142">
        <ele>877</ele>
        <time>2021-02-27T10:37:27Z</time>
      </trkpt>
      <trkpt lat="45.31985" lon="4.35147">
        <ele>878</ele>
        <time>2021-02-27T10:37:28Z</time>
      </trkpt>
      <trkpt lat="45.31981" lon="4.35152">
        <ele>878</ele>
        <time>2021-02-27T10:37:29Z</time>
      </trkpt>
      <trkpt lat="45.31977" lon="4.35157">
        <ele>878</ele>
        <time>2021-02-27T10:37:30Z</time>
      </trkpt>
      <trkpt lat="45.31974" lon="4.35161">
        <ele>879</ele>
        <time>2021-02-27T10:37:31Z</time>
      </trkpt>
      <trkpt lat="45.3197" lon="4.35166">
        <ele>878</ele>
        <time>2021-02-27T10:37:32Z</time>
      </trkpt>
      <trkpt lat="45.31966" lon="4.35171">
        <ele>879</ele>
        <time>2021-02-27T10:37:33Z</time>
      </trkpt>
      <trkpt lat="45.31963" lon="4.35176">
        <ele>878</ele>
        <time>2021-02-27T10:37:34Z</time>
      </trkpt>
      <trkpt lat="45.31959" lon="4.35181">
        <ele>878</ele>
        <time>2021-02-27T10:37:35Z</time>
      </trkpt>
      <trkpt lat="45.31955" lon="4.35186">
        <ele>877</ele>
        <time>2021-02-27T10:37:36Z</time>
      </trkpt>
      <trkpt lat="45.3195" lon="4.3519">
        <ele>876</ele>
        <time>2021-02-27T10:37:37Z</time>
      </trkpt>
      <trkpt lat="45.31945" lon="4.35195">
        <ele>876</ele>
        <time>2021-02-27T10:37:38Z</time>
      </trkpt>
      <trkpt lat="45.31939" lon="4.352">
        <ele>876</ele>
        <time>2021-02-27T10:37:39Z</time>
      </trkpt>
      <trkpt lat="45.31934" lon="4.35205">
        <ele>876</ele>
        <time>2021-02-27T10:37:40Z</time>
      </trkpt>
      <trkpt lat="45.31928" lon="4.3521">
        <ele>875</ele>
        <time>2021-02-27T10:37:41Z</time>
      </trkpt>
      <trkpt lat="45.31923" lon="4.35215">
        <ele>876</ele>
        <time>2021-02-27T10:37:42Z</time>
      </trkpt>
      <trkpt lat="45.31918" lon="4.3522">
        <ele>876</ele>
        <time>2021-02-27T10:37:43Z</time>
      </trkpt>
      <trkpt lat="45.31913" lon="4.35224">
        <ele>876</ele>
        <time>2021-02-27T10:37:44Z</time>
      </trkpt>
      <trkpt lat="45.31908" lon="4.3523">
        <ele>876</ele>
        <time>2021-02-27T10:37:45Z</time>
      </trkpt>
      <trkpt lat="45.31903" lon="4.35235">
        <ele>877</ele>
        <time>2021-02-27T10:37:46Z</time>
      </trkpt>
      <trkpt lat="45.31899" lon="4.3524">
        <ele>877</ele>
        <time>2021-02-27T10:37:47Z</time>
      </trkpt>
      <trkpt lat="45.31895" lon="4.35244">
        <ele>877</ele>
        <time>2021-02-27T10:37:48Z</time>
      </trkpt>
      <trkpt lat="45.31891" lon="4.35248">
        <ele>878</ele>
        <time>2021-02-27T10:37:49Z</time>
      </trkpt>
      <trkpt lat="45.31887" lon="4.35251">
        <ele>878</ele>
        <time>2021-02-27T10:37:50Z</time>
      </trkpt>
      <trkpt lat="45.31884" lon="4.35255">
        <ele>879</ele>
        <time>2021-02-27T10:37:51Z</time>
      </trkpt>
      <trkpt lat="45.31881" lon="4.35258">
        <ele>879</ele>
        <time>2021-02-27T10:37:52Z</time>
      </trkpt>
      <trkpt lat="45.31878" lon="4.35261">
        <ele>879</ele>
        <time>2021-02-27T10:37:53Z</time>
      </trkpt>
      <trkpt lat="45.31875" lon="4.35264">
        <ele>880</ele>
        <time>2021-02-27T10:37:54Z</time>
      </trkpt>
      <trkpt lat="45.31871" lon="4.35267">
        <ele>881</ele>
        <time>2021-02-27T10:37:56Z</time>
      </trkpt>
      <trkpt lat="45.31868" lon="4.35269">
        <ele>881</ele>
        <time>2021-02-27T10:37:57Z</time>
      </trkpt>
      <trkpt lat="45.31864" lon="4.35271">
        <ele>881</ele>
        <time>2021-02-27T10:37:58Z</time>
      </trkpt>
      <trkpt lat="45.31861" lon="4.35273">
        <ele>881</ele>
        <time>2021-02-27T10:37:59Z</time>
      </trkpt>
      <trkpt lat="45.31857" lon="4.35275">
        <ele>881</ele>
        <time>2021-02-27T10:38:00Z</time>
      </trkpt>
      <trkpt lat="45.31854" lon="4.35277">
        <ele>880</ele>
        <time>2021-02-27T10:38:01Z</time>
      </trkpt>
      <trkpt lat="45.31851" lon="4.35279">
        <ele>881</ele>
        <time>2021-02-27T10:38:02Z</time>
      </trkpt>
      <trkpt lat="45.31848" lon="4.35281">
        <ele>881</ele>
        <time>2021-02-27T10:38:03Z</time>
      </trkpt>
      <trkpt lat="45.31845" lon="4.35282">
        <ele>881</ele>
        <time>2021-02-27T10:38:04Z</time>
      </trkpt>
      <trkpt lat="45.31841" lon="4.35284">
        <ele>880</ele>
        <time>2021-02-27T10:38:05Z</time>
      </trkpt>
      <trkpt lat="45.31837" lon="4.35286">
        <ele>881</ele>
        <time>2021-02-27T10:38:06Z</time>
      </trkpt>
      <trkpt lat="45.31833" lon="4.35287">
        <ele>881</ele>
        <time>2021-02-27T10:38:07Z</time>
      </trkpt>
      <trkpt lat="45.31829" lon="4.35288">
        <ele>881</ele>
        <time>2021-02-27T10:38:08Z</time>
      </trkpt>
      <trkpt lat="45.31825" lon="4.35288">
        <ele>881</ele>
        <time>2021-02-27T10:38:09Z</time>
      </trkpt>
      <trkpt lat="45.31821" lon="4.35288">
        <ele>881</ele>
        <time>2021-02-27T10:38:10Z</time>
      </trkpt>
      <trkpt lat="45.31817" lon="4.35287">
        <ele>882</ele>
        <time>2021-02-27T10:38:11Z</time>
      </trkpt>
      <trkpt lat="45.31813" lon="4.35286">
        <ele>882</ele>
        <time>2021-02-27T10:38:12Z</time>
      </trkpt>
      <trkpt lat="45.31809" lon="4.35285">
        <ele>882</ele>
        <time>2021-02-27T10:38:13Z</time>
      </trkpt>
      <trkpt lat="45.31805" lon="4.35283">
        <ele>881</ele>
        <time>2021-02-27T10:38:14Z</time>
      </trkpt>
      <trkpt lat="45.31801" lon="4.35281">
        <ele>881</ele>
        <time>2021-02-27T10:38:15Z</time>
      </trkpt>
      <trkpt lat="45.31798" lon="4.3528">
        <ele>881</ele>
        <time>2021-02-27T10:38:16Z</time>
      </trkpt>
      <trkpt lat="45.31793" lon="4.35279">
        <ele>881</ele>
        <time>2021-02-27T10:38:17Z</time>
      </trkpt>
      <trkpt lat="45.31788" lon="4.35277">
        <ele>881</ele>
        <time>2021-02-27T10:38:18Z</time>
      </trkpt>
      <trkpt lat="45.31785" lon="4.35276">
        <ele>881</ele>
        <time>2021-02-27T10:38:19Z</time>
      </trkpt>
      <trkpt lat="45.31781" lon="4.35274">
        <ele>882</ele>
        <time>2021-02-27T10:38:20Z</time>
      </trkpt>
      <trkpt lat="45.31778" lon="4.35273">
        <ele>882</ele>
        <time>2021-02-27T10:38:21Z</time>
      </trkpt>
      <trkpt lat="45.31775" lon="4.35272">
        <ele>882</ele>
        <time>2021-02-27T10:38:22Z</time>
      </trkpt>
      <trkpt lat="45.31771" lon="4.35271">
        <ele>882</ele>
        <time>2021-02-27T10:38:23Z</time>
      </trkpt>
      <trkpt lat="45.31768" lon="4.35271">
        <ele>882</ele>
        <time>2021-02-27T10:38:24Z</time>
      </trkpt>
      <trkpt lat="45.31764" lon="4.3527">
        <ele>881</ele>
        <time>2021-02-27T10:38:25Z</time>
      </trkpt>
      <trkpt lat="45.31759" lon="4.35269">
        <ele>881</ele>
        <time>2021-02-27T10:38:26Z</time>
      </trkpt>
      <trkpt lat="45.31755" lon="4.35268">
        <ele>881</ele>
        <time>2021-02-27T10:38:27Z</time>
      </trkpt>
      <trkpt lat="45.31751" lon="4.35268">
        <ele>881</ele>
        <time>2021-02-27T10:38:28Z</time>
      </trkpt>
      <trkpt lat="45.31746" lon="4.35266">
        <ele>881</ele>
        <time>2021-02-27T10:38:29Z</time>
      </trkpt>
      <trkpt lat="45.31742" lon="4.35265">
        <ele>881</ele>
        <time>2021-02-27T10:38:30Z</time>
      </trkpt>
      <trkpt lat="45.31738" lon="4.35262">
        <ele>881</ele>
        <time>2021-02-27T10:38:31Z</time>
      </trkpt>
      <trkpt lat="45.31734" lon="4.35258">
        <ele>881</ele>
        <time>2021-02-27T10:38:32Z</time>
      </trkpt>
      <trkpt lat="45.31731" lon="4.35254">
        <ele>881</ele>
        <time>2021-02-27T10:38:33Z</time>
      </trkpt>
      <trkpt lat="45.31728" lon="4.3525">
        <ele>880</ele>
        <time>2021-02-27T10:38:34Z</time>
      </trkpt>
      <trkpt lat="45.31726" lon="4.35244">
        <ele>881</ele>
        <time>2021-02-27T10:38:35Z</time>
      </trkpt>
      <trkpt lat="45.31725" lon="4.35238">
        <ele>880</ele>
        <time>2021-02-27T10:38:36Z</time>
      </trkpt>
      <trkpt lat="45.31725" lon="4.35232">
        <ele>880</ele>
        <time>2021-02-27T10:38:37Z</time>
      </trkpt>
      <trkpt lat="45.31725" lon="4.35225">
        <ele>881</ele>
        <time>2021-02-27T10:38:38Z</time>
      </trkpt>
      <trkpt lat="45.31726" lon="4.35219">
        <ele>881</ele>
        <time>2021-02-27T10:38:39Z</time>
      </trkpt>
      <trkpt lat="45.31728" lon="4.35214">
        <ele>882</ele>
        <time>2021-02-27T10:38:40Z</time>
      </trkpt>
      <trkpt lat="45.31729" lon="4.3521">
        <ele>882</ele>
        <time>2021-02-27T10:38:41Z</time>
      </trkpt>
      <trkpt lat="45.31731" lon="4.35206">
        <ele>883</ele>
        <time>2021-02-27T10:38:42Z</time>
      </trkpt>
      <trkpt lat="45.31732" lon="4.35202">
        <ele>883</ele>
        <time>2021-02-27T10:38:43Z</time>
      </trkpt>
      <trkpt lat="45.31734" lon="4.35197">
        <ele>883</ele>
        <time>2021-02-27T10:38:45Z</time>
      </trkpt>
      <trkpt lat="45.31735" lon="4.35198">
        <ele>885</ele>
        <time>2021-02-27T10:38:49Z</time>
      </trkpt>
      <trkpt lat="45.31739" lon="4.35201">
        <ele>885</ele>
        <time>2021-02-27T10:38:57Z</time>
      </trkpt>
      <trkpt lat="45.31743" lon="4.35202">
        <ele>885</ele>
        <time>2021-02-27T10:39:00Z</time>
      </trkpt>
      <trkpt lat="45.31748" lon="4.352">
        <ele>886</ele>
        <time>2021-02-27T10:39:07Z</time>
      </trkpt>
    </trkseg>
  </trk>
</gpx>